<?xml version="1.0" encoding="UTF-8" standalone="no" ?>
<gpx xmlns="http://www.topografix.com/GPX/1/1" xmlns:xsi="http://www.w3.org/2001/XMLSchema-instance" xsi:schemaLocation="http://www.topografix.com/GPX/1/1 http://www.topografix.com/GPX/1/1/gpx.xsd" version="1.1" creator="VisuGPX - https://www.visugpx.com">
  <metadata>
    <name>Rando Clairvivre 2013 45 km</name>
    <desc><![CDATA[trace de 45 km  de la rando de Clairvivre]]></desc>
  </metadata>
  <trk>
    <name><![CDATA[45]]></name>
    <trkseg>
      <trkpt lat="45.31595" lon="1.22877">
        <ele>250.178741</ele>
        <time>2011-05-08T06:05:11Z</time>
      </trkpt>
      <trkpt lat="45.31595" lon="1.22877">
        <ele>250.559067</ele>
        <time>2011-05-08T06:05:12Z</time>
      </trkpt>
      <trkpt lat="45.31587" lon="1.22896">
        <ele>253.5</ele>
        <time>2011-05-08T06:05:25Z</time>
      </trkpt>
      <trkpt lat="45.31579" lon="1.22902">
        <ele>253.399994</ele>
        <time>2011-05-08T06:05:28Z</time>
      </trkpt>
      <trkpt lat="45.31575" lon="1.22902">
        <ele>253.199997</ele>
        <time>2011-05-08T06:05:29Z</time>
      </trkpt>
      <trkpt lat="45.3157" lon="1.22903">
        <ele>252.800003</ele>
        <time>2011-05-08T06:05:30Z</time>
      </trkpt>
      <trkpt lat="45.31564" lon="1.22904">
        <ele>252.5</ele>
        <time>2011-05-08T06:05:31Z</time>
      </trkpt>
      <trkpt lat="45.31558" lon="1.22904">
        <ele>252.100006</ele>
        <time>2011-05-08T06:05:32Z</time>
      </trkpt>
      <trkpt lat="45.31552" lon="1.22904">
        <ele>251.699997</ele>
        <time>2011-05-08T06:05:33Z</time>
      </trkpt>
      <trkpt lat="45.31547" lon="1.22902">
        <ele>251.399994</ele>
        <time>2011-05-08T06:05:34Z</time>
      </trkpt>
      <trkpt lat="45.31541" lon="1.229">
        <ele>251.100006</ele>
        <time>2011-05-08T06:05:35Z</time>
      </trkpt>
      <trkpt lat="45.31536" lon="1.22897">
        <ele>250.800003</ele>
        <time>2011-05-08T06:05:36Z</time>
      </trkpt>
      <trkpt lat="45.31532" lon="1.22893">
        <ele>250.699997</ele>
        <time>2011-05-08T06:05:37Z</time>
      </trkpt>
      <trkpt lat="45.31524" lon="1.22887">
        <ele>250.600006</ele>
        <time>2011-05-08T06:05:39Z</time>
      </trkpt>
      <trkpt lat="45.31519" lon="1.22883">
        <ele>251</ele>
        <time>2011-05-08T06:05:41Z</time>
      </trkpt>
      <trkpt lat="45.31513" lon="1.2288">
        <ele>251.899994</ele>
        <time>2011-05-08T06:05:43Z</time>
      </trkpt>
      <trkpt lat="45.31507" lon="1.22876">
        <ele>251.699997</ele>
        <time>2011-05-08T06:05:45Z</time>
      </trkpt>
      <trkpt lat="45.315" lon="1.22874">
        <ele>251.899994</ele>
        <time>2011-05-08T06:05:47Z</time>
      </trkpt>
      <trkpt lat="45.31492" lon="1.22869">
        <ele>252</ele>
        <time>2011-05-08T06:05:49Z</time>
      </trkpt>
      <trkpt lat="45.31488" lon="1.22866">
        <ele>252.100006</ele>
        <time>2011-05-08T06:05:50Z</time>
      </trkpt>
      <trkpt lat="45.31484" lon="1.22863">
        <ele>251.800003</ele>
        <time>2011-05-08T06:05:51Z</time>
      </trkpt>
      <trkpt lat="45.31479" lon="1.2286">
        <ele>251.600006</ele>
        <time>2011-05-08T06:05:52Z</time>
      </trkpt>
      <trkpt lat="45.31475" lon="1.22858">
        <ele>251.699997</ele>
        <time>2011-05-08T06:05:53Z</time>
      </trkpt>
      <trkpt lat="45.3147" lon="1.22855">
        <ele>251.699997</ele>
        <time>2011-05-08T06:05:54Z</time>
      </trkpt>
      <trkpt lat="45.31466" lon="1.22851">
        <ele>251.800003</ele>
        <time>2011-05-08T06:05:55Z</time>
      </trkpt>
      <trkpt lat="45.31461" lon="1.22848">
        <ele>251.5</ele>
        <time>2011-05-08T06:05:56Z</time>
      </trkpt>
      <trkpt lat="45.31456" lon="1.22845">
        <ele>251.199997</ele>
        <time>2011-05-08T06:05:57Z</time>
      </trkpt>
      <trkpt lat="45.31451" lon="1.22842">
        <ele>250.600006</ele>
        <time>2011-05-08T06:05:58Z</time>
      </trkpt>
      <trkpt lat="45.31446" lon="1.22838">
        <ele>250.199997</ele>
        <time>2011-05-08T06:05:59Z</time>
      </trkpt>
      <trkpt lat="45.3144" lon="1.22835">
        <ele>250.100006</ele>
        <time>2011-05-08T06:06:00Z</time>
      </trkpt>
      <trkpt lat="45.31435" lon="1.22832">
        <ele>250</ele>
        <time>2011-05-08T06:06:01Z</time>
      </trkpt>
      <trkpt lat="45.3143" lon="1.22829">
        <ele>250</ele>
        <time>2011-05-08T06:06:02Z</time>
      </trkpt>
      <trkpt lat="45.31423" lon="1.22825">
        <ele>249.600006</ele>
        <time>2011-05-08T06:06:04Z</time>
      </trkpt>
      <trkpt lat="45.31415" lon="1.22821">
        <ele>248.100006</ele>
        <time>2011-05-08T06:06:15Z</time>
      </trkpt>
      <trkpt lat="45.31414" lon="1.2282">
        <ele>248</ele>
        <time>2011-05-08T06:06:16Z</time>
      </trkpt>
      <trkpt lat="45.31402" lon="1.22812">
        <ele>247.699997</ele>
        <time>2011-05-08T06:06:21Z</time>
      </trkpt>
      <trkpt lat="45.31394" lon="1.22807">
        <ele>246.899994</ele>
        <time>2011-05-08T06:06:23Z</time>
      </trkpt>
      <trkpt lat="45.31389" lon="1.22804">
        <ele>246.399994</ele>
        <time>2011-05-08T06:06:24Z</time>
      </trkpt>
      <trkpt lat="45.31385" lon="1.22802">
        <ele>246.100006</ele>
        <time>2011-05-08T06:06:25Z</time>
      </trkpt>
      <trkpt lat="45.31379" lon="1.22798">
        <ele>245.899994</ele>
        <time>2011-05-08T06:06:26Z</time>
      </trkpt>
      <trkpt lat="45.31374" lon="1.22796">
        <ele>245.399994</ele>
        <time>2011-05-08T06:06:27Z</time>
      </trkpt>
      <trkpt lat="45.31368" lon="1.22792">
        <ele>245.100006</ele>
        <time>2011-05-08T06:06:28Z</time>
      </trkpt>
      <trkpt lat="45.31362" lon="1.22788">
        <ele>244.800003</ele>
        <time>2011-05-08T06:06:29Z</time>
      </trkpt>
      <trkpt lat="45.31356" lon="1.22785">
        <ele>244.5</ele>
        <time>2011-05-08T06:06:30Z</time>
      </trkpt>
      <trkpt lat="45.3135" lon="1.22781">
        <ele>244</ele>
        <time>2011-05-08T06:06:31Z</time>
      </trkpt>
      <trkpt lat="45.31343" lon="1.22777">
        <ele>243.5</ele>
        <time>2011-05-08T06:06:32Z</time>
      </trkpt>
      <trkpt lat="45.31336" lon="1.22773">
        <ele>243.199997</ele>
        <time>2011-05-08T06:06:33Z</time>
      </trkpt>
      <trkpt lat="45.31328" lon="1.22768">
        <ele>242.5</ele>
        <time>2011-05-08T06:06:34Z</time>
      </trkpt>
      <trkpt lat="45.31321" lon="1.22764">
        <ele>242.100006</ele>
        <time>2011-05-08T06:06:35Z</time>
      </trkpt>
      <trkpt lat="45.31313" lon="1.22759">
        <ele>241.800003</ele>
        <time>2011-05-08T06:06:36Z</time>
      </trkpt>
      <trkpt lat="45.31306" lon="1.22755">
        <ele>241.600006</ele>
        <time>2011-05-08T06:06:37Z</time>
      </trkpt>
      <trkpt lat="45.31299" lon="1.22751">
        <ele>241.399994</ele>
        <time>2011-05-08T06:06:38Z</time>
      </trkpt>
      <trkpt lat="45.31292" lon="1.22747">
        <ele>241.100006</ele>
        <time>2011-05-08T06:06:39Z</time>
      </trkpt>
      <trkpt lat="45.31285" lon="1.22742">
        <ele>240.800003</ele>
        <time>2011-05-08T06:06:40Z</time>
      </trkpt>
      <trkpt lat="45.31278" lon="1.22738">
        <ele>240.600006</ele>
        <time>2011-05-08T06:06:41Z</time>
      </trkpt>
      <trkpt lat="45.31271" lon="1.22734">
        <ele>240.5</ele>
        <time>2011-05-08T06:06:42Z</time>
      </trkpt>
      <trkpt lat="45.31264" lon="1.22729">
        <ele>240.199997</ele>
        <time>2011-05-08T06:06:43Z</time>
      </trkpt>
      <trkpt lat="45.31257" lon="1.22725">
        <ele>239.899994</ele>
        <time>2011-05-08T06:06:44Z</time>
      </trkpt>
      <trkpt lat="45.3125" lon="1.22722">
        <ele>239.699997</ele>
        <time>2011-05-08T06:06:45Z</time>
      </trkpt>
      <trkpt lat="45.31244" lon="1.22717">
        <ele>239.199997</ele>
        <time>2011-05-08T06:06:46Z</time>
      </trkpt>
      <trkpt lat="45.31237" lon="1.22714">
        <ele>238.899994</ele>
        <time>2011-05-08T06:06:47Z</time>
      </trkpt>
      <trkpt lat="45.31231" lon="1.2271">
        <ele>238.699997</ele>
        <time>2011-05-08T06:06:48Z</time>
      </trkpt>
      <trkpt lat="45.31224" lon="1.22706">
        <ele>238.5</ele>
        <time>2011-05-08T06:06:49Z</time>
      </trkpt>
      <trkpt lat="45.31218" lon="1.22702">
        <ele>238.399994</ele>
        <time>2011-05-08T06:06:50Z</time>
      </trkpt>
      <trkpt lat="45.31212" lon="1.22699">
        <ele>238.399994</ele>
        <time>2011-05-08T06:06:51Z</time>
      </trkpt>
      <trkpt lat="45.31205" lon="1.22695">
        <ele>238.300003</ele>
        <time>2011-05-08T06:06:52Z</time>
      </trkpt>
      <trkpt lat="45.31198" lon="1.22691">
        <ele>238</ele>
        <time>2011-05-08T06:06:53Z</time>
      </trkpt>
      <trkpt lat="45.31192" lon="1.22686">
        <ele>237.699997</ele>
        <time>2011-05-08T06:06:54Z</time>
      </trkpt>
      <trkpt lat="45.31186" lon="1.22682">
        <ele>237.5</ele>
        <time>2011-05-08T06:06:55Z</time>
      </trkpt>
      <trkpt lat="45.31179" lon="1.22678">
        <ele>237.399994</ele>
        <time>2011-05-08T06:06:56Z</time>
      </trkpt>
      <trkpt lat="45.31174" lon="1.22673">
        <ele>237.100006</ele>
        <time>2011-05-08T06:06:57Z</time>
      </trkpt>
      <trkpt lat="45.31169" lon="1.22667">
        <ele>237</ele>
        <time>2011-05-08T06:06:58Z</time>
      </trkpt>
      <trkpt lat="45.31166" lon="1.22659">
        <ele>236.800003</ele>
        <time>2011-05-08T06:06:59Z</time>
      </trkpt>
      <trkpt lat="45.31165" lon="1.22651">
        <ele>236.699997</ele>
        <time>2011-05-08T06:07:00Z</time>
      </trkpt>
      <trkpt lat="45.31166" lon="1.22642">
        <ele>236.5</ele>
        <time>2011-05-08T06:07:01Z</time>
      </trkpt>
      <trkpt lat="45.31168" lon="1.22635">
        <ele>236.600006</ele>
        <time>2011-05-08T06:07:02Z</time>
      </trkpt>
      <trkpt lat="45.3117" lon="1.22628">
        <ele>236.699997</ele>
        <time>2011-05-08T06:07:03Z</time>
      </trkpt>
      <trkpt lat="45.31171" lon="1.22622">
        <ele>236.699997</ele>
        <time>2011-05-08T06:07:04Z</time>
      </trkpt>
      <trkpt lat="45.31175" lon="1.22611">
        <ele>236</ele>
        <time>2011-05-08T06:07:06Z</time>
      </trkpt>
      <trkpt lat="45.31178" lon="1.226">
        <ele>236.300003</ele>
        <time>2011-05-08T06:07:08Z</time>
      </trkpt>
      <trkpt lat="45.31182" lon="1.2259">
        <ele>236</ele>
        <time>2011-05-08T06:07:10Z</time>
      </trkpt>
      <trkpt lat="45.31185" lon="1.22579">
        <ele>236.800003</ele>
        <time>2011-05-08T06:07:12Z</time>
      </trkpt>
      <trkpt lat="45.31188" lon="1.22567">
        <ele>237.5</ele>
        <time>2011-05-08T06:07:14Z</time>
      </trkpt>
      <trkpt lat="45.3119" lon="1.2256">
        <ele>237.600006</ele>
        <time>2011-05-08T06:07:15Z</time>
      </trkpt>
      <trkpt lat="45.31191" lon="1.22554">
        <ele>237.600006</ele>
        <time>2011-05-08T06:07:16Z</time>
      </trkpt>
      <trkpt lat="45.31193" lon="1.22548">
        <ele>237.600006</ele>
        <time>2011-05-08T06:07:17Z</time>
      </trkpt>
      <trkpt lat="45.31195" lon="1.22541">
        <ele>237.600006</ele>
        <time>2011-05-08T06:07:18Z</time>
      </trkpt>
      <trkpt lat="45.31197" lon="1.22535">
        <ele>237.5</ele>
        <time>2011-05-08T06:07:19Z</time>
      </trkpt>
      <trkpt lat="45.31199" lon="1.22528">
        <ele>237.399994</ele>
        <time>2011-05-08T06:07:20Z</time>
      </trkpt>
      <trkpt lat="45.31202" lon="1.22521">
        <ele>237.199997</ele>
        <time>2011-05-08T06:07:21Z</time>
      </trkpt>
      <trkpt lat="45.31204" lon="1.22513">
        <ele>237.100006</ele>
        <time>2011-05-08T06:07:22Z</time>
      </trkpt>
      <trkpt lat="45.31207" lon="1.22505">
        <ele>237</ele>
        <time>2011-05-08T06:07:23Z</time>
      </trkpt>
      <trkpt lat="45.3121" lon="1.22496">
        <ele>236.300003</ele>
        <time>2011-05-08T06:07:24Z</time>
      </trkpt>
      <trkpt lat="45.31213" lon="1.22486">
        <ele>235.699997</ele>
        <time>2011-05-08T06:07:25Z</time>
      </trkpt>
      <trkpt lat="45.31216" lon="1.22475">
        <ele>234.800003</ele>
        <time>2011-05-08T06:07:26Z</time>
      </trkpt>
      <trkpt lat="45.3122" lon="1.22463">
        <ele>234.100006</ele>
        <time>2011-05-08T06:07:27Z</time>
      </trkpt>
      <trkpt lat="45.31224" lon="1.22452">
        <ele>233</ele>
        <time>2011-05-08T06:07:28Z</time>
      </trkpt>
      <trkpt lat="45.31227" lon="1.2244">
        <ele>232.100006</ele>
        <time>2011-05-08T06:07:29Z</time>
      </trkpt>
      <trkpt lat="45.31231" lon="1.22428">
        <ele>231.399994</ele>
        <time>2011-05-08T06:07:30Z</time>
      </trkpt>
      <trkpt lat="45.31234" lon="1.22418">
        <ele>231</ele>
        <time>2011-05-08T06:07:31Z</time>
      </trkpt>
      <trkpt lat="45.31238" lon="1.22408">
        <ele>230.600006</ele>
        <time>2011-05-08T06:07:32Z</time>
      </trkpt>
      <trkpt lat="45.3124" lon="1.224">
        <ele>230.5</ele>
        <time>2011-05-08T06:07:33Z</time>
      </trkpt>
      <trkpt lat="45.31243" lon="1.22392">
        <ele>230.5</ele>
        <time>2011-05-08T06:07:34Z</time>
      </trkpt>
      <trkpt lat="45.31245" lon="1.22386">
        <ele>230.600006</ele>
        <time>2011-05-08T06:07:35Z</time>
      </trkpt>
      <trkpt lat="45.31248" lon="1.22375">
        <ele>230.600006</ele>
        <time>2011-05-08T06:07:37Z</time>
      </trkpt>
      <trkpt lat="45.31251" lon="1.22366">
        <ele>231</ele>
        <time>2011-05-08T06:07:39Z</time>
      </trkpt>
      <trkpt lat="45.31254" lon="1.22357">
        <ele>231.899994</ele>
        <time>2011-05-08T06:07:41Z</time>
      </trkpt>
      <trkpt lat="45.31257" lon="1.22346">
        <ele>232.600006</ele>
        <time>2011-05-08T06:07:44Z</time>
      </trkpt>
      <trkpt lat="45.3126" lon="1.22335">
        <ele>233.5</ele>
        <time>2011-05-08T06:07:47Z</time>
      </trkpt>
      <trkpt lat="45.31263" lon="1.22325">
        <ele>233.600006</ele>
        <time>2011-05-08T06:07:50Z</time>
      </trkpt>
      <trkpt lat="45.31266" lon="1.22315">
        <ele>233.699997</ele>
        <time>2011-05-08T06:07:53Z</time>
      </trkpt>
      <trkpt lat="45.31268" lon="1.22305">
        <ele>235</ele>
        <time>2011-05-08T06:07:56Z</time>
      </trkpt>
      <trkpt lat="45.3127" lon="1.22295">
        <ele>235.600006</ele>
        <time>2011-05-08T06:07:59Z</time>
      </trkpt>
      <trkpt lat="45.31272" lon="1.22283">
        <ele>236.199997</ele>
        <time>2011-05-08T06:08:03Z</time>
      </trkpt>
      <trkpt lat="45.31275" lon="1.22273">
        <ele>236.800003</ele>
        <time>2011-05-08T06:08:06Z</time>
      </trkpt>
      <trkpt lat="45.31277" lon="1.22263">
        <ele>237.399994</ele>
        <time>2011-05-08T06:08:09Z</time>
      </trkpt>
      <trkpt lat="45.31279" lon="1.22253">
        <ele>237.899994</ele>
        <time>2011-05-08T06:08:12Z</time>
      </trkpt>
      <trkpt lat="45.31281" lon="1.22243">
        <ele>237.899994</ele>
        <time>2011-05-08T06:08:15Z</time>
      </trkpt>
      <trkpt lat="45.31284" lon="1.22232">
        <ele>238.199997</ele>
        <time>2011-05-08T06:08:18Z</time>
      </trkpt>
      <trkpt lat="45.31285" lon="1.22229">
        <ele>238.199997</ele>
        <time>2011-05-08T06:08:19Z</time>
      </trkpt>
      <trkpt lat="45.31289" lon="1.22211">
        <ele>239.199997</ele>
        <time>2011-05-08T06:08:24Z</time>
      </trkpt>
      <trkpt lat="45.3129" lon="1.222">
        <ele>239.100006</ele>
        <time>2011-05-08T06:08:27Z</time>
      </trkpt>
      <trkpt lat="45.31286" lon="1.22188">
        <ele>239.100006</ele>
        <time>2011-05-08T06:08:30Z</time>
      </trkpt>
      <trkpt lat="45.31284" lon="1.2218">
        <ele>239.100006</ele>
        <time>2011-05-08T06:08:32Z</time>
      </trkpt>
      <trkpt lat="45.31281" lon="1.2217">
        <ele>239.100006</ele>
        <time>2011-05-08T06:08:34Z</time>
      </trkpt>
      <trkpt lat="45.31279" lon="1.22161">
        <ele>239.399994</ele>
        <time>2011-05-08T06:08:36Z</time>
      </trkpt>
      <trkpt lat="45.31277" lon="1.22152">
        <ele>238.899994</ele>
        <time>2011-05-08T06:08:38Z</time>
      </trkpt>
      <trkpt lat="45.31274" lon="1.22143">
        <ele>238.100006</ele>
        <time>2011-05-08T06:08:41Z</time>
      </trkpt>
      <trkpt lat="45.31271" lon="1.22135">
        <ele>238.100006</ele>
        <time>2011-05-08T06:08:43Z</time>
      </trkpt>
      <trkpt lat="45.31269" lon="1.22125">
        <ele>237.699997</ele>
        <time>2011-05-08T06:08:45Z</time>
      </trkpt>
      <trkpt lat="45.31267" lon="1.22119">
        <ele>237.600006</ele>
        <time>2011-05-08T06:08:46Z</time>
      </trkpt>
      <trkpt lat="45.31266" lon="1.22112">
        <ele>237.600006</ele>
        <time>2011-05-08T06:08:47Z</time>
      </trkpt>
      <trkpt lat="45.31264" lon="1.22105">
        <ele>237.600006</ele>
        <time>2011-05-08T06:08:48Z</time>
      </trkpt>
      <trkpt lat="45.31261" lon="1.22097">
        <ele>237.300003</ele>
        <time>2011-05-08T06:08:49Z</time>
      </trkpt>
      <trkpt lat="45.31259" lon="1.22088">
        <ele>237</ele>
        <time>2011-05-08T06:08:50Z</time>
      </trkpt>
      <trkpt lat="45.31256" lon="1.22078">
        <ele>235.899994</ele>
        <time>2011-05-08T06:08:51Z</time>
      </trkpt>
      <trkpt lat="45.31253" lon="1.22068">
        <ele>235</ele>
        <time>2011-05-08T06:08:52Z</time>
      </trkpt>
      <trkpt lat="45.3125" lon="1.22057">
        <ele>234.399994</ele>
        <time>2011-05-08T06:08:53Z</time>
      </trkpt>
      <trkpt lat="45.31246" lon="1.22045">
        <ele>233.5</ele>
        <time>2011-05-08T06:08:54Z</time>
      </trkpt>
      <trkpt lat="45.31243" lon="1.22032">
        <ele>232.800003</ele>
        <time>2011-05-08T06:08:55Z</time>
      </trkpt>
      <trkpt lat="45.31239" lon="1.2202">
        <ele>231.199997</ele>
        <time>2011-05-08T06:08:56Z</time>
      </trkpt>
      <trkpt lat="45.31235" lon="1.22007">
        <ele>230</ele>
        <time>2011-05-08T06:08:57Z</time>
      </trkpt>
      <trkpt lat="45.31231" lon="1.21994">
        <ele>229.100006</ele>
        <time>2011-05-08T06:08:58Z</time>
      </trkpt>
      <trkpt lat="45.31227" lon="1.21982">
        <ele>228.300003</ele>
        <time>2011-05-08T06:08:59Z</time>
      </trkpt>
      <trkpt lat="45.31222" lon="1.2197">
        <ele>227.800003</ele>
        <time>2011-05-08T06:09:00Z</time>
      </trkpt>
      <trkpt lat="45.31218" lon="1.21959">
        <ele>227.199997</ele>
        <time>2011-05-08T06:09:01Z</time>
      </trkpt>
      <trkpt lat="45.31214" lon="1.21947">
        <ele>226.800003</ele>
        <time>2011-05-08T06:09:02Z</time>
      </trkpt>
      <trkpt lat="45.31211" lon="1.21936">
        <ele>226.300003</ele>
        <time>2011-05-08T06:09:03Z</time>
      </trkpt>
      <trkpt lat="45.31208" lon="1.21924">
        <ele>225.800003</ele>
        <time>2011-05-08T06:09:04Z</time>
      </trkpt>
      <trkpt lat="45.31208" lon="1.21912">
        <ele>225.5</ele>
        <time>2011-05-08T06:09:05Z</time>
      </trkpt>
      <trkpt lat="45.3121" lon="1.21902">
        <ele>225.399994</ele>
        <time>2011-05-08T06:09:06Z</time>
      </trkpt>
      <trkpt lat="45.31211" lon="1.21893">
        <ele>225.300003</ele>
        <time>2011-05-08T06:09:07Z</time>
      </trkpt>
      <trkpt lat="45.31213" lon="1.21884">
        <ele>225.199997</ele>
        <time>2011-05-08T06:09:08Z</time>
      </trkpt>
      <trkpt lat="45.31214" lon="1.21875">
        <ele>225.199997</ele>
        <time>2011-05-08T06:09:09Z</time>
      </trkpt>
      <trkpt lat="45.31216" lon="1.21867">
        <ele>225.300003</ele>
        <time>2011-05-08T06:09:10Z</time>
      </trkpt>
      <trkpt lat="45.31217" lon="1.21858">
        <ele>225.300003</ele>
        <time>2011-05-08T06:09:11Z</time>
      </trkpt>
      <trkpt lat="45.31218" lon="1.21849">
        <ele>225.399994</ele>
        <time>2011-05-08T06:09:12Z</time>
      </trkpt>
      <trkpt lat="45.31218" lon="1.21839">
        <ele>225.100006</ele>
        <time>2011-05-08T06:09:13Z</time>
      </trkpt>
      <trkpt lat="45.31218" lon="1.21829">
        <ele>225</ele>
        <time>2011-05-08T06:09:14Z</time>
      </trkpt>
      <trkpt lat="45.31218" lon="1.21819">
        <ele>224.5</ele>
        <time>2011-05-08T06:09:15Z</time>
      </trkpt>
      <trkpt lat="45.31217" lon="1.21809">
        <ele>224.100006</ele>
        <time>2011-05-08T06:09:16Z</time>
      </trkpt>
      <trkpt lat="45.31215" lon="1.21799">
        <ele>224</ele>
        <time>2011-05-08T06:09:17Z</time>
      </trkpt>
      <trkpt lat="45.31211" lon="1.2179">
        <ele>223.899994</ele>
        <time>2011-05-08T06:09:18Z</time>
      </trkpt>
      <trkpt lat="45.31208" lon="1.21781">
        <ele>223.800003</ele>
        <time>2011-05-08T06:09:19Z</time>
      </trkpt>
      <trkpt lat="45.31205" lon="1.21771">
        <ele>223.800003</ele>
        <time>2011-05-08T06:09:20Z</time>
      </trkpt>
      <trkpt lat="45.31204" lon="1.21761">
        <ele>223.800003</ele>
        <time>2011-05-08T06:09:21Z</time>
      </trkpt>
      <trkpt lat="45.31202" lon="1.21752">
        <ele>223.899994</ele>
        <time>2011-05-08T06:09:22Z</time>
      </trkpt>
      <trkpt lat="45.312" lon="1.21742">
        <ele>224</ele>
        <time>2011-05-08T06:09:23Z</time>
      </trkpt>
      <trkpt lat="45.31198" lon="1.21732">
        <ele>224</ele>
        <time>2011-05-08T06:09:24Z</time>
      </trkpt>
      <trkpt lat="45.31197" lon="1.21723">
        <ele>223.699997</ele>
        <time>2011-05-08T06:09:25Z</time>
      </trkpt>
      <trkpt lat="45.31197" lon="1.21713">
        <ele>223.399994</ele>
        <time>2011-05-08T06:09:26Z</time>
      </trkpt>
      <trkpt lat="45.31197" lon="1.21703">
        <ele>223.300003</ele>
        <time>2011-05-08T06:09:27Z</time>
      </trkpt>
      <trkpt lat="45.31198" lon="1.21693">
        <ele>223.300003</ele>
        <time>2011-05-08T06:09:28Z</time>
      </trkpt>
      <trkpt lat="45.31199" lon="1.21684">
        <ele>223.399994</ele>
        <time>2011-05-08T06:09:29Z</time>
      </trkpt>
      <trkpt lat="45.31202" lon="1.21675">
        <ele>223.5</ele>
        <time>2011-05-08T06:09:30Z</time>
      </trkpt>
      <trkpt lat="45.31206" lon="1.21668">
        <ele>223.600006</ele>
        <time>2011-05-08T06:09:31Z</time>
      </trkpt>
      <trkpt lat="45.3121" lon="1.21661">
        <ele>223.399994</ele>
        <time>2011-05-08T06:09:32Z</time>
      </trkpt>
      <trkpt lat="45.31214" lon="1.21655">
        <ele>223.300003</ele>
        <time>2011-05-08T06:09:33Z</time>
      </trkpt>
      <trkpt lat="45.31219" lon="1.2165">
        <ele>223.399994</ele>
        <time>2011-05-08T06:09:34Z</time>
      </trkpt>
      <trkpt lat="45.31224" lon="1.21644">
        <ele>223.399994</ele>
        <time>2011-05-08T06:09:35Z</time>
      </trkpt>
      <trkpt lat="45.31228" lon="1.21639">
        <ele>223.300003</ele>
        <time>2011-05-08T06:09:36Z</time>
      </trkpt>
      <trkpt lat="45.31233" lon="1.21634">
        <ele>223.300003</ele>
        <time>2011-05-08T06:09:37Z</time>
      </trkpt>
      <trkpt lat="45.31238" lon="1.2163">
        <ele>223.199997</ele>
        <time>2011-05-08T06:09:38Z</time>
      </trkpt>
      <trkpt lat="45.31244" lon="1.21627">
        <ele>223.300003</ele>
        <time>2011-05-08T06:09:39Z</time>
      </trkpt>
      <trkpt lat="45.31249" lon="1.21626">
        <ele>223.399994</ele>
        <time>2011-05-08T06:09:40Z</time>
      </trkpt>
      <trkpt lat="45.31255" lon="1.21625">
        <ele>223.300003</ele>
        <time>2011-05-08T06:09:41Z</time>
      </trkpt>
      <trkpt lat="45.3126" lon="1.21625">
        <ele>223.300003</ele>
        <time>2011-05-08T06:09:42Z</time>
      </trkpt>
      <trkpt lat="45.31266" lon="1.21625">
        <ele>223.199997</ele>
        <time>2011-05-08T06:09:43Z</time>
      </trkpt>
      <trkpt lat="45.31271" lon="1.21626">
        <ele>223.300003</ele>
        <time>2011-05-08T06:09:44Z</time>
      </trkpt>
      <trkpt lat="45.31276" lon="1.21626">
        <ele>223.399994</ele>
        <time>2011-05-08T06:09:45Z</time>
      </trkpt>
      <trkpt lat="45.31282" lon="1.21626">
        <ele>223.100006</ele>
        <time>2011-05-08T06:09:46Z</time>
      </trkpt>
      <trkpt lat="45.31287" lon="1.21624">
        <ele>222.899994</ele>
        <time>2011-05-08T06:09:47Z</time>
      </trkpt>
      <trkpt lat="45.31292" lon="1.2162">
        <ele>223.199997</ele>
        <time>2011-05-08T06:09:48Z</time>
      </trkpt>
      <trkpt lat="45.31297" lon="1.21615">
        <ele>223.399994</ele>
        <time>2011-05-08T06:09:49Z</time>
      </trkpt>
      <trkpt lat="45.31301" lon="1.2161">
        <ele>223.600006</ele>
        <time>2011-05-08T06:09:50Z</time>
      </trkpt>
      <trkpt lat="45.31304" lon="1.21603">
        <ele>223.5</ele>
        <time>2011-05-08T06:09:51Z</time>
      </trkpt>
      <trkpt lat="45.31307" lon="1.21596">
        <ele>223.5</ele>
        <time>2011-05-08T06:09:52Z</time>
      </trkpt>
      <trkpt lat="45.3131" lon="1.21589">
        <ele>223.899994</ele>
        <time>2011-05-08T06:09:53Z</time>
      </trkpt>
      <trkpt lat="45.31312" lon="1.21582">
        <ele>224.300003</ele>
        <time>2011-05-08T06:09:54Z</time>
      </trkpt>
      <trkpt lat="45.31313" lon="1.21574">
        <ele>224.100006</ele>
        <time>2011-05-08T06:09:55Z</time>
      </trkpt>
      <trkpt lat="45.31314" lon="1.21566">
        <ele>224</ele>
        <time>2011-05-08T06:09:56Z</time>
      </trkpt>
      <trkpt lat="45.31314" lon="1.21558">
        <ele>224</ele>
        <time>2011-05-08T06:09:57Z</time>
      </trkpt>
      <trkpt lat="45.31314" lon="1.2155">
        <ele>223.899994</ele>
        <time>2011-05-08T06:09:58Z</time>
      </trkpt>
      <trkpt lat="45.31314" lon="1.21542">
        <ele>223.800003</ele>
        <time>2011-05-08T06:09:59Z</time>
      </trkpt>
      <trkpt lat="45.31314" lon="1.21534">
        <ele>223.699997</ele>
        <time>2011-05-08T06:10:00Z</time>
      </trkpt>
      <trkpt lat="45.31313" lon="1.21526">
        <ele>223.600006</ele>
        <time>2011-05-08T06:10:01Z</time>
      </trkpt>
      <trkpt lat="45.31312" lon="1.21519">
        <ele>223.5</ele>
        <time>2011-05-08T06:10:02Z</time>
      </trkpt>
      <trkpt lat="45.31312" lon="1.21511">
        <ele>223.699997</ele>
        <time>2011-05-08T06:10:03Z</time>
      </trkpt>
      <trkpt lat="45.31311" lon="1.21504">
        <ele>223.800003</ele>
        <time>2011-05-08T06:10:04Z</time>
      </trkpt>
      <trkpt lat="45.3131" lon="1.21497">
        <ele>223.800003</ele>
        <time>2011-05-08T06:10:05Z</time>
      </trkpt>
      <trkpt lat="45.31309" lon="1.21489">
        <ele>223.800003</ele>
        <time>2011-05-08T06:10:06Z</time>
      </trkpt>
      <trkpt lat="45.31309" lon="1.21482">
        <ele>223.199997</ele>
        <time>2011-05-08T06:10:07Z</time>
      </trkpt>
      <trkpt lat="45.31308" lon="1.21475">
        <ele>222.800003</ele>
        <time>2011-05-08T06:10:08Z</time>
      </trkpt>
      <trkpt lat="45.31306" lon="1.21468">
        <ele>222.5</ele>
        <time>2011-05-08T06:10:09Z</time>
      </trkpt>
      <trkpt lat="45.31305" lon="1.2146">
        <ele>223</ele>
        <time>2011-05-08T06:10:10Z</time>
      </trkpt>
      <trkpt lat="45.31303" lon="1.21453">
        <ele>223.399994</ele>
        <time>2011-05-08T06:10:11Z</time>
      </trkpt>
      <trkpt lat="45.31301" lon="1.21445">
        <ele>223.5</ele>
        <time>2011-05-08T06:10:12Z</time>
      </trkpt>
      <trkpt lat="45.31298" lon="1.21438">
        <ele>223.5</ele>
        <time>2011-05-08T06:10:13Z</time>
      </trkpt>
      <trkpt lat="45.31296" lon="1.21431">
        <ele>223.699997</ele>
        <time>2011-05-08T06:10:14Z</time>
      </trkpt>
      <trkpt lat="45.31294" lon="1.21423">
        <ele>223.800003</ele>
        <time>2011-05-08T06:10:15Z</time>
      </trkpt>
      <trkpt lat="45.31293" lon="1.21416">
        <ele>223.899994</ele>
        <time>2011-05-08T06:10:16Z</time>
      </trkpt>
      <trkpt lat="45.31291" lon="1.21409">
        <ele>224.199997</ele>
        <time>2011-05-08T06:10:17Z</time>
      </trkpt>
      <trkpt lat="45.31291" lon="1.21401">
        <ele>224.399994</ele>
        <time>2011-05-08T06:10:18Z</time>
      </trkpt>
      <trkpt lat="45.3129" lon="1.21394">
        <ele>224.199997</ele>
        <time>2011-05-08T06:10:19Z</time>
      </trkpt>
      <trkpt lat="45.31291" lon="1.21387">
        <ele>224.100006</ele>
        <time>2011-05-08T06:10:20Z</time>
      </trkpt>
      <trkpt lat="45.31291" lon="1.21381">
        <ele>224.100006</ele>
        <time>2011-05-08T06:10:21Z</time>
      </trkpt>
      <trkpt lat="45.31294" lon="1.21368">
        <ele>224.800003</ele>
        <time>2011-05-08T06:10:24Z</time>
      </trkpt>
      <trkpt lat="45.31294" lon="1.21359">
        <ele>225.800003</ele>
        <time>2011-05-08T06:10:26Z</time>
      </trkpt>
      <trkpt lat="45.31291" lon="1.21348">
        <ele>226.399994</ele>
        <time>2011-05-08T06:10:28Z</time>
      </trkpt>
      <trkpt lat="45.3129" lon="1.21342">
        <ele>226.399994</ele>
        <time>2011-05-08T06:10:29Z</time>
      </trkpt>
      <trkpt lat="45.31289" lon="1.21336">
        <ele>226.399994</ele>
        <time>2011-05-08T06:10:30Z</time>
      </trkpt>
      <trkpt lat="45.31287" lon="1.21329">
        <ele>226.300003</ele>
        <time>2011-05-08T06:10:31Z</time>
      </trkpt>
      <trkpt lat="45.31284" lon="1.21322">
        <ele>226.100006</ele>
        <time>2011-05-08T06:10:32Z</time>
      </trkpt>
      <trkpt lat="45.3128" lon="1.21315">
        <ele>225.800003</ele>
        <time>2011-05-08T06:10:33Z</time>
      </trkpt>
      <trkpt lat="45.31276" lon="1.2131">
        <ele>225.5</ele>
        <time>2011-05-08T06:10:34Z</time>
      </trkpt>
      <trkpt lat="45.31272" lon="1.21305">
        <ele>225.300003</ele>
        <time>2011-05-08T06:10:35Z</time>
      </trkpt>
      <trkpt lat="45.31265" lon="1.213">
        <ele>224.800003</ele>
        <time>2011-05-08T06:10:37Z</time>
      </trkpt>
      <trkpt lat="45.31257" lon="1.21294">
        <ele>222.5</ele>
        <time>2011-05-08T06:11:10Z</time>
      </trkpt>
      <trkpt lat="45.31251" lon="1.21288">
        <ele>222.5</ele>
        <time>2011-05-08T06:11:14Z</time>
      </trkpt>
      <trkpt lat="45.31246" lon="1.21284">
        <ele>222.800003</ele>
        <time>2011-05-08T06:11:16Z</time>
      </trkpt>
      <trkpt lat="45.31239" lon="1.21278">
        <ele>222.800003</ele>
        <time>2011-05-08T06:11:18Z</time>
      </trkpt>
      <trkpt lat="45.31232" lon="1.21273">
        <ele>222.5</ele>
        <time>2011-05-08T06:11:20Z</time>
      </trkpt>
      <trkpt lat="45.31225" lon="1.21269">
        <ele>223</ele>
        <time>2011-05-08T06:11:22Z</time>
      </trkpt>
      <trkpt lat="45.3122" lon="1.21268">
        <ele>222.199997</ele>
        <time>2011-05-08T06:11:23Z</time>
      </trkpt>
      <trkpt lat="45.31208" lon="1.21264">
        <ele>222</ele>
        <time>2011-05-08T06:11:26Z</time>
      </trkpt>
      <trkpt lat="45.31201" lon="1.21259">
        <ele>223.399994</ele>
        <time>2011-05-08T06:11:28Z</time>
      </trkpt>
      <trkpt lat="45.31196" lon="1.21251">
        <ele>223.899994</ele>
        <time>2011-05-08T06:11:31Z</time>
      </trkpt>
      <trkpt lat="45.31195" lon="1.2124">
        <ele>225.100006</ele>
        <time>2011-05-08T06:11:35Z</time>
      </trkpt>
      <trkpt lat="45.31196" lon="1.21228">
        <ele>226.399994</ele>
        <time>2011-05-08T06:11:39Z</time>
      </trkpt>
      <trkpt lat="45.31198" lon="1.21217">
        <ele>228.399994</ele>
        <time>2011-05-08T06:11:43Z</time>
      </trkpt>
      <trkpt lat="45.312" lon="1.21205">
        <ele>228.899994</ele>
        <time>2011-05-08T06:11:47Z</time>
      </trkpt>
      <trkpt lat="45.31201" lon="1.21193">
        <ele>230.399994</ele>
        <time>2011-05-08T06:11:51Z</time>
      </trkpt>
      <trkpt lat="45.31202" lon="1.21183">
        <ele>230.899994</ele>
        <time>2011-05-08T06:11:54Z</time>
      </trkpt>
      <trkpt lat="45.31201" lon="1.21172">
        <ele>231.600006</ele>
        <time>2011-05-08T06:11:57Z</time>
      </trkpt>
      <trkpt lat="45.312" lon="1.2116">
        <ele>231.899994</ele>
        <time>2011-05-08T06:12:00Z</time>
      </trkpt>
      <trkpt lat="45.312" lon="1.21148">
        <ele>232.199997</ele>
        <time>2011-05-08T06:12:03Z</time>
      </trkpt>
      <trkpt lat="45.31199" lon="1.21136">
        <ele>232.699997</ele>
        <time>2011-05-08T06:12:06Z</time>
      </trkpt>
      <trkpt lat="45.31198" lon="1.21125">
        <ele>233</ele>
        <time>2011-05-08T06:12:09Z</time>
      </trkpt>
      <trkpt lat="45.31198" lon="1.21113">
        <ele>233.100006</ele>
        <time>2011-05-08T06:12:12Z</time>
      </trkpt>
      <trkpt lat="45.31198" lon="1.21102">
        <ele>233.800003</ele>
        <time>2011-05-08T06:12:15Z</time>
      </trkpt>
      <trkpt lat="45.31199" lon="1.21089">
        <ele>234.199997</ele>
        <time>2011-05-08T06:12:18Z</time>
      </trkpt>
      <trkpt lat="45.31199" lon="1.21081">
        <ele>234.600006</ele>
        <time>2011-05-08T06:12:20Z</time>
      </trkpt>
      <trkpt lat="45.31199" lon="1.21072">
        <ele>234.800003</ele>
        <time>2011-05-08T06:12:22Z</time>
      </trkpt>
      <trkpt lat="45.312" lon="1.2106">
        <ele>235.199997</ele>
        <time>2011-05-08T06:12:25Z</time>
      </trkpt>
      <trkpt lat="45.312" lon="1.21056">
        <ele>235.5</ele>
        <time>2011-05-08T06:12:26Z</time>
      </trkpt>
      <trkpt lat="45.312" lon="1.21035">
        <ele>236.600006</ele>
        <time>2011-05-08T06:12:31Z</time>
      </trkpt>
      <trkpt lat="45.31201" lon="1.21026">
        <ele>235.399994</ele>
        <time>2011-05-08T06:12:33Z</time>
      </trkpt>
      <trkpt lat="45.31201" lon="1.21016">
        <ele>235.199997</ele>
        <time>2011-05-08T06:12:35Z</time>
      </trkpt>
      <trkpt lat="45.31201" lon="1.21007">
        <ele>235.5</ele>
        <time>2011-05-08T06:12:37Z</time>
      </trkpt>
      <trkpt lat="45.31202" lon="1.20995">
        <ele>235.5</ele>
        <time>2011-05-08T06:12:39Z</time>
      </trkpt>
      <trkpt lat="45.31202" lon="1.20989">
        <ele>235.399994</ele>
        <time>2011-05-08T06:12:40Z</time>
      </trkpt>
      <trkpt lat="45.31202" lon="1.20982">
        <ele>235.399994</ele>
        <time>2011-05-08T06:12:41Z</time>
      </trkpt>
      <trkpt lat="45.31203" lon="1.20975">
        <ele>235.399994</ele>
        <time>2011-05-08T06:12:42Z</time>
      </trkpt>
      <trkpt lat="45.31203" lon="1.20967">
        <ele>235.399994</ele>
        <time>2011-05-08T06:12:43Z</time>
      </trkpt>
      <trkpt lat="45.31203" lon="1.20959">
        <ele>234.800003</ele>
        <time>2011-05-08T06:12:44Z</time>
      </trkpt>
      <trkpt lat="45.31204" lon="1.2095">
        <ele>234.399994</ele>
        <time>2011-05-08T06:12:45Z</time>
      </trkpt>
      <trkpt lat="45.31204" lon="1.2094">
        <ele>233.899994</ele>
        <time>2011-05-08T06:12:46Z</time>
      </trkpt>
      <trkpt lat="45.31204" lon="1.20929">
        <ele>233.5</ele>
        <time>2011-05-08T06:12:47Z</time>
      </trkpt>
      <trkpt lat="45.31205" lon="1.20919">
        <ele>233.199997</ele>
        <time>2011-05-08T06:12:48Z</time>
      </trkpt>
      <trkpt lat="45.31205" lon="1.20907">
        <ele>232.600006</ele>
        <time>2011-05-08T06:12:49Z</time>
      </trkpt>
      <trkpt lat="45.31205" lon="1.20895">
        <ele>232.199997</ele>
        <time>2011-05-08T06:12:50Z</time>
      </trkpt>
      <trkpt lat="45.31205" lon="1.20882">
        <ele>230.800003</ele>
        <time>2011-05-08T06:12:51Z</time>
      </trkpt>
      <trkpt lat="45.31205" lon="1.20867">
        <ele>229.800003</ele>
        <time>2011-05-08T06:12:52Z</time>
      </trkpt>
      <trkpt lat="45.31205" lon="1.20853">
        <ele>229</ele>
        <time>2011-05-08T06:12:53Z</time>
      </trkpt>
      <trkpt lat="45.31205" lon="1.20839">
        <ele>228.399994</ele>
        <time>2011-05-08T06:12:54Z</time>
      </trkpt>
      <trkpt lat="45.31205" lon="1.20825">
        <ele>228</ele>
        <time>2011-05-08T06:12:55Z</time>
      </trkpt>
      <trkpt lat="45.31204" lon="1.20811">
        <ele>227.199997</ele>
        <time>2011-05-08T06:12:56Z</time>
      </trkpt>
      <trkpt lat="45.31201" lon="1.20799">
        <ele>226.699997</ele>
        <time>2011-05-08T06:12:57Z</time>
      </trkpt>
      <trkpt lat="45.31197" lon="1.20788">
        <ele>226.100006</ele>
        <time>2011-05-08T06:12:58Z</time>
      </trkpt>
      <trkpt lat="45.31192" lon="1.20778">
        <ele>225.699997</ele>
        <time>2011-05-08T06:12:59Z</time>
      </trkpt>
      <trkpt lat="45.31187" lon="1.20769">
        <ele>225.300003</ele>
        <time>2011-05-08T06:13:00Z</time>
      </trkpt>
      <trkpt lat="45.31181" lon="1.20761">
        <ele>225</ele>
        <time>2011-05-08T06:13:01Z</time>
      </trkpt>
      <trkpt lat="45.31175" lon="1.20753">
        <ele>224.800003</ele>
        <time>2011-05-08T06:13:02Z</time>
      </trkpt>
      <trkpt lat="45.3117" lon="1.20744">
        <ele>224.699997</ele>
        <time>2011-05-08T06:13:03Z</time>
      </trkpt>
      <trkpt lat="45.31167" lon="1.20734">
        <ele>224.600006</ele>
        <time>2011-05-08T06:13:04Z</time>
      </trkpt>
      <trkpt lat="45.31165" lon="1.20724">
        <ele>224.199997</ele>
        <time>2011-05-08T06:13:05Z</time>
      </trkpt>
      <trkpt lat="45.31163" lon="1.20714">
        <ele>223.899994</ele>
        <time>2011-05-08T06:13:06Z</time>
      </trkpt>
      <trkpt lat="45.31162" lon="1.20703">
        <ele>223.699997</ele>
        <time>2011-05-08T06:13:07Z</time>
      </trkpt>
      <trkpt lat="45.31161" lon="1.20693">
        <ele>223.399994</ele>
        <time>2011-05-08T06:13:08Z</time>
      </trkpt>
      <trkpt lat="45.3116" lon="1.20682">
        <ele>223.100006</ele>
        <time>2011-05-08T06:13:09Z</time>
      </trkpt>
      <trkpt lat="45.31159" lon="1.20672">
        <ele>223.300003</ele>
        <time>2011-05-08T06:13:10Z</time>
      </trkpt>
      <trkpt lat="45.31158" lon="1.20662">
        <ele>223.399994</ele>
        <time>2011-05-08T06:13:11Z</time>
      </trkpt>
      <trkpt lat="45.31158" lon="1.20652">
        <ele>223.399994</ele>
        <time>2011-05-08T06:13:12Z</time>
      </trkpt>
      <trkpt lat="45.31158" lon="1.20643">
        <ele>223.399994</ele>
        <time>2011-05-08T06:13:13Z</time>
      </trkpt>
      <trkpt lat="45.31158" lon="1.20634">
        <ele>223.399994</ele>
        <time>2011-05-08T06:13:14Z</time>
      </trkpt>
      <trkpt lat="45.31159" lon="1.20625">
        <ele>223.699997</ele>
        <time>2011-05-08T06:13:15Z</time>
      </trkpt>
      <trkpt lat="45.3116" lon="1.20617">
        <ele>223.899994</ele>
        <time>2011-05-08T06:13:16Z</time>
      </trkpt>
      <trkpt lat="45.3116" lon="1.20608">
        <ele>223.800003</ele>
        <time>2011-05-08T06:13:17Z</time>
      </trkpt>
      <trkpt lat="45.31161" lon="1.206">
        <ele>223.800003</ele>
        <time>2011-05-08T06:13:18Z</time>
      </trkpt>
      <trkpt lat="45.31161" lon="1.20591">
        <ele>223.600006</ele>
        <time>2011-05-08T06:13:19Z</time>
      </trkpt>
      <trkpt lat="45.31162" lon="1.20582">
        <ele>223.5</ele>
        <time>2011-05-08T06:13:20Z</time>
      </trkpt>
      <trkpt lat="45.31162" lon="1.20573">
        <ele>223.5</ele>
        <time>2011-05-08T06:13:21Z</time>
      </trkpt>
      <trkpt lat="45.31161" lon="1.20564">
        <ele>222.800003</ele>
        <time>2011-05-08T06:13:22Z</time>
      </trkpt>
      <trkpt lat="45.31159" lon="1.20554">
        <ele>222.300003</ele>
        <time>2011-05-08T06:13:23Z</time>
      </trkpt>
      <trkpt lat="45.31158" lon="1.20544">
        <ele>221.800003</ele>
        <time>2011-05-08T06:13:24Z</time>
      </trkpt>
      <trkpt lat="45.31156" lon="1.20534">
        <ele>221.300003</ele>
        <time>2011-05-08T06:13:25Z</time>
      </trkpt>
      <trkpt lat="45.31155" lon="1.20523">
        <ele>221</ele>
        <time>2011-05-08T06:13:26Z</time>
      </trkpt>
      <trkpt lat="45.31153" lon="1.20513">
        <ele>220.899994</ele>
        <time>2011-05-08T06:13:27Z</time>
      </trkpt>
      <trkpt lat="45.31151" lon="1.20502">
        <ele>220.800003</ele>
        <time>2011-05-08T06:13:28Z</time>
      </trkpt>
      <trkpt lat="45.31148" lon="1.20492">
        <ele>220.899994</ele>
        <time>2011-05-08T06:13:29Z</time>
      </trkpt>
      <trkpt lat="45.31145" lon="1.20482">
        <ele>221</ele>
        <time>2011-05-08T06:13:30Z</time>
      </trkpt>
      <trkpt lat="45.31141" lon="1.20472">
        <ele>220.5</ele>
        <time>2011-05-08T06:13:31Z</time>
      </trkpt>
      <trkpt lat="45.31136" lon="1.20463">
        <ele>220.199997</ele>
        <time>2011-05-08T06:13:32Z</time>
      </trkpt>
      <trkpt lat="45.31131" lon="1.20453">
        <ele>219.899994</ele>
        <time>2011-05-08T06:13:33Z</time>
      </trkpt>
      <trkpt lat="45.31126" lon="1.20444">
        <ele>219.100006</ele>
        <time>2011-05-08T06:13:34Z</time>
      </trkpt>
      <trkpt lat="45.31121" lon="1.20434">
        <ele>218.5</ele>
        <time>2011-05-08T06:13:35Z</time>
      </trkpt>
      <trkpt lat="45.31116" lon="1.20425">
        <ele>218.699997</ele>
        <time>2011-05-08T06:13:36Z</time>
      </trkpt>
      <trkpt lat="45.31111" lon="1.20416">
        <ele>218.699997</ele>
        <time>2011-05-08T06:13:37Z</time>
      </trkpt>
      <trkpt lat="45.31107" lon="1.20405">
        <ele>217.800003</ele>
        <time>2011-05-08T06:13:38Z</time>
      </trkpt>
      <trkpt lat="45.31102" lon="1.20395">
        <ele>217.100006</ele>
        <time>2011-05-08T06:13:39Z</time>
      </trkpt>
      <trkpt lat="45.31098" lon="1.20384">
        <ele>216.600006</ele>
        <time>2011-05-08T06:13:40Z</time>
      </trkpt>
      <trkpt lat="45.31093" lon="1.20372">
        <ele>215.800003</ele>
        <time>2011-05-08T06:13:41Z</time>
      </trkpt>
      <trkpt lat="45.31088" lon="1.20361">
        <ele>215.199997</ele>
        <time>2011-05-08T06:13:42Z</time>
      </trkpt>
      <trkpt lat="45.31083" lon="1.20349">
        <ele>214.399994</ele>
        <time>2011-05-08T06:13:43Z</time>
      </trkpt>
      <trkpt lat="45.31077" lon="1.20338">
        <ele>213.699997</ele>
        <time>2011-05-08T06:13:44Z</time>
      </trkpt>
      <trkpt lat="45.31072" lon="1.20326">
        <ele>213.300003</ele>
        <time>2011-05-08T06:13:45Z</time>
      </trkpt>
      <trkpt lat="45.31066" lon="1.20313">
        <ele>212.800003</ele>
        <time>2011-05-08T06:13:46Z</time>
      </trkpt>
      <trkpt lat="45.31059" lon="1.20302">
        <ele>212.5</ele>
        <time>2011-05-08T06:13:47Z</time>
      </trkpt>
      <trkpt lat="45.31053" lon="1.20292">
        <ele>211.699997</ele>
        <time>2011-05-08T06:13:48Z</time>
      </trkpt>
      <trkpt lat="45.31046" lon="1.20282">
        <ele>211.199997</ele>
        <time>2011-05-08T06:13:49Z</time>
      </trkpt>
      <trkpt lat="45.3104" lon="1.20273">
        <ele>210.600006</ele>
        <time>2011-05-08T06:13:50Z</time>
      </trkpt>
      <trkpt lat="45.31034" lon="1.20263">
        <ele>210.100006</ele>
        <time>2011-05-08T06:13:51Z</time>
      </trkpt>
      <trkpt lat="45.31028" lon="1.20252">
        <ele>209.800003</ele>
        <time>2011-05-08T06:13:52Z</time>
      </trkpt>
      <trkpt lat="45.31024" lon="1.2024">
        <ele>209.199997</ele>
        <time>2011-05-08T06:13:53Z</time>
      </trkpt>
      <trkpt lat="45.3102" lon="1.20229">
        <ele>208.800003</ele>
        <time>2011-05-08T06:13:54Z</time>
      </trkpt>
      <trkpt lat="45.31015" lon="1.20218">
        <ele>208.399994</ele>
        <time>2011-05-08T06:13:55Z</time>
      </trkpt>
      <trkpt lat="45.3101" lon="1.20208">
        <ele>208.199997</ele>
        <time>2011-05-08T06:13:56Z</time>
      </trkpt>
      <trkpt lat="45.31004" lon="1.20198">
        <ele>207.5</ele>
        <time>2011-05-08T06:13:57Z</time>
      </trkpt>
      <trkpt lat="45.30999" lon="1.20188">
        <ele>207</ele>
        <time>2011-05-08T06:13:58Z</time>
      </trkpt>
      <trkpt lat="45.30993" lon="1.20179">
        <ele>206.600006</ele>
        <time>2011-05-08T06:13:59Z</time>
      </trkpt>
      <trkpt lat="45.30987" lon="1.20169">
        <ele>205.699997</ele>
        <time>2011-05-08T06:14:00Z</time>
      </trkpt>
      <trkpt lat="45.30982" lon="1.20159">
        <ele>205.100006</ele>
        <time>2011-05-08T06:14:01Z</time>
      </trkpt>
      <trkpt lat="45.30976" lon="1.2015">
        <ele>205</ele>
        <time>2011-05-08T06:14:02Z</time>
      </trkpt>
      <trkpt lat="45.30971" lon="1.20139">
        <ele>204.899994</ele>
        <time>2011-05-08T06:14:03Z</time>
      </trkpt>
      <trkpt lat="45.30966" lon="1.20129">
        <ele>204.800003</ele>
        <time>2011-05-08T06:14:04Z</time>
      </trkpt>
      <trkpt lat="45.30961" lon="1.2012">
        <ele>204</ele>
        <time>2011-05-08T06:14:05Z</time>
      </trkpt>
      <trkpt lat="45.30955" lon="1.20111">
        <ele>203.399994</ele>
        <time>2011-05-08T06:14:06Z</time>
      </trkpt>
      <trkpt lat="45.30949" lon="1.20101">
        <ele>202.5</ele>
        <time>2011-05-08T06:14:07Z</time>
      </trkpt>
      <trkpt lat="45.30943" lon="1.20091">
        <ele>201.899994</ele>
        <time>2011-05-08T06:14:08Z</time>
      </trkpt>
      <trkpt lat="45.30936" lon="1.20082">
        <ele>201.399994</ele>
        <time>2011-05-08T06:14:09Z</time>
      </trkpt>
      <trkpt lat="45.3093" lon="1.20073">
        <ele>201</ele>
        <time>2011-05-08T06:14:10Z</time>
      </trkpt>
      <trkpt lat="45.30924" lon="1.20063">
        <ele>200.699997</ele>
        <time>2011-05-08T06:14:11Z</time>
      </trkpt>
      <trkpt lat="45.30918" lon="1.20053">
        <ele>200.199997</ele>
        <time>2011-05-08T06:14:12Z</time>
      </trkpt>
      <trkpt lat="45.30912" lon="1.20045">
        <ele>199.800003</ele>
        <time>2011-05-08T06:14:13Z</time>
      </trkpt>
      <trkpt lat="45.30908" lon="1.20038">
        <ele>199.100006</ele>
        <time>2011-05-08T06:14:14Z</time>
      </trkpt>
      <trkpt lat="45.30904" lon="1.20033">
        <ele>198.600006</ele>
        <time>2011-05-08T06:14:15Z</time>
      </trkpt>
      <trkpt lat="45.30899" lon="1.2003">
        <ele>197.800003</ele>
        <time>2011-05-08T06:14:16Z</time>
      </trkpt>
      <trkpt lat="45.30894" lon="1.20029">
        <ele>197.199997</ele>
        <time>2011-05-08T06:14:17Z</time>
      </trkpt>
      <trkpt lat="45.30886" lon="1.20035">
        <ele>196.100006</ele>
        <time>2011-05-08T06:14:19Z</time>
      </trkpt>
      <trkpt lat="45.3088" lon="1.2004">
        <ele>195.300003</ele>
        <time>2011-05-08T06:14:21Z</time>
      </trkpt>
      <trkpt lat="45.30874" lon="1.20034">
        <ele>194.899994</ele>
        <time>2011-05-08T06:14:23Z</time>
      </trkpt>
      <trkpt lat="45.30872" lon="1.20028">
        <ele>194.600006</ele>
        <time>2011-05-08T06:14:24Z</time>
      </trkpt>
      <trkpt lat="45.30871" lon="1.2002">
        <ele>194.5</ele>
        <time>2011-05-08T06:14:25Z</time>
      </trkpt>
      <trkpt lat="45.30871" lon="1.20011">
        <ele>193.800003</ele>
        <time>2011-05-08T06:14:26Z</time>
      </trkpt>
      <trkpt lat="45.30871" lon="1.20002">
        <ele>193.300003</ele>
        <time>2011-05-08T06:14:27Z</time>
      </trkpt>
      <trkpt lat="45.3087" lon="1.19992">
        <ele>192.399994</ele>
        <time>2011-05-08T06:14:28Z</time>
      </trkpt>
      <trkpt lat="45.30869" lon="1.19982">
        <ele>191.800003</ele>
        <time>2011-05-08T06:14:29Z</time>
      </trkpt>
      <trkpt lat="45.30866" lon="1.19973">
        <ele>191.300003</ele>
        <time>2011-05-08T06:14:30Z</time>
      </trkpt>
      <trkpt lat="45.30861" lon="1.19967">
        <ele>190.699997</ele>
        <time>2011-05-08T06:14:31Z</time>
      </trkpt>
      <trkpt lat="45.30854" lon="1.19963">
        <ele>190.300003</ele>
        <time>2011-05-08T06:14:32Z</time>
      </trkpt>
      <trkpt lat="45.30847" lon="1.19961">
        <ele>190</ele>
        <time>2011-05-08T06:14:33Z</time>
      </trkpt>
      <trkpt lat="45.3084" lon="1.1996">
        <ele>189.699997</ele>
        <time>2011-05-08T06:14:34Z</time>
      </trkpt>
      <trkpt lat="45.30833" lon="1.19957">
        <ele>189.300003</ele>
        <time>2011-05-08T06:14:35Z</time>
      </trkpt>
      <trkpt lat="45.30827" lon="1.19954">
        <ele>189.100006</ele>
        <time>2011-05-08T06:14:36Z</time>
      </trkpt>
      <trkpt lat="45.30821" lon="1.19949">
        <ele>188.899994</ele>
        <time>2011-05-08T06:14:37Z</time>
      </trkpt>
      <trkpt lat="45.30816" lon="1.19944">
        <ele>188.699997</ele>
        <time>2011-05-08T06:14:38Z</time>
      </trkpt>
      <trkpt lat="45.30811" lon="1.19937">
        <ele>188.600006</ele>
        <time>2011-05-08T06:14:39Z</time>
      </trkpt>
      <trkpt lat="45.30806" lon="1.19932">
        <ele>188.800003</ele>
        <time>2011-05-08T06:14:40Z</time>
      </trkpt>
      <trkpt lat="45.30802" lon="1.19926">
        <ele>189</ele>
        <time>2011-05-08T06:14:41Z</time>
      </trkpt>
      <trkpt lat="45.30798" lon="1.1992">
        <ele>188.800003</ele>
        <time>2011-05-08T06:14:42Z</time>
      </trkpt>
      <trkpt lat="45.30793" lon="1.19915">
        <ele>188.600006</ele>
        <time>2011-05-08T06:14:43Z</time>
      </trkpt>
      <trkpt lat="45.30789" lon="1.19909">
        <ele>188.399994</ele>
        <time>2011-05-08T06:14:44Z</time>
      </trkpt>
      <trkpt lat="45.30784" lon="1.19903">
        <ele>188.5</ele>
        <time>2011-05-08T06:14:45Z</time>
      </trkpt>
      <trkpt lat="45.3078" lon="1.19898">
        <ele>188.5</ele>
        <time>2011-05-08T06:14:46Z</time>
      </trkpt>
      <trkpt lat="45.30775" lon="1.19894">
        <ele>188.600006</ele>
        <time>2011-05-08T06:14:47Z</time>
      </trkpt>
      <trkpt lat="45.3077" lon="1.1989">
        <ele>188.699997</ele>
        <time>2011-05-08T06:14:48Z</time>
      </trkpt>
      <trkpt lat="45.30765" lon="1.19886">
        <ele>188.800003</ele>
        <time>2011-05-08T06:14:49Z</time>
      </trkpt>
      <trkpt lat="45.30761" lon="1.19881">
        <ele>189</ele>
        <time>2011-05-08T06:14:50Z</time>
      </trkpt>
      <trkpt lat="45.30758" lon="1.19875">
        <ele>189.199997</ele>
        <time>2011-05-08T06:14:51Z</time>
      </trkpt>
      <trkpt lat="45.30755" lon="1.19869">
        <ele>189.300003</ele>
        <time>2011-05-08T06:14:52Z</time>
      </trkpt>
      <trkpt lat="45.30753" lon="1.19862">
        <ele>189.300003</ele>
        <time>2011-05-08T06:14:53Z</time>
      </trkpt>
      <trkpt lat="45.30751" lon="1.19856">
        <ele>189.899994</ele>
        <time>2011-05-08T06:14:54Z</time>
      </trkpt>
      <trkpt lat="45.30746" lon="1.19845">
        <ele>190.699997</ele>
        <time>2011-05-08T06:14:56Z</time>
      </trkpt>
      <trkpt lat="45.30744" lon="1.19839">
        <ele>190.899994</ele>
        <time>2011-05-08T06:14:57Z</time>
      </trkpt>
      <trkpt lat="45.30742" lon="1.19833">
        <ele>191</ele>
        <time>2011-05-08T06:14:58Z</time>
      </trkpt>
      <trkpt lat="45.3074" lon="1.19827">
        <ele>190.699997</ele>
        <time>2011-05-08T06:14:59Z</time>
      </trkpt>
      <trkpt lat="45.30738" lon="1.19821">
        <ele>190.399994</ele>
        <time>2011-05-08T06:15:00Z</time>
      </trkpt>
      <trkpt lat="45.30736" lon="1.19816">
        <ele>190.199997</ele>
        <time>2011-05-08T06:15:01Z</time>
      </trkpt>
      <trkpt lat="45.30732" lon="1.19804">
        <ele>190.399994</ele>
        <time>2011-05-08T06:15:03Z</time>
      </trkpt>
      <trkpt lat="45.3073" lon="1.19799">
        <ele>190.899994</ele>
        <time>2011-05-08T06:15:04Z</time>
      </trkpt>
      <trkpt lat="45.30728" lon="1.19793">
        <ele>191.300003</ele>
        <time>2011-05-08T06:15:05Z</time>
      </trkpt>
      <trkpt lat="45.30725" lon="1.19788">
        <ele>191.199997</ele>
        <time>2011-05-08T06:15:06Z</time>
      </trkpt>
      <trkpt lat="45.30723" lon="1.19782">
        <ele>191.100006</ele>
        <time>2011-05-08T06:15:07Z</time>
      </trkpt>
      <trkpt lat="45.30721" lon="1.19776">
        <ele>191</ele>
        <time>2011-05-08T06:15:08Z</time>
      </trkpt>
      <trkpt lat="45.30719" lon="1.1977">
        <ele>190.899994</ele>
        <time>2011-05-08T06:15:09Z</time>
      </trkpt>
      <trkpt lat="45.30717" lon="1.19763">
        <ele>190.800003</ele>
        <time>2011-05-08T06:15:10Z</time>
      </trkpt>
      <trkpt lat="45.30715" lon="1.19757">
        <ele>191.100006</ele>
        <time>2011-05-08T06:15:11Z</time>
      </trkpt>
      <trkpt lat="45.30713" lon="1.1975">
        <ele>191.300003</ele>
        <time>2011-05-08T06:15:12Z</time>
      </trkpt>
      <trkpt lat="45.3071" lon="1.19743">
        <ele>191.399994</ele>
        <time>2011-05-08T06:15:13Z</time>
      </trkpt>
      <trkpt lat="45.30708" lon="1.19735">
        <ele>191.399994</ele>
        <time>2011-05-08T06:15:14Z</time>
      </trkpt>
      <trkpt lat="45.30705" lon="1.19728">
        <ele>191.5</ele>
        <time>2011-05-08T06:15:15Z</time>
      </trkpt>
      <trkpt lat="45.30703" lon="1.1972">
        <ele>191.399994</ele>
        <time>2011-05-08T06:15:16Z</time>
      </trkpt>
      <trkpt lat="45.30701" lon="1.19713">
        <ele>191.399994</ele>
        <time>2011-05-08T06:15:17Z</time>
      </trkpt>
      <trkpt lat="45.30699" lon="1.19706">
        <ele>191</ele>
        <time>2011-05-08T06:15:18Z</time>
      </trkpt>
      <trkpt lat="45.30699" lon="1.19696">
        <ele>190</ele>
        <time>2011-05-08T06:15:20Z</time>
      </trkpt>
      <trkpt lat="45.30706" lon="1.19691">
        <ele>189</ele>
        <time>2011-05-08T06:15:22Z</time>
      </trkpt>
      <trkpt lat="45.3071" lon="1.19689">
        <ele>188.100006</ele>
        <time>2011-05-08T06:15:23Z</time>
      </trkpt>
      <trkpt lat="45.30714" lon="1.19685">
        <ele>187.399994</ele>
        <time>2011-05-08T06:15:24Z</time>
      </trkpt>
      <trkpt lat="45.30718" lon="1.19681">
        <ele>187.100006</ele>
        <time>2011-05-08T06:15:25Z</time>
      </trkpt>
      <trkpt lat="45.30721" lon="1.19676">
        <ele>186.899994</ele>
        <time>2011-05-08T06:15:26Z</time>
      </trkpt>
      <trkpt lat="45.30726" lon="1.19667">
        <ele>186.199997</ele>
        <time>2011-05-08T06:15:28Z</time>
      </trkpt>
      <trkpt lat="45.30728" lon="1.19664">
        <ele>185.800003</ele>
        <time>2011-05-08T06:15:29Z</time>
      </trkpt>
      <trkpt lat="45.30741" lon="1.19658">
        <ele>183.899994</ele>
        <time>2011-05-08T06:15:36Z</time>
      </trkpt>
      <trkpt lat="45.30748" lon="1.19652">
        <ele>184.899994</ele>
        <time>2011-05-08T06:15:41Z</time>
      </trkpt>
      <trkpt lat="45.30756" lon="1.19646">
        <ele>186.800003</ele>
        <time>2011-05-08T06:15:46Z</time>
      </trkpt>
      <trkpt lat="45.30764" lon="1.19647">
        <ele>187.300003</ele>
        <time>2011-05-08T06:15:51Z</time>
      </trkpt>
      <trkpt lat="45.30772" lon="1.1965">
        <ele>188.800003</ele>
        <time>2011-05-08T06:15:56Z</time>
      </trkpt>
      <trkpt lat="45.3078" lon="1.19652">
        <ele>190.100006</ele>
        <time>2011-05-08T06:16:00Z</time>
      </trkpt>
      <trkpt lat="45.30787" lon="1.19651">
        <ele>190.399994</ele>
        <time>2011-05-08T06:16:03Z</time>
      </trkpt>
      <trkpt lat="45.30794" lon="1.19652">
        <ele>191</ele>
        <time>2011-05-08T06:16:06Z</time>
      </trkpt>
      <trkpt lat="45.30801" lon="1.19653">
        <ele>191.300003</ele>
        <time>2011-05-08T06:16:09Z</time>
      </trkpt>
      <trkpt lat="45.30809" lon="1.19653">
        <ele>190.800003</ele>
        <time>2011-05-08T06:16:12Z</time>
      </trkpt>
      <trkpt lat="45.30816" lon="1.19652">
        <ele>191.699997</ele>
        <time>2011-05-08T06:16:15Z</time>
      </trkpt>
      <trkpt lat="45.30824" lon="1.19651">
        <ele>192.300003</ele>
        <time>2011-05-08T06:16:18Z</time>
      </trkpt>
      <trkpt lat="45.30832" lon="1.1965">
        <ele>192.199997</ele>
        <time>2011-05-08T06:16:21Z</time>
      </trkpt>
      <trkpt lat="45.3084" lon="1.19649">
        <ele>192.399994</ele>
        <time>2011-05-08T06:16:24Z</time>
      </trkpt>
      <trkpt lat="45.30847" lon="1.19646">
        <ele>192.899994</ele>
        <time>2011-05-08T06:16:27Z</time>
      </trkpt>
      <trkpt lat="45.30854" lon="1.19641">
        <ele>192.5</ele>
        <time>2011-05-08T06:16:30Z</time>
      </trkpt>
      <trkpt lat="45.30857" lon="1.1964">
        <ele>192.300003</ele>
        <time>2011-05-08T06:16:31Z</time>
      </trkpt>
      <trkpt lat="45.30868" lon="1.19631">
        <ele>193.600006</ele>
        <time>2011-05-08T06:16:36Z</time>
      </trkpt>
      <trkpt lat="45.30874" lon="1.19625">
        <ele>194.100006</ele>
        <time>2011-05-08T06:16:39Z</time>
      </trkpt>
      <trkpt lat="45.3088" lon="1.19619">
        <ele>194.199997</ele>
        <time>2011-05-08T06:16:42Z</time>
      </trkpt>
      <trkpt lat="45.30886" lon="1.19612">
        <ele>194.800003</ele>
        <time>2011-05-08T06:16:45Z</time>
      </trkpt>
      <trkpt lat="45.30891" lon="1.19606">
        <ele>195.300003</ele>
        <time>2011-05-08T06:16:48Z</time>
      </trkpt>
      <trkpt lat="45.30897" lon="1.19599">
        <ele>195.600006</ele>
        <time>2011-05-08T06:16:51Z</time>
      </trkpt>
      <trkpt lat="45.30901" lon="1.19591">
        <ele>196.100006</ele>
        <time>2011-05-08T06:16:54Z</time>
      </trkpt>
      <trkpt lat="45.30906" lon="1.19581">
        <ele>196.699997</ele>
        <time>2011-05-08T06:16:57Z</time>
      </trkpt>
      <trkpt lat="45.3091" lon="1.19574">
        <ele>196.5</ele>
        <time>2011-05-08T06:16:59Z</time>
      </trkpt>
      <trkpt lat="45.30913" lon="1.19567">
        <ele>196.800003</ele>
        <time>2011-05-08T06:17:01Z</time>
      </trkpt>
      <trkpt lat="45.30917" lon="1.1956">
        <ele>197.100006</ele>
        <time>2011-05-08T06:17:03Z</time>
      </trkpt>
      <trkpt lat="45.30922" lon="1.19553">
        <ele>197.300003</ele>
        <time>2011-05-08T06:17:05Z</time>
      </trkpt>
      <trkpt lat="45.30927" lon="1.19547">
        <ele>197</ele>
        <time>2011-05-08T06:17:07Z</time>
      </trkpt>
      <trkpt lat="45.30932" lon="1.19542">
        <ele>196.399994</ele>
        <time>2011-05-08T06:17:09Z</time>
      </trkpt>
      <trkpt lat="45.30937" lon="1.19537">
        <ele>196.600006</ele>
        <time>2011-05-08T06:17:11Z</time>
      </trkpt>
      <trkpt lat="45.30942" lon="1.19531">
        <ele>196.100006</ele>
        <time>2011-05-08T06:17:13Z</time>
      </trkpt>
      <trkpt lat="45.3095" lon="1.19527">
        <ele>197.5</ele>
        <time>2011-05-08T06:17:16Z</time>
      </trkpt>
      <trkpt lat="45.30958" lon="1.19525">
        <ele>197.5</ele>
        <time>2011-05-08T06:17:19Z</time>
      </trkpt>
      <trkpt lat="45.30966" lon="1.19525">
        <ele>197.399994</ele>
        <time>2011-05-08T06:17:22Z</time>
      </trkpt>
      <trkpt lat="45.30973" lon="1.19517">
        <ele>198.399994</ele>
        <time>2011-05-08T06:17:27Z</time>
      </trkpt>
      <trkpt lat="45.3097" lon="1.19506">
        <ele>199.199997</ele>
        <time>2011-05-08T06:17:30Z</time>
      </trkpt>
      <trkpt lat="45.30968" lon="1.19497">
        <ele>198.199997</ele>
        <time>2011-05-08T06:17:32Z</time>
      </trkpt>
      <trkpt lat="45.30966" lon="1.19493">
        <ele>197.800003</ele>
        <time>2011-05-08T06:17:33Z</time>
      </trkpt>
      <trkpt lat="45.30958" lon="1.19486">
        <ele>197.100006</ele>
        <time>2011-05-08T06:17:36Z</time>
      </trkpt>
      <trkpt lat="45.30949" lon="1.19487">
        <ele>196.5</ele>
        <time>2011-05-08T06:17:39Z</time>
      </trkpt>
      <trkpt lat="45.30941" lon="1.19487">
        <ele>196.199997</ele>
        <time>2011-05-08T06:17:42Z</time>
      </trkpt>
      <trkpt lat="45.30934" lon="1.19485">
        <ele>196.800003</ele>
        <time>2011-05-08T06:17:45Z</time>
      </trkpt>
      <trkpt lat="45.30931" lon="1.19474">
        <ele>198.300003</ele>
        <time>2011-05-08T06:17:50Z</time>
      </trkpt>
      <trkpt lat="45.30931" lon="1.19462">
        <ele>199.899994</ele>
        <time>2011-05-08T06:17:55Z</time>
      </trkpt>
      <trkpt lat="45.30931" lon="1.19451">
        <ele>200.300003</ele>
        <time>2011-05-08T06:17:59Z</time>
      </trkpt>
      <trkpt lat="45.3093" lon="1.1944">
        <ele>200.5</ele>
        <time>2011-05-08T06:18:04Z</time>
      </trkpt>
      <trkpt lat="45.30932" lon="1.19428">
        <ele>200.899994</ele>
        <time>2011-05-08T06:18:09Z</time>
      </trkpt>
      <trkpt lat="45.30938" lon="1.1942">
        <ele>200.899994</ele>
        <time>2011-05-08T06:18:14Z</time>
      </trkpt>
      <trkpt lat="45.30945" lon="1.19412">
        <ele>202.199997</ele>
        <time>2011-05-08T06:18:19Z</time>
      </trkpt>
      <trkpt lat="45.30951" lon="1.19404">
        <ele>202.199997</ele>
        <time>2011-05-08T06:18:23Z</time>
      </trkpt>
      <trkpt lat="45.30957" lon="1.19398">
        <ele>202.399994</ele>
        <time>2011-05-08T06:18:27Z</time>
      </trkpt>
      <trkpt lat="45.30963" lon="1.19391">
        <ele>203.5</ele>
        <time>2011-05-08T06:18:31Z</time>
      </trkpt>
      <trkpt lat="45.30971" lon="1.19386">
        <ele>204</ele>
        <time>2011-05-08T06:18:35Z</time>
      </trkpt>
      <trkpt lat="45.30973" lon="1.19385">
        <ele>204</ele>
        <time>2011-05-08T06:18:36Z</time>
      </trkpt>
      <trkpt lat="45.30984" lon="1.19377">
        <ele>205.600006</ele>
        <time>2011-05-08T06:18:40Z</time>
      </trkpt>
      <trkpt lat="45.30989" lon="1.19373">
        <ele>205.600006</ele>
        <time>2011-05-08T06:18:42Z</time>
      </trkpt>
      <trkpt lat="45.30997" lon="1.19368">
        <ele>206.199997</ele>
        <time>2011-05-08T06:18:45Z</time>
      </trkpt>
      <trkpt lat="45.31004" lon="1.19365">
        <ele>206.300003</ele>
        <time>2011-05-08T06:18:48Z</time>
      </trkpt>
      <trkpt lat="45.31007" lon="1.19374">
        <ele>205.399994</ele>
        <time>2011-05-08T06:18:53Z</time>
      </trkpt>
      <trkpt lat="45.31004" lon="1.19382">
        <ele>205.100006</ele>
        <time>2011-05-08T06:18:55Z</time>
      </trkpt>
      <trkpt lat="45.31" lon="1.19393">
        <ele>204.5</ele>
        <time>2011-05-08T06:18:57Z</time>
      </trkpt>
      <trkpt lat="45.30998" lon="1.19399">
        <ele>204.300003</ele>
        <time>2011-05-08T06:18:58Z</time>
      </trkpt>
      <trkpt lat="45.30996" lon="1.19406">
        <ele>203.699997</ele>
        <time>2011-05-08T06:18:59Z</time>
      </trkpt>
      <trkpt lat="45.30994" lon="1.19413">
        <ele>203.199997</ele>
        <time>2011-05-08T06:19:00Z</time>
      </trkpt>
      <trkpt lat="45.30992" lon="1.19426">
        <ele>202.199997</ele>
        <time>2011-05-08T06:19:02Z</time>
      </trkpt>
      <trkpt lat="45.30996" lon="1.19433">
        <ele>200.800003</ele>
        <time>2011-05-08T06:19:04Z</time>
      </trkpt>
      <trkpt lat="45.31002" lon="1.19436">
        <ele>199.699997</ele>
        <time>2011-05-08T06:19:06Z</time>
      </trkpt>
      <trkpt lat="45.31009" lon="1.19439">
        <ele>199.899994</ele>
        <time>2011-05-08T06:19:09Z</time>
      </trkpt>
      <trkpt lat="45.31018" lon="1.19441">
        <ele>200.300003</ele>
        <time>2011-05-08T06:19:13Z</time>
      </trkpt>
      <trkpt lat="45.31025" lon="1.19443">
        <ele>201.100006</ele>
        <time>2011-05-08T06:19:16Z</time>
      </trkpt>
      <trkpt lat="45.31032" lon="1.19446">
        <ele>202.399994</ele>
        <time>2011-05-08T06:19:20Z</time>
      </trkpt>
      <trkpt lat="45.31041" lon="1.19447">
        <ele>203.600006</ele>
        <time>2011-05-08T06:19:25Z</time>
      </trkpt>
      <trkpt lat="45.31049" lon="1.19445">
        <ele>204.899994</ele>
        <time>2011-05-08T06:19:29Z</time>
      </trkpt>
      <trkpt lat="45.31056" lon="1.19442">
        <ele>204.600006</ele>
        <time>2011-05-08T06:19:32Z</time>
      </trkpt>
      <trkpt lat="45.31063" lon="1.19439">
        <ele>204.899994</ele>
        <time>2011-05-08T06:19:35Z</time>
      </trkpt>
      <trkpt lat="45.3107" lon="1.19435">
        <ele>205.600006</ele>
        <time>2011-05-08T06:19:38Z</time>
      </trkpt>
      <trkpt lat="45.31072" lon="1.19434">
        <ele>205.699997</ele>
        <time>2011-05-08T06:19:39Z</time>
      </trkpt>
      <trkpt lat="45.31083" lon="1.19427">
        <ele>205.899994</ele>
        <time>2011-05-08T06:19:44Z</time>
      </trkpt>
      <trkpt lat="45.3109" lon="1.19423">
        <ele>206.300003</ele>
        <time>2011-05-08T06:19:47Z</time>
      </trkpt>
      <trkpt lat="45.31097" lon="1.19419">
        <ele>205.800003</ele>
        <time>2011-05-08T06:19:50Z</time>
      </trkpt>
      <trkpt lat="45.31104" lon="1.19415">
        <ele>206.300003</ele>
        <time>2011-05-08T06:19:53Z</time>
      </trkpt>
      <trkpt lat="45.3111" lon="1.19412">
        <ele>207</ele>
        <time>2011-05-08T06:19:56Z</time>
      </trkpt>
      <trkpt lat="45.31116" lon="1.19409">
        <ele>207.5</ele>
        <time>2011-05-08T06:19:59Z</time>
      </trkpt>
      <trkpt lat="45.31123" lon="1.19407">
        <ele>208.199997</ele>
        <time>2011-05-08T06:20:02Z</time>
      </trkpt>
      <trkpt lat="45.31132" lon="1.19405">
        <ele>209.199997</ele>
        <time>2011-05-08T06:20:06Z</time>
      </trkpt>
      <trkpt lat="45.3114" lon="1.19405">
        <ele>209.899994</ele>
        <time>2011-05-08T06:20:10Z</time>
      </trkpt>
      <trkpt lat="45.31148" lon="1.19405">
        <ele>210</ele>
        <time>2011-05-08T06:20:22Z</time>
      </trkpt>
      <trkpt lat="45.31157" lon="1.19406">
        <ele>209.600006</ele>
        <time>2011-05-08T06:20:28Z</time>
      </trkpt>
      <trkpt lat="45.31164" lon="1.19408">
        <ele>210.199997</ele>
        <time>2011-05-08T06:20:32Z</time>
      </trkpt>
      <trkpt lat="45.31173" lon="1.19411">
        <ele>210.600006</ele>
        <time>2011-05-08T06:20:36Z</time>
      </trkpt>
      <trkpt lat="45.31179" lon="1.19415">
        <ele>210.899994</ele>
        <time>2011-05-08T06:20:39Z</time>
      </trkpt>
      <trkpt lat="45.31181" lon="1.19416">
        <ele>211</ele>
        <time>2011-05-08T06:20:40Z</time>
      </trkpt>
      <trkpt lat="45.31193" lon="1.19421">
        <ele>210.5</ele>
        <time>2011-05-08T06:20:45Z</time>
      </trkpt>
      <trkpt lat="45.31202" lon="1.19424">
        <ele>210.800003</ele>
        <time>2011-05-08T06:20:48Z</time>
      </trkpt>
      <trkpt lat="45.3121" lon="1.19428">
        <ele>211.399994</ele>
        <time>2011-05-08T06:20:51Z</time>
      </trkpt>
      <trkpt lat="45.31218" lon="1.19432">
        <ele>211.399994</ele>
        <time>2011-05-08T06:20:54Z</time>
      </trkpt>
      <trkpt lat="45.31226" lon="1.19434">
        <ele>213.100006</ele>
        <time>2011-05-08T06:20:58Z</time>
      </trkpt>
      <trkpt lat="45.31227" lon="1.19444">
        <ele>213.300003</ele>
        <time>2011-05-08T06:21:02Z</time>
      </trkpt>
      <trkpt lat="45.31223" lon="1.19453">
        <ele>213.5</ele>
        <time>2011-05-08T06:21:05Z</time>
      </trkpt>
      <trkpt lat="45.31221" lon="1.19463">
        <ele>214.399994</ele>
        <time>2011-05-08T06:21:08Z</time>
      </trkpt>
      <trkpt lat="45.31219" lon="1.19474">
        <ele>214.600006</ele>
        <time>2011-05-08T06:21:11Z</time>
      </trkpt>
      <trkpt lat="45.31216" lon="1.19484">
        <ele>215</ele>
        <time>2011-05-08T06:21:14Z</time>
      </trkpt>
      <trkpt lat="45.31214" lon="1.19494">
        <ele>215.800003</ele>
        <time>2011-05-08T06:21:17Z</time>
      </trkpt>
      <trkpt lat="45.31212" lon="1.19504">
        <ele>216.5</ele>
        <time>2011-05-08T06:21:20Z</time>
      </trkpt>
      <trkpt lat="45.3121" lon="1.19514">
        <ele>216.600006</ele>
        <time>2011-05-08T06:21:23Z</time>
      </trkpt>
      <trkpt lat="45.31207" lon="1.19524">
        <ele>216.699997</ele>
        <time>2011-05-08T06:21:26Z</time>
      </trkpt>
      <trkpt lat="45.31205" lon="1.19534">
        <ele>217.600006</ele>
        <time>2011-05-08T06:21:29Z</time>
      </trkpt>
      <trkpt lat="45.31202" lon="1.19544">
        <ele>217.800003</ele>
        <time>2011-05-08T06:21:32Z</time>
      </trkpt>
      <trkpt lat="45.312" lon="1.19554">
        <ele>219</ele>
        <time>2011-05-08T06:21:35Z</time>
      </trkpt>
      <trkpt lat="45.31198" lon="1.19563">
        <ele>220.100006</ele>
        <time>2011-05-08T06:21:38Z</time>
      </trkpt>
      <trkpt lat="45.31196" lon="1.19573">
        <ele>221.399994</ele>
        <time>2011-05-08T06:21:41Z</time>
      </trkpt>
      <trkpt lat="45.31195" lon="1.19576">
        <ele>221.699997</ele>
        <time>2011-05-08T06:21:42Z</time>
      </trkpt>
      <trkpt lat="45.3119" lon="1.19591">
        <ele>221.800003</ele>
        <time>2011-05-08T06:21:47Z</time>
      </trkpt>
      <trkpt lat="45.3119" lon="1.19601">
        <ele>222.199997</ele>
        <time>2011-05-08T06:21:50Z</time>
      </trkpt>
      <trkpt lat="45.31194" lon="1.1961">
        <ele>222.199997</ele>
        <time>2011-05-08T06:21:53Z</time>
      </trkpt>
      <trkpt lat="45.31201" lon="1.19615">
        <ele>223.100006</ele>
        <time>2011-05-08T06:21:56Z</time>
      </trkpt>
      <trkpt lat="45.31209" lon="1.1962">
        <ele>222.899994</ele>
        <time>2011-05-08T06:21:59Z</time>
      </trkpt>
      <trkpt lat="45.31217" lon="1.19625">
        <ele>223</ele>
        <time>2011-05-08T06:22:02Z</time>
      </trkpt>
      <trkpt lat="45.31226" lon="1.1963">
        <ele>223.300003</ele>
        <time>2011-05-08T06:22:05Z</time>
      </trkpt>
      <trkpt lat="45.31231" lon="1.19632">
        <ele>223</ele>
        <time>2011-05-08T06:22:07Z</time>
      </trkpt>
      <trkpt lat="45.31237" lon="1.19634">
        <ele>222.800003</ele>
        <time>2011-05-08T06:22:09Z</time>
      </trkpt>
      <trkpt lat="45.31244" lon="1.19635">
        <ele>222.899994</ele>
        <time>2011-05-08T06:22:11Z</time>
      </trkpt>
      <trkpt lat="45.31251" lon="1.19636">
        <ele>223.300003</ele>
        <time>2011-05-08T06:22:13Z</time>
      </trkpt>
      <trkpt lat="45.31258" lon="1.19636">
        <ele>223.600006</ele>
        <time>2011-05-08T06:22:15Z</time>
      </trkpt>
      <trkpt lat="45.31265" lon="1.19636">
        <ele>224.100006</ele>
        <time>2011-05-08T06:22:17Z</time>
      </trkpt>
      <trkpt lat="45.31273" lon="1.19636">
        <ele>224.600006</ele>
        <time>2011-05-08T06:22:19Z</time>
      </trkpt>
      <trkpt lat="45.31281" lon="1.19635">
        <ele>225.300003</ele>
        <time>2011-05-08T06:22:21Z</time>
      </trkpt>
      <trkpt lat="45.31288" lon="1.19636">
        <ele>225.600006</ele>
        <time>2011-05-08T06:22:23Z</time>
      </trkpt>
      <trkpt lat="45.31296" lon="1.19636">
        <ele>225.199997</ele>
        <time>2011-05-08T06:22:25Z</time>
      </trkpt>
      <trkpt lat="45.31305" lon="1.19636">
        <ele>224.699997</ele>
        <time>2011-05-08T06:22:27Z</time>
      </trkpt>
      <trkpt lat="45.31313" lon="1.19636">
        <ele>224.5</ele>
        <time>2011-05-08T06:22:29Z</time>
      </trkpt>
      <trkpt lat="45.31322" lon="1.19638">
        <ele>224.699997</ele>
        <time>2011-05-08T06:22:31Z</time>
      </trkpt>
      <trkpt lat="45.31326" lon="1.1964">
        <ele>224.699997</ele>
        <time>2011-05-08T06:22:32Z</time>
      </trkpt>
      <trkpt lat="45.31331" lon="1.19641">
        <ele>224.699997</ele>
        <time>2011-05-08T06:22:33Z</time>
      </trkpt>
      <trkpt lat="45.31335" lon="1.19642">
        <ele>224.699997</ele>
        <time>2011-05-08T06:22:34Z</time>
      </trkpt>
      <trkpt lat="45.3134" lon="1.19644">
        <ele>224.800003</ele>
        <time>2011-05-08T06:22:35Z</time>
      </trkpt>
      <trkpt lat="45.31345" lon="1.19646">
        <ele>224.899994</ele>
        <time>2011-05-08T06:22:36Z</time>
      </trkpt>
      <trkpt lat="45.31349" lon="1.19647">
        <ele>224.899994</ele>
        <time>2011-05-08T06:22:37Z</time>
      </trkpt>
      <trkpt lat="45.31354" lon="1.19649">
        <ele>225</ele>
        <time>2011-05-08T06:22:38Z</time>
      </trkpt>
      <trkpt lat="45.31359" lon="1.19651">
        <ele>224.699997</ele>
        <time>2011-05-08T06:22:39Z</time>
      </trkpt>
      <trkpt lat="45.31363" lon="1.19653">
        <ele>224.5</ele>
        <time>2011-05-08T06:22:40Z</time>
      </trkpt>
      <trkpt lat="45.31368" lon="1.19654">
        <ele>224.399994</ele>
        <time>2011-05-08T06:22:41Z</time>
      </trkpt>
      <trkpt lat="45.31373" lon="1.19655">
        <ele>224.399994</ele>
        <time>2011-05-08T06:22:42Z</time>
      </trkpt>
      <trkpt lat="45.31378" lon="1.19656">
        <ele>224.399994</ele>
        <time>2011-05-08T06:22:43Z</time>
      </trkpt>
      <trkpt lat="45.31383" lon="1.19657">
        <ele>224.800003</ele>
        <time>2011-05-08T06:22:44Z</time>
      </trkpt>
      <trkpt lat="45.31388" lon="1.19657">
        <ele>225.100006</ele>
        <time>2011-05-08T06:22:45Z</time>
      </trkpt>
      <trkpt lat="45.31392" lon="1.19658">
        <ele>225.300003</ele>
        <time>2011-05-08T06:22:46Z</time>
      </trkpt>
      <trkpt lat="45.31397" lon="1.19659">
        <ele>224.800003</ele>
        <time>2011-05-08T06:22:47Z</time>
      </trkpt>
      <trkpt lat="45.31402" lon="1.19659">
        <ele>224.399994</ele>
        <time>2011-05-08T06:22:48Z</time>
      </trkpt>
      <trkpt lat="45.31407" lon="1.19659">
        <ele>224.5</ele>
        <time>2011-05-08T06:22:49Z</time>
      </trkpt>
      <trkpt lat="45.31411" lon="1.19659">
        <ele>224.5</ele>
        <time>2011-05-08T06:22:50Z</time>
      </trkpt>
      <trkpt lat="45.31416" lon="1.1966">
        <ele>224.699997</ele>
        <time>2011-05-08T06:22:51Z</time>
      </trkpt>
      <trkpt lat="45.31421" lon="1.1966">
        <ele>224.899994</ele>
        <time>2011-05-08T06:22:52Z</time>
      </trkpt>
      <trkpt lat="45.31426" lon="1.1966">
        <ele>225</ele>
        <time>2011-05-08T06:22:53Z</time>
      </trkpt>
      <trkpt lat="45.31431" lon="1.1966">
        <ele>225.100006</ele>
        <time>2011-05-08T06:22:54Z</time>
      </trkpt>
      <trkpt lat="45.31436" lon="1.1966">
        <ele>225.199997</ele>
        <time>2011-05-08T06:22:55Z</time>
      </trkpt>
      <trkpt lat="45.31441" lon="1.19661">
        <ele>225.5</ele>
        <time>2011-05-08T06:22:56Z</time>
      </trkpt>
      <trkpt lat="45.31446" lon="1.19662">
        <ele>225.699997</ele>
        <time>2011-05-08T06:22:57Z</time>
      </trkpt>
      <trkpt lat="45.31451" lon="1.19663">
        <ele>225.100006</ele>
        <time>2011-05-08T06:22:58Z</time>
      </trkpt>
      <trkpt lat="45.31456" lon="1.19664">
        <ele>224.699997</ele>
        <time>2011-05-08T06:22:59Z</time>
      </trkpt>
      <trkpt lat="45.31462" lon="1.19666">
        <ele>224.399994</ele>
        <time>2011-05-08T06:23:00Z</time>
      </trkpt>
      <trkpt lat="45.31467" lon="1.19668">
        <ele>224.5</ele>
        <time>2011-05-08T06:23:01Z</time>
      </trkpt>
      <trkpt lat="45.31473" lon="1.19669">
        <ele>224.600006</ele>
        <time>2011-05-08T06:23:02Z</time>
      </trkpt>
      <trkpt lat="45.31478" lon="1.19671">
        <ele>224.5</ele>
        <time>2011-05-08T06:23:03Z</time>
      </trkpt>
      <trkpt lat="45.31484" lon="1.19672">
        <ele>224.399994</ele>
        <time>2011-05-08T06:23:04Z</time>
      </trkpt>
      <trkpt lat="45.31489" lon="1.19675">
        <ele>224.399994</ele>
        <time>2011-05-08T06:23:05Z</time>
      </trkpt>
      <trkpt lat="45.31494" lon="1.19677">
        <ele>224.300003</ele>
        <time>2011-05-08T06:23:06Z</time>
      </trkpt>
      <trkpt lat="45.31499" lon="1.1968">
        <ele>224.300003</ele>
        <time>2011-05-08T06:23:07Z</time>
      </trkpt>
      <trkpt lat="45.31504" lon="1.19683">
        <ele>224.600006</ele>
        <time>2011-05-08T06:23:08Z</time>
      </trkpt>
      <trkpt lat="45.31509" lon="1.19686">
        <ele>224.800003</ele>
        <time>2011-05-08T06:23:09Z</time>
      </trkpt>
      <trkpt lat="45.31515" lon="1.19687">
        <ele>224.800003</ele>
        <time>2011-05-08T06:23:10Z</time>
      </trkpt>
      <trkpt lat="45.31523" lon="1.19688">
        <ele>224.800003</ele>
        <time>2011-05-08T06:23:12Z</time>
      </trkpt>
      <trkpt lat="45.31528" lon="1.19689">
        <ele>224.5</ele>
        <time>2011-05-08T06:23:13Z</time>
      </trkpt>
      <trkpt lat="45.31533" lon="1.1969">
        <ele>224.300003</ele>
        <time>2011-05-08T06:23:14Z</time>
      </trkpt>
      <trkpt lat="45.31538" lon="1.19691">
        <ele>223.899994</ele>
        <time>2011-05-08T06:23:15Z</time>
      </trkpt>
      <trkpt lat="45.31543" lon="1.19692">
        <ele>223.699997</ele>
        <time>2011-05-08T06:23:16Z</time>
      </trkpt>
      <trkpt lat="45.31547" lon="1.19693">
        <ele>224.100006</ele>
        <time>2011-05-08T06:23:17Z</time>
      </trkpt>
      <trkpt lat="45.31552" lon="1.19694">
        <ele>224.399994</ele>
        <time>2011-05-08T06:23:18Z</time>
      </trkpt>
      <trkpt lat="45.31557" lon="1.19695">
        <ele>224.600006</ele>
        <time>2011-05-08T06:23:19Z</time>
      </trkpt>
      <trkpt lat="45.31561" lon="1.19696">
        <ele>224.699997</ele>
        <time>2011-05-08T06:23:20Z</time>
      </trkpt>
      <trkpt lat="45.3157" lon="1.19697">
        <ele>225.199997</ele>
        <time>2011-05-08T06:23:22Z</time>
      </trkpt>
      <trkpt lat="45.31579" lon="1.19696">
        <ele>225.600006</ele>
        <time>2011-05-08T06:23:24Z</time>
      </trkpt>
      <trkpt lat="45.31586" lon="1.19694">
        <ele>225.800003</ele>
        <time>2011-05-08T06:23:26Z</time>
      </trkpt>
      <trkpt lat="45.31594" lon="1.19691">
        <ele>225.800003</ele>
        <time>2011-05-08T06:23:28Z</time>
      </trkpt>
      <trkpt lat="45.31601" lon="1.19689">
        <ele>226.5</ele>
        <time>2011-05-08T06:23:30Z</time>
      </trkpt>
      <trkpt lat="45.31608" lon="1.19687">
        <ele>226.699997</ele>
        <time>2011-05-08T06:23:32Z</time>
      </trkpt>
      <trkpt lat="45.31614" lon="1.19685">
        <ele>227</ele>
        <time>2011-05-08T06:23:34Z</time>
      </trkpt>
      <trkpt lat="45.31623" lon="1.19682">
        <ele>228.899994</ele>
        <time>2011-05-08T06:23:43Z</time>
      </trkpt>
      <trkpt lat="45.31623" lon="1.19682">
        <ele>229.100006</ele>
        <time>2011-05-08T06:23:44Z</time>
      </trkpt>
      <trkpt lat="45.31637" lon="1.1967">
        <ele>229.100006</ele>
        <time>2011-05-08T06:24:07Z</time>
      </trkpt>
      <trkpt lat="45.31645" lon="1.1967">
        <ele>229.300003</ele>
        <time>2011-05-08T06:24:11Z</time>
      </trkpt>
      <trkpt lat="45.31651" lon="1.19676">
        <ele>230.600006</ele>
        <time>2011-05-08T06:24:14Z</time>
      </trkpt>
      <trkpt lat="45.31657" lon="1.19683">
        <ele>231.699997</ele>
        <time>2011-05-08T06:24:18Z</time>
      </trkpt>
      <trkpt lat="45.31663" lon="1.19688">
        <ele>232.600006</ele>
        <time>2011-05-08T06:24:21Z</time>
      </trkpt>
      <trkpt lat="45.31671" lon="1.19691">
        <ele>232.699997</ele>
        <time>2011-05-08T06:24:24Z</time>
      </trkpt>
      <trkpt lat="45.31679" lon="1.19694">
        <ele>233.300003</ele>
        <time>2011-05-08T06:24:27Z</time>
      </trkpt>
      <trkpt lat="45.31687" lon="1.19697">
        <ele>233.399994</ele>
        <time>2011-05-08T06:24:30Z</time>
      </trkpt>
      <trkpt lat="45.31693" lon="1.197">
        <ele>233.199997</ele>
        <time>2011-05-08T06:24:32Z</time>
      </trkpt>
      <trkpt lat="45.31699" lon="1.19704">
        <ele>233.5</ele>
        <time>2011-05-08T06:24:34Z</time>
      </trkpt>
      <trkpt lat="45.31705" lon="1.19708">
        <ele>233.600006</ele>
        <time>2011-05-08T06:24:36Z</time>
      </trkpt>
      <trkpt lat="45.31711" lon="1.19712">
        <ele>234.100006</ele>
        <time>2011-05-08T06:24:38Z</time>
      </trkpt>
      <trkpt lat="45.31718" lon="1.19719">
        <ele>234.699997</ele>
        <time>2011-05-08T06:24:41Z</time>
      </trkpt>
      <trkpt lat="45.31724" lon="1.19727">
        <ele>235.300003</ele>
        <time>2011-05-08T06:24:44Z</time>
      </trkpt>
      <trkpt lat="45.31725" lon="1.19729">
        <ele>235.600006</ele>
        <time>2011-05-08T06:24:45Z</time>
      </trkpt>
      <trkpt lat="45.31737" lon="1.1974">
        <ele>237.800003</ele>
        <time>2011-05-08T06:24:52Z</time>
      </trkpt>
      <trkpt lat="45.31744" lon="1.19744">
        <ele>238.699997</ele>
        <time>2011-05-08T06:24:57Z</time>
      </trkpt>
      <trkpt lat="45.31753" lon="1.19743">
        <ele>239.399994</ele>
        <time>2011-05-08T06:25:02Z</time>
      </trkpt>
      <trkpt lat="45.31761" lon="1.19738">
        <ele>240.800003</ele>
        <time>2011-05-08T06:25:08Z</time>
      </trkpt>
      <trkpt lat="45.31765" lon="1.19729">
        <ele>242.600006</ele>
        <time>2011-05-08T06:25:13Z</time>
      </trkpt>
      <trkpt lat="45.31769" lon="1.19719">
        <ele>243.300003</ele>
        <time>2011-05-08T06:25:19Z</time>
      </trkpt>
      <trkpt lat="45.31774" lon="1.19708">
        <ele>245.600006</ele>
        <time>2011-05-08T06:25:25Z</time>
      </trkpt>
      <trkpt lat="45.31779" lon="1.19699">
        <ele>247.100006</ele>
        <time>2011-05-08T06:25:31Z</time>
      </trkpt>
      <trkpt lat="45.31784" lon="1.19691">
        <ele>248.600006</ele>
        <time>2011-05-08T06:25:37Z</time>
      </trkpt>
      <trkpt lat="45.31789" lon="1.19682">
        <ele>248.899994</ele>
        <time>2011-05-08T06:25:43Z</time>
      </trkpt>
      <trkpt lat="45.31794" lon="1.19673">
        <ele>250.300003</ele>
        <time>2011-05-08T06:25:49Z</time>
      </trkpt>
      <trkpt lat="45.31795" lon="1.19672">
        <ele>250.5</ele>
        <time>2011-05-08T06:25:50Z</time>
      </trkpt>
      <trkpt lat="45.31804" lon="1.19655">
        <ele>253.300003</ele>
        <time>2011-05-08T06:26:01Z</time>
      </trkpt>
      <trkpt lat="45.3181" lon="1.19648">
        <ele>254.800003</ele>
        <time>2011-05-08T06:26:07Z</time>
      </trkpt>
      <trkpt lat="45.31816" lon="1.19641">
        <ele>256.299988</ele>
        <time>2011-05-08T06:26:13Z</time>
      </trkpt>
      <trkpt lat="45.31821" lon="1.19632">
        <ele>257.799988</ele>
        <time>2011-05-08T06:26:19Z</time>
      </trkpt>
      <trkpt lat="45.31826" lon="1.19622">
        <ele>259.200012</ele>
        <time>2011-05-08T06:26:25Z</time>
      </trkpt>
      <trkpt lat="45.3183" lon="1.19613">
        <ele>261</ele>
        <time>2011-05-08T06:26:31Z</time>
      </trkpt>
      <trkpt lat="45.31834" lon="1.19602">
        <ele>262.799988</ele>
        <time>2011-05-08T06:26:38Z</time>
      </trkpt>
      <trkpt lat="45.31838" lon="1.19591">
        <ele>265.399994</ele>
        <time>2011-05-08T06:26:45Z</time>
      </trkpt>
      <trkpt lat="45.31841" lon="1.1958">
        <ele>266.700012</ele>
        <time>2011-05-08T06:26:52Z</time>
      </trkpt>
      <trkpt lat="45.31842" lon="1.19579">
        <ele>266.600006</ele>
        <time>2011-05-08T06:26:53Z</time>
      </trkpt>
      <trkpt lat="45.31846" lon="1.19557">
        <ele>269</ele>
        <time>2011-05-08T06:27:05Z</time>
      </trkpt>
      <trkpt lat="45.31851" lon="1.19548">
        <ele>269.700012</ele>
        <time>2011-05-08T06:27:10Z</time>
      </trkpt>
      <trkpt lat="45.31854" lon="1.19538">
        <ele>271.5</ele>
        <time>2011-05-08T06:27:15Z</time>
      </trkpt>
      <trkpt lat="45.31856" lon="1.19526">
        <ele>271.899994</ele>
        <time>2011-05-08T06:27:20Z</time>
      </trkpt>
      <trkpt lat="45.31859" lon="1.19515">
        <ele>272.600006</ele>
        <time>2011-05-08T06:27:25Z</time>
      </trkpt>
      <trkpt lat="45.31863" lon="1.19505">
        <ele>274</ele>
        <time>2011-05-08T06:27:30Z</time>
      </trkpt>
      <trkpt lat="45.31866" lon="1.19496">
        <ele>274</ele>
        <time>2011-05-08T06:27:35Z</time>
      </trkpt>
      <trkpt lat="45.31871" lon="1.19487">
        <ele>274.600006</ele>
        <time>2011-05-08T06:27:40Z</time>
      </trkpt>
      <trkpt lat="45.31875" lon="1.19475">
        <ele>275.399994</ele>
        <time>2011-05-08T06:27:45Z</time>
      </trkpt>
      <trkpt lat="45.31879" lon="1.19466">
        <ele>275.5</ele>
        <time>2011-05-08T06:27:49Z</time>
      </trkpt>
      <trkpt lat="45.31882" lon="1.19456">
        <ele>276.899994</ele>
        <time>2011-05-08T06:27:53Z</time>
      </trkpt>
      <trkpt lat="45.31883" lon="1.19454">
        <ele>277</ele>
        <time>2011-05-08T06:27:54Z</time>
      </trkpt>
      <trkpt lat="45.3189" lon="1.19436">
        <ele>277.399994</ele>
        <time>2011-05-08T06:28:01Z</time>
      </trkpt>
      <trkpt lat="45.31894" lon="1.19425">
        <ele>278.200012</ele>
        <time>2011-05-08T06:28:05Z</time>
      </trkpt>
      <trkpt lat="45.31897" lon="1.19416">
        <ele>278.799988</ele>
        <time>2011-05-08T06:28:08Z</time>
      </trkpt>
      <trkpt lat="45.319" lon="1.19407">
        <ele>278.799988</ele>
        <time>2011-05-08T06:28:11Z</time>
      </trkpt>
      <trkpt lat="45.31903" lon="1.19399">
        <ele>279.700012</ele>
        <time>2011-05-08T06:28:14Z</time>
      </trkpt>
      <trkpt lat="45.31908" lon="1.19388">
        <ele>281.5</ele>
        <time>2011-05-08T06:28:18Z</time>
      </trkpt>
      <trkpt lat="45.31912" lon="1.19379">
        <ele>282</ele>
        <time>2011-05-08T06:28:21Z</time>
      </trkpt>
      <trkpt lat="45.31915" lon="1.1937">
        <ele>282.299988</ele>
        <time>2011-05-08T06:28:24Z</time>
      </trkpt>
      <trkpt lat="45.31919" lon="1.1936">
        <ele>282.799988</ele>
        <time>2011-05-08T06:28:27Z</time>
      </trkpt>
      <trkpt lat="45.31923" lon="1.19349">
        <ele>282.299988</ele>
        <time>2011-05-08T06:28:30Z</time>
      </trkpt>
      <trkpt lat="45.31926" lon="1.19338">
        <ele>283.200012</ele>
        <time>2011-05-08T06:28:33Z</time>
      </trkpt>
      <trkpt lat="45.31928" lon="1.19329">
        <ele>283.5</ele>
        <time>2011-05-08T06:28:35Z</time>
      </trkpt>
      <trkpt lat="45.31931" lon="1.1932">
        <ele>283.299988</ele>
        <time>2011-05-08T06:28:37Z</time>
      </trkpt>
      <trkpt lat="45.31933" lon="1.19309">
        <ele>283.5</ele>
        <time>2011-05-08T06:28:39Z</time>
      </trkpt>
      <trkpt lat="45.31937" lon="1.19299">
        <ele>283.600006</ele>
        <time>2011-05-08T06:28:41Z</time>
      </trkpt>
      <trkpt lat="45.3194" lon="1.19288">
        <ele>283.5</ele>
        <time>2011-05-08T06:28:43Z</time>
      </trkpt>
      <trkpt lat="45.31943" lon="1.19278">
        <ele>283.399994</ele>
        <time>2011-05-08T06:28:45Z</time>
      </trkpt>
      <trkpt lat="45.31946" lon="1.19267">
        <ele>283.799988</ele>
        <time>2011-05-08T06:28:47Z</time>
      </trkpt>
      <trkpt lat="45.31949" lon="1.19257">
        <ele>284.200012</ele>
        <time>2011-05-08T06:28:49Z</time>
      </trkpt>
      <trkpt lat="45.31952" lon="1.19247">
        <ele>284.399994</ele>
        <time>2011-05-08T06:28:51Z</time>
      </trkpt>
      <trkpt lat="45.31955" lon="1.19236">
        <ele>283.899994</ele>
        <time>2011-05-08T06:28:53Z</time>
      </trkpt>
      <trkpt lat="45.31958" lon="1.19226">
        <ele>284.100006</ele>
        <time>2011-05-08T06:28:55Z</time>
      </trkpt>
      <trkpt lat="45.31959" lon="1.19221">
        <ele>284.100006</ele>
        <time>2011-05-08T06:28:56Z</time>
      </trkpt>
      <trkpt lat="45.31964" lon="1.19208">
        <ele>284.5</ele>
        <time>2011-05-08T06:28:59Z</time>
      </trkpt>
      <trkpt lat="45.31967" lon="1.19199">
        <ele>285.200012</ele>
        <time>2011-05-08T06:29:01Z</time>
      </trkpt>
      <trkpt lat="45.31969" lon="1.19191">
        <ele>285.399994</ele>
        <time>2011-05-08T06:29:03Z</time>
      </trkpt>
      <trkpt lat="45.31972" lon="1.19179">
        <ele>286.200012</ele>
        <time>2011-05-08T06:29:06Z</time>
      </trkpt>
      <trkpt lat="45.31974" lon="1.19171">
        <ele>287</ele>
        <time>2011-05-08T06:29:08Z</time>
      </trkpt>
      <trkpt lat="45.31977" lon="1.19162">
        <ele>286.799988</ele>
        <time>2011-05-08T06:29:10Z</time>
      </trkpt>
      <trkpt lat="45.31979" lon="1.19154">
        <ele>287.299988</ele>
        <time>2011-05-08T06:29:12Z</time>
      </trkpt>
      <trkpt lat="45.31981" lon="1.19146">
        <ele>287.5</ele>
        <time>2011-05-08T06:29:14Z</time>
      </trkpt>
      <trkpt lat="45.31985" lon="1.19134">
        <ele>288.200012</ele>
        <time>2011-05-08T06:29:17Z</time>
      </trkpt>
      <trkpt lat="45.31988" lon="1.19125">
        <ele>289.200012</ele>
        <time>2011-05-08T06:29:20Z</time>
      </trkpt>
      <trkpt lat="45.31992" lon="1.19115">
        <ele>290.100006</ele>
        <time>2011-05-08T06:29:23Z</time>
      </trkpt>
      <trkpt lat="45.31995" lon="1.19106">
        <ele>290.799988</ele>
        <time>2011-05-08T06:29:26Z</time>
      </trkpt>
      <trkpt lat="45.31998" lon="1.19097">
        <ele>290.799988</ele>
        <time>2011-05-08T06:29:29Z</time>
      </trkpt>
      <trkpt lat="45.32001" lon="1.19088">
        <ele>292</ele>
        <time>2011-05-08T06:29:32Z</time>
      </trkpt>
      <trkpt lat="45.32004" lon="1.19079">
        <ele>292.5</ele>
        <time>2011-05-08T06:29:35Z</time>
      </trkpt>
      <trkpt lat="45.32008" lon="1.1907">
        <ele>293.200012</ele>
        <time>2011-05-08T06:29:38Z</time>
      </trkpt>
      <trkpt lat="45.32012" lon="1.19062">
        <ele>293.799988</ele>
        <time>2011-05-08T06:29:41Z</time>
      </trkpt>
      <trkpt lat="45.32017" lon="1.19054">
        <ele>295</ele>
        <time>2011-05-08T06:29:44Z</time>
      </trkpt>
      <trkpt lat="45.32022" lon="1.19045">
        <ele>295.100006</ele>
        <time>2011-05-08T06:29:47Z</time>
      </trkpt>
      <trkpt lat="45.32027" lon="1.19037">
        <ele>296</ele>
        <time>2011-05-08T06:29:50Z</time>
      </trkpt>
      <trkpt lat="45.32032" lon="1.19028">
        <ele>296.100006</ele>
        <time>2011-05-08T06:29:53Z</time>
      </trkpt>
      <trkpt lat="45.32037" lon="1.19018">
        <ele>297.700012</ele>
        <time>2011-05-08T06:29:56Z</time>
      </trkpt>
      <trkpt lat="45.32039" lon="1.19015">
        <ele>298.100006</ele>
        <time>2011-05-08T06:29:57Z</time>
      </trkpt>
      <trkpt lat="45.32052" lon="1.18992">
        <ele>299</ele>
        <time>2011-05-08T06:30:04Z</time>
      </trkpt>
      <trkpt lat="45.32057" lon="1.18983">
        <ele>299</ele>
        <time>2011-05-08T06:30:07Z</time>
      </trkpt>
      <trkpt lat="45.32062" lon="1.18973">
        <ele>299.799988</ele>
        <time>2011-05-08T06:30:10Z</time>
      </trkpt>
      <trkpt lat="45.32067" lon="1.18965">
        <ele>300.200012</ele>
        <time>2011-05-08T06:30:13Z</time>
      </trkpt>
      <trkpt lat="45.32074" lon="1.18958">
        <ele>300.700012</ele>
        <time>2011-05-08T06:30:16Z</time>
      </trkpt>
      <trkpt lat="45.32082" lon="1.18954">
        <ele>301.600006</ele>
        <time>2011-05-08T06:30:19Z</time>
      </trkpt>
      <trkpt lat="45.3209" lon="1.18953">
        <ele>301.899994</ele>
        <time>2011-05-08T06:30:22Z</time>
      </trkpt>
      <trkpt lat="45.32099" lon="1.18952">
        <ele>302.600006</ele>
        <time>2011-05-08T06:30:25Z</time>
      </trkpt>
      <trkpt lat="45.32107" lon="1.1895">
        <ele>303</ele>
        <time>2011-05-08T06:30:28Z</time>
      </trkpt>
      <trkpt lat="45.32113" lon="1.18947">
        <ele>303.399994</ele>
        <time>2011-05-08T06:30:30Z</time>
      </trkpt>
      <trkpt lat="45.32118" lon="1.18942">
        <ele>303.700012</ele>
        <time>2011-05-08T06:30:32Z</time>
      </trkpt>
      <trkpt lat="45.32124" lon="1.18937">
        <ele>304</ele>
        <time>2011-05-08T06:30:34Z</time>
      </trkpt>
      <trkpt lat="45.3213" lon="1.18932">
        <ele>303.799988</ele>
        <time>2011-05-08T06:30:36Z</time>
      </trkpt>
      <trkpt lat="45.32135" lon="1.18926">
        <ele>303.299988</ele>
        <time>2011-05-08T06:30:38Z</time>
      </trkpt>
      <trkpt lat="45.3214" lon="1.1892">
        <ele>303.100006</ele>
        <time>2011-05-08T06:30:40Z</time>
      </trkpt>
      <trkpt lat="45.32145" lon="1.18913">
        <ele>303.600006</ele>
        <time>2011-05-08T06:30:42Z</time>
      </trkpt>
      <trkpt lat="45.3215" lon="1.18906">
        <ele>304.100006</ele>
        <time>2011-05-08T06:30:44Z</time>
      </trkpt>
      <trkpt lat="45.32155" lon="1.18897">
        <ele>304.100006</ele>
        <time>2011-05-08T06:30:46Z</time>
      </trkpt>
      <trkpt lat="45.3216" lon="1.18888">
        <ele>304.100006</ele>
        <time>2011-05-08T06:30:48Z</time>
      </trkpt>
      <trkpt lat="45.32165" lon="1.18878">
        <ele>304.299988</ele>
        <time>2011-05-08T06:30:50Z</time>
      </trkpt>
      <trkpt lat="45.32171" lon="1.18868">
        <ele>304.200012</ele>
        <time>2011-05-08T06:30:52Z</time>
      </trkpt>
      <trkpt lat="45.32173" lon="1.18862">
        <ele>304.100006</ele>
        <time>2011-05-08T06:30:53Z</time>
      </trkpt>
      <trkpt lat="45.32179" lon="1.18852">
        <ele>304.399994</ele>
        <time>2011-05-08T06:30:55Z</time>
      </trkpt>
      <trkpt lat="45.32184" lon="1.18842">
        <ele>304.799988</ele>
        <time>2011-05-08T06:30:57Z</time>
      </trkpt>
      <trkpt lat="45.32186" lon="1.18838">
        <ele>304.899994</ele>
        <time>2011-05-08T06:30:58Z</time>
      </trkpt>
      <trkpt lat="45.32193" lon="1.18824">
        <ele>305.5</ele>
        <time>2011-05-08T06:31:01Z</time>
      </trkpt>
      <trkpt lat="45.32197" lon="1.18814">
        <ele>305.799988</ele>
        <time>2011-05-08T06:31:03Z</time>
      </trkpt>
      <trkpt lat="45.32201" lon="1.18803">
        <ele>305.700012</ele>
        <time>2011-05-08T06:31:05Z</time>
      </trkpt>
      <trkpt lat="45.32204" lon="1.18793">
        <ele>305.700012</ele>
        <time>2011-05-08T06:31:07Z</time>
      </trkpt>
      <trkpt lat="45.32206" lon="1.18782">
        <ele>305.899994</ele>
        <time>2011-05-08T06:31:09Z</time>
      </trkpt>
      <trkpt lat="45.32208" lon="1.1877">
        <ele>306.200012</ele>
        <time>2011-05-08T06:31:11Z</time>
      </trkpt>
      <trkpt lat="45.32211" lon="1.18758">
        <ele>306.600006</ele>
        <time>2011-05-08T06:31:13Z</time>
      </trkpt>
      <trkpt lat="45.32214" lon="1.18746">
        <ele>307.200012</ele>
        <time>2011-05-08T06:31:15Z</time>
      </trkpt>
      <trkpt lat="45.32216" lon="1.1874">
        <ele>307.399994</ele>
        <time>2011-05-08T06:31:16Z</time>
      </trkpt>
      <trkpt lat="45.32218" lon="1.18734">
        <ele>307.200012</ele>
        <time>2011-05-08T06:31:17Z</time>
      </trkpt>
      <trkpt lat="45.3222" lon="1.18728">
        <ele>307.100006</ele>
        <time>2011-05-08T06:31:18Z</time>
      </trkpt>
      <trkpt lat="45.32222" lon="1.18722">
        <ele>307.100006</ele>
        <time>2011-05-08T06:31:19Z</time>
      </trkpt>
      <trkpt lat="45.32224" lon="1.18716">
        <ele>307</ele>
        <time>2011-05-08T06:31:20Z</time>
      </trkpt>
      <trkpt lat="45.32227" lon="1.18711">
        <ele>307.299988</ele>
        <time>2011-05-08T06:31:21Z</time>
      </trkpt>
      <trkpt lat="45.3223" lon="1.18705">
        <ele>307.600006</ele>
        <time>2011-05-08T06:31:22Z</time>
      </trkpt>
      <trkpt lat="45.32232" lon="1.187">
        <ele>307.799988</ele>
        <time>2011-05-08T06:31:23Z</time>
      </trkpt>
      <trkpt lat="45.32235" lon="1.18694">
        <ele>307.399994</ele>
        <time>2011-05-08T06:31:24Z</time>
      </trkpt>
      <trkpt lat="45.32238" lon="1.18688">
        <ele>307.100006</ele>
        <time>2011-05-08T06:31:25Z</time>
      </trkpt>
      <trkpt lat="45.32242" lon="1.18683">
        <ele>306.600006</ele>
        <time>2011-05-08T06:31:26Z</time>
      </trkpt>
      <trkpt lat="45.32245" lon="1.18677">
        <ele>306.299988</ele>
        <time>2011-05-08T06:31:27Z</time>
      </trkpt>
      <trkpt lat="45.32248" lon="1.18671">
        <ele>306</ele>
        <time>2011-05-08T06:31:28Z</time>
      </trkpt>
      <trkpt lat="45.32251" lon="1.18665">
        <ele>306.5</ele>
        <time>2011-05-08T06:31:29Z</time>
      </trkpt>
      <trkpt lat="45.32255" lon="1.1866">
        <ele>306.799988</ele>
        <time>2011-05-08T06:31:30Z</time>
      </trkpt>
      <trkpt lat="45.32259" lon="1.18654">
        <ele>307</ele>
        <time>2011-05-08T06:31:31Z</time>
      </trkpt>
      <trkpt lat="45.32262" lon="1.18649">
        <ele>307.100006</ele>
        <time>2011-05-08T06:31:32Z</time>
      </trkpt>
      <trkpt lat="45.32266" lon="1.18643">
        <ele>306.899994</ele>
        <time>2011-05-08T06:31:33Z</time>
      </trkpt>
      <trkpt lat="45.3227" lon="1.18638">
        <ele>306.799988</ele>
        <time>2011-05-08T06:31:34Z</time>
      </trkpt>
      <trkpt lat="45.32274" lon="1.18633">
        <ele>306.700012</ele>
        <time>2011-05-08T06:31:35Z</time>
      </trkpt>
      <trkpt lat="45.32279" lon="1.18628">
        <ele>306.899994</ele>
        <time>2011-05-08T06:31:36Z</time>
      </trkpt>
      <trkpt lat="45.32283" lon="1.18623">
        <ele>306.899994</ele>
        <time>2011-05-08T06:31:37Z</time>
      </trkpt>
      <trkpt lat="45.32288" lon="1.18618">
        <ele>306.799988</ele>
        <time>2011-05-08T06:31:38Z</time>
      </trkpt>
      <trkpt lat="45.32292" lon="1.18614">
        <ele>306.700012</ele>
        <time>2011-05-08T06:31:39Z</time>
      </trkpt>
      <trkpt lat="45.32297" lon="1.18609">
        <ele>306.700012</ele>
        <time>2011-05-08T06:31:40Z</time>
      </trkpt>
      <trkpt lat="45.32301" lon="1.18604">
        <ele>306.600006</ele>
        <time>2011-05-08T06:31:41Z</time>
      </trkpt>
      <trkpt lat="45.32306" lon="1.18599">
        <ele>306.5</ele>
        <time>2011-05-08T06:31:42Z</time>
      </trkpt>
      <trkpt lat="45.3231" lon="1.18595">
        <ele>306.799988</ele>
        <time>2011-05-08T06:31:43Z</time>
      </trkpt>
      <trkpt lat="45.32314" lon="1.1859">
        <ele>306.899994</ele>
        <time>2011-05-08T06:31:44Z</time>
      </trkpt>
      <trkpt lat="45.32319" lon="1.18585">
        <ele>307</ele>
        <time>2011-05-08T06:31:45Z</time>
      </trkpt>
      <trkpt lat="45.32323" lon="1.1858">
        <ele>307</ele>
        <time>2011-05-08T06:31:46Z</time>
      </trkpt>
      <trkpt lat="45.32327" lon="1.18575">
        <ele>307</ele>
        <time>2011-05-08T06:31:47Z</time>
      </trkpt>
      <trkpt lat="45.3233" lon="1.1857">
        <ele>307</ele>
        <time>2011-05-08T06:31:48Z</time>
      </trkpt>
      <trkpt lat="45.32334" lon="1.18564">
        <ele>306.899994</ele>
        <time>2011-05-08T06:31:49Z</time>
      </trkpt>
      <trkpt lat="45.32336" lon="1.18558">
        <ele>306.899994</ele>
        <time>2011-05-08T06:31:50Z</time>
      </trkpt>
      <trkpt lat="45.32339" lon="1.18552">
        <ele>306.799988</ele>
        <time>2011-05-08T06:31:51Z</time>
      </trkpt>
      <trkpt lat="45.32342" lon="1.18546">
        <ele>306.899994</ele>
        <time>2011-05-08T06:31:52Z</time>
      </trkpt>
      <trkpt lat="45.32345" lon="1.18541">
        <ele>306.899994</ele>
        <time>2011-05-08T06:31:53Z</time>
      </trkpt>
      <trkpt lat="45.32349" lon="1.18536">
        <ele>306.899994</ele>
        <time>2011-05-08T06:31:54Z</time>
      </trkpt>
      <trkpt lat="45.32353" lon="1.18534">
        <ele>307.200012</ele>
        <time>2011-05-08T06:31:55Z</time>
      </trkpt>
      <trkpt lat="45.32357" lon="1.18533">
        <ele>307.5</ele>
        <time>2011-05-08T06:31:56Z</time>
      </trkpt>
      <trkpt lat="45.32362" lon="1.18533">
        <ele>307.899994</ele>
        <time>2011-05-08T06:31:57Z</time>
      </trkpt>
      <trkpt lat="45.32367" lon="1.18534">
        <ele>308.200012</ele>
        <time>2011-05-08T06:31:58Z</time>
      </trkpt>
      <trkpt lat="45.32371" lon="1.18535">
        <ele>307.799988</ele>
        <time>2011-05-08T06:31:59Z</time>
      </trkpt>
      <trkpt lat="45.32376" lon="1.18536">
        <ele>307.5</ele>
        <time>2011-05-08T06:32:00Z</time>
      </trkpt>
      <trkpt lat="45.32381" lon="1.18536">
        <ele>307.299988</ele>
        <time>2011-05-08T06:32:01Z</time>
      </trkpt>
      <trkpt lat="45.32385" lon="1.18537">
        <ele>307.299988</ele>
        <time>2011-05-08T06:32:02Z</time>
      </trkpt>
      <trkpt lat="45.3239" lon="1.18538">
        <ele>307.299988</ele>
        <time>2011-05-08T06:32:03Z</time>
      </trkpt>
      <trkpt lat="45.32395" lon="1.18539">
        <ele>307.5</ele>
        <time>2011-05-08T06:32:04Z</time>
      </trkpt>
      <trkpt lat="45.324" lon="1.1854">
        <ele>307.600006</ele>
        <time>2011-05-08T06:32:05Z</time>
      </trkpt>
      <trkpt lat="45.32405" lon="1.1854">
        <ele>307.700012</ele>
        <time>2011-05-08T06:32:06Z</time>
      </trkpt>
      <trkpt lat="45.3241" lon="1.18541">
        <ele>307.899994</ele>
        <time>2011-05-08T06:32:07Z</time>
      </trkpt>
      <trkpt lat="45.32418" lon="1.18545">
        <ele>308.100006</ele>
        <time>2011-05-08T06:32:09Z</time>
      </trkpt>
      <trkpt lat="45.32422" lon="1.18555">
        <ele>308</ele>
        <time>2011-05-08T06:32:11Z</time>
      </trkpt>
      <trkpt lat="45.32425" lon="1.18561">
        <ele>307.799988</ele>
        <time>2011-05-08T06:32:12Z</time>
      </trkpt>
      <trkpt lat="45.32427" lon="1.18567">
        <ele>307.700012</ele>
        <time>2011-05-08T06:32:13Z</time>
      </trkpt>
      <trkpt lat="45.3243" lon="1.18573">
        <ele>307.799988</ele>
        <time>2011-05-08T06:32:14Z</time>
      </trkpt>
      <trkpt lat="45.32433" lon="1.18579">
        <ele>307.899994</ele>
        <time>2011-05-08T06:32:15Z</time>
      </trkpt>
      <trkpt lat="45.32436" lon="1.18585">
        <ele>307.799988</ele>
        <time>2011-05-08T06:32:16Z</time>
      </trkpt>
      <trkpt lat="45.32439" lon="1.18591">
        <ele>307.799988</ele>
        <time>2011-05-08T06:32:17Z</time>
      </trkpt>
      <trkpt lat="45.32441" lon="1.18597">
        <ele>307.299988</ele>
        <time>2011-05-08T06:32:18Z</time>
      </trkpt>
      <trkpt lat="45.32444" lon="1.18603">
        <ele>306.899994</ele>
        <time>2011-05-08T06:32:19Z</time>
      </trkpt>
      <trkpt lat="45.32447" lon="1.18608">
        <ele>306.600006</ele>
        <time>2011-05-08T06:32:20Z</time>
      </trkpt>
      <trkpt lat="45.32449" lon="1.18614">
        <ele>306.700012</ele>
        <time>2011-05-08T06:32:21Z</time>
      </trkpt>
      <trkpt lat="45.32451" lon="1.1862">
        <ele>306.799988</ele>
        <time>2011-05-08T06:32:22Z</time>
      </trkpt>
      <trkpt lat="45.32454" lon="1.18625">
        <ele>306.799988</ele>
        <time>2011-05-08T06:32:23Z</time>
      </trkpt>
      <trkpt lat="45.32456" lon="1.18631">
        <ele>306.899994</ele>
        <time>2011-05-08T06:32:24Z</time>
      </trkpt>
      <trkpt lat="45.32459" lon="1.18637">
        <ele>306.899994</ele>
        <time>2011-05-08T06:32:25Z</time>
      </trkpt>
      <trkpt lat="45.32461" lon="1.18643">
        <ele>306.700012</ele>
        <time>2011-05-08T06:32:26Z</time>
      </trkpt>
      <trkpt lat="45.32463" lon="1.18649">
        <ele>306.600006</ele>
        <time>2011-05-08T06:32:27Z</time>
      </trkpt>
      <trkpt lat="45.32465" lon="1.18654">
        <ele>306.5</ele>
        <time>2011-05-08T06:32:28Z</time>
      </trkpt>
      <trkpt lat="45.32468" lon="1.18666">
        <ele>306.700012</ele>
        <time>2011-05-08T06:32:30Z</time>
      </trkpt>
      <trkpt lat="45.32471" lon="1.18677">
        <ele>306.899994</ele>
        <time>2011-05-08T06:32:32Z</time>
      </trkpt>
      <trkpt lat="45.32474" lon="1.18686">
        <ele>307.299988</ele>
        <time>2011-05-08T06:32:34Z</time>
      </trkpt>
      <trkpt lat="45.32478" lon="1.18695">
        <ele>307.5</ele>
        <time>2011-05-08T06:32:36Z</time>
      </trkpt>
      <trkpt lat="45.32483" lon="1.18703">
        <ele>307.799988</ele>
        <time>2011-05-08T06:32:38Z</time>
      </trkpt>
      <trkpt lat="45.32489" lon="1.18711">
        <ele>307.899994</ele>
        <time>2011-05-08T06:32:40Z</time>
      </trkpt>
      <trkpt lat="45.32496" lon="1.18718">
        <ele>307.700012</ele>
        <time>2011-05-08T06:32:42Z</time>
      </trkpt>
      <trkpt lat="45.32503" lon="1.18724">
        <ele>307.5</ele>
        <time>2011-05-08T06:32:44Z</time>
      </trkpt>
      <trkpt lat="45.32509" lon="1.18729">
        <ele>307.299988</ele>
        <time>2011-05-08T06:32:46Z</time>
      </trkpt>
      <trkpt lat="45.32516" lon="1.18733">
        <ele>307.5</ele>
        <time>2011-05-08T06:32:48Z</time>
      </trkpt>
      <trkpt lat="45.32524" lon="1.18736">
        <ele>307.5</ele>
        <time>2011-05-08T06:32:50Z</time>
      </trkpt>
      <trkpt lat="45.32532" lon="1.1874">
        <ele>307.5</ele>
        <time>2011-05-08T06:32:52Z</time>
      </trkpt>
      <trkpt lat="45.32539" lon="1.18743">
        <ele>307.899994</ele>
        <time>2011-05-08T06:32:54Z</time>
      </trkpt>
      <trkpt lat="45.32546" lon="1.18747">
        <ele>308.399994</ele>
        <time>2011-05-08T06:32:56Z</time>
      </trkpt>
      <trkpt lat="45.32551" lon="1.18753">
        <ele>308.5</ele>
        <time>2011-05-08T06:32:58Z</time>
      </trkpt>
      <trkpt lat="45.32556" lon="1.18761">
        <ele>308.100006</ele>
        <time>2011-05-08T06:33:00Z</time>
      </trkpt>
      <trkpt lat="45.32557" lon="1.18766">
        <ele>308.100006</ele>
        <time>2011-05-08T06:33:01Z</time>
      </trkpt>
      <trkpt lat="45.32562" lon="1.18781">
        <ele>307.799988</ele>
        <time>2011-05-08T06:33:04Z</time>
      </trkpt>
      <trkpt lat="45.32565" lon="1.1879">
        <ele>307.600006</ele>
        <time>2011-05-08T06:33:06Z</time>
      </trkpt>
      <trkpt lat="45.32567" lon="1.18799">
        <ele>307.700012</ele>
        <time>2011-05-08T06:33:08Z</time>
      </trkpt>
      <trkpt lat="45.32568" lon="1.18808">
        <ele>308</ele>
        <time>2011-05-08T06:33:10Z</time>
      </trkpt>
      <trkpt lat="45.32565" lon="1.18816">
        <ele>307.899994</ele>
        <time>2011-05-08T06:33:12Z</time>
      </trkpt>
      <trkpt lat="45.32562" lon="1.18828">
        <ele>308.299988</ele>
        <time>2011-05-08T06:33:15Z</time>
      </trkpt>
      <trkpt lat="45.32558" lon="1.18837">
        <ele>309.299988</ele>
        <time>2011-05-08T06:33:18Z</time>
      </trkpt>
      <trkpt lat="45.32556" lon="1.18846">
        <ele>310.299988</ele>
        <time>2011-05-08T06:33:21Z</time>
      </trkpt>
      <trkpt lat="45.32554" lon="1.18857">
        <ele>311</ele>
        <time>2011-05-08T06:33:24Z</time>
      </trkpt>
      <trkpt lat="45.32555" lon="1.18866">
        <ele>311.600006</ele>
        <time>2011-05-08T06:33:27Z</time>
      </trkpt>
      <trkpt lat="45.32559" lon="1.18874">
        <ele>312.100006</ele>
        <time>2011-05-08T06:33:30Z</time>
      </trkpt>
      <trkpt lat="45.32564" lon="1.18882">
        <ele>312.5</ele>
        <time>2011-05-08T06:33:33Z</time>
      </trkpt>
      <trkpt lat="45.32569" lon="1.18891">
        <ele>313.600006</ele>
        <time>2011-05-08T06:33:36Z</time>
      </trkpt>
      <trkpt lat="45.32575" lon="1.18899">
        <ele>313.5</ele>
        <time>2011-05-08T06:33:39Z</time>
      </trkpt>
      <trkpt lat="45.32579" lon="1.18907">
        <ele>314.100006</ele>
        <time>2011-05-08T06:33:42Z</time>
      </trkpt>
      <trkpt lat="45.32583" lon="1.18917">
        <ele>314.899994</ele>
        <time>2011-05-08T06:33:45Z</time>
      </trkpt>
      <trkpt lat="45.32586" lon="1.18929">
        <ele>314.200012</ele>
        <time>2011-05-08T06:33:49Z</time>
      </trkpt>
      <trkpt lat="45.32588" lon="1.1894">
        <ele>315.200012</ele>
        <time>2011-05-08T06:33:55Z</time>
      </trkpt>
      <trkpt lat="45.32591" lon="1.18951">
        <ele>317.799988</ele>
        <time>2011-05-08T06:34:01Z</time>
      </trkpt>
      <trkpt lat="45.32592" lon="1.18953">
        <ele>318</ele>
        <time>2011-05-08T06:34:02Z</time>
      </trkpt>
      <trkpt lat="45.32605" lon="1.18963">
        <ele>320.299988</ele>
        <time>2011-05-08T06:34:13Z</time>
      </trkpt>
      <trkpt lat="45.32613" lon="1.18969">
        <ele>321.5</ele>
        <time>2011-05-08T06:34:20Z</time>
      </trkpt>
      <trkpt lat="45.32621" lon="1.18973">
        <ele>322.399994</ele>
        <time>2011-05-08T06:34:26Z</time>
      </trkpt>
      <trkpt lat="45.32629" lon="1.18977">
        <ele>323.700012</ele>
        <time>2011-05-08T06:34:32Z</time>
      </trkpt>
      <trkpt lat="45.32637" lon="1.18983">
        <ele>325.299988</ele>
        <time>2011-05-08T06:34:38Z</time>
      </trkpt>
      <trkpt lat="45.32643" lon="1.18989">
        <ele>326.100006</ele>
        <time>2011-05-08T06:34:42Z</time>
      </trkpt>
      <trkpt lat="45.3265" lon="1.18997">
        <ele>326</ele>
        <time>2011-05-08T06:34:47Z</time>
      </trkpt>
      <trkpt lat="45.32655" lon="1.19004">
        <ele>326.899994</ele>
        <time>2011-05-08T06:34:51Z</time>
      </trkpt>
      <trkpt lat="45.32659" lon="1.19013">
        <ele>328.600006</ele>
        <time>2011-05-08T06:34:55Z</time>
      </trkpt>
      <trkpt lat="45.32663" lon="1.19021">
        <ele>329.5</ele>
        <time>2011-05-08T06:34:59Z</time>
      </trkpt>
      <trkpt lat="45.32667" lon="1.19031">
        <ele>330.5</ele>
        <time>2011-05-08T06:35:03Z</time>
      </trkpt>
      <trkpt lat="45.32667" lon="1.19033">
        <ele>330.700012</ele>
        <time>2011-05-08T06:35:04Z</time>
      </trkpt>
      <trkpt lat="45.3267" lon="1.19052">
        <ele>331.600006</ele>
        <time>2011-05-08T06:35:11Z</time>
      </trkpt>
      <trkpt lat="45.3267" lon="1.19063">
        <ele>332.299988</ele>
        <time>2011-05-08T06:35:15Z</time>
      </trkpt>
      <trkpt lat="45.32671" lon="1.19076">
        <ele>333.100006</ele>
        <time>2011-05-08T06:35:19Z</time>
      </trkpt>
      <trkpt lat="45.32671" lon="1.19085">
        <ele>333</ele>
        <time>2011-05-08T06:35:22Z</time>
      </trkpt>
      <trkpt lat="45.32671" lon="1.19096">
        <ele>333.399994</ele>
        <time>2011-05-08T06:35:25Z</time>
      </trkpt>
      <trkpt lat="45.32671" lon="1.19106">
        <ele>334.100006</ele>
        <time>2011-05-08T06:35:28Z</time>
      </trkpt>
      <trkpt lat="45.32672" lon="1.19118">
        <ele>334.200012</ele>
        <time>2011-05-08T06:35:31Z</time>
      </trkpt>
      <trkpt lat="45.32672" lon="1.19127">
        <ele>334.200012</ele>
        <time>2011-05-08T06:35:33Z</time>
      </trkpt>
      <trkpt lat="45.32672" lon="1.19138">
        <ele>334</ele>
        <time>2011-05-08T06:35:35Z</time>
      </trkpt>
      <trkpt lat="45.32672" lon="1.19144">
        <ele>333.799988</ele>
        <time>2011-05-08T06:35:36Z</time>
      </trkpt>
      <trkpt lat="45.32673" lon="1.19151">
        <ele>333.700012</ele>
        <time>2011-05-08T06:35:37Z</time>
      </trkpt>
      <trkpt lat="45.32673" lon="1.19158">
        <ele>334</ele>
        <time>2011-05-08T06:35:38Z</time>
      </trkpt>
      <trkpt lat="45.32673" lon="1.19166">
        <ele>334.200012</ele>
        <time>2011-05-08T06:35:39Z</time>
      </trkpt>
      <trkpt lat="45.32674" lon="1.19178">
        <ele>332.5</ele>
        <time>2011-05-08T06:35:41Z</time>
      </trkpt>
      <trkpt lat="45.32678" lon="1.19187">
        <ele>331.600006</ele>
        <time>2011-05-08T06:35:43Z</time>
      </trkpt>
      <trkpt lat="45.32686" lon="1.19188">
        <ele>330</ele>
        <time>2011-05-08T06:35:46Z</time>
      </trkpt>
      <trkpt lat="45.32693" lon="1.19187">
        <ele>328.5</ele>
        <time>2011-05-08T06:35:48Z</time>
      </trkpt>
      <trkpt lat="45.32699" lon="1.19186">
        <ele>328.399994</ele>
        <time>2011-05-08T06:35:50Z</time>
      </trkpt>
      <trkpt lat="45.32708" lon="1.19187">
        <ele>328.899994</ele>
        <time>2011-05-08T06:35:53Z</time>
      </trkpt>
      <trkpt lat="45.32715" lon="1.19185">
        <ele>328.700012</ele>
        <time>2011-05-08T06:35:56Z</time>
      </trkpt>
      <trkpt lat="45.32723" lon="1.19181">
        <ele>330.100006</ele>
        <time>2011-05-08T06:36:00Z</time>
      </trkpt>
      <trkpt lat="45.32731" lon="1.19176">
        <ele>332.299988</ele>
        <time>2011-05-08T06:36:04Z</time>
      </trkpt>
      <trkpt lat="45.32733" lon="1.19175">
        <ele>332.5</ele>
        <time>2011-05-08T06:36:05Z</time>
      </trkpt>
      <trkpt lat="45.32745" lon="1.19176">
        <ele>333.600006</ele>
        <time>2011-05-08T06:36:10Z</time>
      </trkpt>
      <trkpt lat="45.32753" lon="1.19177">
        <ele>334</ele>
        <time>2011-05-08T06:36:13Z</time>
      </trkpt>
      <trkpt lat="45.32761" lon="1.19178">
        <ele>334.5</ele>
        <time>2011-05-08T06:36:16Z</time>
      </trkpt>
      <trkpt lat="45.32768" lon="1.19179">
        <ele>334.5</ele>
        <time>2011-05-08T06:36:19Z</time>
      </trkpt>
      <trkpt lat="45.32775" lon="1.1918">
        <ele>335.5</ele>
        <time>2011-05-08T06:36:22Z</time>
      </trkpt>
      <trkpt lat="45.32783" lon="1.19181">
        <ele>336.299988</ele>
        <time>2011-05-08T06:36:25Z</time>
      </trkpt>
      <trkpt lat="45.32791" lon="1.19182">
        <ele>337</ele>
        <time>2011-05-08T06:36:28Z</time>
      </trkpt>
      <trkpt lat="45.32799" lon="1.19181">
        <ele>337.600006</ele>
        <time>2011-05-08T06:36:31Z</time>
      </trkpt>
      <trkpt lat="45.32806" lon="1.19179">
        <ele>338.399994</ele>
        <time>2011-05-08T06:36:34Z</time>
      </trkpt>
      <trkpt lat="45.32813" lon="1.19176">
        <ele>339.799988</ele>
        <time>2011-05-08T06:36:37Z</time>
      </trkpt>
      <trkpt lat="45.3282" lon="1.19174">
        <ele>340.600006</ele>
        <time>2011-05-08T06:36:40Z</time>
      </trkpt>
      <trkpt lat="45.32828" lon="1.19175">
        <ele>341.299988</ele>
        <time>2011-05-08T06:36:43Z</time>
      </trkpt>
      <trkpt lat="45.32835" lon="1.1918">
        <ele>341.399994</ele>
        <time>2011-05-08T06:36:46Z</time>
      </trkpt>
      <trkpt lat="45.32843" lon="1.19184">
        <ele>341.600006</ele>
        <time>2011-05-08T06:36:49Z</time>
      </trkpt>
      <trkpt lat="45.32851" lon="1.19186">
        <ele>341.600006</ele>
        <time>2011-05-08T06:36:52Z</time>
      </trkpt>
      <trkpt lat="45.32857" lon="1.19187">
        <ele>341.5</ele>
        <time>2011-05-08T06:36:54Z</time>
      </trkpt>
      <trkpt lat="45.32863" lon="1.19188">
        <ele>342.200012</ele>
        <time>2011-05-08T06:36:56Z</time>
      </trkpt>
      <trkpt lat="45.3287" lon="1.19189">
        <ele>342.600006</ele>
        <time>2011-05-08T06:36:58Z</time>
      </trkpt>
      <trkpt lat="45.32876" lon="1.19189">
        <ele>342.5</ele>
        <time>2011-05-08T06:37:00Z</time>
      </trkpt>
      <trkpt lat="45.32883" lon="1.19191">
        <ele>342.399994</ele>
        <time>2011-05-08T06:37:02Z</time>
      </trkpt>
      <trkpt lat="45.3289" lon="1.19192">
        <ele>342.700012</ele>
        <time>2011-05-08T06:37:04Z</time>
      </trkpt>
      <trkpt lat="45.32898" lon="1.19193">
        <ele>342.399994</ele>
        <time>2011-05-08T06:37:06Z</time>
      </trkpt>
      <trkpt lat="45.32901" lon="1.19194">
        <ele>342.200012</ele>
        <time>2011-05-08T06:37:07Z</time>
      </trkpt>
      <trkpt lat="45.32912" lon="1.19194">
        <ele>342</ele>
        <time>2011-05-08T06:37:10Z</time>
      </trkpt>
      <trkpt lat="45.32918" lon="1.19188">
        <ele>341.700012</ele>
        <time>2011-05-08T06:37:12Z</time>
      </trkpt>
      <trkpt lat="45.32919" lon="1.19179">
        <ele>341.299988</ele>
        <time>2011-05-08T06:37:14Z</time>
      </trkpt>
      <trkpt lat="45.32918" lon="1.19169">
        <ele>342.200012</ele>
        <time>2011-05-08T06:37:16Z</time>
      </trkpt>
      <trkpt lat="45.32918" lon="1.1916">
        <ele>341.799988</ele>
        <time>2011-05-08T06:37:18Z</time>
      </trkpt>
      <trkpt lat="45.32921" lon="1.19153">
        <ele>341.399994</ele>
        <time>2011-05-08T06:37:20Z</time>
      </trkpt>
      <trkpt lat="45.32927" lon="1.19145">
        <ele>341.299988</ele>
        <time>2011-05-08T06:37:22Z</time>
      </trkpt>
      <trkpt lat="45.32934" lon="1.19138">
        <ele>341.299988</ele>
        <time>2011-05-08T06:37:24Z</time>
      </trkpt>
      <trkpt lat="45.32938" lon="1.19135">
        <ele>341.399994</ele>
        <time>2011-05-08T06:37:25Z</time>
      </trkpt>
      <trkpt lat="45.32946" lon="1.19129">
        <ele>341.700012</ele>
        <time>2011-05-08T06:37:27Z</time>
      </trkpt>
      <trkpt lat="45.32953" lon="1.19122">
        <ele>341.700012</ele>
        <time>2011-05-08T06:37:29Z</time>
      </trkpt>
      <trkpt lat="45.32961" lon="1.19116">
        <ele>341.600006</ele>
        <time>2011-05-08T06:37:31Z</time>
      </trkpt>
      <trkpt lat="45.32968" lon="1.19109">
        <ele>342</ele>
        <time>2011-05-08T06:37:33Z</time>
      </trkpt>
      <trkpt lat="45.32975" lon="1.19102">
        <ele>342.600006</ele>
        <time>2011-05-08T06:37:35Z</time>
      </trkpt>
      <trkpt lat="45.32982" lon="1.19095">
        <ele>342.700012</ele>
        <time>2011-05-08T06:37:37Z</time>
      </trkpt>
      <trkpt lat="45.32988" lon="1.19089">
        <ele>342.600006</ele>
        <time>2011-05-08T06:37:39Z</time>
      </trkpt>
      <trkpt lat="45.32993" lon="1.19082">
        <ele>342.700012</ele>
        <time>2011-05-08T06:37:41Z</time>
      </trkpt>
      <trkpt lat="45.32999" lon="1.19075">
        <ele>342.899994</ele>
        <time>2011-05-08T06:37:43Z</time>
      </trkpt>
      <trkpt lat="45.33003" lon="1.19068">
        <ele>343.100006</ele>
        <time>2011-05-08T06:37:45Z</time>
      </trkpt>
      <trkpt lat="45.33008" lon="1.19061">
        <ele>344.399994</ele>
        <time>2011-05-08T06:37:47Z</time>
      </trkpt>
      <trkpt lat="45.33014" lon="1.19052">
        <ele>344.600006</ele>
        <time>2011-05-08T06:37:50Z</time>
      </trkpt>
      <trkpt lat="45.33019" lon="1.19043">
        <ele>346.399994</ele>
        <time>2011-05-08T06:37:53Z</time>
      </trkpt>
      <trkpt lat="45.33023" lon="1.19033">
        <ele>347.100006</ele>
        <time>2011-05-08T06:37:56Z</time>
      </trkpt>
      <trkpt lat="45.33026" lon="1.19024">
        <ele>348.399994</ele>
        <time>2011-05-08T06:37:59Z</time>
      </trkpt>
      <trkpt lat="45.33029" lon="1.19013">
        <ele>349.700012</ele>
        <time>2011-05-08T06:38:02Z</time>
      </trkpt>
      <trkpt lat="45.33031" lon="1.19003">
        <ele>349.899994</ele>
        <time>2011-05-08T06:38:05Z</time>
      </trkpt>
      <trkpt lat="45.33033" lon="1.18993">
        <ele>350</ele>
        <time>2011-05-08T06:38:08Z</time>
      </trkpt>
      <trkpt lat="45.33034" lon="1.1899">
        <ele>350.100006</ele>
        <time>2011-05-08T06:38:09Z</time>
      </trkpt>
      <trkpt lat="45.33038" lon="1.18973">
        <ele>352.799988</ele>
        <time>2011-05-08T06:38:14Z</time>
      </trkpt>
      <trkpt lat="45.33041" lon="1.18964">
        <ele>353.5</ele>
        <time>2011-05-08T06:38:17Z</time>
      </trkpt>
      <trkpt lat="45.33043" lon="1.18953">
        <ele>354.799988</ele>
        <time>2011-05-08T06:38:20Z</time>
      </trkpt>
      <trkpt lat="45.33046" lon="1.18942">
        <ele>354</ele>
        <time>2011-05-08T06:38:23Z</time>
      </trkpt>
      <trkpt lat="45.3305" lon="1.18932">
        <ele>354.799988</ele>
        <time>2011-05-08T06:38:26Z</time>
      </trkpt>
      <trkpt lat="45.33053" lon="1.18921">
        <ele>355.299988</ele>
        <time>2011-05-08T06:38:29Z</time>
      </trkpt>
      <trkpt lat="45.33057" lon="1.18911">
        <ele>355.600006</ele>
        <time>2011-05-08T06:38:32Z</time>
      </trkpt>
      <trkpt lat="45.3306" lon="1.18901">
        <ele>356.399994</ele>
        <time>2011-05-08T06:38:35Z</time>
      </trkpt>
      <trkpt lat="45.33064" lon="1.18891">
        <ele>357</ele>
        <time>2011-05-08T06:38:38Z</time>
      </trkpt>
      <trkpt lat="45.33067" lon="1.18879">
        <ele>357.5</ele>
        <time>2011-05-08T06:38:41Z</time>
      </trkpt>
      <trkpt lat="45.3307" lon="1.18867">
        <ele>357.899994</ele>
        <time>2011-05-08T06:38:44Z</time>
      </trkpt>
      <trkpt lat="45.33072" lon="1.18859">
        <ele>358.5</ele>
        <time>2011-05-08T06:38:46Z</time>
      </trkpt>
      <trkpt lat="45.33074" lon="1.1885">
        <ele>358.799988</ele>
        <time>2011-05-08T06:38:48Z</time>
      </trkpt>
      <trkpt lat="45.33076" lon="1.18841">
        <ele>358.700012</ele>
        <time>2011-05-08T06:38:50Z</time>
      </trkpt>
      <trkpt lat="45.33079" lon="1.18832">
        <ele>359.100006</ele>
        <time>2011-05-08T06:38:52Z</time>
      </trkpt>
      <trkpt lat="45.33081" lon="1.18824">
        <ele>359.600006</ele>
        <time>2011-05-08T06:38:54Z</time>
      </trkpt>
      <trkpt lat="45.33084" lon="1.18814">
        <ele>360</ele>
        <time>2011-05-08T06:38:56Z</time>
      </trkpt>
      <trkpt lat="45.33087" lon="1.18804">
        <ele>359.299988</ele>
        <time>2011-05-08T06:38:58Z</time>
      </trkpt>
      <trkpt lat="45.3309" lon="1.18795">
        <ele>359.5</ele>
        <time>2011-05-08T06:39:00Z</time>
      </trkpt>
      <trkpt lat="45.33092" lon="1.18785">
        <ele>359.700012</ele>
        <time>2011-05-08T06:39:02Z</time>
      </trkpt>
      <trkpt lat="45.33096" lon="1.18776">
        <ele>359.799988</ele>
        <time>2011-05-08T06:39:04Z</time>
      </trkpt>
      <trkpt lat="45.33098" lon="1.18767">
        <ele>359.799988</ele>
        <time>2011-05-08T06:39:06Z</time>
      </trkpt>
      <trkpt lat="45.33101" lon="1.18758">
        <ele>359.600006</ele>
        <time>2011-05-08T06:39:08Z</time>
      </trkpt>
      <trkpt lat="45.33103" lon="1.18749">
        <ele>360.799988</ele>
        <time>2011-05-08T06:39:10Z</time>
      </trkpt>
      <trkpt lat="45.33104" lon="1.18744">
        <ele>360.600006</ele>
        <time>2011-05-08T06:39:11Z</time>
      </trkpt>
      <trkpt lat="45.33107" lon="1.18729">
        <ele>360.299988</ele>
        <time>2011-05-08T06:39:14Z</time>
      </trkpt>
      <trkpt lat="45.3311" lon="1.18718">
        <ele>360.399994</ele>
        <time>2011-05-08T06:39:16Z</time>
      </trkpt>
      <trkpt lat="45.33112" lon="1.18707">
        <ele>360.799988</ele>
        <time>2011-05-08T06:39:18Z</time>
      </trkpt>
      <trkpt lat="45.33113" lon="1.18696">
        <ele>361.200012</ele>
        <time>2011-05-08T06:39:20Z</time>
      </trkpt>
      <trkpt lat="45.33114" lon="1.18689">
        <ele>361</ele>
        <time>2011-05-08T06:39:21Z</time>
      </trkpt>
      <trkpt lat="45.33115" lon="1.18683">
        <ele>360.899994</ele>
        <time>2011-05-08T06:39:22Z</time>
      </trkpt>
      <trkpt lat="45.33117" lon="1.18676">
        <ele>361.200012</ele>
        <time>2011-05-08T06:39:23Z</time>
      </trkpt>
      <trkpt lat="45.33118" lon="1.1867">
        <ele>361.399994</ele>
        <time>2011-05-08T06:39:24Z</time>
      </trkpt>
      <trkpt lat="45.3312" lon="1.18657">
        <ele>361.399994</ele>
        <time>2011-05-08T06:39:26Z</time>
      </trkpt>
      <trkpt lat="45.33121" lon="1.18651">
        <ele>361.299988</ele>
        <time>2011-05-08T06:39:27Z</time>
      </trkpt>
      <trkpt lat="45.33122" lon="1.18645">
        <ele>361.399994</ele>
        <time>2011-05-08T06:39:28Z</time>
      </trkpt>
      <trkpt lat="45.33124" lon="1.18632">
        <ele>361.399994</ele>
        <time>2011-05-08T06:39:30Z</time>
      </trkpt>
      <trkpt lat="45.33126" lon="1.18626">
        <ele>361.299988</ele>
        <time>2011-05-08T06:39:31Z</time>
      </trkpt>
      <trkpt lat="45.33127" lon="1.18619">
        <ele>361.200012</ele>
        <time>2011-05-08T06:39:32Z</time>
      </trkpt>
      <trkpt lat="45.33128" lon="1.18613">
        <ele>361.200012</ele>
        <time>2011-05-08T06:39:33Z</time>
      </trkpt>
      <trkpt lat="45.33129" lon="1.18607">
        <ele>361.100006</ele>
        <time>2011-05-08T06:39:34Z</time>
      </trkpt>
      <trkpt lat="45.3313" lon="1.186">
        <ele>360.899994</ele>
        <time>2011-05-08T06:39:35Z</time>
      </trkpt>
      <trkpt lat="45.33131" lon="1.18593">
        <ele>360.799988</ele>
        <time>2011-05-08T06:39:36Z</time>
      </trkpt>
      <trkpt lat="45.33132" lon="1.18587">
        <ele>360.700012</ele>
        <time>2011-05-08T06:39:37Z</time>
      </trkpt>
      <trkpt lat="45.33133" lon="1.1858">
        <ele>360.600006</ele>
        <time>2011-05-08T06:39:38Z</time>
      </trkpt>
      <trkpt lat="45.33134" lon="1.18573">
        <ele>360.600006</ele>
        <time>2011-05-08T06:39:39Z</time>
      </trkpt>
      <trkpt lat="45.33135" lon="1.18566">
        <ele>360.799988</ele>
        <time>2011-05-08T06:39:40Z</time>
      </trkpt>
      <trkpt lat="45.33137" lon="1.1856">
        <ele>361</ele>
        <time>2011-05-08T06:39:41Z</time>
      </trkpt>
      <trkpt lat="45.33137" lon="1.18553">
        <ele>360.600006</ele>
        <time>2011-05-08T06:39:42Z</time>
      </trkpt>
      <trkpt lat="45.33138" lon="1.18546">
        <ele>360.299988</ele>
        <time>2011-05-08T06:39:43Z</time>
      </trkpt>
      <trkpt lat="45.33139" lon="1.18538">
        <ele>360.200012</ele>
        <time>2011-05-08T06:39:44Z</time>
      </trkpt>
      <trkpt lat="45.3314" lon="1.18531">
        <ele>360.200012</ele>
        <time>2011-05-08T06:39:45Z</time>
      </trkpt>
      <trkpt lat="45.33141" lon="1.18523">
        <ele>360.100006</ele>
        <time>2011-05-08T06:39:46Z</time>
      </trkpt>
      <trkpt lat="45.33142" lon="1.18514">
        <ele>360.100006</ele>
        <time>2011-05-08T06:39:47Z</time>
      </trkpt>
      <trkpt lat="45.33143" lon="1.18506">
        <ele>360</ele>
        <time>2011-05-08T06:39:48Z</time>
      </trkpt>
      <trkpt lat="45.33144" lon="1.18498">
        <ele>360</ele>
        <time>2011-05-08T06:39:49Z</time>
      </trkpt>
      <trkpt lat="45.33145" lon="1.1849">
        <ele>360.100006</ele>
        <time>2011-05-08T06:39:50Z</time>
      </trkpt>
      <trkpt lat="45.33146" lon="1.18483">
        <ele>360.100006</ele>
        <time>2011-05-08T06:39:51Z</time>
      </trkpt>
      <trkpt lat="45.33148" lon="1.18475">
        <ele>360</ele>
        <time>2011-05-08T06:39:52Z</time>
      </trkpt>
      <trkpt lat="45.33149" lon="1.18467">
        <ele>359.899994</ele>
        <time>2011-05-08T06:39:53Z</time>
      </trkpt>
      <trkpt lat="45.33151" lon="1.18459">
        <ele>359.799988</ele>
        <time>2011-05-08T06:39:54Z</time>
      </trkpt>
      <trkpt lat="45.33152" lon="1.18452">
        <ele>359.799988</ele>
        <time>2011-05-08T06:39:55Z</time>
      </trkpt>
      <trkpt lat="45.33153" lon="1.18444">
        <ele>359.5</ele>
        <time>2011-05-08T06:39:56Z</time>
      </trkpt>
      <trkpt lat="45.33154" lon="1.18437">
        <ele>359.200012</ele>
        <time>2011-05-08T06:39:57Z</time>
      </trkpt>
      <trkpt lat="45.33155" lon="1.18429">
        <ele>359</ele>
        <time>2011-05-08T06:39:58Z</time>
      </trkpt>
      <trkpt lat="45.33156" lon="1.18422">
        <ele>359.399994</ele>
        <time>2011-05-08T06:39:59Z</time>
      </trkpt>
      <trkpt lat="45.33158" lon="1.18414">
        <ele>359.600006</ele>
        <time>2011-05-08T06:40:00Z</time>
      </trkpt>
      <trkpt lat="45.33159" lon="1.18407">
        <ele>359.799988</ele>
        <time>2011-05-08T06:40:01Z</time>
      </trkpt>
      <trkpt lat="45.3316" lon="1.18399">
        <ele>359.899994</ele>
        <time>2011-05-08T06:40:02Z</time>
      </trkpt>
      <trkpt lat="45.33161" lon="1.18392">
        <ele>360</ele>
        <time>2011-05-08T06:40:03Z</time>
      </trkpt>
      <trkpt lat="45.33163" lon="1.18384">
        <ele>360</ele>
        <time>2011-05-08T06:40:04Z</time>
      </trkpt>
      <trkpt lat="45.33164" lon="1.18377">
        <ele>360</ele>
        <time>2011-05-08T06:40:05Z</time>
      </trkpt>
      <trkpt lat="45.33165" lon="1.18369">
        <ele>360</ele>
        <time>2011-05-08T06:40:06Z</time>
      </trkpt>
      <trkpt lat="45.33167" lon="1.18362">
        <ele>359.899994</ele>
        <time>2011-05-08T06:40:07Z</time>
      </trkpt>
      <trkpt lat="45.33168" lon="1.18349">
        <ele>359.5</ele>
        <time>2011-05-08T06:40:09Z</time>
      </trkpt>
      <trkpt lat="45.33171" lon="1.18339">
        <ele>358.899994</ele>
        <time>2011-05-08T06:42:11Z</time>
      </trkpt>
      <trkpt lat="45.33172" lon="1.18337">
        <ele>358.700012</ele>
        <time>2011-05-08T06:42:12Z</time>
      </trkpt>
      <trkpt lat="45.33176" lon="1.1832">
        <ele>358.899994</ele>
        <time>2011-05-08T06:42:17Z</time>
      </trkpt>
      <trkpt lat="45.33178" lon="1.1831">
        <ele>359.100006</ele>
        <time>2011-05-08T06:42:19Z</time>
      </trkpt>
      <trkpt lat="45.3318" lon="1.18299">
        <ele>359.100006</ele>
        <time>2011-05-08T06:42:21Z</time>
      </trkpt>
      <trkpt lat="45.33182" lon="1.18288">
        <ele>358.5</ele>
        <time>2011-05-08T06:42:23Z</time>
      </trkpt>
      <trkpt lat="45.33185" lon="1.18276">
        <ele>358.100006</ele>
        <time>2011-05-08T06:42:25Z</time>
      </trkpt>
      <trkpt lat="45.33187" lon="1.18265">
        <ele>357.700012</ele>
        <time>2011-05-08T06:42:27Z</time>
      </trkpt>
      <trkpt lat="45.33189" lon="1.18254">
        <ele>358.5</ele>
        <time>2011-05-08T06:42:29Z</time>
      </trkpt>
      <trkpt lat="45.33192" lon="1.18245">
        <ele>359.299988</ele>
        <time>2011-05-08T06:42:31Z</time>
      </trkpt>
      <trkpt lat="45.33194" lon="1.18234">
        <ele>359.899994</ele>
        <time>2011-05-08T06:42:33Z</time>
      </trkpt>
      <trkpt lat="45.33198" lon="1.18222">
        <ele>360.100006</ele>
        <time>2011-05-08T06:42:35Z</time>
      </trkpt>
      <trkpt lat="45.332" lon="1.18217">
        <ele>360.100006</ele>
        <time>2011-05-08T06:42:36Z</time>
      </trkpt>
      <trkpt lat="45.33202" lon="1.18211">
        <ele>360.100006</ele>
        <time>2011-05-08T06:42:37Z</time>
      </trkpt>
      <trkpt lat="45.33204" lon="1.18205">
        <ele>360</ele>
        <time>2011-05-08T06:42:38Z</time>
      </trkpt>
      <trkpt lat="45.33206" lon="1.18199">
        <ele>359.899994</ele>
        <time>2011-05-08T06:42:39Z</time>
      </trkpt>
      <trkpt lat="45.33208" lon="1.18193">
        <ele>359.700012</ele>
        <time>2011-05-08T06:42:40Z</time>
      </trkpt>
      <trkpt lat="45.33211" lon="1.18187">
        <ele>359.600006</ele>
        <time>2011-05-08T06:42:41Z</time>
      </trkpt>
      <trkpt lat="45.33213" lon="1.18181">
        <ele>359.700012</ele>
        <time>2011-05-08T06:42:42Z</time>
      </trkpt>
      <trkpt lat="45.33215" lon="1.18175">
        <ele>359.799988</ele>
        <time>2011-05-08T06:42:43Z</time>
      </trkpt>
      <trkpt lat="45.33218" lon="1.18169">
        <ele>359.799988</ele>
        <time>2011-05-08T06:42:44Z</time>
      </trkpt>
      <trkpt lat="45.33221" lon="1.18164">
        <ele>360.100006</ele>
        <time>2011-05-08T06:42:45Z</time>
      </trkpt>
      <trkpt lat="45.33226" lon="1.18155">
        <ele>360.200012</ele>
        <time>2011-05-08T06:42:47Z</time>
      </trkpt>
      <trkpt lat="45.3323" lon="1.18144">
        <ele>360.100006</ele>
        <time>2011-05-08T06:42:49Z</time>
      </trkpt>
      <trkpt lat="45.33231" lon="1.18133">
        <ele>360.5</ele>
        <time>2011-05-08T06:42:51Z</time>
      </trkpt>
      <trkpt lat="45.33231" lon="1.18127">
        <ele>360.799988</ele>
        <time>2011-05-08T06:42:52Z</time>
      </trkpt>
      <trkpt lat="45.33232" lon="1.1812">
        <ele>361</ele>
        <time>2011-05-08T06:42:53Z</time>
      </trkpt>
      <trkpt lat="45.33233" lon="1.18113">
        <ele>360.600006</ele>
        <time>2011-05-08T06:42:54Z</time>
      </trkpt>
      <trkpt lat="45.33234" lon="1.18106">
        <ele>360.299988</ele>
        <time>2011-05-08T06:42:55Z</time>
      </trkpt>
      <trkpt lat="45.33235" lon="1.18098">
        <ele>360</ele>
        <time>2011-05-08T06:42:56Z</time>
      </trkpt>
      <trkpt lat="45.33235" lon="1.18091">
        <ele>360.200012</ele>
        <time>2011-05-08T06:42:57Z</time>
      </trkpt>
      <trkpt lat="45.33236" lon="1.18084">
        <ele>360.399994</ele>
        <time>2011-05-08T06:42:58Z</time>
      </trkpt>
      <trkpt lat="45.33237" lon="1.18076">
        <ele>360.700012</ele>
        <time>2011-05-08T06:42:59Z</time>
      </trkpt>
      <trkpt lat="45.33239" lon="1.18068">
        <ele>361</ele>
        <time>2011-05-08T06:43:00Z</time>
      </trkpt>
      <trkpt lat="45.3324" lon="1.18061">
        <ele>361</ele>
        <time>2011-05-08T06:43:01Z</time>
      </trkpt>
      <trkpt lat="45.33241" lon="1.18053">
        <ele>361</ele>
        <time>2011-05-08T06:43:02Z</time>
      </trkpt>
      <trkpt lat="45.33243" lon="1.18045">
        <ele>361</ele>
        <time>2011-05-08T06:43:03Z</time>
      </trkpt>
      <trkpt lat="45.33244" lon="1.18036">
        <ele>361</ele>
        <time>2011-05-08T06:43:04Z</time>
      </trkpt>
      <trkpt lat="45.33246" lon="1.18028">
        <ele>361.100006</ele>
        <time>2011-05-08T06:43:05Z</time>
      </trkpt>
      <trkpt lat="45.33248" lon="1.18021">
        <ele>361</ele>
        <time>2011-05-08T06:43:06Z</time>
      </trkpt>
      <trkpt lat="45.33249" lon="1.18013">
        <ele>361</ele>
        <time>2011-05-08T06:43:07Z</time>
      </trkpt>
      <trkpt lat="45.33251" lon="1.18005">
        <ele>360.899994</ele>
        <time>2011-05-08T06:43:08Z</time>
      </trkpt>
      <trkpt lat="45.33251" lon="1.17997">
        <ele>360.799988</ele>
        <time>2011-05-08T06:43:09Z</time>
      </trkpt>
      <trkpt lat="45.33251" lon="1.17989">
        <ele>360.799988</ele>
        <time>2011-05-08T06:43:10Z</time>
      </trkpt>
      <trkpt lat="45.3325" lon="1.17981">
        <ele>360.700012</ele>
        <time>2011-05-08T06:43:11Z</time>
      </trkpt>
      <trkpt lat="45.33249" lon="1.17973">
        <ele>360.700012</ele>
        <time>2011-05-08T06:43:12Z</time>
      </trkpt>
      <trkpt lat="45.33249" lon="1.17965">
        <ele>360.399994</ele>
        <time>2011-05-08T06:43:13Z</time>
      </trkpt>
      <trkpt lat="45.33248" lon="1.17956">
        <ele>360.100006</ele>
        <time>2011-05-08T06:43:14Z</time>
      </trkpt>
      <trkpt lat="45.33248" lon="1.17948">
        <ele>360</ele>
        <time>2011-05-08T06:43:15Z</time>
      </trkpt>
      <trkpt lat="45.33247" lon="1.1794">
        <ele>360.100006</ele>
        <time>2011-05-08T06:43:16Z</time>
      </trkpt>
      <trkpt lat="45.33247" lon="1.17932">
        <ele>360.200012</ele>
        <time>2011-05-08T06:43:17Z</time>
      </trkpt>
      <trkpt lat="45.33246" lon="1.17924">
        <ele>360.200012</ele>
        <time>2011-05-08T06:43:18Z</time>
      </trkpt>
      <trkpt lat="45.33246" lon="1.17916">
        <ele>360.200012</ele>
        <time>2011-05-08T06:43:19Z</time>
      </trkpt>
      <trkpt lat="45.33246" lon="1.17908">
        <ele>360.299988</ele>
        <time>2011-05-08T06:43:20Z</time>
      </trkpt>
      <trkpt lat="45.33246" lon="1.179">
        <ele>360.399994</ele>
        <time>2011-05-08T06:43:21Z</time>
      </trkpt>
      <trkpt lat="45.33246" lon="1.17892">
        <ele>360.5</ele>
        <time>2011-05-08T06:43:22Z</time>
      </trkpt>
      <trkpt lat="45.33247" lon="1.17884">
        <ele>360.399994</ele>
        <time>2011-05-08T06:43:23Z</time>
      </trkpt>
      <trkpt lat="45.33247" lon="1.17876">
        <ele>360.299988</ele>
        <time>2011-05-08T06:43:24Z</time>
      </trkpt>
      <trkpt lat="45.33247" lon="1.17868">
        <ele>360.5</ele>
        <time>2011-05-08T06:43:25Z</time>
      </trkpt>
      <trkpt lat="45.33247" lon="1.1786">
        <ele>360.5</ele>
        <time>2011-05-08T06:43:26Z</time>
      </trkpt>
      <trkpt lat="45.33247" lon="1.17852">
        <ele>360.600006</ele>
        <time>2011-05-08T06:43:27Z</time>
      </trkpt>
      <trkpt lat="45.33248" lon="1.17844">
        <ele>360.899994</ele>
        <time>2011-05-08T06:43:28Z</time>
      </trkpt>
      <trkpt lat="45.33248" lon="1.17837">
        <ele>361.100006</ele>
        <time>2011-05-08T06:43:29Z</time>
      </trkpt>
      <trkpt lat="45.33248" lon="1.17829">
        <ele>361.100006</ele>
        <time>2011-05-08T06:43:30Z</time>
      </trkpt>
      <trkpt lat="45.33249" lon="1.17821">
        <ele>361.100006</ele>
        <time>2011-05-08T06:43:31Z</time>
      </trkpt>
      <trkpt lat="45.33249" lon="1.17813">
        <ele>361.299988</ele>
        <time>2011-05-08T06:43:32Z</time>
      </trkpt>
      <trkpt lat="45.33249" lon="1.17805">
        <ele>361.5</ele>
        <time>2011-05-08T06:43:33Z</time>
      </trkpt>
      <trkpt lat="45.3325" lon="1.17796">
        <ele>361.600006</ele>
        <time>2011-05-08T06:43:34Z</time>
      </trkpt>
      <trkpt lat="45.33251" lon="1.17788">
        <ele>361</ele>
        <time>2011-05-08T06:43:35Z</time>
      </trkpt>
      <trkpt lat="45.33251" lon="1.17779">
        <ele>360.5</ele>
        <time>2011-05-08T06:43:36Z</time>
      </trkpt>
      <trkpt lat="45.33252" lon="1.17771">
        <ele>361</ele>
        <time>2011-05-08T06:43:37Z</time>
      </trkpt>
      <trkpt lat="45.33252" lon="1.17761">
        <ele>361.299988</ele>
        <time>2011-05-08T06:43:38Z</time>
      </trkpt>
      <trkpt lat="45.33253" lon="1.17752">
        <ele>361.299988</ele>
        <time>2011-05-08T06:43:39Z</time>
      </trkpt>
      <trkpt lat="45.33253" lon="1.17742">
        <ele>361.399994</ele>
        <time>2011-05-08T06:43:40Z</time>
      </trkpt>
      <trkpt lat="45.33254" lon="1.17733">
        <ele>361.399994</ele>
        <time>2011-05-08T06:43:41Z</time>
      </trkpt>
      <trkpt lat="45.33255" lon="1.17722">
        <ele>361.200012</ele>
        <time>2011-05-08T06:43:42Z</time>
      </trkpt>
      <trkpt lat="45.33255" lon="1.17712">
        <ele>361.100006</ele>
        <time>2011-05-08T06:43:43Z</time>
      </trkpt>
      <trkpt lat="45.33256" lon="1.17702">
        <ele>360.200012</ele>
        <time>2011-05-08T06:43:44Z</time>
      </trkpt>
      <trkpt lat="45.33256" lon="1.17691">
        <ele>359.5</ele>
        <time>2011-05-08T06:43:45Z</time>
      </trkpt>
      <trkpt lat="45.33257" lon="1.1768">
        <ele>359</ele>
        <time>2011-05-08T06:43:46Z</time>
      </trkpt>
      <trkpt lat="45.33257" lon="1.17669">
        <ele>358.799988</ele>
        <time>2011-05-08T06:43:47Z</time>
      </trkpt>
      <trkpt lat="45.33258" lon="1.17658">
        <ele>358.700012</ele>
        <time>2011-05-08T06:43:48Z</time>
      </trkpt>
      <trkpt lat="45.33259" lon="1.17646">
        <ele>358.399994</ele>
        <time>2011-05-08T06:43:49Z</time>
      </trkpt>
      <trkpt lat="45.33259" lon="1.17635">
        <ele>358.200012</ele>
        <time>2011-05-08T06:43:50Z</time>
      </trkpt>
      <trkpt lat="45.3326" lon="1.17624">
        <ele>357.700012</ele>
        <time>2011-05-08T06:43:51Z</time>
      </trkpt>
      <trkpt lat="45.33261" lon="1.17614">
        <ele>357.399994</ele>
        <time>2011-05-08T06:43:52Z</time>
      </trkpt>
      <trkpt lat="45.33262" lon="1.17605">
        <ele>357.200012</ele>
        <time>2011-05-08T06:43:53Z</time>
      </trkpt>
      <trkpt lat="45.33261" lon="1.17593">
        <ele>355.700012</ele>
        <time>2011-05-08T06:43:55Z</time>
      </trkpt>
      <trkpt lat="45.33256" lon="1.17582">
        <ele>355.299988</ele>
        <time>2011-05-08T06:43:58Z</time>
      </trkpt>
      <trkpt lat="45.33252" lon="1.17574">
        <ele>355.100006</ele>
        <time>2011-05-08T06:44:00Z</time>
      </trkpt>
      <trkpt lat="45.33247" lon="1.17564">
        <ele>355.200012</ele>
        <time>2011-05-08T06:44:02Z</time>
      </trkpt>
      <trkpt lat="45.33244" lon="1.17559">
        <ele>354.5</ele>
        <time>2011-05-08T06:44:03Z</time>
      </trkpt>
      <trkpt lat="45.33242" lon="1.17553">
        <ele>354</ele>
        <time>2011-05-08T06:44:04Z</time>
      </trkpt>
      <trkpt lat="45.33239" lon="1.17548">
        <ele>353.600006</ele>
        <time>2011-05-08T06:44:05Z</time>
      </trkpt>
      <trkpt lat="45.33236" lon="1.17542">
        <ele>353.299988</ele>
        <time>2011-05-08T06:44:06Z</time>
      </trkpt>
      <trkpt lat="45.33233" lon="1.17535">
        <ele>353</ele>
        <time>2011-05-08T06:44:07Z</time>
      </trkpt>
      <trkpt lat="45.3323" lon="1.17528">
        <ele>352.600006</ele>
        <time>2011-05-08T06:44:08Z</time>
      </trkpt>
      <trkpt lat="45.33227" lon="1.17521">
        <ele>352.399994</ele>
        <time>2011-05-08T06:44:09Z</time>
      </trkpt>
      <trkpt lat="45.33223" lon="1.17514">
        <ele>351.600006</ele>
        <time>2011-05-08T06:44:10Z</time>
      </trkpt>
      <trkpt lat="45.33219" lon="1.17506">
        <ele>351</ele>
        <time>2011-05-08T06:44:11Z</time>
      </trkpt>
      <trkpt lat="45.33216" lon="1.17499">
        <ele>350.600006</ele>
        <time>2011-05-08T06:44:12Z</time>
      </trkpt>
      <trkpt lat="45.33212" lon="1.17491">
        <ele>350</ele>
        <time>2011-05-08T06:44:13Z</time>
      </trkpt>
      <trkpt lat="45.33208" lon="1.17482">
        <ele>349.600006</ele>
        <time>2011-05-08T06:44:14Z</time>
      </trkpt>
      <trkpt lat="45.33203" lon="1.17474">
        <ele>348.799988</ele>
        <time>2011-05-08T06:44:15Z</time>
      </trkpt>
      <trkpt lat="45.33198" lon="1.17465">
        <ele>348.200012</ele>
        <time>2011-05-08T06:44:16Z</time>
      </trkpt>
      <trkpt lat="45.33193" lon="1.17456">
        <ele>347.5</ele>
        <time>2011-05-08T06:44:17Z</time>
      </trkpt>
      <trkpt lat="45.33188" lon="1.17447">
        <ele>347</ele>
        <time>2011-05-08T06:44:18Z</time>
      </trkpt>
      <trkpt lat="45.33184" lon="1.17438">
        <ele>346.600006</ele>
        <time>2011-05-08T06:44:19Z</time>
      </trkpt>
      <trkpt lat="45.3318" lon="1.17429">
        <ele>345.899994</ele>
        <time>2011-05-08T06:44:20Z</time>
      </trkpt>
      <trkpt lat="45.33176" lon="1.1742">
        <ele>345.399994</ele>
        <time>2011-05-08T06:44:21Z</time>
      </trkpt>
      <trkpt lat="45.33173" lon="1.17411">
        <ele>345.100006</ele>
        <time>2011-05-08T06:44:22Z</time>
      </trkpt>
      <trkpt lat="45.33169" lon="1.17401">
        <ele>344.899994</ele>
        <time>2011-05-08T06:44:23Z</time>
      </trkpt>
      <trkpt lat="45.33165" lon="1.17391">
        <ele>344.700012</ele>
        <time>2011-05-08T06:44:24Z</time>
      </trkpt>
      <trkpt lat="45.33161" lon="1.17382">
        <ele>344</ele>
        <time>2011-05-08T06:44:25Z</time>
      </trkpt>
      <trkpt lat="45.33157" lon="1.17372">
        <ele>343.399994</ele>
        <time>2011-05-08T06:44:26Z</time>
      </trkpt>
      <trkpt lat="45.33153" lon="1.17361">
        <ele>342.399994</ele>
        <time>2011-05-08T06:44:27Z</time>
      </trkpt>
      <trkpt lat="45.3315" lon="1.17351">
        <ele>341.600006</ele>
        <time>2011-05-08T06:44:28Z</time>
      </trkpt>
      <trkpt lat="45.33149" lon="1.17341">
        <ele>340.799988</ele>
        <time>2011-05-08T06:44:29Z</time>
      </trkpt>
      <trkpt lat="45.33148" lon="1.17334">
        <ele>340.200012</ele>
        <time>2011-05-08T06:44:30Z</time>
      </trkpt>
      <trkpt lat="45.33142" lon="1.17325">
        <ele>339.5</ele>
        <time>2011-05-08T06:44:32Z</time>
      </trkpt>
      <trkpt lat="45.33134" lon="1.17322">
        <ele>338.899994</ele>
        <time>2011-05-08T06:44:34Z</time>
      </trkpt>
      <trkpt lat="45.33127" lon="1.17319">
        <ele>337.899994</ele>
        <time>2011-05-08T06:44:36Z</time>
      </trkpt>
      <trkpt lat="45.33119" lon="1.17316">
        <ele>336.799988</ele>
        <time>2011-05-08T06:44:39Z</time>
      </trkpt>
      <trkpt lat="45.33113" lon="1.17313">
        <ele>336.200012</ele>
        <time>2011-05-08T06:44:41Z</time>
      </trkpt>
      <trkpt lat="45.33105" lon="1.1731">
        <ele>335.100006</ele>
        <time>2011-05-08T06:44:44Z</time>
      </trkpt>
      <trkpt lat="45.33103" lon="1.17299">
        <ele>333.5</ele>
        <time>2011-05-08T06:44:48Z</time>
      </trkpt>
      <trkpt lat="45.33105" lon="1.17289">
        <ele>332.700012</ele>
        <time>2011-05-08T06:44:51Z</time>
      </trkpt>
      <trkpt lat="45.33108" lon="1.17277">
        <ele>332.5</ele>
        <time>2011-05-08T06:44:54Z</time>
      </trkpt>
      <trkpt lat="45.3311" lon="1.17266">
        <ele>332</ele>
        <time>2011-05-08T06:44:57Z</time>
      </trkpt>
      <trkpt lat="45.33112" lon="1.17257">
        <ele>331.799988</ele>
        <time>2011-05-08T06:45:00Z</time>
      </trkpt>
      <trkpt lat="45.33115" lon="1.17246">
        <ele>331.600006</ele>
        <time>2011-05-08T06:45:03Z</time>
      </trkpt>
      <trkpt lat="45.33118" lon="1.17235">
        <ele>331.700012</ele>
        <time>2011-05-08T06:45:06Z</time>
      </trkpt>
      <trkpt lat="45.3312" lon="1.17224">
        <ele>330.5</ele>
        <time>2011-05-08T06:45:10Z</time>
      </trkpt>
      <trkpt lat="45.33114" lon="1.17214">
        <ele>329.100006</ele>
        <time>2011-05-08T06:45:14Z</time>
      </trkpt>
      <trkpt lat="45.33112" lon="1.17212">
        <ele>328.700012</ele>
        <time>2011-05-08T06:45:15Z</time>
      </trkpt>
      <trkpt lat="45.33103" lon="1.17199">
        <ele>327.5</ele>
        <time>2011-05-08T06:45:19Z</time>
      </trkpt>
      <trkpt lat="45.33098" lon="1.17191">
        <ele>326.700012</ele>
        <time>2011-05-08T06:45:21Z</time>
      </trkpt>
      <trkpt lat="45.33093" lon="1.17182">
        <ele>326</ele>
        <time>2011-05-08T06:45:23Z</time>
      </trkpt>
      <trkpt lat="45.33088" lon="1.17173">
        <ele>324.799988</ele>
        <time>2011-05-08T06:45:25Z</time>
      </trkpt>
      <trkpt lat="45.33084" lon="1.17162">
        <ele>324.5</ele>
        <time>2011-05-08T06:45:27Z</time>
      </trkpt>
      <trkpt lat="45.33081" lon="1.17157">
        <ele>324.399994</ele>
        <time>2011-05-08T06:45:28Z</time>
      </trkpt>
      <trkpt lat="45.33079" lon="1.17151">
        <ele>324</ele>
        <time>2011-05-08T06:45:29Z</time>
      </trkpt>
      <trkpt lat="45.33076" lon="1.17146">
        <ele>323.700012</ele>
        <time>2011-05-08T06:45:30Z</time>
      </trkpt>
      <trkpt lat="45.3307" lon="1.17136">
        <ele>323.399994</ele>
        <time>2011-05-08T06:45:32Z</time>
      </trkpt>
      <trkpt lat="45.33066" lon="1.17128">
        <ele>321.700012</ele>
        <time>2011-05-08T06:45:34Z</time>
      </trkpt>
      <trkpt lat="45.33061" lon="1.17117">
        <ele>320.799988</ele>
        <time>2011-05-08T06:45:37Z</time>
      </trkpt>
      <trkpt lat="45.33062" lon="1.17109">
        <ele>320.799988</ele>
        <time>2011-05-08T06:45:39Z</time>
      </trkpt>
      <trkpt lat="45.33063" lon="1.171">
        <ele>320</ele>
        <time>2011-05-08T06:45:41Z</time>
      </trkpt>
      <trkpt lat="45.33065" lon="1.1709">
        <ele>319.399994</ele>
        <time>2011-05-08T06:45:43Z</time>
      </trkpt>
      <trkpt lat="45.33069" lon="1.1708">
        <ele>319</ele>
        <time>2011-05-08T06:45:45Z</time>
      </trkpt>
      <trkpt lat="45.33072" lon="1.17072">
        <ele>318.700012</ele>
        <time>2011-05-08T06:45:47Z</time>
      </trkpt>
      <trkpt lat="45.33077" lon="1.17066">
        <ele>318.399994</ele>
        <time>2011-05-08T06:45:49Z</time>
      </trkpt>
      <trkpt lat="45.33082" lon="1.17061">
        <ele>318.5</ele>
        <time>2011-05-08T06:45:51Z</time>
      </trkpt>
      <trkpt lat="45.33087" lon="1.17057">
        <ele>318.899994</ele>
        <time>2011-05-08T06:45:53Z</time>
      </trkpt>
      <trkpt lat="45.33094" lon="1.1705">
        <ele>319.299988</ele>
        <time>2011-05-08T06:45:56Z</time>
      </trkpt>
      <trkpt lat="45.33101" lon="1.17045">
        <ele>319.5</ele>
        <time>2011-05-08T06:45:59Z</time>
      </trkpt>
      <trkpt lat="45.33107" lon="1.17037">
        <ele>320.600006</ele>
        <time>2011-05-08T06:46:03Z</time>
      </trkpt>
      <trkpt lat="45.33111" lon="1.17029">
        <ele>321.200012</ele>
        <time>2011-05-08T06:46:06Z</time>
      </trkpt>
      <trkpt lat="45.33115" lon="1.1702">
        <ele>321.200012</ele>
        <time>2011-05-08T06:46:09Z</time>
      </trkpt>
      <trkpt lat="45.33119" lon="1.17012">
        <ele>322</ele>
        <time>2011-05-08T06:46:12Z</time>
      </trkpt>
      <trkpt lat="45.33123" lon="1.17003">
        <ele>322.600006</ele>
        <time>2011-05-08T06:46:15Z</time>
      </trkpt>
      <trkpt lat="45.33124" lon="1.17001">
        <ele>322.799988</ele>
        <time>2011-05-08T06:46:16Z</time>
      </trkpt>
      <trkpt lat="45.33133" lon="1.16986">
        <ele>323.299988</ele>
        <time>2011-05-08T06:46:22Z</time>
      </trkpt>
      <trkpt lat="45.33138" lon="1.16978">
        <ele>323.399994</ele>
        <time>2011-05-08T06:46:25Z</time>
      </trkpt>
      <trkpt lat="45.33142" lon="1.16971">
        <ele>324</ele>
        <time>2011-05-08T06:46:28Z</time>
      </trkpt>
      <trkpt lat="45.33147" lon="1.16963">
        <ele>324.299988</ele>
        <time>2011-05-08T06:46:31Z</time>
      </trkpt>
      <trkpt lat="45.33151" lon="1.16956">
        <ele>324.5</ele>
        <time>2011-05-08T06:46:34Z</time>
      </trkpt>
      <trkpt lat="45.33157" lon="1.16947">
        <ele>324.799988</ele>
        <time>2011-05-08T06:46:38Z</time>
      </trkpt>
      <trkpt lat="45.33163" lon="1.16939">
        <ele>325.5</ele>
        <time>2011-05-08T06:46:42Z</time>
      </trkpt>
      <trkpt lat="45.3317" lon="1.16931">
        <ele>326.100006</ele>
        <time>2011-05-08T06:46:46Z</time>
      </trkpt>
      <trkpt lat="45.33176" lon="1.16927">
        <ele>325.700012</ele>
        <time>2011-05-08T06:46:49Z</time>
      </trkpt>
      <trkpt lat="45.33181" lon="1.16918">
        <ele>325.600006</ele>
        <time>2011-05-08T06:46:52Z</time>
      </trkpt>
      <trkpt lat="45.33186" lon="1.16908">
        <ele>325.899994</ele>
        <time>2011-05-08T06:46:55Z</time>
      </trkpt>
      <trkpt lat="45.33191" lon="1.16899">
        <ele>326.5</ele>
        <time>2011-05-08T06:46:58Z</time>
      </trkpt>
      <trkpt lat="45.33194" lon="1.16892">
        <ele>326.600006</ele>
        <time>2011-05-08T06:47:00Z</time>
      </trkpt>
      <trkpt lat="45.33198" lon="1.16883">
        <ele>327</ele>
        <time>2011-05-08T06:47:02Z</time>
      </trkpt>
      <trkpt lat="45.33202" lon="1.16874">
        <ele>326.5</ele>
        <time>2011-05-08T06:47:04Z</time>
      </trkpt>
      <trkpt lat="45.33206" lon="1.16864">
        <ele>326.399994</ele>
        <time>2011-05-08T06:47:06Z</time>
      </trkpt>
      <trkpt lat="45.33208" lon="1.16858">
        <ele>326.399994</ele>
        <time>2011-05-08T06:47:07Z</time>
      </trkpt>
      <trkpt lat="45.33211" lon="1.16852">
        <ele>326.200012</ele>
        <time>2011-05-08T06:47:08Z</time>
      </trkpt>
      <trkpt lat="45.33213" lon="1.16845">
        <ele>326.100006</ele>
        <time>2011-05-08T06:47:09Z</time>
      </trkpt>
      <trkpt lat="45.33216" lon="1.16838">
        <ele>325.899994</ele>
        <time>2011-05-08T06:47:10Z</time>
      </trkpt>
      <trkpt lat="45.33219" lon="1.16831">
        <ele>325.799988</ele>
        <time>2011-05-08T06:47:11Z</time>
      </trkpt>
      <trkpt lat="45.33221" lon="1.16824">
        <ele>325.700012</ele>
        <time>2011-05-08T06:47:12Z</time>
      </trkpt>
      <trkpt lat="45.33223" lon="1.16818">
        <ele>325.5</ele>
        <time>2011-05-08T06:47:13Z</time>
      </trkpt>
      <trkpt lat="45.33224" lon="1.16811">
        <ele>325.399994</ele>
        <time>2011-05-08T06:47:14Z</time>
      </trkpt>
      <trkpt lat="45.33225" lon="1.16804">
        <ele>325.299988</ele>
        <time>2011-05-08T06:47:15Z</time>
      </trkpt>
      <trkpt lat="45.33226" lon="1.16797">
        <ele>325.200012</ele>
        <time>2011-05-08T06:47:16Z</time>
      </trkpt>
      <trkpt lat="45.33227" lon="1.1679">
        <ele>325.100006</ele>
        <time>2011-05-08T06:47:17Z</time>
      </trkpt>
      <trkpt lat="45.33228" lon="1.16783">
        <ele>325.100006</ele>
        <time>2011-05-08T06:47:18Z</time>
      </trkpt>
      <trkpt lat="45.33229" lon="1.16776">
        <ele>325.200012</ele>
        <time>2011-05-08T06:47:19Z</time>
      </trkpt>
      <trkpt lat="45.3323" lon="1.16768">
        <ele>325</ele>
        <time>2011-05-08T06:47:20Z</time>
      </trkpt>
      <trkpt lat="45.33231" lon="1.16761">
        <ele>324.799988</ele>
        <time>2011-05-08T06:47:21Z</time>
      </trkpt>
      <trkpt lat="45.33232" lon="1.16753">
        <ele>324.399994</ele>
        <time>2011-05-08T06:47:22Z</time>
      </trkpt>
      <trkpt lat="45.33233" lon="1.16745">
        <ele>324.100006</ele>
        <time>2011-05-08T06:47:23Z</time>
      </trkpt>
      <trkpt lat="45.33234" lon="1.16737">
        <ele>323.899994</ele>
        <time>2011-05-08T06:47:24Z</time>
      </trkpt>
      <trkpt lat="45.33236" lon="1.16729">
        <ele>324.200012</ele>
        <time>2011-05-08T06:47:25Z</time>
      </trkpt>
      <trkpt lat="45.33237" lon="1.1672">
        <ele>324.299988</ele>
        <time>2011-05-08T06:47:26Z</time>
      </trkpt>
      <trkpt lat="45.33239" lon="1.16711">
        <ele>323.700012</ele>
        <time>2011-05-08T06:47:27Z</time>
      </trkpt>
      <trkpt lat="45.3324" lon="1.16701">
        <ele>323.100006</ele>
        <time>2011-05-08T06:47:28Z</time>
      </trkpt>
      <trkpt lat="45.3324" lon="1.16692">
        <ele>322.799988</ele>
        <time>2011-05-08T06:47:29Z</time>
      </trkpt>
      <trkpt lat="45.33238" lon="1.16683">
        <ele>322.899994</ele>
        <time>2011-05-08T06:47:30Z</time>
      </trkpt>
      <trkpt lat="45.33235" lon="1.16674">
        <ele>323.100006</ele>
        <time>2011-05-08T06:47:31Z</time>
      </trkpt>
      <trkpt lat="45.33233" lon="1.16664">
        <ele>322.600006</ele>
        <time>2011-05-08T06:47:32Z</time>
      </trkpt>
      <trkpt lat="45.33231" lon="1.16655">
        <ele>322.200012</ele>
        <time>2011-05-08T06:47:33Z</time>
      </trkpt>
      <trkpt lat="45.33229" lon="1.16645">
        <ele>321.700012</ele>
        <time>2011-05-08T06:47:34Z</time>
      </trkpt>
      <trkpt lat="45.33226" lon="1.16635">
        <ele>321.399994</ele>
        <time>2011-05-08T06:47:35Z</time>
      </trkpt>
      <trkpt lat="45.33223" lon="1.16626">
        <ele>321.100006</ele>
        <time>2011-05-08T06:47:36Z</time>
      </trkpt>
      <trkpt lat="45.3322" lon="1.16616">
        <ele>320.200012</ele>
        <time>2011-05-08T06:47:37Z</time>
      </trkpt>
      <trkpt lat="45.33217" lon="1.16607">
        <ele>319.600006</ele>
        <time>2011-05-08T06:47:38Z</time>
      </trkpt>
      <trkpt lat="45.33213" lon="1.16597">
        <ele>318.899994</ele>
        <time>2011-05-08T06:47:39Z</time>
      </trkpt>
      <trkpt lat="45.3321" lon="1.16588">
        <ele>318.5</ele>
        <time>2011-05-08T06:47:40Z</time>
      </trkpt>
      <trkpt lat="45.33206" lon="1.16578">
        <ele>317.700012</ele>
        <time>2011-05-08T06:47:41Z</time>
      </trkpt>
      <trkpt lat="45.33202" lon="1.1657">
        <ele>317.200012</ele>
        <time>2011-05-08T06:47:42Z</time>
      </trkpt>
      <trkpt lat="45.33198" lon="1.16561">
        <ele>316.799988</ele>
        <time>2011-05-08T06:47:43Z</time>
      </trkpt>
      <trkpt lat="45.33194" lon="1.16552">
        <ele>315.799988</ele>
        <time>2011-05-08T06:47:44Z</time>
      </trkpt>
      <trkpt lat="45.3319" lon="1.16543">
        <ele>315</ele>
        <time>2011-05-08T06:47:45Z</time>
      </trkpt>
      <trkpt lat="45.33186" lon="1.16534">
        <ele>314.299988</ele>
        <time>2011-05-08T06:47:46Z</time>
      </trkpt>
      <trkpt lat="45.33182" lon="1.16526">
        <ele>313.700012</ele>
        <time>2011-05-08T06:47:47Z</time>
      </trkpt>
      <trkpt lat="45.33179" lon="1.16516">
        <ele>313.299988</ele>
        <time>2011-05-08T06:47:48Z</time>
      </trkpt>
      <trkpt lat="45.33176" lon="1.16507">
        <ele>312.399994</ele>
        <time>2011-05-08T06:47:49Z</time>
      </trkpt>
      <trkpt lat="45.33173" lon="1.16496">
        <ele>311.799988</ele>
        <time>2011-05-08T06:47:50Z</time>
      </trkpt>
      <trkpt lat="45.33171" lon="1.16485">
        <ele>310.700012</ele>
        <time>2011-05-08T06:47:51Z</time>
      </trkpt>
      <trkpt lat="45.33169" lon="1.16476">
        <ele>310</ele>
        <time>2011-05-08T06:47:52Z</time>
      </trkpt>
      <trkpt lat="45.33166" lon="1.16467">
        <ele>308.799988</ele>
        <time>2011-05-08T06:47:53Z</time>
      </trkpt>
      <trkpt lat="45.33165" lon="1.16457">
        <ele>307.899994</ele>
        <time>2011-05-08T06:47:54Z</time>
      </trkpt>
      <trkpt lat="45.33163" lon="1.16446">
        <ele>307.200012</ele>
        <time>2011-05-08T06:47:55Z</time>
      </trkpt>
      <trkpt lat="45.33162" lon="1.16434">
        <ele>306.700012</ele>
        <time>2011-05-08T06:47:56Z</time>
      </trkpt>
      <trkpt lat="45.33161" lon="1.16422">
        <ele>306.299988</ele>
        <time>2011-05-08T06:47:57Z</time>
      </trkpt>
      <trkpt lat="45.3316" lon="1.16411">
        <ele>305.299988</ele>
        <time>2011-05-08T06:47:58Z</time>
      </trkpt>
      <trkpt lat="45.33159" lon="1.16399">
        <ele>304.600006</ele>
        <time>2011-05-08T06:47:59Z</time>
      </trkpt>
      <trkpt lat="45.33157" lon="1.16388">
        <ele>304.200012</ele>
        <time>2011-05-08T06:48:00Z</time>
      </trkpt>
      <trkpt lat="45.33153" lon="1.16377">
        <ele>303.799988</ele>
        <time>2011-05-08T06:48:01Z</time>
      </trkpt>
      <trkpt lat="45.3315" lon="1.16366">
        <ele>303.600006</ele>
        <time>2011-05-08T06:48:02Z</time>
      </trkpt>
      <trkpt lat="45.33145" lon="1.16356">
        <ele>302.899994</ele>
        <time>2011-05-08T06:48:03Z</time>
      </trkpt>
      <trkpt lat="45.33142" lon="1.16347">
        <ele>302.299988</ele>
        <time>2011-05-08T06:48:04Z</time>
      </trkpt>
      <trkpt lat="45.33138" lon="1.16339">
        <ele>301.600006</ele>
        <time>2011-05-08T06:48:05Z</time>
      </trkpt>
      <trkpt lat="45.33134" lon="1.16333">
        <ele>301.100006</ele>
        <time>2011-05-08T06:48:06Z</time>
      </trkpt>
      <trkpt lat="45.33129" lon="1.1633">
        <ele>300.799988</ele>
        <time>2011-05-08T06:48:07Z</time>
      </trkpt>
      <trkpt lat="45.33123" lon="1.1633">
        <ele>299.700012</ele>
        <time>2011-05-08T06:48:08Z</time>
      </trkpt>
      <trkpt lat="45.33116" lon="1.16326">
        <ele>298.799988</ele>
        <time>2011-05-08T06:48:09Z</time>
      </trkpt>
      <trkpt lat="45.33109" lon="1.16322">
        <ele>297.899994</ele>
        <time>2011-05-08T06:48:10Z</time>
      </trkpt>
      <trkpt lat="45.33101" lon="1.16318">
        <ele>297.299988</ele>
        <time>2011-05-08T06:48:11Z</time>
      </trkpt>
      <trkpt lat="45.33095" lon="1.16315">
        <ele>295.600006</ele>
        <time>2011-05-08T06:48:12Z</time>
      </trkpt>
      <trkpt lat="45.3309" lon="1.16312">
        <ele>294.399994</ele>
        <time>2011-05-08T06:48:13Z</time>
      </trkpt>
      <trkpt lat="45.33086" lon="1.16302">
        <ele>292.700012</ele>
        <time>2011-05-08T06:48:15Z</time>
      </trkpt>
      <trkpt lat="45.33087" lon="1.16295">
        <ele>292.100006</ele>
        <time>2011-05-08T06:48:16Z</time>
      </trkpt>
      <trkpt lat="45.33088" lon="1.16289">
        <ele>291.200012</ele>
        <time>2011-05-08T06:48:17Z</time>
      </trkpt>
      <trkpt lat="45.3309" lon="1.16282">
        <ele>290.5</ele>
        <time>2011-05-08T06:48:18Z</time>
      </trkpt>
      <trkpt lat="45.33092" lon="1.16274">
        <ele>290.200012</ele>
        <time>2011-05-08T06:48:19Z</time>
      </trkpt>
      <trkpt lat="45.33094" lon="1.16265">
        <ele>289.899994</ele>
        <time>2011-05-08T06:48:20Z</time>
      </trkpt>
      <trkpt lat="45.33097" lon="1.16256">
        <ele>289.700012</ele>
        <time>2011-05-08T06:48:21Z</time>
      </trkpt>
      <trkpt lat="45.331" lon="1.16246">
        <ele>289</ele>
        <time>2011-05-08T06:48:22Z</time>
      </trkpt>
      <trkpt lat="45.33104" lon="1.16235">
        <ele>288.5</ele>
        <time>2011-05-08T06:48:23Z</time>
      </trkpt>
      <trkpt lat="45.33106" lon="1.16223">
        <ele>287.700012</ele>
        <time>2011-05-08T06:48:24Z</time>
      </trkpt>
      <trkpt lat="45.33105" lon="1.1621">
        <ele>287.200012</ele>
        <time>2011-05-08T06:48:25Z</time>
      </trkpt>
      <trkpt lat="45.33102" lon="1.16198">
        <ele>286.100006</ele>
        <time>2011-05-08T06:48:26Z</time>
      </trkpt>
      <trkpt lat="45.33096" lon="1.16187">
        <ele>285.299988</ele>
        <time>2011-05-08T06:48:27Z</time>
      </trkpt>
      <trkpt lat="45.3309" lon="1.16178">
        <ele>284.700012</ele>
        <time>2011-05-08T06:48:28Z</time>
      </trkpt>
      <trkpt lat="45.33082" lon="1.16169">
        <ele>283.700012</ele>
        <time>2011-05-08T06:48:29Z</time>
      </trkpt>
      <trkpt lat="45.33074" lon="1.16161">
        <ele>282.899994</ele>
        <time>2011-05-08T06:48:30Z</time>
      </trkpt>
      <trkpt lat="45.33065" lon="1.16154">
        <ele>282.100006</ele>
        <time>2011-05-08T06:48:31Z</time>
      </trkpt>
      <trkpt lat="45.33055" lon="1.16148">
        <ele>281.399994</ele>
        <time>2011-05-08T06:48:32Z</time>
      </trkpt>
      <trkpt lat="45.33045" lon="1.16143">
        <ele>280.899994</ele>
        <time>2011-05-08T06:48:33Z</time>
      </trkpt>
      <trkpt lat="45.33035" lon="1.16138">
        <ele>279.799988</ele>
        <time>2011-05-08T06:48:34Z</time>
      </trkpt>
      <trkpt lat="45.33025" lon="1.16132">
        <ele>278.899994</ele>
        <time>2011-05-08T06:48:35Z</time>
      </trkpt>
      <trkpt lat="45.33014" lon="1.16127">
        <ele>278.299988</ele>
        <time>2011-05-08T06:48:36Z</time>
      </trkpt>
      <trkpt lat="45.33005" lon="1.1612">
        <ele>277.899994</ele>
        <time>2011-05-08T06:48:37Z</time>
      </trkpt>
      <trkpt lat="45.32996" lon="1.16112">
        <ele>277.200012</ele>
        <time>2011-05-08T06:48:38Z</time>
      </trkpt>
      <trkpt lat="45.32988" lon="1.16103">
        <ele>276.600006</ele>
        <time>2011-05-08T06:48:39Z</time>
      </trkpt>
      <trkpt lat="45.32981" lon="1.16095">
        <ele>276.200012</ele>
        <time>2011-05-08T06:48:40Z</time>
      </trkpt>
      <trkpt lat="45.32976" lon="1.16089">
        <ele>275.399994</ele>
        <time>2011-05-08T06:48:41Z</time>
      </trkpt>
      <trkpt lat="45.32972" lon="1.16084">
        <ele>274.899994</ele>
        <time>2011-05-08T06:48:42Z</time>
      </trkpt>
      <trkpt lat="45.32968" lon="1.16074">
        <ele>272.799988</ele>
        <time>2011-05-08T06:48:44Z</time>
      </trkpt>
      <trkpt lat="45.32973" lon="1.16065">
        <ele>271.600006</ele>
        <time>2011-05-08T06:48:46Z</time>
      </trkpt>
      <trkpt lat="45.32977" lon="1.16061">
        <ele>271.200012</ele>
        <time>2011-05-08T06:48:47Z</time>
      </trkpt>
      <trkpt lat="45.32981" lon="1.16057">
        <ele>270.399994</ele>
        <time>2011-05-08T06:48:48Z</time>
      </trkpt>
      <trkpt lat="45.32986" lon="1.16053">
        <ele>269.799988</ele>
        <time>2011-05-08T06:48:49Z</time>
      </trkpt>
      <trkpt lat="45.32991" lon="1.16049">
        <ele>269.600006</ele>
        <time>2011-05-08T06:48:50Z</time>
      </trkpt>
      <trkpt lat="45.32996" lon="1.16045">
        <ele>269.5</ele>
        <time>2011-05-08T06:48:51Z</time>
      </trkpt>
      <trkpt lat="45.33002" lon="1.16041">
        <ele>269.399994</ele>
        <time>2011-05-08T06:48:52Z</time>
      </trkpt>
      <trkpt lat="45.33007" lon="1.16037">
        <ele>269.200012</ele>
        <time>2011-05-08T06:48:53Z</time>
      </trkpt>
      <trkpt lat="45.33013" lon="1.16034">
        <ele>269</ele>
        <time>2011-05-08T06:48:54Z</time>
      </trkpt>
      <trkpt lat="45.3302" lon="1.1603">
        <ele>268.399994</ele>
        <time>2011-05-08T06:48:55Z</time>
      </trkpt>
      <trkpt lat="45.33026" lon="1.16028">
        <ele>267.899994</ele>
        <time>2011-05-08T06:48:56Z</time>
      </trkpt>
      <trkpt lat="45.33033" lon="1.16026">
        <ele>267.899994</ele>
        <time>2011-05-08T06:48:57Z</time>
      </trkpt>
      <trkpt lat="45.3304" lon="1.16025">
        <ele>267.799988</ele>
        <time>2011-05-08T06:48:58Z</time>
      </trkpt>
      <trkpt lat="45.33046" lon="1.16025">
        <ele>267.799988</ele>
        <time>2011-05-08T06:48:59Z</time>
      </trkpt>
      <trkpt lat="45.33053" lon="1.16026">
        <ele>267.200012</ele>
        <time>2011-05-08T06:49:00Z</time>
      </trkpt>
      <trkpt lat="45.33059" lon="1.16026">
        <ele>266.799988</ele>
        <time>2011-05-08T06:49:01Z</time>
      </trkpt>
      <trkpt lat="45.33066" lon="1.16026">
        <ele>265.899994</ele>
        <time>2011-05-08T06:49:02Z</time>
      </trkpt>
      <trkpt lat="45.33073" lon="1.16025">
        <ele>265.200012</ele>
        <time>2011-05-08T06:49:03Z</time>
      </trkpt>
      <trkpt lat="45.3308" lon="1.16023">
        <ele>264.700012</ele>
        <time>2011-05-08T06:49:04Z</time>
      </trkpt>
      <trkpt lat="45.33086" lon="1.16019">
        <ele>263.899994</ele>
        <time>2011-05-08T06:49:05Z</time>
      </trkpt>
      <trkpt lat="45.33091" lon="1.16015">
        <ele>263.399994</ele>
        <time>2011-05-08T06:49:06Z</time>
      </trkpt>
      <trkpt lat="45.33096" lon="1.16009">
        <ele>262.799988</ele>
        <time>2011-05-08T06:49:07Z</time>
      </trkpt>
      <trkpt lat="45.331" lon="1.16003">
        <ele>262.399994</ele>
        <time>2011-05-08T06:49:08Z</time>
      </trkpt>
      <trkpt lat="45.33105" lon="1.15998">
        <ele>262.200012</ele>
        <time>2011-05-08T06:49:09Z</time>
      </trkpt>
      <trkpt lat="45.33109" lon="1.15992">
        <ele>262.100006</ele>
        <time>2011-05-08T06:49:10Z</time>
      </trkpt>
      <trkpt lat="45.33113" lon="1.15987">
        <ele>262</ele>
        <time>2011-05-08T06:49:11Z</time>
      </trkpt>
      <trkpt lat="45.33117" lon="1.15982">
        <ele>262.600006</ele>
        <time>2011-05-08T06:49:12Z</time>
      </trkpt>
      <trkpt lat="45.3312" lon="1.15976">
        <ele>263.100006</ele>
        <time>2011-05-08T06:49:13Z</time>
      </trkpt>
      <trkpt lat="45.33124" lon="1.1597">
        <ele>263.299988</ele>
        <time>2011-05-08T06:49:14Z</time>
      </trkpt>
      <trkpt lat="45.33127" lon="1.15963">
        <ele>263.399994</ele>
        <time>2011-05-08T06:49:15Z</time>
      </trkpt>
      <trkpt lat="45.3313" lon="1.15956">
        <ele>263.5</ele>
        <time>2011-05-08T06:49:16Z</time>
      </trkpt>
      <trkpt lat="45.33133" lon="1.15948">
        <ele>263.600006</ele>
        <time>2011-05-08T06:49:17Z</time>
      </trkpt>
      <trkpt lat="45.33136" lon="1.1594">
        <ele>263.700012</ele>
        <time>2011-05-08T06:49:18Z</time>
      </trkpt>
      <trkpt lat="45.33139" lon="1.15932">
        <ele>263.399994</ele>
        <time>2011-05-08T06:49:19Z</time>
      </trkpt>
      <trkpt lat="45.33143" lon="1.15923">
        <ele>263.200012</ele>
        <time>2011-05-08T06:49:20Z</time>
      </trkpt>
      <trkpt lat="45.33146" lon="1.15913">
        <ele>263</ele>
        <time>2011-05-08T06:49:21Z</time>
      </trkpt>
      <trkpt lat="45.33149" lon="1.15903">
        <ele>262.899994</ele>
        <time>2011-05-08T06:49:22Z</time>
      </trkpt>
      <trkpt lat="45.33153" lon="1.15894">
        <ele>262.799988</ele>
        <time>2011-05-08T06:49:23Z</time>
      </trkpt>
      <trkpt lat="45.33157" lon="1.15884">
        <ele>262.200012</ele>
        <time>2011-05-08T06:49:24Z</time>
      </trkpt>
      <trkpt lat="45.3316" lon="1.15876">
        <ele>261.700012</ele>
        <time>2011-05-08T06:49:25Z</time>
      </trkpt>
      <trkpt lat="45.33164" lon="1.15868">
        <ele>261</ele>
        <time>2011-05-08T06:49:26Z</time>
      </trkpt>
      <trkpt lat="45.33169" lon="1.15861">
        <ele>260.5</ele>
        <time>2011-05-08T06:49:27Z</time>
      </trkpt>
      <trkpt lat="45.33173" lon="1.15854">
        <ele>260.600006</ele>
        <time>2011-05-08T06:49:28Z</time>
      </trkpt>
      <trkpt lat="45.33177" lon="1.15848">
        <ele>260.700012</ele>
        <time>2011-05-08T06:49:29Z</time>
      </trkpt>
      <trkpt lat="45.33181" lon="1.15843">
        <ele>260.799988</ele>
        <time>2011-05-08T06:49:30Z</time>
      </trkpt>
      <trkpt lat="45.33184" lon="1.15837">
        <ele>260.799988</ele>
        <time>2011-05-08T06:49:31Z</time>
      </trkpt>
      <trkpt lat="45.33188" lon="1.15833">
        <ele>260.700012</ele>
        <time>2011-05-08T06:49:32Z</time>
      </trkpt>
      <trkpt lat="45.33191" lon="1.15828">
        <ele>261.100006</ele>
        <time>2011-05-08T06:49:33Z</time>
      </trkpt>
      <trkpt lat="45.33195" lon="1.15824">
        <ele>261.399994</ele>
        <time>2011-05-08T06:49:34Z</time>
      </trkpt>
      <trkpt lat="45.33199" lon="1.15819">
        <ele>261.600006</ele>
        <time>2011-05-08T06:49:35Z</time>
      </trkpt>
      <trkpt lat="45.33203" lon="1.15815">
        <ele>261.700012</ele>
        <time>2011-05-08T06:49:36Z</time>
      </trkpt>
      <trkpt lat="45.3321" lon="1.15809">
        <ele>262.299988</ele>
        <time>2011-05-08T06:49:38Z</time>
      </trkpt>
      <trkpt lat="45.33216" lon="1.15802">
        <ele>262.899994</ele>
        <time>2011-05-08T06:49:40Z</time>
      </trkpt>
      <trkpt lat="45.33223" lon="1.15794">
        <ele>263.299988</ele>
        <time>2011-05-08T06:49:42Z</time>
      </trkpt>
      <trkpt lat="45.33228" lon="1.15786">
        <ele>263.700012</ele>
        <time>2011-05-08T06:49:44Z</time>
      </trkpt>
      <trkpt lat="45.33233" lon="1.15776">
        <ele>263.299988</ele>
        <time>2011-05-08T06:49:46Z</time>
      </trkpt>
      <trkpt lat="45.33239" lon="1.15766">
        <ele>264.299988</ele>
        <time>2011-05-08T06:49:48Z</time>
      </trkpt>
      <trkpt lat="45.33241" lon="1.1576">
        <ele>264.600006</ele>
        <time>2011-05-08T06:49:49Z</time>
      </trkpt>
      <trkpt lat="45.33244" lon="1.15755">
        <ele>265.100006</ele>
        <time>2011-05-08T06:49:50Z</time>
      </trkpt>
      <trkpt lat="45.33247" lon="1.1575">
        <ele>265.399994</ele>
        <time>2011-05-08T06:49:51Z</time>
      </trkpt>
      <trkpt lat="45.3325" lon="1.15744">
        <ele>265.299988</ele>
        <time>2011-05-08T06:49:52Z</time>
      </trkpt>
      <trkpt lat="45.33253" lon="1.15739">
        <ele>265.200012</ele>
        <time>2011-05-08T06:49:53Z</time>
      </trkpt>
      <trkpt lat="45.33256" lon="1.15733">
        <ele>265</ele>
        <time>2011-05-08T06:49:54Z</time>
      </trkpt>
      <trkpt lat="45.33259" lon="1.15727">
        <ele>264.899994</ele>
        <time>2011-05-08T06:49:55Z</time>
      </trkpt>
      <trkpt lat="45.33262" lon="1.15721">
        <ele>264.899994</ele>
        <time>2011-05-08T06:49:56Z</time>
      </trkpt>
      <trkpt lat="45.33265" lon="1.15716">
        <ele>264.899994</ele>
        <time>2011-05-08T06:49:57Z</time>
      </trkpt>
      <trkpt lat="45.33268" lon="1.15711">
        <ele>264.899994</ele>
        <time>2011-05-08T06:49:58Z</time>
      </trkpt>
      <trkpt lat="45.33274" lon="1.15702">
        <ele>265.200012</ele>
        <time>2011-05-08T06:50:00Z</time>
      </trkpt>
      <trkpt lat="45.33281" lon="1.15694">
        <ele>265</ele>
        <time>2011-05-08T06:50:02Z</time>
      </trkpt>
      <trkpt lat="45.33284" lon="1.1569">
        <ele>265</ele>
        <time>2011-05-08T06:50:03Z</time>
      </trkpt>
      <trkpt lat="45.33288" lon="1.15686">
        <ele>265.299988</ele>
        <time>2011-05-08T06:50:04Z</time>
      </trkpt>
      <trkpt lat="45.33292" lon="1.15682">
        <ele>265.600006</ele>
        <time>2011-05-08T06:50:05Z</time>
      </trkpt>
      <trkpt lat="45.33295" lon="1.15678">
        <ele>265.799988</ele>
        <time>2011-05-08T06:50:06Z</time>
      </trkpt>
      <trkpt lat="45.33299" lon="1.15673">
        <ele>266</ele>
        <time>2011-05-08T06:50:07Z</time>
      </trkpt>
      <trkpt lat="45.33302" lon="1.15668">
        <ele>266.200012</ele>
        <time>2011-05-08T06:50:08Z</time>
      </trkpt>
      <trkpt lat="45.33306" lon="1.15663">
        <ele>266.100006</ele>
        <time>2011-05-08T06:50:09Z</time>
      </trkpt>
      <trkpt lat="45.3331" lon="1.15657">
        <ele>266</ele>
        <time>2011-05-08T06:50:10Z</time>
      </trkpt>
      <trkpt lat="45.33313" lon="1.15651">
        <ele>266.399994</ele>
        <time>2011-05-08T06:50:11Z</time>
      </trkpt>
      <trkpt lat="45.33317" lon="1.15644">
        <ele>266.700012</ele>
        <time>2011-05-08T06:50:12Z</time>
      </trkpt>
      <trkpt lat="45.3332" lon="1.15637">
        <ele>265.899994</ele>
        <time>2011-05-08T06:50:13Z</time>
      </trkpt>
      <trkpt lat="45.33323" lon="1.1563">
        <ele>265.299988</ele>
        <time>2011-05-08T06:50:14Z</time>
      </trkpt>
      <trkpt lat="45.33326" lon="1.15622">
        <ele>264.899994</ele>
        <time>2011-05-08T06:50:15Z</time>
      </trkpt>
      <trkpt lat="45.33329" lon="1.15614">
        <ele>265</ele>
        <time>2011-05-08T06:50:16Z</time>
      </trkpt>
      <trkpt lat="45.33332" lon="1.15606">
        <ele>265.100006</ele>
        <time>2011-05-08T06:50:17Z</time>
      </trkpt>
      <trkpt lat="45.33335" lon="1.15598">
        <ele>264.700012</ele>
        <time>2011-05-08T06:50:18Z</time>
      </trkpt>
      <trkpt lat="45.33337" lon="1.1559">
        <ele>264.5</ele>
        <time>2011-05-08T06:50:19Z</time>
      </trkpt>
      <trkpt lat="45.33339" lon="1.15582">
        <ele>264.200012</ele>
        <time>2011-05-08T06:50:20Z</time>
      </trkpt>
      <trkpt lat="45.3334" lon="1.15572">
        <ele>263.899994</ele>
        <time>2011-05-08T06:50:21Z</time>
      </trkpt>
      <trkpt lat="45.33339" lon="1.15562">
        <ele>263.700012</ele>
        <time>2011-05-08T06:50:22Z</time>
      </trkpt>
      <trkpt lat="45.33338" lon="1.15551">
        <ele>263.5</ele>
        <time>2011-05-08T06:50:23Z</time>
      </trkpt>
      <trkpt lat="45.33338" lon="1.15539">
        <ele>263.299988</ele>
        <time>2011-05-08T06:50:24Z</time>
      </trkpt>
      <trkpt lat="45.33339" lon="1.15529">
        <ele>262.100006</ele>
        <time>2011-05-08T06:50:25Z</time>
      </trkpt>
      <trkpt lat="45.3334" lon="1.15518">
        <ele>261.200012</ele>
        <time>2011-05-08T06:50:26Z</time>
      </trkpt>
      <trkpt lat="45.33343" lon="1.15507">
        <ele>260.600006</ele>
        <time>2011-05-08T06:50:27Z</time>
      </trkpt>
      <trkpt lat="45.33347" lon="1.15499">
        <ele>259.899994</ele>
        <time>2011-05-08T06:50:28Z</time>
      </trkpt>
      <trkpt lat="45.33352" lon="1.15489">
        <ele>259.299988</ele>
        <time>2011-05-08T06:50:29Z</time>
      </trkpt>
      <trkpt lat="45.33357" lon="1.1548">
        <ele>258.700012</ele>
        <time>2011-05-08T06:50:30Z</time>
      </trkpt>
      <trkpt lat="45.33362" lon="1.15471">
        <ele>258.299988</ele>
        <time>2011-05-08T06:50:31Z</time>
      </trkpt>
      <trkpt lat="45.33367" lon="1.15462">
        <ele>257.700012</ele>
        <time>2011-05-08T06:50:32Z</time>
      </trkpt>
      <trkpt lat="45.33373" lon="1.15454">
        <ele>257.299988</ele>
        <time>2011-05-08T06:50:33Z</time>
      </trkpt>
      <trkpt lat="45.33378" lon="1.15446">
        <ele>257</ele>
        <time>2011-05-08T06:50:34Z</time>
      </trkpt>
      <trkpt lat="45.33384" lon="1.15439">
        <ele>256.399994</ele>
        <time>2011-05-08T06:50:35Z</time>
      </trkpt>
      <trkpt lat="45.3339" lon="1.15432">
        <ele>255.899994</ele>
        <time>2011-05-08T06:50:36Z</time>
      </trkpt>
      <trkpt lat="45.33397" lon="1.15426">
        <ele>255.100006</ele>
        <time>2011-05-08T06:50:37Z</time>
      </trkpt>
      <trkpt lat="45.33403" lon="1.1542">
        <ele>254.5</ele>
        <time>2011-05-08T06:50:38Z</time>
      </trkpt>
      <trkpt lat="45.3341" lon="1.15413">
        <ele>254.100006</ele>
        <time>2011-05-08T06:50:39Z</time>
      </trkpt>
      <trkpt lat="45.33417" lon="1.15406">
        <ele>253.800003</ele>
        <time>2011-05-08T06:50:40Z</time>
      </trkpt>
      <trkpt lat="45.33425" lon="1.15397">
        <ele>253.5</ele>
        <time>2011-05-08T06:50:41Z</time>
      </trkpt>
      <trkpt lat="45.33432" lon="1.15388">
        <ele>252.300003</ele>
        <time>2011-05-08T06:50:42Z</time>
      </trkpt>
      <trkpt lat="45.33437" lon="1.15382">
        <ele>251.300003</ele>
        <time>2011-05-08T06:50:43Z</time>
      </trkpt>
      <trkpt lat="45.33442" lon="1.15372">
        <ele>249.5</ele>
        <time>2011-05-08T06:50:45Z</time>
      </trkpt>
      <trkpt lat="45.33436" lon="1.15368">
        <ele>247.399994</ele>
        <time>2011-05-08T06:50:48Z</time>
      </trkpt>
      <trkpt lat="45.33428" lon="1.15364">
        <ele>246.199997</ele>
        <time>2011-05-08T06:50:50Z</time>
      </trkpt>
      <trkpt lat="45.33424" lon="1.15363">
        <ele>245.5</ele>
        <time>2011-05-08T06:50:51Z</time>
      </trkpt>
      <trkpt lat="45.33419" lon="1.15363">
        <ele>245</ele>
        <time>2011-05-08T06:50:52Z</time>
      </trkpt>
      <trkpt lat="45.33414" lon="1.15363">
        <ele>244.699997</ele>
        <time>2011-05-08T06:50:53Z</time>
      </trkpt>
      <trkpt lat="45.33409" lon="1.15363">
        <ele>244</ele>
        <time>2011-05-08T06:50:54Z</time>
      </trkpt>
      <trkpt lat="45.33405" lon="1.15364">
        <ele>243.399994</ele>
        <time>2011-05-08T06:50:55Z</time>
      </trkpt>
      <trkpt lat="45.33399" lon="1.15365">
        <ele>243.300003</ele>
        <time>2011-05-08T06:50:56Z</time>
      </trkpt>
      <trkpt lat="45.33394" lon="1.15366">
        <ele>243.199997</ele>
        <time>2011-05-08T06:50:57Z</time>
      </trkpt>
      <trkpt lat="45.33389" lon="1.15368">
        <ele>242.5</ele>
        <time>2011-05-08T06:50:58Z</time>
      </trkpt>
      <trkpt lat="45.33384" lon="1.15369">
        <ele>241.899994</ele>
        <time>2011-05-08T06:50:59Z</time>
      </trkpt>
      <trkpt lat="45.33378" lon="1.15371">
        <ele>241.5</ele>
        <time>2011-05-08T06:51:00Z</time>
      </trkpt>
      <trkpt lat="45.33372" lon="1.15373">
        <ele>241.5</ele>
        <time>2011-05-08T06:51:01Z</time>
      </trkpt>
      <trkpt lat="45.33367" lon="1.15374">
        <ele>241.5</ele>
        <time>2011-05-08T06:51:02Z</time>
      </trkpt>
      <trkpt lat="45.33361" lon="1.15375">
        <ele>241.300003</ele>
        <time>2011-05-08T06:51:03Z</time>
      </trkpt>
      <trkpt lat="45.33356" lon="1.15376">
        <ele>241.199997</ele>
        <time>2011-05-08T06:51:04Z</time>
      </trkpt>
      <trkpt lat="45.33351" lon="1.15378">
        <ele>241.100006</ele>
        <time>2011-05-08T06:51:05Z</time>
      </trkpt>
      <trkpt lat="45.33345" lon="1.1538">
        <ele>241</ele>
        <time>2011-05-08T06:51:06Z</time>
      </trkpt>
      <trkpt lat="45.3334" lon="1.15382">
        <ele>241</ele>
        <time>2011-05-08T06:51:07Z</time>
      </trkpt>
      <trkpt lat="45.33336" lon="1.15385">
        <ele>241.199997</ele>
        <time>2011-05-08T06:51:08Z</time>
      </trkpt>
      <trkpt lat="45.33331" lon="1.15387">
        <ele>241.399994</ele>
        <time>2011-05-08T06:51:09Z</time>
      </trkpt>
      <trkpt lat="45.33327" lon="1.15391">
        <ele>240.899994</ele>
        <time>2011-05-08T06:51:10Z</time>
      </trkpt>
      <trkpt lat="45.33322" lon="1.15394">
        <ele>240.5</ele>
        <time>2011-05-08T06:51:11Z</time>
      </trkpt>
      <trkpt lat="45.33317" lon="1.15399">
        <ele>240.300003</ele>
        <time>2011-05-08T06:51:12Z</time>
      </trkpt>
      <trkpt lat="45.33312" lon="1.15403">
        <ele>239.899994</ele>
        <time>2011-05-08T06:51:13Z</time>
      </trkpt>
      <trkpt lat="45.33307" lon="1.15408">
        <ele>239.600006</ele>
        <time>2011-05-08T06:51:14Z</time>
      </trkpt>
      <trkpt lat="45.33303" lon="1.15413">
        <ele>239.600006</ele>
        <time>2011-05-08T06:51:15Z</time>
      </trkpt>
      <trkpt lat="45.33299" lon="1.15417">
        <ele>239.600006</ele>
        <time>2011-05-08T06:51:16Z</time>
      </trkpt>
      <trkpt lat="45.33295" lon="1.15421">
        <ele>239.5</ele>
        <time>2011-05-08T06:51:17Z</time>
      </trkpt>
      <trkpt lat="45.33291" lon="1.15425">
        <ele>239.5</ele>
        <time>2011-05-08T06:51:18Z</time>
      </trkpt>
      <trkpt lat="45.33287" lon="1.15429">
        <ele>239.5</ele>
        <time>2011-05-08T06:51:19Z</time>
      </trkpt>
      <trkpt lat="45.33283" lon="1.15434">
        <ele>239.199997</ele>
        <time>2011-05-08T06:51:20Z</time>
      </trkpt>
      <trkpt lat="45.33279" lon="1.1544">
        <ele>238.899994</ele>
        <time>2011-05-08T06:51:21Z</time>
      </trkpt>
      <trkpt lat="45.33274" lon="1.15445">
        <ele>238.5</ele>
        <time>2011-05-08T06:51:22Z</time>
      </trkpt>
      <trkpt lat="45.3327" lon="1.15451">
        <ele>238.199997</ele>
        <time>2011-05-08T06:51:23Z</time>
      </trkpt>
      <trkpt lat="45.33266" lon="1.15457">
        <ele>237.699997</ele>
        <time>2011-05-08T06:51:24Z</time>
      </trkpt>
      <trkpt lat="45.33261" lon="1.15462">
        <ele>237.399994</ele>
        <time>2011-05-08T06:51:25Z</time>
      </trkpt>
      <trkpt lat="45.33256" lon="1.15468">
        <ele>237.100006</ele>
        <time>2011-05-08T06:51:26Z</time>
      </trkpt>
      <trkpt lat="45.33251" lon="1.15474">
        <ele>236.800003</ele>
        <time>2011-05-08T06:51:27Z</time>
      </trkpt>
      <trkpt lat="45.33246" lon="1.15479">
        <ele>236.600006</ele>
        <time>2011-05-08T06:51:28Z</time>
      </trkpt>
      <trkpt lat="45.3324" lon="1.15485">
        <ele>235.699997</ele>
        <time>2011-05-08T06:51:30Z</time>
      </trkpt>
      <trkpt lat="45.33236" lon="1.15474">
        <ele>234.199997</ele>
        <time>2011-05-08T06:51:34Z</time>
      </trkpt>
      <trkpt lat="45.33235" lon="1.15462">
        <ele>233.5</ele>
        <time>2011-05-08T06:51:36Z</time>
      </trkpt>
      <trkpt lat="45.33234" lon="1.15455">
        <ele>233.100006</ele>
        <time>2011-05-08T06:51:37Z</time>
      </trkpt>
      <trkpt lat="45.33234" lon="1.15447">
        <ele>232.800003</ele>
        <time>2011-05-08T06:51:38Z</time>
      </trkpt>
      <trkpt lat="45.33234" lon="1.15438">
        <ele>232.5</ele>
        <time>2011-05-08T06:51:39Z</time>
      </trkpt>
      <trkpt lat="45.33235" lon="1.15429">
        <ele>232.300003</ele>
        <time>2011-05-08T06:51:40Z</time>
      </trkpt>
      <trkpt lat="45.33235" lon="1.15421">
        <ele>231.899994</ele>
        <time>2011-05-08T06:51:41Z</time>
      </trkpt>
      <trkpt lat="45.33236" lon="1.15412">
        <ele>231.600006</ele>
        <time>2011-05-08T06:51:42Z</time>
      </trkpt>
      <trkpt lat="45.33237" lon="1.15403">
        <ele>231.399994</ele>
        <time>2011-05-08T06:51:43Z</time>
      </trkpt>
      <trkpt lat="45.33237" lon="1.15392">
        <ele>230.600006</ele>
        <time>2011-05-08T06:51:44Z</time>
      </trkpt>
      <trkpt lat="45.33237" lon="1.15382">
        <ele>230.100006</ele>
        <time>2011-05-08T06:51:45Z</time>
      </trkpt>
      <trkpt lat="45.33238" lon="1.15372">
        <ele>229.399994</ele>
        <time>2011-05-08T06:51:46Z</time>
      </trkpt>
      <trkpt lat="45.3324" lon="1.15361">
        <ele>229</ele>
        <time>2011-05-08T06:51:47Z</time>
      </trkpt>
      <trkpt lat="45.33241" lon="1.15351">
        <ele>228.100006</ele>
        <time>2011-05-08T06:51:48Z</time>
      </trkpt>
      <trkpt lat="45.33244" lon="1.15341">
        <ele>227.399994</ele>
        <time>2011-05-08T06:51:49Z</time>
      </trkpt>
      <trkpt lat="45.33247" lon="1.15331">
        <ele>226.899994</ele>
        <time>2011-05-08T06:51:50Z</time>
      </trkpt>
      <trkpt lat="45.33249" lon="1.15322">
        <ele>226.100006</ele>
        <time>2011-05-08T06:51:51Z</time>
      </trkpt>
      <trkpt lat="45.3325" lon="1.15313">
        <ele>225.399994</ele>
        <time>2011-05-08T06:51:52Z</time>
      </trkpt>
      <trkpt lat="45.33251" lon="1.15304">
        <ele>224.800003</ele>
        <time>2011-05-08T06:51:53Z</time>
      </trkpt>
      <trkpt lat="45.33252" lon="1.15295">
        <ele>224.300003</ele>
        <time>2011-05-08T06:51:54Z</time>
      </trkpt>
      <trkpt lat="45.33252" lon="1.15288">
        <ele>223.600006</ele>
        <time>2011-05-08T06:51:55Z</time>
      </trkpt>
      <trkpt lat="45.3325" lon="1.15279">
        <ele>222.600006</ele>
        <time>2011-05-08T06:51:57Z</time>
      </trkpt>
      <trkpt lat="45.33244" lon="1.15273">
        <ele>221.199997</ele>
        <time>2011-05-08T06:51:59Z</time>
      </trkpt>
      <trkpt lat="45.33239" lon="1.15265">
        <ele>219.899994</ele>
        <time>2011-05-08T06:52:01Z</time>
      </trkpt>
      <trkpt lat="45.33239" lon="1.15256">
        <ele>218.699997</ele>
        <time>2011-05-08T06:52:03Z</time>
      </trkpt>
      <trkpt lat="45.33239" lon="1.15245">
        <ele>217.5</ele>
        <time>2011-05-08T06:52:05Z</time>
      </trkpt>
      <trkpt lat="45.33238" lon="1.15234">
        <ele>215.899994</ele>
        <time>2011-05-08T06:52:07Z</time>
      </trkpt>
      <trkpt lat="45.33241" lon="1.15226">
        <ele>214.600006</ele>
        <time>2011-05-08T06:52:09Z</time>
      </trkpt>
      <trkpt lat="45.33246" lon="1.15219">
        <ele>213.600006</ele>
        <time>2011-05-08T06:52:11Z</time>
      </trkpt>
      <trkpt lat="45.33249" lon="1.15209">
        <ele>212.800003</ele>
        <time>2011-05-08T06:52:13Z</time>
      </trkpt>
      <trkpt lat="45.33244" lon="1.15199">
        <ele>209.399994</ele>
        <time>2011-05-08T06:52:16Z</time>
      </trkpt>
      <trkpt lat="45.33237" lon="1.15197">
        <ele>207.800003</ele>
        <time>2011-05-08T06:52:18Z</time>
      </trkpt>
      <trkpt lat="45.33233" lon="1.15195">
        <ele>207.300003</ele>
        <time>2011-05-08T06:52:19Z</time>
      </trkpt>
      <trkpt lat="45.33229" lon="1.15192">
        <ele>206.899994</ele>
        <time>2011-05-08T06:52:20Z</time>
      </trkpt>
      <trkpt lat="45.33224" lon="1.15188">
        <ele>205.699997</ele>
        <time>2011-05-08T06:52:21Z</time>
      </trkpt>
      <trkpt lat="45.33218" lon="1.15184">
        <ele>204.899994</ele>
        <time>2011-05-08T06:52:22Z</time>
      </trkpt>
      <trkpt lat="45.33213" lon="1.1518">
        <ele>204.199997</ele>
        <time>2011-05-08T06:52:23Z</time>
      </trkpt>
      <trkpt lat="45.33206" lon="1.15174">
        <ele>202.199997</ele>
        <time>2011-05-08T06:52:25Z</time>
      </trkpt>
      <trkpt lat="45.332" lon="1.15179">
        <ele>200.5</ele>
        <time>2011-05-08T06:52:28Z</time>
      </trkpt>
      <trkpt lat="45.33196" lon="1.15189">
        <ele>198.300003</ele>
        <time>2011-05-08T06:52:30Z</time>
      </trkpt>
      <trkpt lat="45.33195" lon="1.15196">
        <ele>197.300003</ele>
        <time>2011-05-08T06:52:31Z</time>
      </trkpt>
      <trkpt lat="45.33194" lon="1.15203">
        <ele>196.5</ele>
        <time>2011-05-08T06:52:32Z</time>
      </trkpt>
      <trkpt lat="45.33191" lon="1.15215">
        <ele>194.300003</ele>
        <time>2011-05-08T06:52:34Z</time>
      </trkpt>
      <trkpt lat="45.33187" lon="1.15223">
        <ele>192.699997</ele>
        <time>2011-05-08T06:52:36Z</time>
      </trkpt>
      <trkpt lat="45.3318" lon="1.15231">
        <ele>189.800003</ele>
        <time>2011-05-08T06:52:44Z</time>
      </trkpt>
      <trkpt lat="45.33176" lon="1.1522">
        <ele>187.600006</ele>
        <time>2011-05-08T06:52:56Z</time>
      </trkpt>
      <trkpt lat="45.3317" lon="1.15211">
        <ele>185</ele>
        <time>2011-05-08T06:53:08Z</time>
      </trkpt>
      <trkpt lat="45.33165" lon="1.15202">
        <ele>183.100006</ele>
        <time>2011-05-08T06:53:23Z</time>
      </trkpt>
      <trkpt lat="45.33165" lon="1.15201">
        <ele>182.800003</ele>
        <time>2011-05-08T06:53:24Z</time>
      </trkpt>
      <trkpt lat="45.33158" lon="1.15184">
        <ele>180.399994</ele>
        <time>2011-05-08T06:53:35Z</time>
      </trkpt>
      <trkpt lat="45.33158" lon="1.15178">
        <ele>180.300003</ele>
        <time>2011-05-08T06:53:36Z</time>
      </trkpt>
      <trkpt lat="45.33158" lon="1.15171">
        <ele>180.300003</ele>
        <time>2011-05-08T06:53:37Z</time>
      </trkpt>
      <trkpt lat="45.33158" lon="1.15162">
        <ele>180.300003</ele>
        <time>2011-05-08T06:53:38Z</time>
      </trkpt>
      <trkpt lat="45.33158" lon="1.15153">
        <ele>180.199997</ele>
        <time>2011-05-08T06:53:39Z</time>
      </trkpt>
      <trkpt lat="45.33157" lon="1.15142">
        <ele>179.399994</ele>
        <time>2011-05-08T06:53:40Z</time>
      </trkpt>
      <trkpt lat="45.33158" lon="1.15131">
        <ele>178.699997</ele>
        <time>2011-05-08T06:53:41Z</time>
      </trkpt>
      <trkpt lat="45.3316" lon="1.15119">
        <ele>177.699997</ele>
        <time>2011-05-08T06:53:42Z</time>
      </trkpt>
      <trkpt lat="45.33164" lon="1.15108">
        <ele>176.800003</ele>
        <time>2011-05-08T06:53:43Z</time>
      </trkpt>
      <trkpt lat="45.33171" lon="1.151">
        <ele>176.199997</ele>
        <time>2011-05-08T06:53:44Z</time>
      </trkpt>
      <trkpt lat="45.33179" lon="1.15093">
        <ele>175.699997</ele>
        <time>2011-05-08T06:53:45Z</time>
      </trkpt>
      <trkpt lat="45.33188" lon="1.15087">
        <ele>175.300003</ele>
        <time>2011-05-08T06:53:46Z</time>
      </trkpt>
      <trkpt lat="45.33197" lon="1.15079">
        <ele>173.899994</ele>
        <time>2011-05-08T06:53:47Z</time>
      </trkpt>
      <trkpt lat="45.33205" lon="1.15069">
        <ele>172.800003</ele>
        <time>2011-05-08T06:53:48Z</time>
      </trkpt>
      <trkpt lat="45.33212" lon="1.15057">
        <ele>171.699997</ele>
        <time>2011-05-08T06:53:49Z</time>
      </trkpt>
      <trkpt lat="45.33216" lon="1.15043">
        <ele>170.800003</ele>
        <time>2011-05-08T06:53:50Z</time>
      </trkpt>
      <trkpt lat="45.33221" lon="1.1503">
        <ele>170.199997</ele>
        <time>2011-05-08T06:53:51Z</time>
      </trkpt>
      <trkpt lat="45.33224" lon="1.15016">
        <ele>169.399994</ele>
        <time>2011-05-08T06:53:52Z</time>
      </trkpt>
      <trkpt lat="45.33227" lon="1.15004">
        <ele>168.899994</ele>
        <time>2011-05-08T06:53:53Z</time>
      </trkpt>
      <trkpt lat="45.33229" lon="1.14992">
        <ele>168.300003</ele>
        <time>2011-05-08T06:53:54Z</time>
      </trkpt>
      <trkpt lat="45.33229" lon="1.1498">
        <ele>167.800003</ele>
        <time>2011-05-08T06:53:55Z</time>
      </trkpt>
      <trkpt lat="45.33227" lon="1.14969">
        <ele>167.399994</ele>
        <time>2011-05-08T06:53:56Z</time>
      </trkpt>
      <trkpt lat="45.33223" lon="1.14961">
        <ele>167</ele>
        <time>2011-05-08T06:53:57Z</time>
      </trkpt>
      <trkpt lat="45.33218" lon="1.14954">
        <ele>166.699997</ele>
        <time>2011-05-08T06:53:58Z</time>
      </trkpt>
      <trkpt lat="45.33213" lon="1.1495">
        <ele>166.600006</ele>
        <time>2011-05-08T06:53:59Z</time>
      </trkpt>
      <trkpt lat="45.33209" lon="1.14946">
        <ele>166.399994</ele>
        <time>2011-05-08T06:54:00Z</time>
      </trkpt>
      <trkpt lat="45.33201" lon="1.14941">
        <ele>167.399994</ele>
        <time>2011-05-08T06:54:02Z</time>
      </trkpt>
      <trkpt lat="45.33194" lon="1.14937">
        <ele>168.300003</ele>
        <time>2011-05-08T06:54:04Z</time>
      </trkpt>
      <trkpt lat="45.33188" lon="1.14934">
        <ele>169</ele>
        <time>2011-05-08T06:54:06Z</time>
      </trkpt>
      <trkpt lat="45.3318" lon="1.14928">
        <ele>169.300003</ele>
        <time>2011-05-08T06:54:09Z</time>
      </trkpt>
      <trkpt lat="45.33172" lon="1.14925">
        <ele>169.399994</ele>
        <time>2011-05-08T06:54:12Z</time>
      </trkpt>
      <trkpt lat="45.33164" lon="1.14923">
        <ele>170.100006</ele>
        <time>2011-05-08T06:54:15Z</time>
      </trkpt>
      <trkpt lat="45.33156" lon="1.1492">
        <ele>171</ele>
        <time>2011-05-08T06:54:18Z</time>
      </trkpt>
      <trkpt lat="45.33148" lon="1.14919">
        <ele>172.100006</ele>
        <time>2011-05-08T06:54:21Z</time>
      </trkpt>
      <trkpt lat="45.33155" lon="1.1491">
        <ele>174.300003</ele>
        <time>2011-05-08T06:54:33Z</time>
      </trkpt>
      <trkpt lat="45.33156" lon="1.1491">
        <ele>174.5</ele>
        <time>2011-05-08T06:54:34Z</time>
      </trkpt>
      <trkpt lat="45.33171" lon="1.14912">
        <ele>174.699997</ele>
        <time>2011-05-08T06:54:42Z</time>
      </trkpt>
      <trkpt lat="45.33179" lon="1.14913">
        <ele>175.399994</ele>
        <time>2011-05-08T06:54:46Z</time>
      </trkpt>
      <trkpt lat="45.33186" lon="1.14913">
        <ele>176.600006</ele>
        <time>2011-05-08T06:54:50Z</time>
      </trkpt>
      <trkpt lat="45.33194" lon="1.14915">
        <ele>177.300003</ele>
        <time>2011-05-08T06:54:55Z</time>
      </trkpt>
      <trkpt lat="45.33202" lon="1.14917">
        <ele>178.5</ele>
        <time>2011-05-08T06:55:00Z</time>
      </trkpt>
      <trkpt lat="45.3321" lon="1.14918">
        <ele>180.199997</ele>
        <time>2011-05-08T06:55:05Z</time>
      </trkpt>
      <trkpt lat="45.33217" lon="1.1492">
        <ele>180.899994</ele>
        <time>2011-05-08T06:55:09Z</time>
      </trkpt>
      <trkpt lat="45.33224" lon="1.14922">
        <ele>182.5</ele>
        <time>2011-05-08T06:55:13Z</time>
      </trkpt>
      <trkpt lat="45.33232" lon="1.14924">
        <ele>183.300003</ele>
        <time>2011-05-08T06:55:17Z</time>
      </trkpt>
      <trkpt lat="45.33239" lon="1.14926">
        <ele>183.600006</ele>
        <time>2011-05-08T06:55:21Z</time>
      </trkpt>
      <trkpt lat="45.33247" lon="1.1493">
        <ele>183.800003</ele>
        <time>2011-05-08T06:55:26Z</time>
      </trkpt>
      <trkpt lat="45.33256" lon="1.14933">
        <ele>185</ele>
        <time>2011-05-08T06:55:31Z</time>
      </trkpt>
      <trkpt lat="45.33264" lon="1.14934">
        <ele>186.5</ele>
        <time>2011-05-08T06:55:36Z</time>
      </trkpt>
      <trkpt lat="45.33265" lon="1.14934">
        <ele>186.5</ele>
        <time>2011-05-08T06:55:37Z</time>
      </trkpt>
      <trkpt lat="45.3328" lon="1.14932">
        <ele>188.699997</ele>
        <time>2011-05-08T06:55:46Z</time>
      </trkpt>
      <trkpt lat="45.33289" lon="1.14932">
        <ele>189.100006</ele>
        <time>2011-05-08T06:55:52Z</time>
      </trkpt>
      <trkpt lat="45.33297" lon="1.14932">
        <ele>190.5</ele>
        <time>2011-05-08T06:55:57Z</time>
      </trkpt>
      <trkpt lat="45.33305" lon="1.14934">
        <ele>191.600006</ele>
        <time>2011-05-08T06:56:02Z</time>
      </trkpt>
      <trkpt lat="45.33314" lon="1.14932">
        <ele>192.5</ele>
        <time>2011-05-08T06:56:07Z</time>
      </trkpt>
      <trkpt lat="45.33322" lon="1.14927">
        <ele>194</ele>
        <time>2011-05-08T06:56:12Z</time>
      </trkpt>
      <trkpt lat="45.33327" lon="1.14919">
        <ele>195</ele>
        <time>2011-05-08T06:56:17Z</time>
      </trkpt>
      <trkpt lat="45.33329" lon="1.14907">
        <ele>196.399994</ele>
        <time>2011-05-08T06:56:23Z</time>
      </trkpt>
      <trkpt lat="45.33329" lon="1.14895">
        <ele>198.100006</ele>
        <time>2011-05-08T06:56:29Z</time>
      </trkpt>
      <trkpt lat="45.3333" lon="1.14882">
        <ele>200.300003</ele>
        <time>2011-05-08T06:56:36Z</time>
      </trkpt>
      <trkpt lat="45.3333" lon="1.1487">
        <ele>200.5</ele>
        <time>2011-05-08T06:56:41Z</time>
      </trkpt>
      <trkpt lat="45.3333" lon="1.14868">
        <ele>200.899994</ele>
        <time>2011-05-08T06:56:42Z</time>
      </trkpt>
      <trkpt lat="45.33333" lon="1.14848">
        <ele>202.100006</ele>
        <time>2011-05-08T06:56:51Z</time>
      </trkpt>
      <trkpt lat="45.33337" lon="1.14839">
        <ele>202</ele>
        <time>2011-05-08T06:56:56Z</time>
      </trkpt>
      <trkpt lat="45.33341" lon="1.1483">
        <ele>202.800003</ele>
        <time>2011-05-08T06:57:01Z</time>
      </trkpt>
      <trkpt lat="45.33344" lon="1.1482">
        <ele>203.800003</ele>
        <time>2011-05-08T06:57:06Z</time>
      </trkpt>
      <trkpt lat="45.33348" lon="1.14809">
        <ele>204.800003</ele>
        <time>2011-05-08T06:57:12Z</time>
      </trkpt>
      <trkpt lat="45.33352" lon="1.14799">
        <ele>206.899994</ele>
        <time>2011-05-08T06:57:18Z</time>
      </trkpt>
      <trkpt lat="45.33356" lon="1.14789">
        <ele>207.899994</ele>
        <time>2011-05-08T06:57:24Z</time>
      </trkpt>
      <trkpt lat="45.3336" lon="1.14779">
        <ele>209.199997</ele>
        <time>2011-05-08T06:57:30Z</time>
      </trkpt>
      <trkpt lat="45.33365" lon="1.14768">
        <ele>211</ele>
        <time>2011-05-08T06:57:37Z</time>
      </trkpt>
      <trkpt lat="45.33369" lon="1.14759">
        <ele>213</ele>
        <time>2011-05-08T06:57:43Z</time>
      </trkpt>
      <trkpt lat="45.3337" lon="1.14757">
        <ele>213.199997</ele>
        <time>2011-05-08T06:57:44Z</time>
      </trkpt>
      <trkpt lat="45.33377" lon="1.14739">
        <ele>215.800003</ele>
        <time>2011-05-08T06:57:56Z</time>
      </trkpt>
      <trkpt lat="45.33381" lon="1.14728">
        <ele>218.399994</ele>
        <time>2011-05-08T06:58:03Z</time>
      </trkpt>
      <trkpt lat="45.33385" lon="1.14718">
        <ele>220.5</ele>
        <time>2011-05-08T06:58:11Z</time>
      </trkpt>
      <trkpt lat="45.3339" lon="1.1471">
        <ele>221.300003</ele>
        <time>2011-05-08T06:58:18Z</time>
      </trkpt>
      <trkpt lat="45.33395" lon="1.14701">
        <ele>223.100006</ele>
        <time>2011-05-08T06:58:25Z</time>
      </trkpt>
      <trkpt lat="45.33398" lon="1.14689">
        <ele>225</ele>
        <time>2011-05-08T06:58:33Z</time>
      </trkpt>
      <trkpt lat="45.33402" lon="1.14678">
        <ele>227.600006</ele>
        <time>2011-05-08T06:58:42Z</time>
      </trkpt>
      <trkpt lat="45.33408" lon="1.14668">
        <ele>228.300003</ele>
        <time>2011-05-08T06:58:49Z</time>
      </trkpt>
      <trkpt lat="45.33409" lon="1.14667">
        <ele>228.300003</ele>
        <time>2011-05-08T06:58:50Z</time>
      </trkpt>
      <trkpt lat="45.33418" lon="1.1465">
        <ele>231</ele>
        <time>2011-05-08T06:59:00Z</time>
      </trkpt>
      <trkpt lat="45.33423" lon="1.14641">
        <ele>231.600006</ele>
        <time>2011-05-08T06:59:05Z</time>
      </trkpt>
      <trkpt lat="45.33428" lon="1.1463">
        <ele>232.699997</ele>
        <time>2011-05-08T06:59:11Z</time>
      </trkpt>
      <trkpt lat="45.33432" lon="1.1462">
        <ele>234.800003</ele>
        <time>2011-05-08T06:59:16Z</time>
      </trkpt>
      <trkpt lat="45.33436" lon="1.1461">
        <ele>235.100006</ele>
        <time>2011-05-08T06:59:21Z</time>
      </trkpt>
      <trkpt lat="45.33439" lon="1.146">
        <ele>235.100006</ele>
        <time>2011-05-08T06:59:26Z</time>
      </trkpt>
      <trkpt lat="45.33443" lon="1.14591">
        <ele>235.300003</ele>
        <time>2011-05-08T06:59:30Z</time>
      </trkpt>
      <trkpt lat="45.33447" lon="1.14582">
        <ele>236.5</ele>
        <time>2011-05-08T06:59:34Z</time>
      </trkpt>
      <trkpt lat="45.33452" lon="1.14574">
        <ele>237.100006</ele>
        <time>2011-05-08T06:59:38Z</time>
      </trkpt>
      <trkpt lat="45.33457" lon="1.14566">
        <ele>237.399994</ele>
        <time>2011-05-08T06:59:42Z</time>
      </trkpt>
      <trkpt lat="45.33463" lon="1.14558">
        <ele>237.300003</ele>
        <time>2011-05-08T06:59:47Z</time>
      </trkpt>
      <trkpt lat="45.33469" lon="1.1455">
        <ele>238.5</ele>
        <time>2011-05-08T06:59:52Z</time>
      </trkpt>
      <trkpt lat="45.3347" lon="1.14548">
        <ele>238.899994</ele>
        <time>2011-05-08T06:59:53Z</time>
      </trkpt>
      <trkpt lat="45.3348" lon="1.14534">
        <ele>241.100006</ele>
        <time>2011-05-08T07:00:03Z</time>
      </trkpt>
      <trkpt lat="45.33485" lon="1.14525">
        <ele>242.800003</ele>
        <time>2011-05-08T07:00:08Z</time>
      </trkpt>
      <trkpt lat="45.33492" lon="1.14516">
        <ele>243.199997</ele>
        <time>2011-05-08T07:00:13Z</time>
      </trkpt>
      <trkpt lat="45.33498" lon="1.14507">
        <ele>244.399994</ele>
        <time>2011-05-08T07:00:18Z</time>
      </trkpt>
      <trkpt lat="45.33504" lon="1.14499">
        <ele>245.100006</ele>
        <time>2011-05-08T07:00:22Z</time>
      </trkpt>
      <trkpt lat="45.33511" lon="1.14492">
        <ele>246.100006</ele>
        <time>2011-05-08T07:00:27Z</time>
      </trkpt>
      <trkpt lat="45.33517" lon="1.14484">
        <ele>247.5</ele>
        <time>2011-05-08T07:00:32Z</time>
      </trkpt>
      <trkpt lat="45.33523" lon="1.14475">
        <ele>248.699997</ele>
        <time>2011-05-08T07:00:37Z</time>
      </trkpt>
      <trkpt lat="45.33529" lon="1.14467">
        <ele>249.699997</ele>
        <time>2011-05-08T07:00:42Z</time>
      </trkpt>
      <trkpt lat="45.33535" lon="1.1446">
        <ele>250.5</ele>
        <time>2011-05-08T07:00:47Z</time>
      </trkpt>
      <trkpt lat="45.33541" lon="1.14452">
        <ele>251.399994</ele>
        <time>2011-05-08T07:00:52Z</time>
      </trkpt>
      <trkpt lat="45.33546" lon="1.14444">
        <ele>252.600006</ele>
        <time>2011-05-08T07:00:57Z</time>
      </trkpt>
      <trkpt lat="45.33548" lon="1.14443">
        <ele>252.600006</ele>
        <time>2011-05-08T07:00:58Z</time>
      </trkpt>
      <trkpt lat="45.33562" lon="1.14434">
        <ele>252.600006</ele>
        <time>2011-05-08T07:01:05Z</time>
      </trkpt>
      <trkpt lat="45.33568" lon="1.14431">
        <ele>252.600006</ele>
        <time>2011-05-08T07:01:09Z</time>
      </trkpt>
      <trkpt lat="45.33577" lon="1.14427">
        <ele>252.899994</ele>
        <time>2011-05-08T07:01:13Z</time>
      </trkpt>
      <trkpt lat="45.33584" lon="1.14426">
        <ele>253</ele>
        <time>2011-05-08T07:01:17Z</time>
      </trkpt>
      <trkpt lat="45.33592" lon="1.14427">
        <ele>254.600006</ele>
        <time>2011-05-08T07:01:21Z</time>
      </trkpt>
      <trkpt lat="45.336" lon="1.14431">
        <ele>256.100006</ele>
        <time>2011-05-08T07:01:26Z</time>
      </trkpt>
      <trkpt lat="45.33606" lon="1.14439">
        <ele>256.899994</ele>
        <time>2011-05-08T07:01:32Z</time>
      </trkpt>
      <trkpt lat="45.33612" lon="1.14449">
        <ele>258.700012</ele>
        <time>2011-05-08T07:01:38Z</time>
      </trkpt>
      <trkpt lat="45.33617" lon="1.14458">
        <ele>259.899994</ele>
        <time>2011-05-08T07:01:44Z</time>
      </trkpt>
      <trkpt lat="45.33622" lon="1.14468">
        <ele>262.200012</ele>
        <time>2011-05-08T07:01:50Z</time>
      </trkpt>
      <trkpt lat="45.33627" lon="1.14477">
        <ele>262.700012</ele>
        <time>2011-05-08T07:01:55Z</time>
      </trkpt>
      <trkpt lat="45.33633" lon="1.14485">
        <ele>263.899994</ele>
        <time>2011-05-08T07:02:00Z</time>
      </trkpt>
      <trkpt lat="45.33635" lon="1.14486">
        <ele>264.100006</ele>
        <time>2011-05-08T07:02:01Z</time>
      </trkpt>
      <trkpt lat="45.33647" lon="1.14497">
        <ele>265.399994</ele>
        <time>2011-05-08T07:02:10Z</time>
      </trkpt>
      <trkpt lat="45.33654" lon="1.14502">
        <ele>265.799988</ele>
        <time>2011-05-08T07:02:15Z</time>
      </trkpt>
      <trkpt lat="45.33661" lon="1.14508">
        <ele>266.5</ele>
        <time>2011-05-08T07:02:20Z</time>
      </trkpt>
      <trkpt lat="45.33669" lon="1.14514">
        <ele>267.5</ele>
        <time>2011-05-08T07:02:25Z</time>
      </trkpt>
      <trkpt lat="45.33676" lon="1.14519">
        <ele>268.100006</ele>
        <time>2011-05-08T07:02:30Z</time>
      </trkpt>
      <trkpt lat="45.33682" lon="1.14524">
        <ele>269</ele>
        <time>2011-05-08T07:02:35Z</time>
      </trkpt>
      <trkpt lat="45.3369" lon="1.1453">
        <ele>269.5</ele>
        <time>2011-05-08T07:02:40Z</time>
      </trkpt>
      <trkpt lat="45.33697" lon="1.14535">
        <ele>270.799988</ele>
        <time>2011-05-08T07:02:45Z</time>
      </trkpt>
      <trkpt lat="45.33704" lon="1.14541">
        <ele>271.799988</ele>
        <time>2011-05-08T07:02:50Z</time>
      </trkpt>
      <trkpt lat="45.33711" lon="1.14545">
        <ele>272.299988</ele>
        <time>2011-05-08T07:02:55Z</time>
      </trkpt>
      <trkpt lat="45.33718" lon="1.14545">
        <ele>274.100006</ele>
        <time>2011-05-08T07:03:00Z</time>
      </trkpt>
      <trkpt lat="45.33726" lon="1.14543">
        <ele>276.100006</ele>
        <time>2011-05-08T07:03:05Z</time>
      </trkpt>
      <trkpt lat="45.33728" lon="1.14543">
        <ele>276.399994</ele>
        <time>2011-05-08T07:03:06Z</time>
      </trkpt>
      <trkpt lat="45.33743" lon="1.14542">
        <ele>278.700012</ele>
        <time>2011-05-08T07:03:15Z</time>
      </trkpt>
      <trkpt lat="45.3375" lon="1.14541">
        <ele>279.200012</ele>
        <time>2011-05-08T07:03:19Z</time>
      </trkpt>
      <trkpt lat="45.33759" lon="1.14539">
        <ele>279.799988</ele>
        <time>2011-05-08T07:03:23Z</time>
      </trkpt>
      <trkpt lat="45.33766" lon="1.14535">
        <ele>280.200012</ele>
        <time>2011-05-08T07:03:26Z</time>
      </trkpt>
      <trkpt lat="45.33772" lon="1.1453">
        <ele>280.299988</ele>
        <time>2011-05-08T07:03:29Z</time>
      </trkpt>
      <trkpt lat="45.33778" lon="1.14525">
        <ele>280.5</ele>
        <time>2011-05-08T07:03:32Z</time>
      </trkpt>
      <trkpt lat="45.33786" lon="1.1452">
        <ele>281.299988</ele>
        <time>2011-05-08T07:03:36Z</time>
      </trkpt>
      <trkpt lat="45.33795" lon="1.14517">
        <ele>281.399994</ele>
        <time>2011-05-08T07:03:39Z</time>
      </trkpt>
      <trkpt lat="45.33803" lon="1.14514">
        <ele>281.600006</ele>
        <time>2011-05-08T07:03:41Z</time>
      </trkpt>
      <trkpt lat="45.33812" lon="1.1451">
        <ele>281.200012</ele>
        <time>2011-05-08T07:03:43Z</time>
      </trkpt>
      <trkpt lat="45.33816" lon="1.14508">
        <ele>280.799988</ele>
        <time>2011-05-08T07:03:44Z</time>
      </trkpt>
      <trkpt lat="45.33821" lon="1.14506">
        <ele>280.600006</ele>
        <time>2011-05-08T07:03:45Z</time>
      </trkpt>
      <trkpt lat="45.33827" lon="1.14505">
        <ele>280.399994</ele>
        <time>2011-05-08T07:03:46Z</time>
      </trkpt>
      <trkpt lat="45.33833" lon="1.14507">
        <ele>279.5</ele>
        <time>2011-05-08T07:03:47Z</time>
      </trkpt>
      <trkpt lat="45.33839" lon="1.14511">
        <ele>278.899994</ele>
        <time>2011-05-08T07:03:48Z</time>
      </trkpt>
      <trkpt lat="45.33846" lon="1.14515">
        <ele>278.399994</ele>
        <time>2011-05-08T07:03:49Z</time>
      </trkpt>
      <trkpt lat="45.33851" lon="1.1452">
        <ele>277.799988</ele>
        <time>2011-05-08T07:03:50Z</time>
      </trkpt>
      <trkpt lat="45.33856" lon="1.14526">
        <ele>277.299988</ele>
        <time>2011-05-08T07:03:51Z</time>
      </trkpt>
      <trkpt lat="45.3386" lon="1.1453">
        <ele>276.600006</ele>
        <time>2011-05-08T07:03:52Z</time>
      </trkpt>
      <trkpt lat="45.33864" lon="1.14535">
        <ele>276</ele>
        <time>2011-05-08T07:03:53Z</time>
      </trkpt>
      <trkpt lat="45.33869" lon="1.14539">
        <ele>276.200012</ele>
        <time>2011-05-08T07:03:54Z</time>
      </trkpt>
      <trkpt lat="45.33876" lon="1.14546">
        <ele>276.399994</ele>
        <time>2011-05-08T07:03:56Z</time>
      </trkpt>
      <trkpt lat="45.33882" lon="1.14551">
        <ele>277.600006</ele>
        <time>2011-05-08T07:03:58Z</time>
      </trkpt>
      <trkpt lat="45.33888" lon="1.14555">
        <ele>278.200012</ele>
        <time>2011-05-08T07:04:00Z</time>
      </trkpt>
      <trkpt lat="45.33895" lon="1.14558">
        <ele>278.600006</ele>
        <time>2011-05-08T07:04:02Z</time>
      </trkpt>
      <trkpt lat="45.33901" lon="1.14563">
        <ele>279.100006</ele>
        <time>2011-05-08T07:04:04Z</time>
      </trkpt>
      <trkpt lat="45.33906" lon="1.14568">
        <ele>279.399994</ele>
        <time>2011-05-08T07:04:06Z</time>
      </trkpt>
      <trkpt lat="45.33908" lon="1.14571">
        <ele>279.5</ele>
        <time>2011-05-08T07:04:07Z</time>
      </trkpt>
      <trkpt lat="45.33917" lon="1.14581">
        <ele>280</ele>
        <time>2011-05-08T07:04:10Z</time>
      </trkpt>
      <trkpt lat="45.33923" lon="1.14587">
        <ele>279.799988</ele>
        <time>2011-05-08T07:04:12Z</time>
      </trkpt>
      <trkpt lat="45.3393" lon="1.14594">
        <ele>279.5</ele>
        <time>2011-05-08T07:04:14Z</time>
      </trkpt>
      <trkpt lat="45.33938" lon="1.14599">
        <ele>279.299988</ele>
        <time>2011-05-08T07:04:16Z</time>
      </trkpt>
      <trkpt lat="45.33942" lon="1.14602">
        <ele>279.399994</ele>
        <time>2011-05-08T07:04:17Z</time>
      </trkpt>
      <trkpt lat="45.33946" lon="1.14605">
        <ele>279.799988</ele>
        <time>2011-05-08T07:04:18Z</time>
      </trkpt>
      <trkpt lat="45.3395" lon="1.14608">
        <ele>280.100006</ele>
        <time>2011-05-08T07:04:19Z</time>
      </trkpt>
      <trkpt lat="45.33954" lon="1.14611">
        <ele>280.299988</ele>
        <time>2011-05-08T07:04:20Z</time>
      </trkpt>
      <trkpt lat="45.33958" lon="1.14614">
        <ele>280.299988</ele>
        <time>2011-05-08T07:04:21Z</time>
      </trkpt>
      <trkpt lat="45.33966" lon="1.14621">
        <ele>280.299988</ele>
        <time>2011-05-08T07:04:23Z</time>
      </trkpt>
      <trkpt lat="45.33973" lon="1.14624">
        <ele>280</ele>
        <time>2011-05-08T07:04:25Z</time>
      </trkpt>
      <trkpt lat="45.33977" lon="1.14626">
        <ele>279.799988</ele>
        <time>2011-05-08T07:04:26Z</time>
      </trkpt>
      <trkpt lat="45.33982" lon="1.14628">
        <ele>279.600006</ele>
        <time>2011-05-08T07:04:27Z</time>
      </trkpt>
      <trkpt lat="45.33988" lon="1.14631">
        <ele>279.100006</ele>
        <time>2011-05-08T07:04:28Z</time>
      </trkpt>
      <trkpt lat="45.33993" lon="1.14636">
        <ele>278.700012</ele>
        <time>2011-05-08T07:04:29Z</time>
      </trkpt>
      <trkpt lat="45.33997" lon="1.14644">
        <ele>278.200012</ele>
        <time>2011-05-08T07:04:30Z</time>
      </trkpt>
      <trkpt lat="45.34001" lon="1.14651">
        <ele>277.700012</ele>
        <time>2011-05-08T07:04:31Z</time>
      </trkpt>
      <trkpt lat="45.34005" lon="1.14658">
        <ele>276.899994</ele>
        <time>2011-05-08T07:04:32Z</time>
      </trkpt>
      <trkpt lat="45.34008" lon="1.14664">
        <ele>276.200012</ele>
        <time>2011-05-08T07:04:33Z</time>
      </trkpt>
      <trkpt lat="45.34012" lon="1.14671">
        <ele>275.700012</ele>
        <time>2011-05-08T07:04:34Z</time>
      </trkpt>
      <trkpt lat="45.34015" lon="1.14677">
        <ele>276</ele>
        <time>2011-05-08T07:04:35Z</time>
      </trkpt>
      <trkpt lat="45.34023" lon="1.14683">
        <ele>276.100006</ele>
        <time>2011-05-08T07:04:37Z</time>
      </trkpt>
      <trkpt lat="45.3403" lon="1.14683">
        <ele>276.399994</ele>
        <time>2011-05-08T07:04:39Z</time>
      </trkpt>
      <trkpt lat="45.34037" lon="1.14685">
        <ele>277.100006</ele>
        <time>2011-05-08T07:04:42Z</time>
      </trkpt>
      <trkpt lat="45.34043" lon="1.14692">
        <ele>277.200012</ele>
        <time>2011-05-08T07:04:44Z</time>
      </trkpt>
      <trkpt lat="45.34047" lon="1.14695">
        <ele>277</ele>
        <time>2011-05-08T07:04:45Z</time>
      </trkpt>
      <trkpt lat="45.34051" lon="1.147">
        <ele>276.899994</ele>
        <time>2011-05-08T07:04:46Z</time>
      </trkpt>
      <trkpt lat="45.34055" lon="1.14704">
        <ele>276.600006</ele>
        <time>2011-05-08T07:04:47Z</time>
      </trkpt>
      <trkpt lat="45.34059" lon="1.14709">
        <ele>276.399994</ele>
        <time>2011-05-08T07:04:48Z</time>
      </trkpt>
      <trkpt lat="45.34063" lon="1.14712">
        <ele>276</ele>
        <time>2011-05-08T07:04:49Z</time>
      </trkpt>
      <trkpt lat="45.34071" lon="1.14719">
        <ele>275.899994</ele>
        <time>2011-05-08T07:04:51Z</time>
      </trkpt>
      <trkpt lat="45.34076" lon="1.14725">
        <ele>276.100006</ele>
        <time>2011-05-08T07:04:53Z</time>
      </trkpt>
      <trkpt lat="45.34084" lon="1.14732">
        <ele>277</ele>
        <time>2011-05-08T07:05:00Z</time>
      </trkpt>
      <trkpt lat="45.34091" lon="1.14738">
        <ele>277.600006</ele>
        <time>2011-05-08T07:05:08Z</time>
      </trkpt>
      <trkpt lat="45.34092" lon="1.14739">
        <ele>277.5</ele>
        <time>2011-05-08T07:05:09Z</time>
      </trkpt>
      <trkpt lat="45.34104" lon="1.14752">
        <ele>279</ele>
        <time>2011-05-08T07:05:23Z</time>
      </trkpt>
      <trkpt lat="45.34109" lon="1.14758">
        <ele>279.700012</ele>
        <time>2011-05-08T07:05:26Z</time>
      </trkpt>
      <trkpt lat="45.34116" lon="1.14765">
        <ele>280.100006</ele>
        <time>2011-05-08T07:05:30Z</time>
      </trkpt>
      <trkpt lat="45.34124" lon="1.14773">
        <ele>281.200012</ele>
        <time>2011-05-08T07:05:34Z</time>
      </trkpt>
      <trkpt lat="45.34129" lon="1.14779">
        <ele>281.899994</ele>
        <time>2011-05-08T07:05:37Z</time>
      </trkpt>
      <trkpt lat="45.34137" lon="1.14786">
        <ele>282.799988</ele>
        <time>2011-05-08T07:05:41Z</time>
      </trkpt>
      <trkpt lat="45.34145" lon="1.14783">
        <ele>283.299988</ele>
        <time>2011-05-08T07:05:46Z</time>
      </trkpt>
      <trkpt lat="45.34148" lon="1.14773">
        <ele>283.200012</ele>
        <time>2011-05-08T07:05:50Z</time>
      </trkpt>
      <trkpt lat="45.34153" lon="1.14763">
        <ele>284.799988</ele>
        <time>2011-05-08T07:05:54Z</time>
      </trkpt>
      <trkpt lat="45.34158" lon="1.14754">
        <ele>285.200012</ele>
        <time>2011-05-08T07:05:58Z</time>
      </trkpt>
      <trkpt lat="45.34163" lon="1.14746">
        <ele>286.100006</ele>
        <time>2011-05-08T07:06:02Z</time>
      </trkpt>
      <trkpt lat="45.34169" lon="1.14738">
        <ele>287.299988</ele>
        <time>2011-05-08T07:06:06Z</time>
      </trkpt>
      <trkpt lat="45.34176" lon="1.14731">
        <ele>288.200012</ele>
        <time>2011-05-08T07:06:10Z</time>
      </trkpt>
      <trkpt lat="45.34178" lon="1.14729">
        <ele>288.399994</ele>
        <time>2011-05-08T07:06:11Z</time>
      </trkpt>
      <trkpt lat="45.34188" lon="1.1472">
        <ele>289.200012</ele>
        <time>2011-05-08T07:06:16Z</time>
      </trkpt>
      <trkpt lat="45.34193" lon="1.14714">
        <ele>289.5</ele>
        <time>2011-05-08T07:06:19Z</time>
      </trkpt>
      <trkpt lat="45.34197" lon="1.14706">
        <ele>289.600006</ele>
        <time>2011-05-08T07:06:22Z</time>
      </trkpt>
      <trkpt lat="45.342" lon="1.14697">
        <ele>290.200012</ele>
        <time>2011-05-08T07:06:25Z</time>
      </trkpt>
      <trkpt lat="45.34202" lon="1.14687">
        <ele>291.299988</ele>
        <time>2011-05-08T07:06:28Z</time>
      </trkpt>
      <trkpt lat="45.34204" lon="1.14675">
        <ele>292.600006</ele>
        <time>2011-05-08T07:06:32Z</time>
      </trkpt>
      <trkpt lat="45.34206" lon="1.14663">
        <ele>292.600006</ele>
        <time>2011-05-08T07:06:36Z</time>
      </trkpt>
      <trkpt lat="45.34207" lon="1.1465">
        <ele>293.600006</ele>
        <time>2011-05-08T07:06:40Z</time>
      </trkpt>
      <trkpt lat="45.34208" lon="1.14638">
        <ele>295.700012</ele>
        <time>2011-05-08T07:06:44Z</time>
      </trkpt>
      <trkpt lat="45.3421" lon="1.14626">
        <ele>296.399994</ele>
        <time>2011-05-08T07:06:48Z</time>
      </trkpt>
      <trkpt lat="45.34214" lon="1.14615">
        <ele>297.100006</ele>
        <time>2011-05-08T07:06:52Z</time>
      </trkpt>
      <trkpt lat="45.34219" lon="1.14605">
        <ele>297.100006</ele>
        <time>2011-05-08T07:06:56Z</time>
      </trkpt>
      <trkpt lat="45.34224" lon="1.14596">
        <ele>298</ele>
        <time>2011-05-08T07:07:00Z</time>
      </trkpt>
      <trkpt lat="45.34231" lon="1.14592">
        <ele>299.600006</ele>
        <time>2011-05-08T07:07:04Z</time>
      </trkpt>
      <trkpt lat="45.3424" lon="1.14592">
        <ele>300.700012</ele>
        <time>2011-05-08T07:07:09Z</time>
      </trkpt>
      <trkpt lat="45.34247" lon="1.14588">
        <ele>301.5</ele>
        <time>2011-05-08T07:07:14Z</time>
      </trkpt>
      <trkpt lat="45.34248" lon="1.14586">
        <ele>301.600006</ele>
        <time>2011-05-08T07:07:15Z</time>
      </trkpt>
      <trkpt lat="45.34259" lon="1.14573">
        <ele>302.799988</ele>
        <time>2011-05-08T07:07:23Z</time>
      </trkpt>
      <trkpt lat="45.34266" lon="1.14566">
        <ele>304.100006</ele>
        <time>2011-05-08T07:07:27Z</time>
      </trkpt>
      <trkpt lat="45.34272" lon="1.14559">
        <ele>304.700012</ele>
        <time>2011-05-08T07:07:30Z</time>
      </trkpt>
      <trkpt lat="45.34277" lon="1.14551">
        <ele>305.5</ele>
        <time>2011-05-08T07:07:33Z</time>
      </trkpt>
      <trkpt lat="45.34282" lon="1.14545">
        <ele>305.799988</ele>
        <time>2011-05-08T07:07:36Z</time>
      </trkpt>
      <trkpt lat="45.34287" lon="1.14538">
        <ele>306</ele>
        <time>2011-05-08T07:07:39Z</time>
      </trkpt>
      <trkpt lat="45.34292" lon="1.1453">
        <ele>306</ele>
        <time>2011-05-08T07:07:42Z</time>
      </trkpt>
      <trkpt lat="45.34297" lon="1.14522">
        <ele>306.200012</ele>
        <time>2011-05-08T07:07:45Z</time>
      </trkpt>
      <trkpt lat="45.34302" lon="1.14514">
        <ele>306.700012</ele>
        <time>2011-05-08T07:07:48Z</time>
      </trkpt>
      <trkpt lat="45.34306" lon="1.14504">
        <ele>307.299988</ele>
        <time>2011-05-08T07:07:51Z</time>
      </trkpt>
      <trkpt lat="45.3431" lon="1.14495">
        <ele>307</ele>
        <time>2011-05-08T07:07:54Z</time>
      </trkpt>
      <trkpt lat="45.34314" lon="1.14484">
        <ele>307.100006</ele>
        <time>2011-05-08T07:07:57Z</time>
      </trkpt>
      <trkpt lat="45.34317" lon="1.14476">
        <ele>306.799988</ele>
        <time>2011-05-08T07:07:59Z</time>
      </trkpt>
      <trkpt lat="45.3432" lon="1.14468">
        <ele>306.5</ele>
        <time>2011-05-08T07:08:01Z</time>
      </trkpt>
      <trkpt lat="45.34324" lon="1.14458">
        <ele>306.299988</ele>
        <time>2011-05-08T07:08:04Z</time>
      </trkpt>
      <trkpt lat="45.34329" lon="1.14447">
        <ele>306.700012</ele>
        <time>2011-05-08T07:08:07Z</time>
      </trkpt>
      <trkpt lat="45.34334" lon="1.14437">
        <ele>305.799988</ele>
        <time>2011-05-08T07:08:10Z</time>
      </trkpt>
      <trkpt lat="45.3434" lon="1.14428">
        <ele>306.5</ele>
        <time>2011-05-08T07:08:13Z</time>
      </trkpt>
      <trkpt lat="45.34345" lon="1.14422">
        <ele>306.799988</ele>
        <time>2011-05-08T07:08:15Z</time>
      </trkpt>
      <trkpt lat="45.34348" lon="1.14419">
        <ele>307</ele>
        <time>2011-05-08T07:08:16Z</time>
      </trkpt>
      <trkpt lat="45.34357" lon="1.14409">
        <ele>307</ele>
        <time>2011-05-08T07:08:19Z</time>
      </trkpt>
      <trkpt lat="45.34362" lon="1.14401">
        <ele>307</ele>
        <time>2011-05-08T07:08:21Z</time>
      </trkpt>
      <trkpt lat="45.34368" lon="1.14392">
        <ele>307</ele>
        <time>2011-05-08T07:08:23Z</time>
      </trkpt>
      <trkpt lat="45.34372" lon="1.14384">
        <ele>307.100006</ele>
        <time>2011-05-08T07:08:25Z</time>
      </trkpt>
      <trkpt lat="45.34378" lon="1.14375">
        <ele>307.299988</ele>
        <time>2011-05-08T07:08:27Z</time>
      </trkpt>
      <trkpt lat="45.34383" lon="1.14366">
        <ele>307.5</ele>
        <time>2011-05-08T07:08:29Z</time>
      </trkpt>
      <trkpt lat="45.3439" lon="1.1436">
        <ele>308.299988</ele>
        <time>2011-05-08T07:08:31Z</time>
      </trkpt>
      <trkpt lat="45.34397" lon="1.14355">
        <ele>308.200012</ele>
        <time>2011-05-08T07:08:33Z</time>
      </trkpt>
      <trkpt lat="45.34405" lon="1.14352">
        <ele>307.899994</ele>
        <time>2011-05-08T07:08:35Z</time>
      </trkpt>
      <trkpt lat="45.3441" lon="1.14352">
        <ele>307.799988</ele>
        <time>2011-05-08T07:08:36Z</time>
      </trkpt>
      <trkpt lat="45.34415" lon="1.14352">
        <ele>307.200012</ele>
        <time>2011-05-08T07:08:37Z</time>
      </trkpt>
      <trkpt lat="45.3442" lon="1.14353">
        <ele>306.799988</ele>
        <time>2011-05-08T07:08:38Z</time>
      </trkpt>
      <trkpt lat="45.34426" lon="1.14353">
        <ele>307</ele>
        <time>2011-05-08T07:08:39Z</time>
      </trkpt>
      <trkpt lat="45.34432" lon="1.14354">
        <ele>307.100006</ele>
        <time>2011-05-08T07:08:40Z</time>
      </trkpt>
      <trkpt lat="45.34439" lon="1.14355">
        <ele>307.200012</ele>
        <time>2011-05-08T07:08:41Z</time>
      </trkpt>
      <trkpt lat="45.34446" lon="1.14356">
        <ele>306.600006</ele>
        <time>2011-05-08T07:08:42Z</time>
      </trkpt>
      <trkpt lat="45.34452" lon="1.14359">
        <ele>306.200012</ele>
        <time>2011-05-08T07:08:43Z</time>
      </trkpt>
      <trkpt lat="45.34459" lon="1.14364">
        <ele>305.799988</ele>
        <time>2011-05-08T07:08:44Z</time>
      </trkpt>
      <trkpt lat="45.34465" lon="1.14369">
        <ele>305.600006</ele>
        <time>2011-05-08T07:08:45Z</time>
      </trkpt>
      <trkpt lat="45.34472" lon="1.14376">
        <ele>304.799988</ele>
        <time>2011-05-08T07:08:46Z</time>
      </trkpt>
      <trkpt lat="45.34477" lon="1.14384">
        <ele>304.200012</ele>
        <time>2011-05-08T07:08:47Z</time>
      </trkpt>
      <trkpt lat="45.34483" lon="1.14393">
        <ele>303.799988</ele>
        <time>2011-05-08T07:08:48Z</time>
      </trkpt>
      <trkpt lat="45.3449" lon="1.14401">
        <ele>303.299988</ele>
        <time>2011-05-08T07:08:49Z</time>
      </trkpt>
      <trkpt lat="45.34498" lon="1.14406">
        <ele>303</ele>
        <time>2011-05-08T07:08:50Z</time>
      </trkpt>
      <trkpt lat="45.34506" lon="1.1441">
        <ele>302.600006</ele>
        <time>2011-05-08T07:08:51Z</time>
      </trkpt>
      <trkpt lat="45.34515" lon="1.14409">
        <ele>302.200012</ele>
        <time>2011-05-08T07:08:52Z</time>
      </trkpt>
      <trkpt lat="45.34524" lon="1.14405">
        <ele>301.200012</ele>
        <time>2011-05-08T07:08:53Z</time>
      </trkpt>
      <trkpt lat="45.34534" lon="1.14401">
        <ele>300.5</ele>
        <time>2011-05-08T07:08:54Z</time>
      </trkpt>
      <trkpt lat="45.34543" lon="1.14395">
        <ele>299.899994</ele>
        <time>2011-05-08T07:08:55Z</time>
      </trkpt>
      <trkpt lat="45.34553" lon="1.1439">
        <ele>298.899994</ele>
        <time>2011-05-08T07:08:56Z</time>
      </trkpt>
      <trkpt lat="45.34563" lon="1.14384">
        <ele>298.200012</ele>
        <time>2011-05-08T07:08:57Z</time>
      </trkpt>
      <trkpt lat="45.34573" lon="1.14379">
        <ele>297.399994</ele>
        <time>2011-05-08T07:08:58Z</time>
      </trkpt>
      <trkpt lat="45.34583" lon="1.14373">
        <ele>296.700012</ele>
        <time>2011-05-08T07:08:59Z</time>
      </trkpt>
      <trkpt lat="45.34593" lon="1.14365">
        <ele>296.299988</ele>
        <time>2011-05-08T07:09:00Z</time>
      </trkpt>
      <trkpt lat="45.34603" lon="1.14357">
        <ele>295</ele>
        <time>2011-05-08T07:09:01Z</time>
      </trkpt>
      <trkpt lat="45.34612" lon="1.14348">
        <ele>294.100006</ele>
        <time>2011-05-08T07:09:02Z</time>
      </trkpt>
      <trkpt lat="45.34622" lon="1.1434">
        <ele>293.399994</ele>
        <time>2011-05-08T07:09:03Z</time>
      </trkpt>
      <trkpt lat="45.34632" lon="1.14337">
        <ele>292.899994</ele>
        <time>2011-05-08T07:09:04Z</time>
      </trkpt>
      <trkpt lat="45.34642" lon="1.14337">
        <ele>292.299988</ele>
        <time>2011-05-08T07:09:05Z</time>
      </trkpt>
      <trkpt lat="45.34651" lon="1.1434">
        <ele>291.899994</ele>
        <time>2011-05-08T07:09:06Z</time>
      </trkpt>
      <trkpt lat="45.34659" lon="1.14347">
        <ele>291.600006</ele>
        <time>2011-05-08T07:09:07Z</time>
      </trkpt>
      <trkpt lat="45.34665" lon="1.14354">
        <ele>291.700012</ele>
        <time>2011-05-08T07:09:08Z</time>
      </trkpt>
      <trkpt lat="45.34669" lon="1.14363">
        <ele>291.799988</ele>
        <time>2011-05-08T07:09:09Z</time>
      </trkpt>
      <trkpt lat="45.34672" lon="1.14372">
        <ele>292.100006</ele>
        <time>2011-05-08T07:09:10Z</time>
      </trkpt>
      <trkpt lat="45.34673" lon="1.14381">
        <ele>292.299988</ele>
        <time>2011-05-08T07:09:11Z</time>
      </trkpt>
      <trkpt lat="45.34673" lon="1.1439">
        <ele>292.600006</ele>
        <time>2011-05-08T07:09:12Z</time>
      </trkpt>
      <trkpt lat="45.34672" lon="1.14399">
        <ele>292.700012</ele>
        <time>2011-05-08T07:09:13Z</time>
      </trkpt>
      <trkpt lat="45.3467" lon="1.14408">
        <ele>292.799988</ele>
        <time>2011-05-08T07:09:14Z</time>
      </trkpt>
      <trkpt lat="45.34667" lon="1.14416">
        <ele>292.899994</ele>
        <time>2011-05-08T07:09:15Z</time>
      </trkpt>
      <trkpt lat="45.34663" lon="1.14422">
        <ele>292.899994</ele>
        <time>2011-05-08T07:09:16Z</time>
      </trkpt>
      <trkpt lat="45.34658" lon="1.14428">
        <ele>293.5</ele>
        <time>2011-05-08T07:09:17Z</time>
      </trkpt>
      <trkpt lat="45.34653" lon="1.14433">
        <ele>293.899994</ele>
        <time>2011-05-08T07:09:18Z</time>
      </trkpt>
      <trkpt lat="45.34649" lon="1.14438">
        <ele>294.200012</ele>
        <time>2011-05-08T07:09:19Z</time>
      </trkpt>
      <trkpt lat="45.34645" lon="1.14442">
        <ele>294.600006</ele>
        <time>2011-05-08T07:09:20Z</time>
      </trkpt>
      <trkpt lat="45.34641" lon="1.14448">
        <ele>294.899994</ele>
        <time>2011-05-08T07:09:21Z</time>
      </trkpt>
      <trkpt lat="45.34637" lon="1.14453">
        <ele>295.200012</ele>
        <time>2011-05-08T07:09:22Z</time>
      </trkpt>
      <trkpt lat="45.34634" lon="1.14459">
        <ele>295.399994</ele>
        <time>2011-05-08T07:09:23Z</time>
      </trkpt>
      <trkpt lat="45.34631" lon="1.14465">
        <ele>295.899994</ele>
        <time>2011-05-08T07:09:24Z</time>
      </trkpt>
      <trkpt lat="45.34628" lon="1.14471">
        <ele>296.299988</ele>
        <time>2011-05-08T07:09:25Z</time>
      </trkpt>
      <trkpt lat="45.34626" lon="1.14476">
        <ele>296.5</ele>
        <time>2011-05-08T07:09:26Z</time>
      </trkpt>
      <trkpt lat="45.34623" lon="1.14482">
        <ele>296.799988</ele>
        <time>2011-05-08T07:09:27Z</time>
      </trkpt>
      <trkpt lat="45.34621" lon="1.14488">
        <ele>297.100006</ele>
        <time>2011-05-08T07:09:28Z</time>
      </trkpt>
      <trkpt lat="45.34618" lon="1.14494">
        <ele>297.200012</ele>
        <time>2011-05-08T07:09:29Z</time>
      </trkpt>
      <trkpt lat="45.34616" lon="1.14501">
        <ele>297.399994</ele>
        <time>2011-05-08T07:09:30Z</time>
      </trkpt>
      <trkpt lat="45.34613" lon="1.14507">
        <ele>297</ele>
        <time>2011-05-08T07:09:31Z</time>
      </trkpt>
      <trkpt lat="45.3461" lon="1.14514">
        <ele>296.700012</ele>
        <time>2011-05-08T07:09:32Z</time>
      </trkpt>
      <trkpt lat="45.34608" lon="1.14521">
        <ele>296.399994</ele>
        <time>2011-05-08T07:09:33Z</time>
      </trkpt>
      <trkpt lat="45.34605" lon="1.14529">
        <ele>296.5</ele>
        <time>2011-05-08T07:09:34Z</time>
      </trkpt>
      <trkpt lat="45.34602" lon="1.14537">
        <ele>296.600006</ele>
        <time>2011-05-08T07:09:35Z</time>
      </trkpt>
      <trkpt lat="45.346" lon="1.14546">
        <ele>296</ele>
        <time>2011-05-08T07:09:36Z</time>
      </trkpt>
      <trkpt lat="45.34598" lon="1.14556">
        <ele>295.700012</ele>
        <time>2011-05-08T07:09:37Z</time>
      </trkpt>
      <trkpt lat="45.34596" lon="1.14566">
        <ele>295.399994</ele>
        <time>2011-05-08T07:09:38Z</time>
      </trkpt>
      <trkpt lat="45.34595" lon="1.14577">
        <ele>295.100006</ele>
        <time>2011-05-08T07:09:39Z</time>
      </trkpt>
      <trkpt lat="45.34594" lon="1.14587">
        <ele>294.899994</ele>
        <time>2011-05-08T07:09:40Z</time>
      </trkpt>
      <trkpt lat="45.34592" lon="1.14598">
        <ele>294.200012</ele>
        <time>2011-05-08T07:09:41Z</time>
      </trkpt>
      <trkpt lat="45.34591" lon="1.14609">
        <ele>293.700012</ele>
        <time>2011-05-08T07:09:42Z</time>
      </trkpt>
      <trkpt lat="45.3459" lon="1.14621">
        <ele>293.600006</ele>
        <time>2011-05-08T07:09:43Z</time>
      </trkpt>
      <trkpt lat="45.34589" lon="1.14632">
        <ele>293.600006</ele>
        <time>2011-05-08T07:09:44Z</time>
      </trkpt>
      <trkpt lat="45.34588" lon="1.14643">
        <ele>293.5</ele>
        <time>2011-05-08T07:09:45Z</time>
      </trkpt>
      <trkpt lat="45.34587" lon="1.14654">
        <ele>293.100006</ele>
        <time>2011-05-08T07:09:46Z</time>
      </trkpt>
      <trkpt lat="45.34585" lon="1.14665">
        <ele>292.799988</ele>
        <time>2011-05-08T07:09:47Z</time>
      </trkpt>
      <trkpt lat="45.34584" lon="1.14675">
        <ele>292.200012</ele>
        <time>2011-05-08T07:09:48Z</time>
      </trkpt>
      <trkpt lat="45.34582" lon="1.14686">
        <ele>291.799988</ele>
        <time>2011-05-08T07:09:49Z</time>
      </trkpt>
      <trkpt lat="45.34581" lon="1.14696">
        <ele>291.5</ele>
        <time>2011-05-08T07:09:50Z</time>
      </trkpt>
      <trkpt lat="45.3458" lon="1.14706">
        <ele>291.299988</ele>
        <time>2011-05-08T07:09:51Z</time>
      </trkpt>
      <trkpt lat="45.3458" lon="1.14717">
        <ele>291.100006</ele>
        <time>2011-05-08T07:09:52Z</time>
      </trkpt>
      <trkpt lat="45.34581" lon="1.14726">
        <ele>291.200012</ele>
        <time>2011-05-08T07:09:53Z</time>
      </trkpt>
      <trkpt lat="45.34584" lon="1.14736">
        <ele>291.200012</ele>
        <time>2011-05-08T07:09:54Z</time>
      </trkpt>
      <trkpt lat="45.34587" lon="1.14744">
        <ele>291</ele>
        <time>2011-05-08T07:09:55Z</time>
      </trkpt>
      <trkpt lat="45.34591" lon="1.14751">
        <ele>290.899994</ele>
        <time>2011-05-08T07:09:56Z</time>
      </trkpt>
      <trkpt lat="45.34596" lon="1.14757">
        <ele>291.200012</ele>
        <time>2011-05-08T07:09:57Z</time>
      </trkpt>
      <trkpt lat="45.34601" lon="1.14762">
        <ele>291.399994</ele>
        <time>2011-05-08T07:09:58Z</time>
      </trkpt>
      <trkpt lat="45.34606" lon="1.14766">
        <ele>291.600006</ele>
        <time>2011-05-08T07:09:59Z</time>
      </trkpt>
      <trkpt lat="45.34612" lon="1.14769">
        <ele>291</ele>
        <time>2011-05-08T07:10:00Z</time>
      </trkpt>
      <trkpt lat="45.34619" lon="1.14774">
        <ele>290.700012</ele>
        <time>2011-05-08T07:10:02Z</time>
      </trkpt>
      <trkpt lat="45.34621" lon="1.14784">
        <ele>291</ele>
        <time>2011-05-08T07:10:04Z</time>
      </trkpt>
      <trkpt lat="45.34619" lon="1.1479">
        <ele>290.899994</ele>
        <time>2011-05-08T07:10:05Z</time>
      </trkpt>
      <trkpt lat="45.34616" lon="1.14796">
        <ele>290.799988</ele>
        <time>2011-05-08T07:10:06Z</time>
      </trkpt>
      <trkpt lat="45.34614" lon="1.14803">
        <ele>290.5</ele>
        <time>2011-05-08T07:10:07Z</time>
      </trkpt>
      <trkpt lat="45.34611" lon="1.1481">
        <ele>290.200012</ele>
        <time>2011-05-08T07:10:08Z</time>
      </trkpt>
      <trkpt lat="45.34608" lon="1.14818">
        <ele>289.899994</ele>
        <time>2011-05-08T07:10:09Z</time>
      </trkpt>
      <trkpt lat="45.34605" lon="1.14826">
        <ele>289.600006</ele>
        <time>2011-05-08T07:10:10Z</time>
      </trkpt>
      <trkpt lat="45.34602" lon="1.14835">
        <ele>289.299988</ele>
        <time>2011-05-08T07:10:11Z</time>
      </trkpt>
      <trkpt lat="45.34599" lon="1.14845">
        <ele>288.799988</ele>
        <time>2011-05-08T07:10:12Z</time>
      </trkpt>
      <trkpt lat="45.34596" lon="1.14855">
        <ele>288.399994</ele>
        <time>2011-05-08T07:10:13Z</time>
      </trkpt>
      <trkpt lat="45.34593" lon="1.14866">
        <ele>287.600006</ele>
        <time>2011-05-08T07:10:14Z</time>
      </trkpt>
      <trkpt lat="45.34591" lon="1.14877">
        <ele>287</ele>
        <time>2011-05-08T07:10:15Z</time>
      </trkpt>
      <trkpt lat="45.3459" lon="1.14889">
        <ele>285.799988</ele>
        <time>2011-05-08T07:10:16Z</time>
      </trkpt>
      <trkpt lat="45.34589" lon="1.14902">
        <ele>284.799988</ele>
        <time>2011-05-08T07:10:17Z</time>
      </trkpt>
      <trkpt lat="45.34588" lon="1.14915">
        <ele>284.100006</ele>
        <time>2011-05-08T07:10:18Z</time>
      </trkpt>
      <trkpt lat="45.34589" lon="1.14929">
        <ele>283.299988</ele>
        <time>2011-05-08T07:10:19Z</time>
      </trkpt>
      <trkpt lat="45.3459" lon="1.14942">
        <ele>282.600006</ele>
        <time>2011-05-08T07:10:20Z</time>
      </trkpt>
      <trkpt lat="45.34592" lon="1.14956">
        <ele>281.899994</ele>
        <time>2011-05-08T07:10:21Z</time>
      </trkpt>
      <trkpt lat="45.34595" lon="1.1497">
        <ele>281.399994</ele>
        <time>2011-05-08T07:10:22Z</time>
      </trkpt>
      <trkpt lat="45.34598" lon="1.14984">
        <ele>281.100006</ele>
        <time>2011-05-08T07:10:23Z</time>
      </trkpt>
      <trkpt lat="45.34601" lon="1.14999">
        <ele>279.899994</ele>
        <time>2011-05-08T07:10:24Z</time>
      </trkpt>
      <trkpt lat="45.34602" lon="1.15014">
        <ele>279.100006</ele>
        <time>2011-05-08T07:10:25Z</time>
      </trkpt>
      <trkpt lat="45.34603" lon="1.1503">
        <ele>277.799988</ele>
        <time>2011-05-08T07:10:26Z</time>
      </trkpt>
      <trkpt lat="45.34603" lon="1.15045">
        <ele>276.799988</ele>
        <time>2011-05-08T07:10:27Z</time>
      </trkpt>
      <trkpt lat="45.34604" lon="1.1506">
        <ele>274.799988</ele>
        <time>2011-05-08T07:10:28Z</time>
      </trkpt>
      <trkpt lat="45.34605" lon="1.15074">
        <ele>273.299988</ele>
        <time>2011-05-08T07:10:29Z</time>
      </trkpt>
      <trkpt lat="45.34608" lon="1.15087">
        <ele>272.200012</ele>
        <time>2011-05-08T07:10:30Z</time>
      </trkpt>
      <trkpt lat="45.34611" lon="1.15098">
        <ele>270.200012</ele>
        <time>2011-05-08T07:10:31Z</time>
      </trkpt>
      <trkpt lat="45.34615" lon="1.15105">
        <ele>268.799988</ele>
        <time>2011-05-08T07:10:32Z</time>
      </trkpt>
      <trkpt lat="45.34621" lon="1.15109">
        <ele>267.299988</ele>
        <time>2011-05-08T07:10:33Z</time>
      </trkpt>
      <trkpt lat="45.34626" lon="1.15109">
        <ele>266.200012</ele>
        <time>2011-05-08T07:10:34Z</time>
      </trkpt>
      <trkpt lat="45.34631" lon="1.15106">
        <ele>265.299988</ele>
        <time>2011-05-08T07:10:35Z</time>
      </trkpt>
      <trkpt lat="45.34635" lon="1.151">
        <ele>264.5</ele>
        <time>2011-05-08T07:10:36Z</time>
      </trkpt>
      <trkpt lat="45.34639" lon="1.15094">
        <ele>264</ele>
        <time>2011-05-08T07:10:37Z</time>
      </trkpt>
      <trkpt lat="45.34642" lon="1.15086">
        <ele>263.200012</ele>
        <time>2011-05-08T07:10:38Z</time>
      </trkpt>
      <trkpt lat="45.34644" lon="1.15076">
        <ele>262.700012</ele>
        <time>2011-05-08T07:10:39Z</time>
      </trkpt>
      <trkpt lat="45.34647" lon="1.15066">
        <ele>261.600006</ele>
        <time>2011-05-08T07:10:40Z</time>
      </trkpt>
      <trkpt lat="45.34649" lon="1.15056">
        <ele>260.799988</ele>
        <time>2011-05-08T07:10:41Z</time>
      </trkpt>
      <trkpt lat="45.34652" lon="1.15044">
        <ele>260.200012</ele>
        <time>2011-05-08T07:10:42Z</time>
      </trkpt>
      <trkpt lat="45.34654" lon="1.15032">
        <ele>259.5</ele>
        <time>2011-05-08T07:10:43Z</time>
      </trkpt>
      <trkpt lat="45.34656" lon="1.15022">
        <ele>258.899994</ele>
        <time>2011-05-08T07:10:44Z</time>
      </trkpt>
      <trkpt lat="45.34658" lon="1.15013">
        <ele>257.799988</ele>
        <time>2011-05-08T07:10:45Z</time>
      </trkpt>
      <trkpt lat="45.34659" lon="1.15006">
        <ele>257</ele>
        <time>2011-05-08T07:10:46Z</time>
      </trkpt>
      <trkpt lat="45.34665" lon="1.14999">
        <ele>254.899994</ele>
        <time>2011-05-08T07:10:48Z</time>
      </trkpt>
      <trkpt lat="45.3467" lon="1.15001">
        <ele>254.300003</ele>
        <time>2011-05-08T07:10:49Z</time>
      </trkpt>
      <trkpt lat="45.34673" lon="1.15005">
        <ele>253.300003</ele>
        <time>2011-05-08T07:10:50Z</time>
      </trkpt>
      <trkpt lat="45.34676" lon="1.15012">
        <ele>252.600006</ele>
        <time>2011-05-08T07:10:51Z</time>
      </trkpt>
      <trkpt lat="45.34679" lon="1.15021">
        <ele>251.600006</ele>
        <time>2011-05-08T07:10:52Z</time>
      </trkpt>
      <trkpt lat="45.3468" lon="1.15031">
        <ele>250.899994</ele>
        <time>2011-05-08T07:10:53Z</time>
      </trkpt>
      <trkpt lat="45.34682" lon="1.15041">
        <ele>249.899994</ele>
        <time>2011-05-08T07:10:54Z</time>
      </trkpt>
      <trkpt lat="45.34683" lon="1.15052">
        <ele>249.199997</ele>
        <time>2011-05-08T07:10:55Z</time>
      </trkpt>
      <trkpt lat="45.34684" lon="1.15063">
        <ele>248.600006</ele>
        <time>2011-05-08T07:10:56Z</time>
      </trkpt>
      <trkpt lat="45.34684" lon="1.15073">
        <ele>246.899994</ele>
        <time>2011-05-08T07:10:57Z</time>
      </trkpt>
      <trkpt lat="45.34685" lon="1.15083">
        <ele>245.600006</ele>
        <time>2011-05-08T07:10:58Z</time>
      </trkpt>
      <trkpt lat="45.34686" lon="1.15093">
        <ele>244.100006</ele>
        <time>2011-05-08T07:10:59Z</time>
      </trkpt>
      <trkpt lat="45.34688" lon="1.15101">
        <ele>242.899994</ele>
        <time>2011-05-08T07:11:00Z</time>
      </trkpt>
      <trkpt lat="45.3469" lon="1.15109">
        <ele>242</ele>
        <time>2011-05-08T07:11:01Z</time>
      </trkpt>
      <trkpt lat="45.34691" lon="1.15116">
        <ele>240.899994</ele>
        <time>2011-05-08T07:11:02Z</time>
      </trkpt>
      <trkpt lat="45.34693" lon="1.15123">
        <ele>240</ele>
        <time>2011-05-08T07:11:03Z</time>
      </trkpt>
      <trkpt lat="45.34693" lon="1.15131">
        <ele>238.800003</ele>
        <time>2011-05-08T07:11:04Z</time>
      </trkpt>
      <trkpt lat="45.34694" lon="1.15138">
        <ele>237.800003</ele>
        <time>2011-05-08T07:11:05Z</time>
      </trkpt>
      <trkpt lat="45.34693" lon="1.15149">
        <ele>235.100006</ele>
        <time>2011-05-08T07:11:07Z</time>
      </trkpt>
      <trkpt lat="45.34692" lon="1.1516">
        <ele>233.300003</ele>
        <time>2011-05-08T07:11:09Z</time>
      </trkpt>
      <trkpt lat="45.34691" lon="1.15166">
        <ele>232.600006</ele>
        <time>2011-05-08T07:11:10Z</time>
      </trkpt>
      <trkpt lat="45.34689" lon="1.15172">
        <ele>230.899994</ele>
        <time>2011-05-08T07:11:11Z</time>
      </trkpt>
      <trkpt lat="45.34688" lon="1.1518">
        <ele>229.699997</ele>
        <time>2011-05-08T07:11:12Z</time>
      </trkpt>
      <trkpt lat="45.34686" lon="1.15187">
        <ele>228.399994</ele>
        <time>2011-05-08T07:11:13Z</time>
      </trkpt>
      <trkpt lat="45.34684" lon="1.15195">
        <ele>227.5</ele>
        <time>2011-05-08T07:11:14Z</time>
      </trkpt>
      <trkpt lat="45.34681" lon="1.15203">
        <ele>226.699997</ele>
        <time>2011-05-08T07:11:15Z</time>
      </trkpt>
      <trkpt lat="45.34679" lon="1.15211">
        <ele>224.899994</ele>
        <time>2011-05-08T07:11:16Z</time>
      </trkpt>
      <trkpt lat="45.34676" lon="1.15218">
        <ele>223.5</ele>
        <time>2011-05-08T07:11:17Z</time>
      </trkpt>
      <trkpt lat="45.34674" lon="1.15226">
        <ele>221.199997</ele>
        <time>2011-05-08T07:11:18Z</time>
      </trkpt>
      <trkpt lat="45.34672" lon="1.15234">
        <ele>219.600006</ele>
        <time>2011-05-08T07:11:19Z</time>
      </trkpt>
      <trkpt lat="45.34671" lon="1.15242">
        <ele>218.300003</ele>
        <time>2011-05-08T07:11:20Z</time>
      </trkpt>
      <trkpt lat="45.3467" lon="1.1525">
        <ele>216.899994</ele>
        <time>2011-05-08T07:11:21Z</time>
      </trkpt>
      <trkpt lat="45.34669" lon="1.15257">
        <ele>215.899994</ele>
        <time>2011-05-08T07:11:22Z</time>
      </trkpt>
      <trkpt lat="45.34668" lon="1.15265">
        <ele>214.399994</ele>
        <time>2011-05-08T07:11:23Z</time>
      </trkpt>
      <trkpt lat="45.34665" lon="1.15276">
        <ele>212.100006</ele>
        <time>2011-05-08T07:11:25Z</time>
      </trkpt>
      <trkpt lat="45.3466" lon="1.15285">
        <ele>210.5</ele>
        <time>2011-05-08T07:11:27Z</time>
      </trkpt>
      <trkpt lat="45.34654" lon="1.15291">
        <ele>208.600006</ele>
        <time>2011-05-08T07:11:29Z</time>
      </trkpt>
      <trkpt lat="45.34646" lon="1.15293">
        <ele>206.800003</ele>
        <time>2011-05-08T07:11:31Z</time>
      </trkpt>
      <trkpt lat="45.34639" lon="1.15294">
        <ele>204.600006</ele>
        <time>2011-05-08T07:11:33Z</time>
      </trkpt>
      <trkpt lat="45.34631" lon="1.15296">
        <ele>203.100006</ele>
        <time>2011-05-08T07:11:35Z</time>
      </trkpt>
      <trkpt lat="45.34627" lon="1.15297">
        <ele>202.399994</ele>
        <time>2011-05-08T07:11:36Z</time>
      </trkpt>
      <trkpt lat="45.34618" lon="1.15299">
        <ele>199.800003</ele>
        <time>2011-05-08T07:11:38Z</time>
      </trkpt>
      <trkpt lat="45.34611" lon="1.15302">
        <ele>198</ele>
        <time>2011-05-08T07:11:40Z</time>
      </trkpt>
      <trkpt lat="45.34606" lon="1.15303">
        <ele>197.199997</ele>
        <time>2011-05-08T07:11:41Z</time>
      </trkpt>
      <trkpt lat="45.34602" lon="1.15303">
        <ele>195.899994</ele>
        <time>2011-05-08T07:11:42Z</time>
      </trkpt>
      <trkpt lat="45.34596" lon="1.15302">
        <ele>194.899994</ele>
        <time>2011-05-08T07:11:43Z</time>
      </trkpt>
      <trkpt lat="45.3459" lon="1.15299">
        <ele>194.300003</ele>
        <time>2011-05-08T07:11:44Z</time>
      </trkpt>
      <trkpt lat="45.34586" lon="1.15295">
        <ele>193.800003</ele>
        <time>2011-05-08T07:11:45Z</time>
      </trkpt>
      <trkpt lat="45.3458" lon="1.15289">
        <ele>193.5</ele>
        <time>2011-05-08T07:11:46Z</time>
      </trkpt>
      <trkpt lat="45.34575" lon="1.15284">
        <ele>192.5</ele>
        <time>2011-05-08T07:11:47Z</time>
      </trkpt>
      <trkpt lat="45.34569" lon="1.15278">
        <ele>191.800003</ele>
        <time>2011-05-08T07:11:48Z</time>
      </trkpt>
      <trkpt lat="45.34563" lon="1.15274">
        <ele>191</ele>
        <time>2011-05-08T07:11:49Z</time>
      </trkpt>
      <trkpt lat="45.34556" lon="1.1527">
        <ele>190.5</ele>
        <time>2011-05-08T07:11:50Z</time>
      </trkpt>
      <trkpt lat="45.3455" lon="1.15265">
        <ele>189.600006</ele>
        <time>2011-05-08T07:11:51Z</time>
      </trkpt>
      <trkpt lat="45.34544" lon="1.15261">
        <ele>189</ele>
        <time>2011-05-08T07:11:52Z</time>
      </trkpt>
      <trkpt lat="45.34538" lon="1.1526">
        <ele>188.600006</ele>
        <time>2011-05-08T07:11:53Z</time>
      </trkpt>
      <trkpt lat="45.34533" lon="1.1526">
        <ele>187.100006</ele>
        <time>2011-05-08T07:11:54Z</time>
      </trkpt>
      <trkpt lat="45.34525" lon="1.15263">
        <ele>183.800003</ele>
        <time>2011-05-08T07:11:56Z</time>
      </trkpt>
      <trkpt lat="45.3452" lon="1.15263">
        <ele>182.199997</ele>
        <time>2011-05-08T07:11:57Z</time>
      </trkpt>
      <trkpt lat="45.34514" lon="1.15263">
        <ele>181</ele>
        <time>2011-05-08T07:11:58Z</time>
      </trkpt>
      <trkpt lat="45.3451" lon="1.15264">
        <ele>180.399994</ele>
        <time>2011-05-08T07:11:59Z</time>
      </trkpt>
      <trkpt lat="45.34505" lon="1.15265">
        <ele>180</ele>
        <time>2011-05-08T07:12:00Z</time>
      </trkpt>
      <trkpt lat="45.34497" lon="1.15268">
        <ele>178.699997</ele>
        <time>2011-05-08T07:12:02Z</time>
      </trkpt>
      <trkpt lat="45.34491" lon="1.15276">
        <ele>176.100006</ele>
        <time>2011-05-08T07:12:05Z</time>
      </trkpt>
      <trkpt lat="45.34492" lon="1.15285">
        <ele>173.699997</ele>
        <time>2011-05-08T07:12:08Z</time>
      </trkpt>
      <trkpt lat="45.34498" lon="1.15293">
        <ele>171.800003</ele>
        <time>2011-05-08T07:12:10Z</time>
      </trkpt>
      <trkpt lat="45.34501" lon="1.15298">
        <ele>170.899994</ele>
        <time>2011-05-08T07:12:11Z</time>
      </trkpt>
      <trkpt lat="45.34504" lon="1.15303">
        <ele>170.199997</ele>
        <time>2011-05-08T07:12:12Z</time>
      </trkpt>
      <trkpt lat="45.34508" lon="1.15307">
        <ele>169.5</ele>
        <time>2011-05-08T07:12:13Z</time>
      </trkpt>
      <trkpt lat="45.34511" lon="1.15312">
        <ele>169</ele>
        <time>2011-05-08T07:12:14Z</time>
      </trkpt>
      <trkpt lat="45.34513" lon="1.15317">
        <ele>169.100006</ele>
        <time>2011-05-08T07:12:15Z</time>
      </trkpt>
      <trkpt lat="45.34519" lon="1.15326">
        <ele>169.399994</ele>
        <time>2011-05-08T07:12:17Z</time>
      </trkpt>
      <trkpt lat="45.34524" lon="1.15335">
        <ele>169.399994</ele>
        <time>2011-05-08T07:12:19Z</time>
      </trkpt>
      <trkpt lat="45.34527" lon="1.1534">
        <ele>169.100006</ele>
        <time>2011-05-08T07:12:20Z</time>
      </trkpt>
      <trkpt lat="45.34535" lon="1.15355">
        <ele>168.5</ele>
        <time>2011-05-08T07:12:23Z</time>
      </trkpt>
      <trkpt lat="45.34537" lon="1.1536">
        <ele>168.399994</ele>
        <time>2011-05-08T07:12:24Z</time>
      </trkpt>
      <trkpt lat="45.34543" lon="1.15369">
        <ele>168.699997</ele>
        <time>2011-05-08T07:12:26Z</time>
      </trkpt>
      <trkpt lat="45.34547" lon="1.15378">
        <ele>169.300003</ele>
        <time>2011-05-08T07:12:28Z</time>
      </trkpt>
      <trkpt lat="45.34552" lon="1.15388">
        <ele>168.899994</ele>
        <time>2011-05-08T07:12:30Z</time>
      </trkpt>
      <trkpt lat="45.34554" lon="1.15394">
        <ele>168.800003</ele>
        <time>2011-05-08T07:12:31Z</time>
      </trkpt>
      <trkpt lat="45.34556" lon="1.154">
        <ele>169.100006</ele>
        <time>2011-05-08T07:12:32Z</time>
      </trkpt>
      <trkpt lat="45.34558" lon="1.15407">
        <ele>169.300003</ele>
        <time>2011-05-08T07:12:33Z</time>
      </trkpt>
      <trkpt lat="45.34561" lon="1.15417">
        <ele>169</ele>
        <time>2011-05-08T07:12:35Z</time>
      </trkpt>
      <trkpt lat="45.34565" lon="1.15427">
        <ele>169.100006</ele>
        <time>2011-05-08T07:12:37Z</time>
      </trkpt>
      <trkpt lat="45.3457" lon="1.15436">
        <ele>169.199997</ele>
        <time>2011-05-08T07:12:39Z</time>
      </trkpt>
      <trkpt lat="45.34574" lon="1.15445">
        <ele>169.199997</ele>
        <time>2011-05-08T07:12:41Z</time>
      </trkpt>
      <trkpt lat="45.3458" lon="1.15452">
        <ele>169.100006</ele>
        <time>2011-05-08T07:12:43Z</time>
      </trkpt>
      <trkpt lat="45.34584" lon="1.15458">
        <ele>169.399994</ele>
        <time>2011-05-08T07:12:45Z</time>
      </trkpt>
      <trkpt lat="45.3459" lon="1.15464">
        <ele>169.5</ele>
        <time>2011-05-08T07:12:47Z</time>
      </trkpt>
      <trkpt lat="45.34595" lon="1.1547">
        <ele>169.600006</ele>
        <time>2011-05-08T07:12:49Z</time>
      </trkpt>
      <trkpt lat="45.34601" lon="1.15478">
        <ele>169.399994</ele>
        <time>2011-05-08T07:12:53Z</time>
      </trkpt>
      <trkpt lat="45.34606" lon="1.15484">
        <ele>169.199997</ele>
        <time>2011-05-08T07:12:56Z</time>
      </trkpt>
      <trkpt lat="45.3461" lon="1.1549">
        <ele>169.100006</ele>
        <time>2011-05-08T07:12:58Z</time>
      </trkpt>
      <trkpt lat="45.34615" lon="1.15497">
        <ele>169.199997</ele>
        <time>2011-05-08T07:13:00Z</time>
      </trkpt>
      <trkpt lat="45.3462" lon="1.15502">
        <ele>169.100006</ele>
        <time>2011-05-08T07:13:02Z</time>
      </trkpt>
      <trkpt lat="45.34625" lon="1.1551">
        <ele>168.699997</ele>
        <time>2011-05-08T07:13:04Z</time>
      </trkpt>
      <trkpt lat="45.3463" lon="1.15518">
        <ele>169.300003</ele>
        <time>2011-05-08T07:13:06Z</time>
      </trkpt>
      <trkpt lat="45.34634" lon="1.15526">
        <ele>169.199997</ele>
        <time>2011-05-08T07:13:08Z</time>
      </trkpt>
      <trkpt lat="45.34637" lon="1.15536">
        <ele>168.899994</ele>
        <time>2011-05-08T07:13:10Z</time>
      </trkpt>
      <trkpt lat="45.3464" lon="1.15546">
        <ele>169</ele>
        <time>2011-05-08T07:13:12Z</time>
      </trkpt>
      <trkpt lat="45.34643" lon="1.15551">
        <ele>169.199997</ele>
        <time>2011-05-08T07:13:13Z</time>
      </trkpt>
      <trkpt lat="45.34649" lon="1.1556">
        <ele>169.5</ele>
        <time>2011-05-08T07:13:15Z</time>
      </trkpt>
      <trkpt lat="45.34654" lon="1.15569">
        <ele>169.399994</ele>
        <time>2011-05-08T07:13:17Z</time>
      </trkpt>
      <trkpt lat="45.34658" lon="1.15578">
        <ele>169.199997</ele>
        <time>2011-05-08T07:13:19Z</time>
      </trkpt>
      <trkpt lat="45.34663" lon="1.15589">
        <ele>169</ele>
        <time>2011-05-08T07:13:21Z</time>
      </trkpt>
      <trkpt lat="45.34665" lon="1.15594">
        <ele>169</ele>
        <time>2011-05-08T07:13:22Z</time>
      </trkpt>
      <trkpt lat="45.34671" lon="1.1561">
        <ele>168.699997</ele>
        <time>2011-05-08T07:13:25Z</time>
      </trkpt>
      <trkpt lat="45.34674" lon="1.15619">
        <ele>169.300003</ele>
        <time>2011-05-08T07:13:27Z</time>
      </trkpt>
      <trkpt lat="45.34675" lon="1.15628">
        <ele>169.5</ele>
        <time>2011-05-08T07:13:29Z</time>
      </trkpt>
      <trkpt lat="45.34675" lon="1.15634">
        <ele>169.399994</ele>
        <time>2011-05-08T07:13:30Z</time>
      </trkpt>
      <trkpt lat="45.34676" lon="1.15641">
        <ele>169.699997</ele>
        <time>2011-05-08T07:13:31Z</time>
      </trkpt>
      <trkpt lat="45.34678" lon="1.15648">
        <ele>169.899994</ele>
        <time>2011-05-08T07:13:32Z</time>
      </trkpt>
      <trkpt lat="45.34679" lon="1.15656">
        <ele>169.699997</ele>
        <time>2011-05-08T07:13:33Z</time>
      </trkpt>
      <trkpt lat="45.34681" lon="1.15663">
        <ele>169.5</ele>
        <time>2011-05-08T07:13:34Z</time>
      </trkpt>
      <trkpt lat="45.34682" lon="1.15671">
        <ele>169.399994</ele>
        <time>2011-05-08T07:13:35Z</time>
      </trkpt>
      <trkpt lat="45.34684" lon="1.15679">
        <ele>169.5</ele>
        <time>2011-05-08T07:13:36Z</time>
      </trkpt>
      <trkpt lat="45.34685" lon="1.15686">
        <ele>169.600006</ele>
        <time>2011-05-08T07:13:37Z</time>
      </trkpt>
      <trkpt lat="45.34686" lon="1.15692">
        <ele>169.5</ele>
        <time>2011-05-08T07:13:38Z</time>
      </trkpt>
      <trkpt lat="45.34688" lon="1.15699">
        <ele>169.399994</ele>
        <time>2011-05-08T07:13:39Z</time>
      </trkpt>
      <trkpt lat="45.3469" lon="1.15706">
        <ele>169.300003</ele>
        <time>2011-05-08T07:13:40Z</time>
      </trkpt>
      <trkpt lat="45.34692" lon="1.15717">
        <ele>168.699997</ele>
        <time>2011-05-08T07:13:42Z</time>
      </trkpt>
      <trkpt lat="45.34692" lon="1.15724">
        <ele>168.699997</ele>
        <time>2011-05-08T07:13:43Z</time>
      </trkpt>
      <trkpt lat="45.34692" lon="1.1573">
        <ele>168.699997</ele>
        <time>2011-05-08T07:13:44Z</time>
      </trkpt>
      <trkpt lat="45.34692" lon="1.15737">
        <ele>168.800003</ele>
        <time>2011-05-08T07:13:45Z</time>
      </trkpt>
      <trkpt lat="45.34693" lon="1.15743">
        <ele>168.800003</ele>
        <time>2011-05-08T07:13:46Z</time>
      </trkpt>
      <trkpt lat="45.34694" lon="1.1575">
        <ele>168.800003</ele>
        <time>2011-05-08T07:13:47Z</time>
      </trkpt>
      <trkpt lat="45.34696" lon="1.15762">
        <ele>169.100006</ele>
        <time>2011-05-08T07:13:49Z</time>
      </trkpt>
      <trkpt lat="45.34697" lon="1.15773">
        <ele>170.100006</ele>
        <time>2011-05-08T07:13:51Z</time>
      </trkpt>
      <trkpt lat="45.34697" lon="1.1578">
        <ele>169.800003</ele>
        <time>2011-05-08T07:13:52Z</time>
      </trkpt>
      <trkpt lat="45.34697" lon="1.15786">
        <ele>169.600006</ele>
        <time>2011-05-08T07:13:53Z</time>
      </trkpt>
      <trkpt lat="45.34695" lon="1.15793">
        <ele>169.5</ele>
        <time>2011-05-08T07:13:54Z</time>
      </trkpt>
      <trkpt lat="45.34696" lon="1.15799">
        <ele>169.600006</ele>
        <time>2011-05-08T07:13:55Z</time>
      </trkpt>
      <trkpt lat="45.34696" lon="1.15806">
        <ele>169.600006</ele>
        <time>2011-05-08T07:13:56Z</time>
      </trkpt>
      <trkpt lat="45.34696" lon="1.15812">
        <ele>169.800003</ele>
        <time>2011-05-08T07:13:57Z</time>
      </trkpt>
      <trkpt lat="45.34696" lon="1.15819">
        <ele>169.899994</ele>
        <time>2011-05-08T07:13:58Z</time>
      </trkpt>
      <trkpt lat="45.34696" lon="1.15826">
        <ele>170</ele>
        <time>2011-05-08T07:13:59Z</time>
      </trkpt>
      <trkpt lat="45.34697" lon="1.15839">
        <ele>169.899994</ele>
        <time>2011-05-08T07:14:01Z</time>
      </trkpt>
      <trkpt lat="45.34699" lon="1.15851">
        <ele>169.399994</ele>
        <time>2011-05-08T07:14:03Z</time>
      </trkpt>
      <trkpt lat="45.347" lon="1.15862">
        <ele>169.899994</ele>
        <time>2011-05-08T07:14:05Z</time>
      </trkpt>
      <trkpt lat="45.34699" lon="1.15874">
        <ele>169.699997</ele>
        <time>2011-05-08T07:14:07Z</time>
      </trkpt>
      <trkpt lat="45.34698" lon="1.15884">
        <ele>169.300003</ele>
        <time>2011-05-08T07:14:09Z</time>
      </trkpt>
      <trkpt lat="45.34697" lon="1.15897">
        <ele>168.899994</ele>
        <time>2011-05-08T07:14:11Z</time>
      </trkpt>
      <trkpt lat="45.34696" lon="1.15903">
        <ele>168.800003</ele>
        <time>2011-05-08T07:14:12Z</time>
      </trkpt>
      <trkpt lat="45.34695" lon="1.1591">
        <ele>168.699997</ele>
        <time>2011-05-08T07:14:13Z</time>
      </trkpt>
      <trkpt lat="45.34694" lon="1.15916">
        <ele>168.899994</ele>
        <time>2011-05-08T07:14:14Z</time>
      </trkpt>
      <trkpt lat="45.34692" lon="1.15928">
        <ele>169.100006</ele>
        <time>2011-05-08T07:14:16Z</time>
      </trkpt>
      <trkpt lat="45.34693" lon="1.15937">
        <ele>169.300003</ele>
        <time>2011-05-08T07:14:18Z</time>
      </trkpt>
      <trkpt lat="45.34693" lon="1.15947">
        <ele>169</ele>
        <time>2011-05-08T07:14:20Z</time>
      </trkpt>
      <trkpt lat="45.34691" lon="1.15957">
        <ele>168.699997</ele>
        <time>2011-05-08T07:14:22Z</time>
      </trkpt>
      <trkpt lat="45.34689" lon="1.15962">
        <ele>168.800003</ele>
        <time>2011-05-08T07:14:23Z</time>
      </trkpt>
      <trkpt lat="45.34687" lon="1.15978">
        <ele>168.899994</ele>
        <time>2011-05-08T07:14:26Z</time>
      </trkpt>
      <trkpt lat="45.34686" lon="1.15986">
        <ele>169.100006</ele>
        <time>2011-05-08T07:14:28Z</time>
      </trkpt>
      <trkpt lat="45.34684" lon="1.15996">
        <ele>169.5</ele>
        <time>2011-05-08T07:14:30Z</time>
      </trkpt>
      <trkpt lat="45.3468" lon="1.16005">
        <ele>170.100006</ele>
        <time>2011-05-08T07:14:32Z</time>
      </trkpt>
      <trkpt lat="45.34677" lon="1.16015">
        <ele>169.5</ele>
        <time>2011-05-08T07:14:34Z</time>
      </trkpt>
      <trkpt lat="45.34675" lon="1.1602">
        <ele>169.600006</ele>
        <time>2011-05-08T07:14:35Z</time>
      </trkpt>
      <trkpt lat="45.34672" lon="1.16032">
        <ele>169.899994</ele>
        <time>2011-05-08T07:14:37Z</time>
      </trkpt>
      <trkpt lat="45.34669" lon="1.16044">
        <ele>170.100006</ele>
        <time>2011-05-08T07:14:39Z</time>
      </trkpt>
      <trkpt lat="45.34668" lon="1.16051">
        <ele>169.800003</ele>
        <time>2011-05-08T07:14:40Z</time>
      </trkpt>
      <trkpt lat="45.34666" lon="1.16062">
        <ele>169.899994</ele>
        <time>2011-05-08T07:14:42Z</time>
      </trkpt>
      <trkpt lat="45.34663" lon="1.16071">
        <ele>170.399994</ele>
        <time>2011-05-08T07:14:44Z</time>
      </trkpt>
      <trkpt lat="45.34658" lon="1.1608">
        <ele>170.199997</ele>
        <time>2011-05-08T07:14:46Z</time>
      </trkpt>
      <trkpt lat="45.34653" lon="1.16088">
        <ele>170.199997</ele>
        <time>2011-05-08T07:14:48Z</time>
      </trkpt>
      <trkpt lat="45.34648" lon="1.16094">
        <ele>170.699997</ele>
        <time>2011-05-08T07:14:50Z</time>
      </trkpt>
      <trkpt lat="45.34643" lon="1.16105">
        <ele>171.5</ele>
        <time>2011-05-08T07:14:53Z</time>
      </trkpt>
      <trkpt lat="45.3464" lon="1.16114">
        <ele>171.600006</ele>
        <time>2011-05-08T07:14:56Z</time>
      </trkpt>
      <trkpt lat="45.34637" lon="1.16123">
        <ele>171.5</ele>
        <time>2011-05-08T07:14:59Z</time>
      </trkpt>
      <trkpt lat="45.34633" lon="1.16133">
        <ele>172.399994</ele>
        <time>2011-05-08T07:15:02Z</time>
      </trkpt>
      <trkpt lat="45.34627" lon="1.1614">
        <ele>172.899994</ele>
        <time>2011-05-08T07:15:05Z</time>
      </trkpt>
      <trkpt lat="45.34622" lon="1.16149">
        <ele>173.300003</ele>
        <time>2011-05-08T07:15:10Z</time>
      </trkpt>
      <trkpt lat="45.34617" lon="1.16158">
        <ele>175.100006</ele>
        <time>2011-05-08T07:15:15Z</time>
      </trkpt>
      <trkpt lat="45.3461" lon="1.16162">
        <ele>175.199997</ele>
        <time>2011-05-08T07:15:18Z</time>
      </trkpt>
      <trkpt lat="45.34605" lon="1.16168">
        <ele>174.600006</ele>
        <time>2011-05-08T07:15:21Z</time>
      </trkpt>
      <trkpt lat="45.34599" lon="1.16174">
        <ele>175.100006</ele>
        <time>2011-05-08T07:15:25Z</time>
      </trkpt>
      <trkpt lat="45.34597" lon="1.16175">
        <ele>174.899994</ele>
        <time>2011-05-08T07:15:26Z</time>
      </trkpt>
      <trkpt lat="45.34584" lon="1.16187">
        <ele>173.100006</ele>
        <time>2011-05-08T07:15:33Z</time>
      </trkpt>
      <trkpt lat="45.3458" lon="1.16193">
        <ele>172.5</ele>
        <time>2011-05-08T07:15:35Z</time>
      </trkpt>
      <trkpt lat="45.34574" lon="1.16201">
        <ele>172.199997</ele>
        <time>2011-05-08T07:15:38Z</time>
      </trkpt>
      <trkpt lat="45.34567" lon="1.16209">
        <ele>172.100006</ele>
        <time>2011-05-08T07:15:41Z</time>
      </trkpt>
      <trkpt lat="45.34562" lon="1.16214">
        <ele>172</ele>
        <time>2011-05-08T07:15:43Z</time>
      </trkpt>
      <trkpt lat="45.34555" lon="1.16222">
        <ele>172.100006</ele>
        <time>2011-05-08T07:15:46Z</time>
      </trkpt>
      <trkpt lat="45.34553" lon="1.16231">
        <ele>172.199997</ele>
        <time>2011-05-08T07:15:48Z</time>
      </trkpt>
      <trkpt lat="45.34552" lon="1.16242">
        <ele>172.199997</ele>
        <time>2011-05-08T07:15:51Z</time>
      </trkpt>
      <trkpt lat="45.34549" lon="1.16251">
        <ele>172.300003</ele>
        <time>2011-05-08T07:15:53Z</time>
      </trkpt>
      <trkpt lat="45.34546" lon="1.16261">
        <ele>172.399994</ele>
        <time>2011-05-08T07:15:55Z</time>
      </trkpt>
      <trkpt lat="45.34545" lon="1.16272">
        <ele>172.100006</ele>
        <time>2011-05-08T07:15:57Z</time>
      </trkpt>
      <trkpt lat="45.34546" lon="1.16284">
        <ele>171.800003</ele>
        <time>2011-05-08T07:15:59Z</time>
      </trkpt>
      <trkpt lat="45.34549" lon="1.16295">
        <ele>171.699997</ele>
        <time>2011-05-08T07:16:01Z</time>
      </trkpt>
      <trkpt lat="45.34551" lon="1.16305">
        <ele>171.699997</ele>
        <time>2011-05-08T07:16:03Z</time>
      </trkpt>
      <trkpt lat="45.34554" lon="1.16316">
        <ele>171.899994</ele>
        <time>2011-05-08T07:16:05Z</time>
      </trkpt>
      <trkpt lat="45.34557" lon="1.16325">
        <ele>172.199997</ele>
        <time>2011-05-08T07:16:07Z</time>
      </trkpt>
      <trkpt lat="45.3456" lon="1.16335">
        <ele>171.600006</ele>
        <time>2011-05-08T07:16:09Z</time>
      </trkpt>
      <trkpt lat="45.34564" lon="1.16343">
        <ele>171</ele>
        <time>2011-05-08T07:16:11Z</time>
      </trkpt>
      <trkpt lat="45.34565" lon="1.16355">
        <ele>171.600006</ele>
        <time>2011-05-08T07:16:16Z</time>
      </trkpt>
      <trkpt lat="45.34568" lon="1.16367">
        <ele>170.699997</ele>
        <time>2011-05-08T07:16:20Z</time>
      </trkpt>
      <trkpt lat="45.34572" lon="1.16376">
        <ele>171</ele>
        <time>2011-05-08T07:16:23Z</time>
      </trkpt>
      <trkpt lat="45.34578" lon="1.16384">
        <ele>171.600006</ele>
        <time>2011-05-08T07:16:26Z</time>
      </trkpt>
      <trkpt lat="45.34579" lon="1.16387">
        <ele>171.5</ele>
        <time>2011-05-08T07:16:27Z</time>
      </trkpt>
      <trkpt lat="45.34587" lon="1.16403">
        <ele>171.199997</ele>
        <time>2011-05-08T07:16:32Z</time>
      </trkpt>
      <trkpt lat="45.34592" lon="1.1641">
        <ele>171.300003</ele>
        <time>2011-05-08T07:16:35Z</time>
      </trkpt>
      <trkpt lat="45.34596" lon="1.1642">
        <ele>170.899994</ele>
        <time>2011-05-08T07:16:39Z</time>
      </trkpt>
      <trkpt lat="45.34601" lon="1.16428">
        <ele>171.300003</ele>
        <time>2011-05-08T07:16:42Z</time>
      </trkpt>
      <trkpt lat="45.34606" lon="1.16435">
        <ele>172.300003</ele>
        <time>2011-05-08T07:16:45Z</time>
      </trkpt>
      <trkpt lat="45.3461" lon="1.16445">
        <ele>171.199997</ele>
        <time>2011-05-08T07:16:48Z</time>
      </trkpt>
      <trkpt lat="45.34615" lon="1.16454">
        <ele>171.600006</ele>
        <time>2011-05-08T07:16:51Z</time>
      </trkpt>
      <trkpt lat="45.34618" lon="1.16463">
        <ele>171.600006</ele>
        <time>2011-05-08T07:16:54Z</time>
      </trkpt>
      <trkpt lat="45.34621" lon="1.16471">
        <ele>171.699997</ele>
        <time>2011-05-08T07:16:56Z</time>
      </trkpt>
      <trkpt lat="45.34624" lon="1.1648">
        <ele>171.800003</ele>
        <time>2011-05-08T07:16:58Z</time>
      </trkpt>
      <trkpt lat="45.34627" lon="1.16488">
        <ele>171.800003</ele>
        <time>2011-05-08T07:17:00Z</time>
      </trkpt>
      <trkpt lat="45.3463" lon="1.16498">
        <ele>171.800003</ele>
        <time>2011-05-08T07:17:04Z</time>
      </trkpt>
      <trkpt lat="45.34633" lon="1.16509">
        <ele>171.199997</ele>
        <time>2011-05-08T07:17:09Z</time>
      </trkpt>
      <trkpt lat="45.34635" lon="1.1652">
        <ele>170.199997</ele>
        <time>2011-05-08T07:17:15Z</time>
      </trkpt>
      <trkpt lat="45.34636" lon="1.16531">
        <ele>171.699997</ele>
        <time>2011-05-08T07:17:22Z</time>
      </trkpt>
      <trkpt lat="45.34637" lon="1.16543">
        <ele>170.100006</ele>
        <time>2011-05-08T07:17:31Z</time>
      </trkpt>
      <trkpt lat="45.34638" lon="1.16544">
        <ele>170.199997</ele>
        <time>2011-05-08T07:17:32Z</time>
      </trkpt>
      <trkpt lat="45.34643" lon="1.16566">
        <ele>171.699997</ele>
        <time>2011-05-08T07:17:50Z</time>
      </trkpt>
      <trkpt lat="45.34643" lon="1.16579">
        <ele>171.5</ele>
        <time>2011-05-08T07:17:57Z</time>
      </trkpt>
      <trkpt lat="45.34644" lon="1.16589">
        <ele>171.699997</ele>
        <time>2011-05-08T07:18:01Z</time>
      </trkpt>
      <trkpt lat="45.34642" lon="1.16601">
        <ele>171.899994</ele>
        <time>2011-05-08T07:18:04Z</time>
      </trkpt>
      <trkpt lat="45.34642" lon="1.16611">
        <ele>171.800003</ele>
        <time>2011-05-08T07:18:07Z</time>
      </trkpt>
      <trkpt lat="45.34641" lon="1.16622">
        <ele>172.100006</ele>
        <time>2011-05-08T07:18:11Z</time>
      </trkpt>
      <trkpt lat="45.34636" lon="1.16632">
        <ele>172.199997</ele>
        <time>2011-05-08T07:18:17Z</time>
      </trkpt>
      <trkpt lat="45.34631" lon="1.16641">
        <ele>172.600006</ele>
        <time>2011-05-08T07:18:22Z</time>
      </trkpt>
      <trkpt lat="45.34624" lon="1.16648">
        <ele>172.5</ele>
        <time>2011-05-08T07:18:27Z</time>
      </trkpt>
      <trkpt lat="45.34617" lon="1.16653">
        <ele>172.199997</ele>
        <time>2011-05-08T07:18:31Z</time>
      </trkpt>
      <trkpt lat="45.34609" lon="1.16658">
        <ele>173.100006</ele>
        <time>2011-05-08T07:18:34Z</time>
      </trkpt>
      <trkpt lat="45.34608" lon="1.1666">
        <ele>172.899994</ele>
        <time>2011-05-08T07:18:35Z</time>
      </trkpt>
      <trkpt lat="45.34596" lon="1.16663">
        <ele>172.300003</ele>
        <time>2011-05-08T07:18:39Z</time>
      </trkpt>
      <trkpt lat="45.34587" lon="1.16665">
        <ele>172.800003</ele>
        <time>2011-05-08T07:18:41Z</time>
      </trkpt>
      <trkpt lat="45.34579" lon="1.16665">
        <ele>172.399994</ele>
        <time>2011-05-08T07:18:43Z</time>
      </trkpt>
      <trkpt lat="45.34571" lon="1.16667">
        <ele>171.300003</ele>
        <time>2011-05-08T07:18:45Z</time>
      </trkpt>
      <trkpt lat="45.34563" lon="1.16669">
        <ele>171.899994</ele>
        <time>2011-05-08T07:18:47Z</time>
      </trkpt>
      <trkpt lat="45.34555" lon="1.16671">
        <ele>172.800003</ele>
        <time>2011-05-08T07:18:49Z</time>
      </trkpt>
      <trkpt lat="45.34546" lon="1.16671">
        <ele>173.399994</ele>
        <time>2011-05-08T07:18:51Z</time>
      </trkpt>
      <trkpt lat="45.3454" lon="1.1667">
        <ele>173.800003</ele>
        <time>2011-05-08T07:18:53Z</time>
      </trkpt>
      <trkpt lat="45.34532" lon="1.1667">
        <ele>172.699997</ele>
        <time>2011-05-08T07:18:55Z</time>
      </trkpt>
      <trkpt lat="45.34524" lon="1.1667">
        <ele>172.699997</ele>
        <time>2011-05-08T07:18:57Z</time>
      </trkpt>
      <trkpt lat="45.34519" lon="1.1667">
        <ele>172.699997</ele>
        <time>2011-05-08T07:18:58Z</time>
      </trkpt>
      <trkpt lat="45.34514" lon="1.16671">
        <ele>172.600006</ele>
        <time>2011-05-08T07:18:59Z</time>
      </trkpt>
      <trkpt lat="45.34506" lon="1.16673">
        <ele>172.399994</ele>
        <time>2011-05-08T07:19:01Z</time>
      </trkpt>
      <trkpt lat="45.34498" lon="1.16679">
        <ele>172.600006</ele>
        <time>2011-05-08T07:19:03Z</time>
      </trkpt>
      <trkpt lat="45.34491" lon="1.16685">
        <ele>173</ele>
        <time>2011-05-08T07:19:05Z</time>
      </trkpt>
      <trkpt lat="45.34485" lon="1.16691">
        <ele>173.899994</ele>
        <time>2011-05-08T07:19:07Z</time>
      </trkpt>
      <trkpt lat="45.3448" lon="1.16696">
        <ele>173.800003</ele>
        <time>2011-05-08T07:19:09Z</time>
      </trkpt>
      <trkpt lat="45.34475" lon="1.16703">
        <ele>173.899994</ele>
        <time>2011-05-08T07:19:11Z</time>
      </trkpt>
      <trkpt lat="45.3447" lon="1.16709">
        <ele>174.199997</ele>
        <time>2011-05-08T07:19:13Z</time>
      </trkpt>
      <trkpt lat="45.34464" lon="1.16715">
        <ele>174.600006</ele>
        <time>2011-05-08T07:19:15Z</time>
      </trkpt>
      <trkpt lat="45.34458" lon="1.16719">
        <ele>174.699997</ele>
        <time>2011-05-08T07:19:17Z</time>
      </trkpt>
      <trkpt lat="45.34453" lon="1.16726">
        <ele>174.600006</ele>
        <time>2011-05-08T07:19:19Z</time>
      </trkpt>
      <trkpt lat="45.3445" lon="1.16735">
        <ele>174</ele>
        <time>2011-05-08T07:19:21Z</time>
      </trkpt>
      <trkpt lat="45.34448" lon="1.16746">
        <ele>174.699997</ele>
        <time>2011-05-08T07:19:23Z</time>
      </trkpt>
      <trkpt lat="45.34448" lon="1.16752">
        <ele>174.899994</ele>
        <time>2011-05-08T07:19:24Z</time>
      </trkpt>
      <trkpt lat="45.34448" lon="1.16759">
        <ele>174.5</ele>
        <time>2011-05-08T07:19:25Z</time>
      </trkpt>
      <trkpt lat="45.34447" lon="1.16766">
        <ele>174.300003</ele>
        <time>2011-05-08T07:19:26Z</time>
      </trkpt>
      <trkpt lat="45.34447" lon="1.16777">
        <ele>174.5</ele>
        <time>2011-05-08T07:19:28Z</time>
      </trkpt>
      <trkpt lat="45.34446" lon="1.16789">
        <ele>174.5</ele>
        <time>2011-05-08T07:19:30Z</time>
      </trkpt>
      <trkpt lat="45.34445" lon="1.16796">
        <ele>174.5</ele>
        <time>2011-05-08T07:19:31Z</time>
      </trkpt>
      <trkpt lat="45.34443" lon="1.16802">
        <ele>174.699997</ele>
        <time>2011-05-08T07:19:32Z</time>
      </trkpt>
      <trkpt lat="45.34442" lon="1.16809">
        <ele>174.800003</ele>
        <time>2011-05-08T07:19:33Z</time>
      </trkpt>
      <trkpt lat="45.34442" lon="1.16821">
        <ele>175.600006</ele>
        <time>2011-05-08T07:19:35Z</time>
      </trkpt>
      <trkpt lat="45.34442" lon="1.16827">
        <ele>175.300003</ele>
        <time>2011-05-08T07:19:36Z</time>
      </trkpt>
      <trkpt lat="45.3444" lon="1.16839">
        <ele>174.899994</ele>
        <time>2011-05-08T07:19:38Z</time>
      </trkpt>
      <trkpt lat="45.3444" lon="1.16849">
        <ele>174.800003</ele>
        <time>2011-05-08T07:19:40Z</time>
      </trkpt>
      <trkpt lat="45.34439" lon="1.16861">
        <ele>174.699997</ele>
        <time>2011-05-08T07:19:43Z</time>
      </trkpt>
      <trkpt lat="45.34439" lon="1.16871">
        <ele>175.899994</ele>
        <time>2011-05-08T07:19:45Z</time>
      </trkpt>
      <trkpt lat="45.3444" lon="1.1688">
        <ele>176.800003</ele>
        <time>2011-05-08T07:19:47Z</time>
      </trkpt>
      <trkpt lat="45.34439" lon="1.16892">
        <ele>177.800003</ele>
        <time>2011-05-08T07:19:49Z</time>
      </trkpt>
      <trkpt lat="45.3444" lon="1.16904">
        <ele>178</ele>
        <time>2011-05-08T07:19:51Z</time>
      </trkpt>
      <trkpt lat="45.3444" lon="1.16915">
        <ele>177.600006</ele>
        <time>2011-05-08T07:19:53Z</time>
      </trkpt>
      <trkpt lat="45.34439" lon="1.16927">
        <ele>177</ele>
        <time>2011-05-08T07:19:55Z</time>
      </trkpt>
      <trkpt lat="45.34438" lon="1.16938">
        <ele>176.399994</ele>
        <time>2011-05-08T07:19:57Z</time>
      </trkpt>
      <trkpt lat="45.34438" lon="1.16949">
        <ele>177.199997</ele>
        <time>2011-05-08T07:19:59Z</time>
      </trkpt>
      <trkpt lat="45.34438" lon="1.1696">
        <ele>176.199997</ele>
        <time>2011-05-08T07:20:01Z</time>
      </trkpt>
      <trkpt lat="45.34438" lon="1.16973">
        <ele>176.100006</ele>
        <time>2011-05-08T07:20:03Z</time>
      </trkpt>
      <trkpt lat="45.34439" lon="1.16984">
        <ele>175.800003</ele>
        <time>2011-05-08T07:20:05Z</time>
      </trkpt>
      <trkpt lat="45.34439" lon="1.16994">
        <ele>175.600006</ele>
        <time>2011-05-08T07:20:07Z</time>
      </trkpt>
      <trkpt lat="45.34438" lon="1.17005">
        <ele>175.699997</ele>
        <time>2011-05-08T07:20:09Z</time>
      </trkpt>
      <trkpt lat="45.34438" lon="1.17016">
        <ele>176.300003</ele>
        <time>2011-05-08T07:20:11Z</time>
      </trkpt>
      <trkpt lat="45.34438" lon="1.17025">
        <ele>176.199997</ele>
        <time>2011-05-08T07:20:13Z</time>
      </trkpt>
      <trkpt lat="45.34437" lon="1.17038">
        <ele>176.600006</ele>
        <time>2011-05-08T07:20:16Z</time>
      </trkpt>
      <trkpt lat="45.34438" lon="1.17047">
        <ele>176.800003</ele>
        <time>2011-05-08T07:20:18Z</time>
      </trkpt>
      <trkpt lat="45.34438" lon="1.17058">
        <ele>177.199997</ele>
        <time>2011-05-08T07:20:20Z</time>
      </trkpt>
      <trkpt lat="45.34437" lon="1.17068">
        <ele>177.300003</ele>
        <time>2011-05-08T07:20:22Z</time>
      </trkpt>
      <trkpt lat="45.34437" lon="1.17079">
        <ele>177.300003</ele>
        <time>2011-05-08T07:20:24Z</time>
      </trkpt>
      <trkpt lat="45.34438" lon="1.17089">
        <ele>177.399994</ele>
        <time>2011-05-08T07:20:26Z</time>
      </trkpt>
      <trkpt lat="45.34439" lon="1.17101">
        <ele>177.399994</ele>
        <time>2011-05-08T07:20:28Z</time>
      </trkpt>
      <trkpt lat="45.3444" lon="1.17112">
        <ele>177.899994</ele>
        <time>2011-05-08T07:20:30Z</time>
      </trkpt>
      <trkpt lat="45.3444" lon="1.17123">
        <ele>177.899994</ele>
        <time>2011-05-08T07:20:32Z</time>
      </trkpt>
      <trkpt lat="45.34442" lon="1.17134">
        <ele>177.300003</ele>
        <time>2011-05-08T07:20:34Z</time>
      </trkpt>
      <trkpt lat="45.34443" lon="1.17146">
        <ele>177.300003</ele>
        <time>2011-05-08T07:20:36Z</time>
      </trkpt>
      <trkpt lat="45.34445" lon="1.17157">
        <ele>177.100006</ele>
        <time>2011-05-08T07:20:38Z</time>
      </trkpt>
      <trkpt lat="45.34445" lon="1.17161">
        <ele>177</ele>
        <time>2011-05-08T07:20:39Z</time>
      </trkpt>
      <trkpt lat="45.34448" lon="1.17174">
        <ele>177.300003</ele>
        <time>2011-05-08T07:20:42Z</time>
      </trkpt>
      <trkpt lat="45.3445" lon="1.17182">
        <ele>177.399994</ele>
        <time>2011-05-08T07:20:44Z</time>
      </trkpt>
      <trkpt lat="45.34451" lon="1.17191">
        <ele>177.600006</ele>
        <time>2011-05-08T07:20:46Z</time>
      </trkpt>
      <trkpt lat="45.34452" lon="1.17201">
        <ele>177.300003</ele>
        <time>2011-05-08T07:20:48Z</time>
      </trkpt>
      <trkpt lat="45.34453" lon="1.17211">
        <ele>177.300003</ele>
        <time>2011-05-08T07:20:50Z</time>
      </trkpt>
      <trkpt lat="45.34454" lon="1.17221">
        <ele>177.199997</ele>
        <time>2011-05-08T07:20:52Z</time>
      </trkpt>
      <trkpt lat="45.34454" lon="1.17231">
        <ele>177</ele>
        <time>2011-05-08T07:20:54Z</time>
      </trkpt>
      <trkpt lat="45.34455" lon="1.17242">
        <ele>177.199997</ele>
        <time>2011-05-08T07:20:56Z</time>
      </trkpt>
      <trkpt lat="45.34456" lon="1.17253">
        <ele>177</ele>
        <time>2011-05-08T07:20:58Z</time>
      </trkpt>
      <trkpt lat="45.34455" lon="1.17264">
        <ele>177</ele>
        <time>2011-05-08T07:21:00Z</time>
      </trkpt>
      <trkpt lat="45.34457" lon="1.17275">
        <ele>176.600006</ele>
        <time>2011-05-08T07:21:02Z</time>
      </trkpt>
      <trkpt lat="45.34457" lon="1.17286">
        <ele>176.600006</ele>
        <time>2011-05-08T07:21:04Z</time>
      </trkpt>
      <trkpt lat="45.34458" lon="1.17296">
        <ele>177.100006</ele>
        <time>2011-05-08T07:21:06Z</time>
      </trkpt>
      <trkpt lat="45.34459" lon="1.17306">
        <ele>176.899994</ele>
        <time>2011-05-08T07:21:08Z</time>
      </trkpt>
      <trkpt lat="45.3446" lon="1.17317">
        <ele>177.100006</ele>
        <time>2011-05-08T07:21:10Z</time>
      </trkpt>
      <trkpt lat="45.34461" lon="1.17327">
        <ele>177.300003</ele>
        <time>2011-05-08T07:21:12Z</time>
      </trkpt>
      <trkpt lat="45.34463" lon="1.17337">
        <ele>177.399994</ele>
        <time>2011-05-08T07:21:14Z</time>
      </trkpt>
      <trkpt lat="45.34465" lon="1.17347">
        <ele>177.600006</ele>
        <time>2011-05-08T07:21:16Z</time>
      </trkpt>
      <trkpt lat="45.34466" lon="1.17356">
        <ele>177.899994</ele>
        <time>2011-05-08T07:21:18Z</time>
      </trkpt>
      <trkpt lat="45.34466" lon="1.17367">
        <ele>178</ele>
        <time>2011-05-08T07:21:20Z</time>
      </trkpt>
      <trkpt lat="45.34467" lon="1.17379">
        <ele>178.399994</ele>
        <time>2011-05-08T07:21:22Z</time>
      </trkpt>
      <trkpt lat="45.34468" lon="1.17385">
        <ele>178</ele>
        <time>2011-05-08T07:21:23Z</time>
      </trkpt>
      <trkpt lat="45.3447" lon="1.17391">
        <ele>177.699997</ele>
        <time>2011-05-08T07:21:24Z</time>
      </trkpt>
      <trkpt lat="45.34471" lon="1.17398">
        <ele>177.5</ele>
        <time>2011-05-08T07:21:25Z</time>
      </trkpt>
      <trkpt lat="45.34473" lon="1.17405">
        <ele>177.600006</ele>
        <time>2011-05-08T07:21:26Z</time>
      </trkpt>
      <trkpt lat="45.34475" lon="1.17412">
        <ele>177.600006</ele>
        <time>2011-05-08T07:21:27Z</time>
      </trkpt>
      <trkpt lat="45.34477" lon="1.17419">
        <ele>177.800003</ele>
        <time>2011-05-08T07:21:28Z</time>
      </trkpt>
      <trkpt lat="45.34478" lon="1.17426">
        <ele>177.899994</ele>
        <time>2011-05-08T07:21:29Z</time>
      </trkpt>
      <trkpt lat="45.3448" lon="1.17433">
        <ele>177.899994</ele>
        <time>2011-05-08T07:21:30Z</time>
      </trkpt>
      <trkpt lat="45.34482" lon="1.17439">
        <ele>177.800003</ele>
        <time>2011-05-08T07:21:31Z</time>
      </trkpt>
      <trkpt lat="45.34484" lon="1.17446">
        <ele>177.800003</ele>
        <time>2011-05-08T07:21:32Z</time>
      </trkpt>
      <trkpt lat="45.34486" lon="1.17453">
        <ele>177.199997</ele>
        <time>2011-05-08T07:21:33Z</time>
      </trkpt>
      <trkpt lat="45.34488" lon="1.17459">
        <ele>176.699997</ele>
        <time>2011-05-08T07:21:34Z</time>
      </trkpt>
      <trkpt lat="45.3449" lon="1.17465">
        <ele>176.800003</ele>
        <time>2011-05-08T07:21:35Z</time>
      </trkpt>
      <trkpt lat="45.34492" lon="1.17471">
        <ele>176.800003</ele>
        <time>2011-05-08T07:21:36Z</time>
      </trkpt>
      <trkpt lat="45.34494" lon="1.17478">
        <ele>176.600006</ele>
        <time>2011-05-08T07:21:37Z</time>
      </trkpt>
      <trkpt lat="45.34497" lon="1.17484">
        <ele>176.5</ele>
        <time>2011-05-08T07:21:38Z</time>
      </trkpt>
      <trkpt lat="45.34499" lon="1.1749">
        <ele>176.399994</ele>
        <time>2011-05-08T07:21:39Z</time>
      </trkpt>
      <trkpt lat="45.34502" lon="1.17502">
        <ele>176.399994</ele>
        <time>2011-05-08T07:21:41Z</time>
      </trkpt>
      <trkpt lat="45.34504" lon="1.17509">
        <ele>176.399994</ele>
        <time>2011-05-08T07:21:42Z</time>
      </trkpt>
      <trkpt lat="45.34506" lon="1.17515">
        <ele>176.5</ele>
        <time>2011-05-08T07:21:43Z</time>
      </trkpt>
      <trkpt lat="45.3451" lon="1.17526">
        <ele>176.699997</ele>
        <time>2011-05-08T07:21:45Z</time>
      </trkpt>
      <trkpt lat="45.34511" lon="1.17532">
        <ele>176.800003</ele>
        <time>2011-05-08T07:21:46Z</time>
      </trkpt>
      <trkpt lat="45.34513" lon="1.17539">
        <ele>176.699997</ele>
        <time>2011-05-08T07:21:47Z</time>
      </trkpt>
      <trkpt lat="45.34515" lon="1.17546">
        <ele>176.600006</ele>
        <time>2011-05-08T07:21:48Z</time>
      </trkpt>
      <trkpt lat="45.34517" lon="1.17553">
        <ele>176.800003</ele>
        <time>2011-05-08T07:21:49Z</time>
      </trkpt>
      <trkpt lat="45.34519" lon="1.1756">
        <ele>176.899994</ele>
        <time>2011-05-08T07:21:50Z</time>
      </trkpt>
      <trkpt lat="45.34521" lon="1.17566">
        <ele>176.899994</ele>
        <time>2011-05-08T07:21:51Z</time>
      </trkpt>
      <trkpt lat="45.34523" lon="1.17573">
        <ele>176.600006</ele>
        <time>2011-05-08T07:21:52Z</time>
      </trkpt>
      <trkpt lat="45.34525" lon="1.17579">
        <ele>176.300003</ele>
        <time>2011-05-08T07:21:53Z</time>
      </trkpt>
      <trkpt lat="45.34528" lon="1.17591">
        <ele>176.699997</ele>
        <time>2011-05-08T07:21:55Z</time>
      </trkpt>
      <trkpt lat="45.34531" lon="1.17601">
        <ele>176.899994</ele>
        <time>2011-05-08T07:21:57Z</time>
      </trkpt>
      <trkpt lat="45.34533" lon="1.17609">
        <ele>176.800003</ele>
        <time>2011-05-08T07:21:59Z</time>
      </trkpt>
      <trkpt lat="45.34536" lon="1.17618">
        <ele>176.699997</ele>
        <time>2011-05-08T07:22:01Z</time>
      </trkpt>
      <trkpt lat="45.34539" lon="1.17627">
        <ele>176.600006</ele>
        <time>2011-05-08T07:22:03Z</time>
      </trkpt>
      <trkpt lat="45.34543" lon="1.17636">
        <ele>176.100006</ele>
        <time>2011-05-08T07:22:05Z</time>
      </trkpt>
      <trkpt lat="45.34545" lon="1.17645">
        <ele>176</ele>
        <time>2011-05-08T07:22:07Z</time>
      </trkpt>
      <trkpt lat="45.34547" lon="1.17655">
        <ele>176.600006</ele>
        <time>2011-05-08T07:22:09Z</time>
      </trkpt>
      <trkpt lat="45.34549" lon="1.17664">
        <ele>176.800003</ele>
        <time>2011-05-08T07:22:11Z</time>
      </trkpt>
      <trkpt lat="45.34551" lon="1.17672">
        <ele>176.899994</ele>
        <time>2011-05-08T07:22:13Z</time>
      </trkpt>
      <trkpt lat="45.34552" lon="1.17681">
        <ele>177.100006</ele>
        <time>2011-05-08T07:22:15Z</time>
      </trkpt>
      <trkpt lat="45.34553" lon="1.17693">
        <ele>177.899994</ele>
        <time>2011-05-08T07:22:18Z</time>
      </trkpt>
      <trkpt lat="45.34553" lon="1.17702">
        <ele>177.800003</ele>
        <time>2011-05-08T07:22:20Z</time>
      </trkpt>
      <trkpt lat="45.34553" lon="1.17712">
        <ele>177.800003</ele>
        <time>2011-05-08T07:22:22Z</time>
      </trkpt>
      <trkpt lat="45.34553" lon="1.17723">
        <ele>177.5</ele>
        <time>2011-05-08T07:22:24Z</time>
      </trkpt>
      <trkpt lat="45.34553" lon="1.17735">
        <ele>176.800003</ele>
        <time>2011-05-08T07:22:26Z</time>
      </trkpt>
      <trkpt lat="45.34553" lon="1.17742">
        <ele>176.899994</ele>
        <time>2011-05-08T07:22:27Z</time>
      </trkpt>
      <trkpt lat="45.34553" lon="1.17748">
        <ele>176.899994</ele>
        <time>2011-05-08T07:22:28Z</time>
      </trkpt>
      <trkpt lat="45.34554" lon="1.17755">
        <ele>177</ele>
        <time>2011-05-08T07:22:29Z</time>
      </trkpt>
      <trkpt lat="45.34554" lon="1.17762">
        <ele>177.100006</ele>
        <time>2011-05-08T07:22:30Z</time>
      </trkpt>
      <trkpt lat="45.34554" lon="1.17768">
        <ele>177.199997</ele>
        <time>2011-05-08T07:22:31Z</time>
      </trkpt>
      <trkpt lat="45.34555" lon="1.17775">
        <ele>177.300003</ele>
        <time>2011-05-08T07:22:32Z</time>
      </trkpt>
      <trkpt lat="45.34555" lon="1.17782">
        <ele>177.300003</ele>
        <time>2011-05-08T07:22:33Z</time>
      </trkpt>
      <trkpt lat="45.34554" lon="1.17789">
        <ele>177.399994</ele>
        <time>2011-05-08T07:22:34Z</time>
      </trkpt>
      <trkpt lat="45.34554" lon="1.17795">
        <ele>177.5</ele>
        <time>2011-05-08T07:22:35Z</time>
      </trkpt>
      <trkpt lat="45.34554" lon="1.17803">
        <ele>177.5</ele>
        <time>2011-05-08T07:22:36Z</time>
      </trkpt>
      <trkpt lat="45.34554" lon="1.17809">
        <ele>177.399994</ele>
        <time>2011-05-08T07:22:37Z</time>
      </trkpt>
      <trkpt lat="45.34555" lon="1.17816">
        <ele>177.399994</ele>
        <time>2011-05-08T07:22:38Z</time>
      </trkpt>
      <trkpt lat="45.34555" lon="1.17828">
        <ele>177.199997</ele>
        <time>2011-05-08T07:22:40Z</time>
      </trkpt>
      <trkpt lat="45.34554" lon="1.1784">
        <ele>177.300003</ele>
        <time>2011-05-08T07:22:42Z</time>
      </trkpt>
      <trkpt lat="45.34554" lon="1.17852">
        <ele>177.300003</ele>
        <time>2011-05-08T07:22:44Z</time>
      </trkpt>
      <trkpt lat="45.34554" lon="1.17858">
        <ele>177.300003</ele>
        <time>2011-05-08T07:22:45Z</time>
      </trkpt>
      <trkpt lat="45.34554" lon="1.17865">
        <ele>177.5</ele>
        <time>2011-05-08T07:22:46Z</time>
      </trkpt>
      <trkpt lat="45.34553" lon="1.17872">
        <ele>177.699997</ele>
        <time>2011-05-08T07:22:47Z</time>
      </trkpt>
      <trkpt lat="45.34554" lon="1.17884">
        <ele>177.699997</ele>
        <time>2011-05-08T07:22:49Z</time>
      </trkpt>
      <trkpt lat="45.34555" lon="1.17893">
        <ele>177.899994</ele>
        <time>2011-05-08T07:22:51Z</time>
      </trkpt>
      <trkpt lat="45.34556" lon="1.17903">
        <ele>178.399994</ele>
        <time>2011-05-08T07:22:53Z</time>
      </trkpt>
      <trkpt lat="45.34557" lon="1.17914">
        <ele>178.800003</ele>
        <time>2011-05-08T07:22:55Z</time>
      </trkpt>
      <trkpt lat="45.34556" lon="1.17924">
        <ele>179</ele>
        <time>2011-05-08T07:22:57Z</time>
      </trkpt>
      <trkpt lat="45.34555" lon="1.17936">
        <ele>179.300003</ele>
        <time>2011-05-08T07:22:59Z</time>
      </trkpt>
      <trkpt lat="45.34553" lon="1.17947">
        <ele>179.5</ele>
        <time>2011-05-08T07:23:01Z</time>
      </trkpt>
      <trkpt lat="45.34551" lon="1.17959">
        <ele>179.5</ele>
        <time>2011-05-08T07:23:03Z</time>
      </trkpt>
      <trkpt lat="45.3455" lon="1.1797">
        <ele>179.399994</ele>
        <time>2011-05-08T07:23:05Z</time>
      </trkpt>
      <trkpt lat="45.34549" lon="1.1798">
        <ele>179.5</ele>
        <time>2011-05-08T07:23:07Z</time>
      </trkpt>
      <trkpt lat="45.34548" lon="1.17989">
        <ele>179</ele>
        <time>2011-05-08T07:23:09Z</time>
      </trkpt>
      <trkpt lat="45.34544" lon="1.18">
        <ele>179.300003</ele>
        <time>2011-05-08T07:23:11Z</time>
      </trkpt>
      <trkpt lat="45.34542" lon="1.18006">
        <ele>179.5</ele>
        <time>2011-05-08T07:23:12Z</time>
      </trkpt>
      <trkpt lat="45.34539" lon="1.18012">
        <ele>179.600006</ele>
        <time>2011-05-08T07:23:13Z</time>
      </trkpt>
      <trkpt lat="45.34536" lon="1.18017">
        <ele>179.699997</ele>
        <time>2011-05-08T07:23:14Z</time>
      </trkpt>
      <trkpt lat="45.34533" lon="1.18023">
        <ele>180.300003</ele>
        <time>2011-05-08T07:23:15Z</time>
      </trkpt>
      <trkpt lat="45.34528" lon="1.18033">
        <ele>181</ele>
        <time>2011-05-08T07:23:17Z</time>
      </trkpt>
      <trkpt lat="45.34524" lon="1.1804">
        <ele>181.300003</ele>
        <time>2011-05-08T07:23:19Z</time>
      </trkpt>
      <trkpt lat="45.3452" lon="1.18047">
        <ele>181.800003</ele>
        <time>2011-05-08T07:23:21Z</time>
      </trkpt>
      <trkpt lat="45.34515" lon="1.18056">
        <ele>182.100006</ele>
        <time>2011-05-08T07:23:24Z</time>
      </trkpt>
      <trkpt lat="45.34509" lon="1.18063">
        <ele>182.399994</ele>
        <time>2011-05-08T07:23:27Z</time>
      </trkpt>
      <trkpt lat="45.34502" lon="1.18071">
        <ele>183.5</ele>
        <time>2011-05-08T07:23:30Z</time>
      </trkpt>
      <trkpt lat="45.34495" lon="1.18078">
        <ele>183.600006</ele>
        <time>2011-05-08T07:23:33Z</time>
      </trkpt>
      <trkpt lat="45.34487" lon="1.18083">
        <ele>183</ele>
        <time>2011-05-08T07:23:36Z</time>
      </trkpt>
      <trkpt lat="45.34479" lon="1.18089">
        <ele>183.100006</ele>
        <time>2011-05-08T07:23:39Z</time>
      </trkpt>
      <trkpt lat="45.34473" lon="1.18093">
        <ele>183.300003</ele>
        <time>2011-05-08T07:23:41Z</time>
      </trkpt>
      <trkpt lat="45.34467" lon="1.18099">
        <ele>183.699997</ele>
        <time>2011-05-08T07:23:43Z</time>
      </trkpt>
      <trkpt lat="45.3446" lon="1.18103">
        <ele>184.300003</ele>
        <time>2011-05-08T07:23:45Z</time>
      </trkpt>
      <trkpt lat="45.34457" lon="1.18106">
        <ele>184.100006</ele>
        <time>2011-05-08T07:23:46Z</time>
      </trkpt>
      <trkpt lat="45.34447" lon="1.1811">
        <ele>184.300003</ele>
        <time>2011-05-08T07:23:50Z</time>
      </trkpt>
      <trkpt lat="45.34441" lon="1.18109">
        <ele>184.600006</ele>
        <time>2011-05-08T07:23:52Z</time>
      </trkpt>
      <trkpt lat="45.34433" lon="1.18108">
        <ele>184.199997</ele>
        <time>2011-05-08T07:23:54Z</time>
      </trkpt>
      <trkpt lat="45.34425" lon="1.18107">
        <ele>183.600006</ele>
        <time>2011-05-08T07:23:56Z</time>
      </trkpt>
      <trkpt lat="45.34416" lon="1.18106">
        <ele>183.800003</ele>
        <time>2011-05-08T07:23:58Z</time>
      </trkpt>
      <trkpt lat="45.34408" lon="1.18106">
        <ele>183.600006</ele>
        <time>2011-05-08T07:24:00Z</time>
      </trkpt>
      <trkpt lat="45.344" lon="1.18107">
        <ele>183.300003</ele>
        <time>2011-05-08T07:24:02Z</time>
      </trkpt>
      <trkpt lat="45.34392" lon="1.18112">
        <ele>182.100006</ele>
        <time>2011-05-08T07:24:32Z</time>
      </trkpt>
      <trkpt lat="45.34386" lon="1.18122">
        <ele>182.600006</ele>
        <time>2011-05-08T07:25:14Z</time>
      </trkpt>
      <trkpt lat="45.34386" lon="1.18122">
        <ele>182.5</ele>
        <time>2011-05-08T07:25:15Z</time>
      </trkpt>
      <trkpt lat="45.3437" lon="1.18126">
        <ele>183</ele>
        <time>2011-05-08T07:25:33Z</time>
      </trkpt>
      <trkpt lat="45.34363" lon="1.18124">
        <ele>183.899994</ele>
        <time>2011-05-08T07:25:37Z</time>
      </trkpt>
      <trkpt lat="45.34355" lon="1.18121">
        <ele>184.600006</ele>
        <time>2011-05-08T07:25:41Z</time>
      </trkpt>
      <trkpt lat="45.34347" lon="1.18118">
        <ele>185</ele>
        <time>2011-05-08T07:25:46Z</time>
      </trkpt>
      <trkpt lat="45.34338" lon="1.18116">
        <ele>186.699997</ele>
        <time>2011-05-08T07:25:51Z</time>
      </trkpt>
      <trkpt lat="45.3433" lon="1.18113">
        <ele>188.100006</ele>
        <time>2011-05-08T07:25:56Z</time>
      </trkpt>
      <trkpt lat="45.34321" lon="1.18112">
        <ele>189.300003</ele>
        <time>2011-05-08T07:26:01Z</time>
      </trkpt>
      <trkpt lat="45.34313" lon="1.18112">
        <ele>189.899994</ele>
        <time>2011-05-08T07:26:06Z</time>
      </trkpt>
      <trkpt lat="45.34306" lon="1.18112">
        <ele>190.899994</ele>
        <time>2011-05-08T07:26:10Z</time>
      </trkpt>
      <trkpt lat="45.34299" lon="1.18114">
        <ele>192.600006</ele>
        <time>2011-05-08T07:26:14Z</time>
      </trkpt>
      <trkpt lat="45.3429" lon="1.18115">
        <ele>193.100006</ele>
        <time>2011-05-08T07:26:19Z</time>
      </trkpt>
      <trkpt lat="45.34289" lon="1.18115">
        <ele>193.300003</ele>
        <time>2011-05-08T07:26:20Z</time>
      </trkpt>
      <trkpt lat="45.34274" lon="1.18117">
        <ele>194.600006</ele>
        <time>2011-05-08T07:26:28Z</time>
      </trkpt>
      <trkpt lat="45.34267" lon="1.18118">
        <ele>195.699997</ele>
        <time>2011-05-08T07:26:32Z</time>
      </trkpt>
      <trkpt lat="45.34259" lon="1.1812">
        <ele>196.600006</ele>
        <time>2011-05-08T07:26:36Z</time>
      </trkpt>
      <trkpt lat="45.3425" lon="1.18121">
        <ele>197.699997</ele>
        <time>2011-05-08T07:26:41Z</time>
      </trkpt>
      <trkpt lat="45.34242" lon="1.18122">
        <ele>198.399994</ele>
        <time>2011-05-08T07:26:45Z</time>
      </trkpt>
      <trkpt lat="45.34235" lon="1.18122">
        <ele>199.300003</ele>
        <time>2011-05-08T07:26:49Z</time>
      </trkpt>
      <trkpt lat="45.34226" lon="1.18123">
        <ele>200.5</ele>
        <time>2011-05-08T07:26:54Z</time>
      </trkpt>
      <trkpt lat="45.34219" lon="1.18124">
        <ele>200.899994</ele>
        <time>2011-05-08T07:26:58Z</time>
      </trkpt>
      <trkpt lat="45.34212" lon="1.1813">
        <ele>202.399994</ele>
        <time>2011-05-08T07:27:05Z</time>
      </trkpt>
      <trkpt lat="45.34217" lon="1.18139">
        <ele>202.800003</ele>
        <time>2011-05-08T07:27:13Z</time>
      </trkpt>
      <trkpt lat="45.34223" lon="1.18146">
        <ele>204</ele>
        <time>2011-05-08T07:27:20Z</time>
      </trkpt>
      <trkpt lat="45.34224" lon="1.18148">
        <ele>204</ele>
        <time>2011-05-08T07:27:21Z</time>
      </trkpt>
      <trkpt lat="45.34235" lon="1.18162">
        <ele>206.800003</ele>
        <time>2011-05-08T07:27:34Z</time>
      </trkpt>
      <trkpt lat="45.34242" lon="1.18167">
        <ele>209.100006</ele>
        <time>2011-05-08T07:27:40Z</time>
      </trkpt>
      <trkpt lat="45.34249" lon="1.18175">
        <ele>211.600006</ele>
        <time>2011-05-08T07:27:47Z</time>
      </trkpt>
      <trkpt lat="45.34255" lon="1.18182">
        <ele>212.100006</ele>
        <time>2011-05-08T07:27:53Z</time>
      </trkpt>
      <trkpt lat="45.3426" lon="1.18189">
        <ele>213.199997</ele>
        <time>2011-05-08T07:28:00Z</time>
      </trkpt>
      <trkpt lat="45.34266" lon="1.18198">
        <ele>215.300003</ele>
        <time>2011-05-08T07:28:07Z</time>
      </trkpt>
      <trkpt lat="45.34272" lon="1.18207">
        <ele>216.899994</ele>
        <time>2011-05-08T07:28:14Z</time>
      </trkpt>
      <trkpt lat="45.34277" lon="1.18217">
        <ele>218.100006</ele>
        <time>2011-05-08T07:28:21Z</time>
      </trkpt>
      <trkpt lat="45.34277" lon="1.18218">
        <ele>218.199997</ele>
        <time>2011-05-08T07:28:22Z</time>
      </trkpt>
      <trkpt lat="45.34288" lon="1.18235">
        <ele>222.699997</ele>
        <time>2011-05-08T07:28:36Z</time>
      </trkpt>
      <trkpt lat="45.34295" lon="1.18242">
        <ele>223.300003</ele>
        <time>2011-05-08T07:28:42Z</time>
      </trkpt>
      <trkpt lat="45.34302" lon="1.18249">
        <ele>224.899994</ele>
        <time>2011-05-08T07:28:48Z</time>
      </trkpt>
      <trkpt lat="45.34309" lon="1.18256">
        <ele>226.100006</ele>
        <time>2011-05-08T07:28:55Z</time>
      </trkpt>
      <trkpt lat="45.34317" lon="1.18261">
        <ele>227.899994</ele>
        <time>2011-05-08T07:29:02Z</time>
      </trkpt>
      <trkpt lat="45.34324" lon="1.18267">
        <ele>228.600006</ele>
        <time>2011-05-08T07:29:09Z</time>
      </trkpt>
      <trkpt lat="45.34331" lon="1.18273">
        <ele>229.399994</ele>
        <time>2011-05-08T07:29:15Z</time>
      </trkpt>
      <trkpt lat="45.34339" lon="1.18279">
        <ele>231.399994</ele>
        <time>2011-05-08T07:29:22Z</time>
      </trkpt>
      <trkpt lat="45.3434" lon="1.1828">
        <ele>231.600006</ele>
        <time>2011-05-08T07:29:23Z</time>
      </trkpt>
      <trkpt lat="45.34353" lon="1.18292">
        <ele>234.800003</ele>
        <time>2011-05-08T07:29:34Z</time>
      </trkpt>
      <trkpt lat="45.3436" lon="1.18297">
        <ele>236</ele>
        <time>2011-05-08T07:29:40Z</time>
      </trkpt>
      <trkpt lat="45.34368" lon="1.18301">
        <ele>238.100006</ele>
        <time>2011-05-08T07:29:47Z</time>
      </trkpt>
      <trkpt lat="45.34376" lon="1.18306">
        <ele>238.899994</ele>
        <time>2011-05-08T07:29:53Z</time>
      </trkpt>
      <trkpt lat="45.34384" lon="1.18311">
        <ele>239.699997</ele>
        <time>2011-05-08T07:29:59Z</time>
      </trkpt>
      <trkpt lat="45.34392" lon="1.18316">
        <ele>242.5</ele>
        <time>2011-05-08T07:30:05Z</time>
      </trkpt>
      <trkpt lat="45.344" lon="1.18321">
        <ele>243.699997</ele>
        <time>2011-05-08T07:30:12Z</time>
      </trkpt>
      <trkpt lat="45.34408" lon="1.18325">
        <ele>245</ele>
        <time>2011-05-08T07:30:18Z</time>
      </trkpt>
      <trkpt lat="45.34415" lon="1.18332">
        <ele>246.600006</ele>
        <time>2011-05-08T07:30:25Z</time>
      </trkpt>
      <trkpt lat="45.34416" lon="1.18333">
        <ele>246.600006</ele>
        <time>2011-05-08T07:30:26Z</time>
      </trkpt>
      <trkpt lat="45.34428" lon="1.18348">
        <ele>250.399994</ele>
        <time>2011-05-08T07:30:40Z</time>
      </trkpt>
      <trkpt lat="45.34436" lon="1.18352">
        <ele>250.699997</ele>
        <time>2011-05-08T07:30:47Z</time>
      </trkpt>
      <trkpt lat="45.34444" lon="1.18356">
        <ele>252.100006</ele>
        <time>2011-05-08T07:30:54Z</time>
      </trkpt>
      <trkpt lat="45.34451" lon="1.18362">
        <ele>254.100006</ele>
        <time>2011-05-08T07:31:00Z</time>
      </trkpt>
      <trkpt lat="45.34458" lon="1.18371">
        <ele>255.199997</ele>
        <time>2011-05-08T07:31:06Z</time>
      </trkpt>
      <trkpt lat="45.34463" lon="1.1838">
        <ele>257.700012</ele>
        <time>2011-05-08T07:31:14Z</time>
      </trkpt>
      <trkpt lat="45.34468" lon="1.18389">
        <ele>258.700012</ele>
        <time>2011-05-08T07:31:21Z</time>
      </trkpt>
      <trkpt lat="45.34474" lon="1.18396">
        <ele>259.600006</ele>
        <time>2011-05-08T07:31:27Z</time>
      </trkpt>
      <trkpt lat="45.34474" lon="1.18398">
        <ele>259.600006</ele>
        <time>2011-05-08T07:31:28Z</time>
      </trkpt>
      <trkpt lat="45.34489" lon="1.18402">
        <ele>262.100006</ele>
        <time>2011-05-08T07:31:42Z</time>
      </trkpt>
      <trkpt lat="45.34496" lon="1.18395">
        <ele>262.5</ele>
        <time>2011-05-08T07:31:48Z</time>
      </trkpt>
      <trkpt lat="45.34503" lon="1.18389">
        <ele>262.899994</ele>
        <time>2011-05-08T07:31:54Z</time>
      </trkpt>
      <trkpt lat="45.3451" lon="1.18382">
        <ele>264.399994</ele>
        <time>2011-05-08T07:32:01Z</time>
      </trkpt>
      <trkpt lat="45.34518" lon="1.18376">
        <ele>265.600006</ele>
        <time>2011-05-08T07:32:08Z</time>
      </trkpt>
      <trkpt lat="45.34525" lon="1.18372">
        <ele>266</ele>
        <time>2011-05-08T07:32:13Z</time>
      </trkpt>
      <trkpt lat="45.34533" lon="1.18366">
        <ele>267.700012</ele>
        <time>2011-05-08T07:32:20Z</time>
      </trkpt>
      <trkpt lat="45.34542" lon="1.18364">
        <ele>268.799988</ele>
        <time>2011-05-08T07:32:27Z</time>
      </trkpt>
      <trkpt lat="45.34548" lon="1.18372">
        <ele>271.799988</ele>
        <time>2011-05-08T07:32:36Z</time>
      </trkpt>
      <trkpt lat="45.34549" lon="1.18372">
        <ele>272.200012</ele>
        <time>2011-05-08T07:32:37Z</time>
      </trkpt>
      <trkpt lat="45.34561" lon="1.18388">
        <ele>275.899994</ele>
        <time>2011-05-08T07:32:56Z</time>
      </trkpt>
      <trkpt lat="45.34564" lon="1.18399">
        <ele>275.899994</ele>
        <time>2011-05-08T07:33:03Z</time>
      </trkpt>
      <trkpt lat="45.34568" lon="1.18409">
        <ele>276</ele>
        <time>2011-05-08T07:33:08Z</time>
      </trkpt>
      <trkpt lat="45.34574" lon="1.18416">
        <ele>276.799988</ele>
        <time>2011-05-08T07:33:12Z</time>
      </trkpt>
      <trkpt lat="45.34583" lon="1.18415">
        <ele>277.799988</ele>
        <time>2011-05-08T07:33:18Z</time>
      </trkpt>
      <trkpt lat="45.34591" lon="1.18414">
        <ele>278.399994</ele>
        <time>2011-05-08T07:33:23Z</time>
      </trkpt>
      <trkpt lat="45.34598" lon="1.18418">
        <ele>279.799988</ele>
        <time>2011-05-08T07:33:28Z</time>
      </trkpt>
      <trkpt lat="45.34605" lon="1.18423">
        <ele>280.299988</ele>
        <time>2011-05-08T07:33:33Z</time>
      </trkpt>
      <trkpt lat="45.34613" lon="1.18429">
        <ele>281.600006</ele>
        <time>2011-05-08T07:33:38Z</time>
      </trkpt>
      <trkpt lat="45.34615" lon="1.1843">
        <ele>281.799988</ele>
        <time>2011-05-08T07:33:39Z</time>
      </trkpt>
      <trkpt lat="45.34627" lon="1.18439">
        <ele>283</ele>
        <time>2011-05-08T07:33:46Z</time>
      </trkpt>
      <trkpt lat="45.34634" lon="1.18446">
        <ele>284.299988</ele>
        <time>2011-05-08T07:33:51Z</time>
      </trkpt>
      <trkpt lat="45.34642" lon="1.18452">
        <ele>284.299988</ele>
        <time>2011-05-08T07:33:55Z</time>
      </trkpt>
      <trkpt lat="45.34649" lon="1.18456">
        <ele>283.799988</ele>
        <time>2011-05-08T07:33:59Z</time>
      </trkpt>
      <trkpt lat="45.34656" lon="1.1846">
        <ele>284</ele>
        <time>2011-05-08T07:34:02Z</time>
      </trkpt>
      <trkpt lat="45.34663" lon="1.18464">
        <ele>284.899994</ele>
        <time>2011-05-08T07:34:05Z</time>
      </trkpt>
      <trkpt lat="45.34669" lon="1.18472">
        <ele>285.799988</ele>
        <time>2011-05-08T07:34:08Z</time>
      </trkpt>
      <trkpt lat="45.34675" lon="1.18477">
        <ele>285.299988</ele>
        <time>2011-05-08T07:34:10Z</time>
      </trkpt>
      <trkpt lat="45.34681" lon="1.18482">
        <ele>284.600006</ele>
        <time>2011-05-08T07:34:12Z</time>
      </trkpt>
      <trkpt lat="45.34688" lon="1.18486">
        <ele>284.100006</ele>
        <time>2011-05-08T07:34:14Z</time>
      </trkpt>
      <trkpt lat="45.34694" lon="1.18492">
        <ele>283.700012</ele>
        <time>2011-05-08T07:34:16Z</time>
      </trkpt>
      <trkpt lat="45.34701" lon="1.18498">
        <ele>283.399994</ele>
        <time>2011-05-08T07:34:18Z</time>
      </trkpt>
      <trkpt lat="45.34706" lon="1.18501">
        <ele>283.200012</ele>
        <time>2011-05-08T07:34:19Z</time>
      </trkpt>
      <trkpt lat="45.34711" lon="1.18509">
        <ele>282.899994</ele>
        <time>2011-05-08T07:34:21Z</time>
      </trkpt>
      <trkpt lat="45.34716" lon="1.18516">
        <ele>282.5</ele>
        <time>2011-05-08T07:34:23Z</time>
      </trkpt>
      <trkpt lat="45.34723" lon="1.18521">
        <ele>281.799988</ele>
        <time>2011-05-08T07:34:25Z</time>
      </trkpt>
      <trkpt lat="45.3473" lon="1.18523">
        <ele>282</ele>
        <time>2011-05-08T07:34:28Z</time>
      </trkpt>
      <trkpt lat="45.34737" lon="1.18524">
        <ele>283.100006</ele>
        <time>2011-05-08T07:34:31Z</time>
      </trkpt>
      <trkpt lat="45.34745" lon="1.18523">
        <ele>282.799988</ele>
        <time>2011-05-08T07:34:34Z</time>
      </trkpt>
      <trkpt lat="45.34754" lon="1.18523">
        <ele>283.299988</ele>
        <time>2011-05-08T07:34:38Z</time>
      </trkpt>
      <trkpt lat="45.34761" lon="1.18522">
        <ele>284.200012</ele>
        <time>2011-05-08T07:34:42Z</time>
      </trkpt>
      <trkpt lat="45.34763" lon="1.18522">
        <ele>284.5</ele>
        <time>2011-05-08T07:34:43Z</time>
      </trkpt>
      <trkpt lat="45.34777" lon="1.18522">
        <ele>286</ele>
        <time>2011-05-08T07:34:51Z</time>
      </trkpt>
      <trkpt lat="45.34785" lon="1.18524">
        <ele>287.100006</ele>
        <time>2011-05-08T07:34:55Z</time>
      </trkpt>
      <trkpt lat="45.34792" lon="1.18525">
        <ele>288.100006</ele>
        <time>2011-05-08T07:34:59Z</time>
      </trkpt>
      <trkpt lat="45.34799" lon="1.18524">
        <ele>289.299988</ele>
        <time>2011-05-08T07:35:03Z</time>
      </trkpt>
      <trkpt lat="45.34807" lon="1.18524">
        <ele>289.299988</ele>
        <time>2011-05-08T07:35:07Z</time>
      </trkpt>
      <trkpt lat="45.34813" lon="1.18531">
        <ele>288.799988</ele>
        <time>2011-05-08T07:35:10Z</time>
      </trkpt>
      <trkpt lat="45.3482" lon="1.18532">
        <ele>289.399994</ele>
        <time>2011-05-08T07:35:12Z</time>
      </trkpt>
      <trkpt lat="45.34828" lon="1.18532">
        <ele>289.5</ele>
        <time>2011-05-08T07:35:14Z</time>
      </trkpt>
      <trkpt lat="45.34835" lon="1.18531">
        <ele>289.200012</ele>
        <time>2011-05-08T07:35:16Z</time>
      </trkpt>
      <trkpt lat="45.34842" lon="1.1853">
        <ele>289</ele>
        <time>2011-05-08T07:35:18Z</time>
      </trkpt>
      <trkpt lat="45.34848" lon="1.1853">
        <ele>289.100006</ele>
        <time>2011-05-08T07:35:20Z</time>
      </trkpt>
      <trkpt lat="45.34854" lon="1.18531">
        <ele>289.100006</ele>
        <time>2011-05-08T07:35:22Z</time>
      </trkpt>
      <trkpt lat="45.34863" lon="1.18531">
        <ele>288</ele>
        <time>2011-05-08T07:35:24Z</time>
      </trkpt>
      <trkpt lat="45.34871" lon="1.18532">
        <ele>287.600006</ele>
        <time>2011-05-08T07:35:26Z</time>
      </trkpt>
      <trkpt lat="45.3488" lon="1.18531">
        <ele>287.200012</ele>
        <time>2011-05-08T07:35:28Z</time>
      </trkpt>
      <trkpt lat="45.34885" lon="1.1853">
        <ele>287</ele>
        <time>2011-05-08T07:35:29Z</time>
      </trkpt>
      <trkpt lat="45.34892" lon="1.1853">
        <ele>286.700012</ele>
        <time>2011-05-08T07:35:30Z</time>
      </trkpt>
      <trkpt lat="45.34898" lon="1.18529">
        <ele>286.5</ele>
        <time>2011-05-08T07:35:31Z</time>
      </trkpt>
      <trkpt lat="45.34905" lon="1.18528">
        <ele>286.399994</ele>
        <time>2011-05-08T07:35:32Z</time>
      </trkpt>
      <trkpt lat="45.34911" lon="1.18527">
        <ele>285</ele>
        <time>2011-05-08T07:35:33Z</time>
      </trkpt>
      <trkpt lat="45.34918" lon="1.18527">
        <ele>284.100006</ele>
        <time>2011-05-08T07:35:34Z</time>
      </trkpt>
      <trkpt lat="45.34924" lon="1.18527">
        <ele>284</ele>
        <time>2011-05-08T07:35:35Z</time>
      </trkpt>
      <trkpt lat="45.34931" lon="1.18528">
        <ele>284</ele>
        <time>2011-05-08T07:35:36Z</time>
      </trkpt>
      <trkpt lat="45.34939" lon="1.18529">
        <ele>283.899994</ele>
        <time>2011-05-08T07:35:37Z</time>
      </trkpt>
      <trkpt lat="45.34947" lon="1.1853">
        <ele>283.100006</ele>
        <time>2011-05-08T07:35:38Z</time>
      </trkpt>
      <trkpt lat="45.34955" lon="1.1853">
        <ele>282.5</ele>
        <time>2011-05-08T07:35:39Z</time>
      </trkpt>
      <trkpt lat="45.34962" lon="1.1853">
        <ele>281.899994</ele>
        <time>2011-05-08T07:35:40Z</time>
      </trkpt>
      <trkpt lat="45.3497" lon="1.18531">
        <ele>281.5</ele>
        <time>2011-05-08T07:35:41Z</time>
      </trkpt>
      <trkpt lat="45.34978" lon="1.18532">
        <ele>281.399994</ele>
        <time>2011-05-08T07:35:42Z</time>
      </trkpt>
      <trkpt lat="45.34986" lon="1.18533">
        <ele>281.299988</ele>
        <time>2011-05-08T07:35:43Z</time>
      </trkpt>
      <trkpt lat="45.34993" lon="1.18534">
        <ele>281.200012</ele>
        <time>2011-05-08T07:35:44Z</time>
      </trkpt>
      <trkpt lat="45.35002" lon="1.18535">
        <ele>280.299988</ele>
        <time>2011-05-08T07:35:45Z</time>
      </trkpt>
      <trkpt lat="45.3501" lon="1.18537">
        <ele>279.700012</ele>
        <time>2011-05-08T07:35:46Z</time>
      </trkpt>
      <trkpt lat="45.35017" lon="1.1854">
        <ele>279.399994</ele>
        <time>2011-05-08T07:35:47Z</time>
      </trkpt>
      <trkpt lat="45.35024" lon="1.18542">
        <ele>279.200012</ele>
        <time>2011-05-08T07:35:48Z</time>
      </trkpt>
      <trkpt lat="45.3503" lon="1.18544">
        <ele>278.899994</ele>
        <time>2011-05-08T07:35:49Z</time>
      </trkpt>
      <trkpt lat="45.35037" lon="1.18547">
        <ele>278.700012</ele>
        <time>2011-05-08T07:35:50Z</time>
      </trkpt>
      <trkpt lat="45.35045" lon="1.18549">
        <ele>278.5</ele>
        <time>2011-05-08T07:35:51Z</time>
      </trkpt>
      <trkpt lat="45.35052" lon="1.1855">
        <ele>277.700012</ele>
        <time>2011-05-08T07:35:52Z</time>
      </trkpt>
      <trkpt lat="45.35059" lon="1.18551">
        <ele>277</ele>
        <time>2011-05-08T07:35:53Z</time>
      </trkpt>
      <trkpt lat="45.35066" lon="1.18552">
        <ele>277</ele>
        <time>2011-05-08T07:35:54Z</time>
      </trkpt>
      <trkpt lat="45.35073" lon="1.18552">
        <ele>276.899994</ele>
        <time>2011-05-08T07:35:55Z</time>
      </trkpt>
      <trkpt lat="45.3508" lon="1.18552">
        <ele>277.200012</ele>
        <time>2011-05-08T07:35:56Z</time>
      </trkpt>
      <trkpt lat="45.35085" lon="1.18553">
        <ele>277.399994</ele>
        <time>2011-05-08T07:35:57Z</time>
      </trkpt>
      <trkpt lat="45.3509" lon="1.18552">
        <ele>277.5</ele>
        <time>2011-05-08T07:35:58Z</time>
      </trkpt>
      <trkpt lat="45.35095" lon="1.18552">
        <ele>277.600006</ele>
        <time>2011-05-08T07:35:59Z</time>
      </trkpt>
      <trkpt lat="45.351" lon="1.1855">
        <ele>277.600006</ele>
        <time>2011-05-08T07:36:00Z</time>
      </trkpt>
      <trkpt lat="45.35104" lon="1.18548">
        <ele>277</ele>
        <time>2011-05-08T07:36:01Z</time>
      </trkpt>
      <trkpt lat="45.35109" lon="1.18547">
        <ele>276.600006</ele>
        <time>2011-05-08T07:36:02Z</time>
      </trkpt>
      <trkpt lat="45.35114" lon="1.18545">
        <ele>276.200012</ele>
        <time>2011-05-08T07:36:03Z</time>
      </trkpt>
      <trkpt lat="45.35119" lon="1.18541">
        <ele>276.399994</ele>
        <time>2011-05-08T07:36:04Z</time>
      </trkpt>
      <trkpt lat="45.35125" lon="1.18538">
        <ele>276.5</ele>
        <time>2011-05-08T07:36:05Z</time>
      </trkpt>
      <trkpt lat="45.35131" lon="1.18535">
        <ele>276.899994</ele>
        <time>2011-05-08T07:36:06Z</time>
      </trkpt>
      <trkpt lat="45.35137" lon="1.18531">
        <ele>277.200012</ele>
        <time>2011-05-08T07:36:07Z</time>
      </trkpt>
      <trkpt lat="45.35143" lon="1.18527">
        <ele>277.100006</ele>
        <time>2011-05-08T07:36:08Z</time>
      </trkpt>
      <trkpt lat="45.35149" lon="1.18522">
        <ele>277</ele>
        <time>2011-05-08T07:36:09Z</time>
      </trkpt>
      <trkpt lat="45.35155" lon="1.18519">
        <ele>276.899994</ele>
        <time>2011-05-08T07:36:10Z</time>
      </trkpt>
      <trkpt lat="45.35162" lon="1.18518">
        <ele>276.399994</ele>
        <time>2011-05-08T07:36:11Z</time>
      </trkpt>
      <trkpt lat="45.35167" lon="1.18517">
        <ele>276</ele>
        <time>2011-05-08T07:36:12Z</time>
      </trkpt>
      <trkpt lat="45.35172" lon="1.18517">
        <ele>275.799988</ele>
        <time>2011-05-08T07:36:13Z</time>
      </trkpt>
      <trkpt lat="45.35177" lon="1.18517">
        <ele>275.600006</ele>
        <time>2011-05-08T07:36:14Z</time>
      </trkpt>
      <trkpt lat="45.35183" lon="1.18518">
        <ele>275.399994</ele>
        <time>2011-05-08T07:36:15Z</time>
      </trkpt>
      <trkpt lat="45.35187" lon="1.18519">
        <ele>275.299988</ele>
        <time>2011-05-08T07:36:16Z</time>
      </trkpt>
      <trkpt lat="45.35192" lon="1.1852">
        <ele>275.200012</ele>
        <time>2011-05-08T07:36:17Z</time>
      </trkpt>
      <trkpt lat="45.35197" lon="1.18522">
        <ele>275.200012</ele>
        <time>2011-05-08T07:36:18Z</time>
      </trkpt>
      <trkpt lat="45.35201" lon="1.18524">
        <ele>275.200012</ele>
        <time>2011-05-08T07:36:19Z</time>
      </trkpt>
      <trkpt lat="45.35207" lon="1.18532">
        <ele>275.700012</ele>
        <time>2011-05-08T07:36:21Z</time>
      </trkpt>
      <trkpt lat="45.35211" lon="1.18542">
        <ele>275.799988</ele>
        <time>2011-05-08T07:36:23Z</time>
      </trkpt>
      <trkpt lat="45.35215" lon="1.18552">
        <ele>275.799988</ele>
        <time>2011-05-08T07:36:25Z</time>
      </trkpt>
      <trkpt lat="45.35218" lon="1.18561">
        <ele>276</ele>
        <time>2011-05-08T07:36:27Z</time>
      </trkpt>
      <trkpt lat="45.35222" lon="1.18571">
        <ele>276.399994</ele>
        <time>2011-05-08T07:36:29Z</time>
      </trkpt>
      <trkpt lat="45.35226" lon="1.18581">
        <ele>277</ele>
        <time>2011-05-08T07:36:31Z</time>
      </trkpt>
      <trkpt lat="45.35231" lon="1.18589">
        <ele>277.200012</ele>
        <time>2011-05-08T07:36:33Z</time>
      </trkpt>
      <trkpt lat="45.35236" lon="1.18596">
        <ele>278</ele>
        <time>2011-05-08T07:36:35Z</time>
      </trkpt>
      <trkpt lat="45.3524" lon="1.18604">
        <ele>278.600006</ele>
        <time>2011-05-08T07:36:37Z</time>
      </trkpt>
      <trkpt lat="45.35243" lon="1.18612">
        <ele>279</ele>
        <time>2011-05-08T07:36:39Z</time>
      </trkpt>
      <trkpt lat="45.35247" lon="1.18621">
        <ele>279.100006</ele>
        <time>2011-05-08T07:36:41Z</time>
      </trkpt>
      <trkpt lat="45.3525" lon="1.1863">
        <ele>279.399994</ele>
        <time>2011-05-08T07:36:43Z</time>
      </trkpt>
      <trkpt lat="45.35255" lon="1.18638">
        <ele>279.700012</ele>
        <time>2011-05-08T07:36:45Z</time>
      </trkpt>
      <trkpt lat="45.35258" lon="1.18642">
        <ele>279.299988</ele>
        <time>2011-05-08T07:36:46Z</time>
      </trkpt>
      <trkpt lat="45.35265" lon="1.18656">
        <ele>278.5</ele>
        <time>2011-05-08T07:36:49Z</time>
      </trkpt>
      <trkpt lat="45.35268" lon="1.18661">
        <ele>278.200012</ele>
        <time>2011-05-08T07:36:50Z</time>
      </trkpt>
      <trkpt lat="45.35271" lon="1.18666">
        <ele>278.299988</ele>
        <time>2011-05-08T07:36:51Z</time>
      </trkpt>
      <trkpt lat="45.35276" lon="1.18671">
        <ele>278.399994</ele>
        <time>2011-05-08T07:36:52Z</time>
      </trkpt>
      <trkpt lat="45.3528" lon="1.18675">
        <ele>277.5</ele>
        <time>2011-05-08T07:36:53Z</time>
      </trkpt>
      <trkpt lat="45.35284" lon="1.18679">
        <ele>276.899994</ele>
        <time>2011-05-08T07:36:54Z</time>
      </trkpt>
      <trkpt lat="45.35287" lon="1.18684">
        <ele>276.399994</ele>
        <time>2011-05-08T07:36:55Z</time>
      </trkpt>
      <trkpt lat="45.3529" lon="1.1869">
        <ele>276.100006</ele>
        <time>2011-05-08T07:36:56Z</time>
      </trkpt>
      <trkpt lat="45.35293" lon="1.18696">
        <ele>275.899994</ele>
        <time>2011-05-08T07:36:57Z</time>
      </trkpt>
      <trkpt lat="45.35298" lon="1.18701">
        <ele>275.200012</ele>
        <time>2011-05-08T07:36:58Z</time>
      </trkpt>
      <trkpt lat="45.35303" lon="1.18705">
        <ele>274.600006</ele>
        <time>2011-05-08T07:36:59Z</time>
      </trkpt>
      <trkpt lat="45.3531" lon="1.18709">
        <ele>274</ele>
        <time>2011-05-08T07:37:00Z</time>
      </trkpt>
      <trkpt lat="45.35316" lon="1.18713">
        <ele>273.5</ele>
        <time>2011-05-08T07:37:01Z</time>
      </trkpt>
      <trkpt lat="45.35322" lon="1.18716">
        <ele>273.200012</ele>
        <time>2011-05-08T07:37:02Z</time>
      </trkpt>
      <trkpt lat="45.35327" lon="1.18719">
        <ele>272.200012</ele>
        <time>2011-05-08T07:37:03Z</time>
      </trkpt>
      <trkpt lat="45.35332" lon="1.18722">
        <ele>271.399994</ele>
        <time>2011-05-08T07:37:04Z</time>
      </trkpt>
      <trkpt lat="45.35336" lon="1.18722">
        <ele>270</ele>
        <time>2011-05-08T07:37:05Z</time>
      </trkpt>
      <trkpt lat="45.35342" lon="1.18722">
        <ele>268.899994</ele>
        <time>2011-05-08T07:37:06Z</time>
      </trkpt>
      <trkpt lat="45.3535" lon="1.18722">
        <ele>267.200012</ele>
        <time>2011-05-08T07:37:08Z</time>
      </trkpt>
      <trkpt lat="45.35345" lon="1.18733">
        <ele>263.5</ele>
        <time>2011-05-08T07:37:15Z</time>
      </trkpt>
      <trkpt lat="45.35338" lon="1.18739">
        <ele>262.200012</ele>
        <time>2011-05-08T07:37:17Z</time>
      </trkpt>
      <trkpt lat="45.35333" lon="1.18748">
        <ele>261.200012</ele>
        <time>2011-05-08T07:37:20Z</time>
      </trkpt>
      <trkpt lat="45.3533" lon="1.18756">
        <ele>260.700012</ele>
        <time>2011-05-08T07:37:22Z</time>
      </trkpt>
      <trkpt lat="45.35325" lon="1.18766">
        <ele>260.100006</ele>
        <time>2011-05-08T07:37:25Z</time>
      </trkpt>
      <trkpt lat="45.3532" lon="1.18775">
        <ele>260</ele>
        <time>2011-05-08T07:37:30Z</time>
      </trkpt>
      <trkpt lat="45.35313" lon="1.18782">
        <ele>261.899994</ele>
        <time>2011-05-08T07:37:36Z</time>
      </trkpt>
      <trkpt lat="45.35305" lon="1.18786">
        <ele>262.600006</ele>
        <time>2011-05-08T07:37:42Z</time>
      </trkpt>
      <trkpt lat="45.35298" lon="1.18789">
        <ele>265</ele>
        <time>2011-05-08T07:37:48Z</time>
      </trkpt>
      <trkpt lat="45.35296" lon="1.1879">
        <ele>265.399994</ele>
        <time>2011-05-08T07:37:49Z</time>
      </trkpt>
      <trkpt lat="45.35282" lon="1.18798">
        <ele>268.299988</ele>
        <time>2011-05-08T07:38:01Z</time>
      </trkpt>
      <trkpt lat="45.3528" lon="1.18809">
        <ele>270.399994</ele>
        <time>2011-05-08T07:38:08Z</time>
      </trkpt>
      <trkpt lat="45.35279" lon="1.1882">
        <ele>271.799988</ele>
        <time>2011-05-08T07:38:15Z</time>
      </trkpt>
      <trkpt lat="45.35277" lon="1.18831">
        <ele>272.600006</ele>
        <time>2011-05-08T07:38:21Z</time>
      </trkpt>
      <trkpt lat="45.35276" lon="1.18843">
        <ele>273.5</ele>
        <time>2011-05-08T07:38:27Z</time>
      </trkpt>
      <trkpt lat="45.35275" lon="1.18855">
        <ele>274.100006</ele>
        <time>2011-05-08T07:38:33Z</time>
      </trkpt>
      <trkpt lat="45.35275" lon="1.18867">
        <ele>275.299988</ele>
        <time>2011-05-08T07:38:38Z</time>
      </trkpt>
      <trkpt lat="45.35274" lon="1.18878">
        <ele>276.600006</ele>
        <time>2011-05-08T07:38:43Z</time>
      </trkpt>
      <trkpt lat="45.35274" lon="1.18889">
        <ele>277</ele>
        <time>2011-05-08T07:38:48Z</time>
      </trkpt>
      <trkpt lat="45.35274" lon="1.18901">
        <ele>278.5</ele>
        <time>2011-05-08T07:38:54Z</time>
      </trkpt>
      <trkpt lat="45.35275" lon="1.18903">
        <ele>278.5</ele>
        <time>2011-05-08T07:38:55Z</time>
      </trkpt>
      <trkpt lat="45.35274" lon="1.18925">
        <ele>281.100006</ele>
        <time>2011-05-08T07:39:06Z</time>
      </trkpt>
      <trkpt lat="45.35273" lon="1.18936">
        <ele>282.299988</ele>
        <time>2011-05-08T07:39:13Z</time>
      </trkpt>
      <trkpt lat="45.35273" lon="1.18947">
        <ele>283.100006</ele>
        <time>2011-05-08T07:39:19Z</time>
      </trkpt>
      <trkpt lat="45.35272" lon="1.18959">
        <ele>284.100006</ele>
        <time>2011-05-08T07:39:26Z</time>
      </trkpt>
      <trkpt lat="45.35271" lon="1.18972">
        <ele>285.5</ele>
        <time>2011-05-08T07:39:33Z</time>
      </trkpt>
      <trkpt lat="45.35269" lon="1.18984">
        <ele>286.399994</ele>
        <time>2011-05-08T07:39:39Z</time>
      </trkpt>
      <trkpt lat="45.35269" lon="1.18994">
        <ele>286.5</ele>
        <time>2011-05-08T07:39:44Z</time>
      </trkpt>
      <trkpt lat="45.35269" lon="1.19006">
        <ele>286.700012</ele>
        <time>2011-05-08T07:39:49Z</time>
      </trkpt>
      <trkpt lat="45.35267" lon="1.19017">
        <ele>287.799988</ele>
        <time>2011-05-08T07:39:53Z</time>
      </trkpt>
      <trkpt lat="45.35266" lon="1.19027">
        <ele>288.799988</ele>
        <time>2011-05-08T07:39:56Z</time>
      </trkpt>
      <trkpt lat="45.35265" lon="1.1903">
        <ele>289.399994</ele>
        <time>2011-05-08T07:39:57Z</time>
      </trkpt>
      <trkpt lat="45.35261" lon="1.19049">
        <ele>288.700012</ele>
        <time>2011-05-08T07:40:03Z</time>
      </trkpt>
      <trkpt lat="45.35258" lon="1.19058">
        <ele>289.700012</ele>
        <time>2011-05-08T07:40:06Z</time>
      </trkpt>
      <trkpt lat="45.35256" lon="1.19068">
        <ele>289.899994</ele>
        <time>2011-05-08T07:40:09Z</time>
      </trkpt>
      <trkpt lat="45.35255" lon="1.19079">
        <ele>290.5</ele>
        <time>2011-05-08T07:40:12Z</time>
      </trkpt>
      <trkpt lat="45.35255" lon="1.19088">
        <ele>290.299988</ele>
        <time>2011-05-08T07:40:14Z</time>
      </trkpt>
      <trkpt lat="45.35254" lon="1.19101">
        <ele>290.600006</ele>
        <time>2011-05-08T07:40:17Z</time>
      </trkpt>
      <trkpt lat="45.35254" lon="1.1911">
        <ele>291</ele>
        <time>2011-05-08T07:40:19Z</time>
      </trkpt>
      <trkpt lat="45.35253" lon="1.19122">
        <ele>290.700012</ele>
        <time>2011-05-08T07:40:22Z</time>
      </trkpt>
      <trkpt lat="45.35253" lon="1.19134">
        <ele>290.700012</ele>
        <time>2011-05-08T07:40:25Z</time>
      </trkpt>
      <trkpt lat="45.35254" lon="1.19147">
        <ele>291.700012</ele>
        <time>2011-05-08T07:40:28Z</time>
      </trkpt>
      <trkpt lat="45.35254" lon="1.19155">
        <ele>291.700012</ele>
        <time>2011-05-08T07:40:30Z</time>
      </trkpt>
      <trkpt lat="45.35254" lon="1.19168">
        <ele>291.799988</ele>
        <time>2011-05-08T07:40:33Z</time>
      </trkpt>
      <trkpt lat="45.35255" lon="1.19177">
        <ele>291.899994</ele>
        <time>2011-05-08T07:40:35Z</time>
      </trkpt>
      <trkpt lat="45.35256" lon="1.19185">
        <ele>292.600006</ele>
        <time>2011-05-08T07:40:37Z</time>
      </trkpt>
      <trkpt lat="45.35257" lon="1.19194">
        <ele>293.399994</ele>
        <time>2011-05-08T07:40:39Z</time>
      </trkpt>
      <trkpt lat="45.35261" lon="1.19205">
        <ele>294.100006</ele>
        <time>2011-05-08T07:40:42Z</time>
      </trkpt>
      <trkpt lat="45.35266" lon="1.19215">
        <ele>294.5</ele>
        <time>2011-05-08T07:40:45Z</time>
      </trkpt>
      <trkpt lat="45.35272" lon="1.19223">
        <ele>294.799988</ele>
        <time>2011-05-08T07:40:48Z</time>
      </trkpt>
      <trkpt lat="45.35278" lon="1.19232">
        <ele>295.100006</ele>
        <time>2011-05-08T07:40:51Z</time>
      </trkpt>
      <trkpt lat="45.35283" lon="1.19241">
        <ele>296.100006</ele>
        <time>2011-05-08T07:40:54Z</time>
      </trkpt>
      <trkpt lat="45.35286" lon="1.19251">
        <ele>297.399994</ele>
        <time>2011-05-08T07:40:57Z</time>
      </trkpt>
      <trkpt lat="45.35287" lon="1.19254">
        <ele>297.700012</ele>
        <time>2011-05-08T07:40:58Z</time>
      </trkpt>
      <trkpt lat="45.35294" lon="1.19271">
        <ele>298.700012</ele>
        <time>2011-05-08T07:41:03Z</time>
      </trkpt>
      <trkpt lat="45.35297" lon="1.19281">
        <ele>298.899994</ele>
        <time>2011-05-08T07:41:06Z</time>
      </trkpt>
      <trkpt lat="45.353" lon="1.19291">
        <ele>299.600006</ele>
        <time>2011-05-08T07:41:09Z</time>
      </trkpt>
      <trkpt lat="45.35304" lon="1.193">
        <ele>299.299988</ele>
        <time>2011-05-08T07:41:12Z</time>
      </trkpt>
      <trkpt lat="45.35312" lon="1.19306">
        <ele>299.5</ele>
        <time>2011-05-08T07:41:15Z</time>
      </trkpt>
      <trkpt lat="45.35317" lon="1.19309">
        <ele>300</ele>
        <time>2011-05-08T07:41:17Z</time>
      </trkpt>
      <trkpt lat="45.35323" lon="1.19312">
        <ele>300.600006</ele>
        <time>2011-05-08T07:41:19Z</time>
      </trkpt>
      <trkpt lat="45.35329" lon="1.19316">
        <ele>300.899994</ele>
        <time>2011-05-08T07:41:21Z</time>
      </trkpt>
      <trkpt lat="45.35334" lon="1.19321">
        <ele>301</ele>
        <time>2011-05-08T07:41:23Z</time>
      </trkpt>
      <trkpt lat="45.35339" lon="1.19327">
        <ele>300.799988</ele>
        <time>2011-05-08T07:41:25Z</time>
      </trkpt>
      <trkpt lat="45.35343" lon="1.19333">
        <ele>301.100006</ele>
        <time>2011-05-08T07:41:27Z</time>
      </trkpt>
      <trkpt lat="45.35348" lon="1.19339">
        <ele>300.899994</ele>
        <time>2011-05-08T07:41:29Z</time>
      </trkpt>
      <trkpt lat="45.35355" lon="1.19343">
        <ele>300.600006</ele>
        <time>2011-05-08T07:41:31Z</time>
      </trkpt>
      <trkpt lat="45.35363" lon="1.19344">
        <ele>301</ele>
        <time>2011-05-08T07:41:33Z</time>
      </trkpt>
      <trkpt lat="45.35372" lon="1.19343">
        <ele>301.700012</ele>
        <time>2011-05-08T07:41:35Z</time>
      </trkpt>
      <trkpt lat="45.35377" lon="1.19343">
        <ele>300.899994</ele>
        <time>2011-05-08T07:41:36Z</time>
      </trkpt>
      <trkpt lat="45.35382" lon="1.19342">
        <ele>300.299988</ele>
        <time>2011-05-08T07:41:37Z</time>
      </trkpt>
      <trkpt lat="45.35387" lon="1.19342">
        <ele>299.799988</ele>
        <time>2011-05-08T07:41:38Z</time>
      </trkpt>
      <trkpt lat="45.35393" lon="1.19341">
        <ele>299.399994</ele>
        <time>2011-05-08T07:41:39Z</time>
      </trkpt>
      <trkpt lat="45.35399" lon="1.19341">
        <ele>299.200012</ele>
        <time>2011-05-08T07:41:40Z</time>
      </trkpt>
      <trkpt lat="45.35404" lon="1.19341">
        <ele>299.299988</ele>
        <time>2011-05-08T07:41:41Z</time>
      </trkpt>
      <trkpt lat="45.3541" lon="1.19341">
        <ele>299.399994</ele>
        <time>2011-05-08T07:41:42Z</time>
      </trkpt>
      <trkpt lat="45.35416" lon="1.19341">
        <ele>299.799988</ele>
        <time>2011-05-08T07:41:43Z</time>
      </trkpt>
      <trkpt lat="45.35421" lon="1.19341">
        <ele>300</ele>
        <time>2011-05-08T07:41:44Z</time>
      </trkpt>
      <trkpt lat="45.35427" lon="1.19341">
        <ele>300</ele>
        <time>2011-05-08T07:41:45Z</time>
      </trkpt>
      <trkpt lat="45.35432" lon="1.19341">
        <ele>299.899994</ele>
        <time>2011-05-08T07:41:46Z</time>
      </trkpt>
      <trkpt lat="45.35437" lon="1.19341">
        <ele>299.899994</ele>
        <time>2011-05-08T07:41:47Z</time>
      </trkpt>
      <trkpt lat="45.35442" lon="1.19341">
        <ele>299.799988</ele>
        <time>2011-05-08T07:41:48Z</time>
      </trkpt>
      <trkpt lat="45.35447" lon="1.19342">
        <ele>299.799988</ele>
        <time>2011-05-08T07:41:49Z</time>
      </trkpt>
      <trkpt lat="45.35452" lon="1.19342">
        <ele>299.899994</ele>
        <time>2011-05-08T07:41:50Z</time>
      </trkpt>
      <trkpt lat="45.35457" lon="1.19343">
        <ele>300</ele>
        <time>2011-05-08T07:41:51Z</time>
      </trkpt>
      <trkpt lat="45.35462" lon="1.19343">
        <ele>300</ele>
        <time>2011-05-08T07:41:52Z</time>
      </trkpt>
      <trkpt lat="45.35466" lon="1.19343">
        <ele>300</ele>
        <time>2011-05-08T07:41:53Z</time>
      </trkpt>
      <trkpt lat="45.35471" lon="1.19343">
        <ele>300</ele>
        <time>2011-05-08T07:41:54Z</time>
      </trkpt>
      <trkpt lat="45.35476" lon="1.19344">
        <ele>300.100006</ele>
        <time>2011-05-08T07:41:55Z</time>
      </trkpt>
      <trkpt lat="45.35481" lon="1.19344">
        <ele>300.100006</ele>
        <time>2011-05-08T07:41:56Z</time>
      </trkpt>
      <trkpt lat="45.35485" lon="1.19344">
        <ele>300.5</ele>
        <time>2011-05-08T07:41:57Z</time>
      </trkpt>
      <trkpt lat="45.35494" lon="1.19345">
        <ele>301.100006</ele>
        <time>2011-05-08T07:41:59Z</time>
      </trkpt>
      <trkpt lat="45.35499" lon="1.19345">
        <ele>301.399994</ele>
        <time>2011-05-08T07:42:00Z</time>
      </trkpt>
      <trkpt lat="45.35508" lon="1.19347">
        <ele>301.600006</ele>
        <time>2011-05-08T07:42:02Z</time>
      </trkpt>
      <trkpt lat="45.35516" lon="1.19348">
        <ele>301.5</ele>
        <time>2011-05-08T07:42:04Z</time>
      </trkpt>
      <trkpt lat="45.35525" lon="1.19349">
        <ele>301.200012</ele>
        <time>2011-05-08T07:42:06Z</time>
      </trkpt>
      <trkpt lat="45.35533" lon="1.19349">
        <ele>302.299988</ele>
        <time>2011-05-08T07:42:08Z</time>
      </trkpt>
      <trkpt lat="45.35541" lon="1.19348">
        <ele>303</ele>
        <time>2011-05-08T07:42:10Z</time>
      </trkpt>
      <trkpt lat="45.35548" lon="1.19348">
        <ele>303.600006</ele>
        <time>2011-05-08T07:42:12Z</time>
      </trkpt>
      <trkpt lat="45.35554" lon="1.19351">
        <ele>303.899994</ele>
        <time>2011-05-08T07:42:14Z</time>
      </trkpt>
      <trkpt lat="45.3556" lon="1.19353">
        <ele>304.399994</ele>
        <time>2011-05-08T07:42:16Z</time>
      </trkpt>
      <trkpt lat="45.35566" lon="1.19356">
        <ele>304.600006</ele>
        <time>2011-05-08T07:42:18Z</time>
      </trkpt>
      <trkpt lat="45.35572" lon="1.19357">
        <ele>304.399994</ele>
        <time>2011-05-08T07:42:20Z</time>
      </trkpt>
      <trkpt lat="45.35578" lon="1.1936">
        <ele>305</ele>
        <time>2011-05-08T07:42:22Z</time>
      </trkpt>
      <trkpt lat="45.35584" lon="1.19364">
        <ele>306</ele>
        <time>2011-05-08T07:42:24Z</time>
      </trkpt>
      <trkpt lat="45.35589" lon="1.19367">
        <ele>306.299988</ele>
        <time>2011-05-08T07:42:26Z</time>
      </trkpt>
      <trkpt lat="45.35598" lon="1.19371">
        <ele>307.299988</ele>
        <time>2011-05-08T07:42:29Z</time>
      </trkpt>
      <trkpt lat="45.35606" lon="1.19374">
        <ele>307.700012</ele>
        <time>2011-05-08T07:42:32Z</time>
      </trkpt>
      <trkpt lat="45.35613" lon="1.19378">
        <ele>308.600006</ele>
        <time>2011-05-08T07:42:35Z</time>
      </trkpt>
      <trkpt lat="45.35621" lon="1.19381">
        <ele>309.799988</ele>
        <time>2011-05-08T07:42:38Z</time>
      </trkpt>
      <trkpt lat="45.35629" lon="1.19385">
        <ele>310.600006</ele>
        <time>2011-05-08T07:42:41Z</time>
      </trkpt>
      <trkpt lat="45.35636" lon="1.19389">
        <ele>311.600006</ele>
        <time>2011-05-08T07:42:44Z</time>
      </trkpt>
      <trkpt lat="45.35644" lon="1.19393">
        <ele>311.899994</ele>
        <time>2011-05-08T07:42:47Z</time>
      </trkpt>
      <trkpt lat="45.35651" lon="1.19398">
        <ele>313.299988</ele>
        <time>2011-05-08T07:42:50Z</time>
      </trkpt>
      <trkpt lat="45.35658" lon="1.19403">
        <ele>314.200012</ele>
        <time>2011-05-08T07:42:53Z</time>
      </trkpt>
      <trkpt lat="45.35665" lon="1.19408">
        <ele>314.700012</ele>
        <time>2011-05-08T07:42:56Z</time>
      </trkpt>
      <trkpt lat="45.35672" lon="1.19413">
        <ele>315.600006</ele>
        <time>2011-05-08T07:42:59Z</time>
      </trkpt>
      <trkpt lat="45.35679" lon="1.19417">
        <ele>316.299988</ele>
        <time>2011-05-08T07:43:02Z</time>
      </trkpt>
      <trkpt lat="45.35681" lon="1.19419">
        <ele>316.5</ele>
        <time>2011-05-08T07:43:03Z</time>
      </trkpt>
      <trkpt lat="45.35692" lon="1.19426">
        <ele>317.399994</ele>
        <time>2011-05-08T07:43:08Z</time>
      </trkpt>
      <trkpt lat="45.35699" lon="1.19431">
        <ele>318.299988</ele>
        <time>2011-05-08T07:43:11Z</time>
      </trkpt>
      <trkpt lat="45.35705" lon="1.19435">
        <ele>319</ele>
        <time>2011-05-08T07:43:14Z</time>
      </trkpt>
      <trkpt lat="45.35711" lon="1.1944">
        <ele>318.600006</ele>
        <time>2011-05-08T07:43:17Z</time>
      </trkpt>
      <trkpt lat="45.35718" lon="1.19444">
        <ele>319.700012</ele>
        <time>2011-05-08T07:43:20Z</time>
      </trkpt>
      <trkpt lat="45.35725" lon="1.19449">
        <ele>319.899994</ele>
        <time>2011-05-08T07:43:23Z</time>
      </trkpt>
      <trkpt lat="45.35732" lon="1.19457">
        <ele>319.600006</ele>
        <time>2011-05-08T07:43:26Z</time>
      </trkpt>
      <trkpt lat="45.35737" lon="1.19462">
        <ele>319.700012</ele>
        <time>2011-05-08T07:43:28Z</time>
      </trkpt>
      <trkpt lat="45.35742" lon="1.19468">
        <ele>319.899994</ele>
        <time>2011-05-08T07:43:30Z</time>
      </trkpt>
      <trkpt lat="45.35748" lon="1.19474">
        <ele>320.399994</ele>
        <time>2011-05-08T07:43:32Z</time>
      </trkpt>
      <trkpt lat="45.35754" lon="1.19479">
        <ele>320.600006</ele>
        <time>2011-05-08T07:43:34Z</time>
      </trkpt>
      <trkpt lat="45.35759" lon="1.19486">
        <ele>320.5</ele>
        <time>2011-05-08T07:43:36Z</time>
      </trkpt>
      <trkpt lat="45.35765" lon="1.19492">
        <ele>320.399994</ele>
        <time>2011-05-08T07:43:38Z</time>
      </trkpt>
      <trkpt lat="45.35771" lon="1.19498">
        <ele>320.799988</ele>
        <time>2011-05-08T07:43:40Z</time>
      </trkpt>
      <trkpt lat="45.35777" lon="1.19505">
        <ele>320.600006</ele>
        <time>2011-05-08T07:43:42Z</time>
      </trkpt>
      <trkpt lat="45.35782" lon="1.19511">
        <ele>320.600006</ele>
        <time>2011-05-08T07:43:44Z</time>
      </trkpt>
      <trkpt lat="45.35788" lon="1.19518">
        <ele>320.700012</ele>
        <time>2011-05-08T07:43:46Z</time>
      </trkpt>
      <trkpt lat="45.35794" lon="1.19525">
        <ele>320.600006</ele>
        <time>2011-05-08T07:43:48Z</time>
      </trkpt>
      <trkpt lat="45.35801" lon="1.19531">
        <ele>321.200012</ele>
        <time>2011-05-08T07:43:50Z</time>
      </trkpt>
      <trkpt lat="45.35807" lon="1.19538">
        <ele>321.700012</ele>
        <time>2011-05-08T07:43:52Z</time>
      </trkpt>
      <trkpt lat="45.35813" lon="1.19545">
        <ele>322.399994</ele>
        <time>2011-05-08T07:43:54Z</time>
      </trkpt>
      <trkpt lat="45.35819" lon="1.19552">
        <ele>322.700012</ele>
        <time>2011-05-08T07:43:56Z</time>
      </trkpt>
      <trkpt lat="45.35825" lon="1.19558">
        <ele>322.600006</ele>
        <time>2011-05-08T07:43:58Z</time>
      </trkpt>
      <trkpt lat="45.35831" lon="1.19565">
        <ele>322.600006</ele>
        <time>2011-05-08T07:44:00Z</time>
      </trkpt>
      <trkpt lat="45.35837" lon="1.19571">
        <ele>323.299988</ele>
        <time>2011-05-08T07:44:02Z</time>
      </trkpt>
      <trkpt lat="45.35843" lon="1.19578">
        <ele>323.200012</ele>
        <time>2011-05-08T07:44:04Z</time>
      </trkpt>
      <trkpt lat="45.35847" lon="1.19581">
        <ele>323.600006</ele>
        <time>2011-05-08T07:44:05Z</time>
      </trkpt>
      <trkpt lat="45.35857" lon="1.1959">
        <ele>324.5</ele>
        <time>2011-05-08T07:44:08Z</time>
      </trkpt>
      <trkpt lat="45.35865" lon="1.19595">
        <ele>325.5</ele>
        <time>2011-05-08T07:44:10Z</time>
      </trkpt>
      <trkpt lat="45.35872" lon="1.19598">
        <ele>326.200012</ele>
        <time>2011-05-08T07:44:12Z</time>
      </trkpt>
      <trkpt lat="45.3588" lon="1.196">
        <ele>326.5</ele>
        <time>2011-05-08T07:44:14Z</time>
      </trkpt>
      <trkpt lat="45.35888" lon="1.19601">
        <ele>326.5</ele>
        <time>2011-05-08T07:44:16Z</time>
      </trkpt>
      <trkpt lat="45.35896" lon="1.19603">
        <ele>326.899994</ele>
        <time>2011-05-08T07:44:18Z</time>
      </trkpt>
      <trkpt lat="45.35904" lon="1.19602">
        <ele>327.299988</ele>
        <time>2011-05-08T07:44:20Z</time>
      </trkpt>
      <trkpt lat="45.35912" lon="1.19602">
        <ele>327.799988</ele>
        <time>2011-05-08T07:44:22Z</time>
      </trkpt>
      <trkpt lat="45.3592" lon="1.19602">
        <ele>328.399994</ele>
        <time>2011-05-08T07:44:24Z</time>
      </trkpt>
      <trkpt lat="45.35927" lon="1.19602">
        <ele>328.899994</ele>
        <time>2011-05-08T07:44:26Z</time>
      </trkpt>
      <trkpt lat="45.35935" lon="1.19601">
        <ele>328.399994</ele>
        <time>2011-05-08T07:44:28Z</time>
      </trkpt>
      <trkpt lat="45.35943" lon="1.19601">
        <ele>329.399994</ele>
        <time>2011-05-08T07:44:30Z</time>
      </trkpt>
      <trkpt lat="45.3595" lon="1.19601">
        <ele>329.799988</ele>
        <time>2011-05-08T07:44:32Z</time>
      </trkpt>
      <trkpt lat="45.35958" lon="1.19601">
        <ele>330.299988</ele>
        <time>2011-05-08T07:44:34Z</time>
      </trkpt>
      <trkpt lat="45.35965" lon="1.196">
        <ele>330.799988</ele>
        <time>2011-05-08T07:44:36Z</time>
      </trkpt>
      <trkpt lat="45.35972" lon="1.196">
        <ele>331.299988</ele>
        <time>2011-05-08T07:44:38Z</time>
      </trkpt>
      <trkpt lat="45.3598" lon="1.19601">
        <ele>331.700012</ele>
        <time>2011-05-08T07:44:40Z</time>
      </trkpt>
      <trkpt lat="45.35987" lon="1.19601">
        <ele>332.399994</ele>
        <time>2011-05-08T07:44:42Z</time>
      </trkpt>
      <trkpt lat="45.35995" lon="1.19601">
        <ele>331.600006</ele>
        <time>2011-05-08T07:44:44Z</time>
      </trkpt>
      <trkpt lat="45.36003" lon="1.19602">
        <ele>331.5</ele>
        <time>2011-05-08T07:44:46Z</time>
      </trkpt>
      <trkpt lat="45.36012" lon="1.19602">
        <ele>331.5</ele>
        <time>2011-05-08T07:44:48Z</time>
      </trkpt>
      <trkpt lat="45.36021" lon="1.19604">
        <ele>331.600006</ele>
        <time>2011-05-08T07:44:50Z</time>
      </trkpt>
      <trkpt lat="45.36025" lon="1.19604">
        <ele>331.700012</ele>
        <time>2011-05-08T07:44:51Z</time>
      </trkpt>
      <trkpt lat="45.3603" lon="1.19605">
        <ele>331.799988</ele>
        <time>2011-05-08T07:44:52Z</time>
      </trkpt>
      <trkpt lat="45.36035" lon="1.19605">
        <ele>332</ele>
        <time>2011-05-08T07:44:53Z</time>
      </trkpt>
      <trkpt lat="45.3604" lon="1.19606">
        <ele>332.200012</ele>
        <time>2011-05-08T07:44:54Z</time>
      </trkpt>
      <trkpt lat="45.36045" lon="1.19607">
        <ele>332.299988</ele>
        <time>2011-05-08T07:44:55Z</time>
      </trkpt>
      <trkpt lat="45.3605" lon="1.19607">
        <ele>332.399994</ele>
        <time>2011-05-08T07:44:56Z</time>
      </trkpt>
      <trkpt lat="45.36055" lon="1.19608">
        <ele>332.399994</ele>
        <time>2011-05-08T07:44:57Z</time>
      </trkpt>
      <trkpt lat="45.3606" lon="1.19609">
        <ele>332.299988</ele>
        <time>2011-05-08T07:44:58Z</time>
      </trkpt>
      <trkpt lat="45.36065" lon="1.19609">
        <ele>332.299988</ele>
        <time>2011-05-08T07:44:59Z</time>
      </trkpt>
      <trkpt lat="45.3607" lon="1.19609">
        <ele>332.299988</ele>
        <time>2011-05-08T07:45:00Z</time>
      </trkpt>
      <trkpt lat="45.36076" lon="1.19609">
        <ele>332.299988</ele>
        <time>2011-05-08T07:45:01Z</time>
      </trkpt>
      <trkpt lat="45.36081" lon="1.19609">
        <ele>331.700012</ele>
        <time>2011-05-08T07:45:02Z</time>
      </trkpt>
      <trkpt lat="45.36087" lon="1.19609">
        <ele>331.299988</ele>
        <time>2011-05-08T07:45:03Z</time>
      </trkpt>
      <trkpt lat="45.36092" lon="1.19609">
        <ele>330.899994</ele>
        <time>2011-05-08T07:45:04Z</time>
      </trkpt>
      <trkpt lat="45.36097" lon="1.19609">
        <ele>331.200012</ele>
        <time>2011-05-08T07:45:05Z</time>
      </trkpt>
      <trkpt lat="45.36103" lon="1.19609">
        <ele>331.299988</ele>
        <time>2011-05-08T07:45:06Z</time>
      </trkpt>
      <trkpt lat="45.36108" lon="1.19609">
        <ele>331.299988</ele>
        <time>2011-05-08T07:45:07Z</time>
      </trkpt>
      <trkpt lat="45.36113" lon="1.19609">
        <ele>331.299988</ele>
        <time>2011-05-08T07:45:08Z</time>
      </trkpt>
      <trkpt lat="45.36119" lon="1.19609">
        <ele>331</ele>
        <time>2011-05-08T07:45:09Z</time>
      </trkpt>
      <trkpt lat="45.36124" lon="1.1961">
        <ele>330.899994</ele>
        <time>2011-05-08T07:45:10Z</time>
      </trkpt>
      <trkpt lat="45.36129" lon="1.1961">
        <ele>330.700012</ele>
        <time>2011-05-08T07:45:11Z</time>
      </trkpt>
      <trkpt lat="45.36135" lon="1.1961">
        <ele>331</ele>
        <time>2011-05-08T07:45:12Z</time>
      </trkpt>
      <trkpt lat="45.36141" lon="1.1961">
        <ele>331.200012</ele>
        <time>2011-05-08T07:45:13Z</time>
      </trkpt>
      <trkpt lat="45.36147" lon="1.1961">
        <ele>331.100006</ele>
        <time>2011-05-08T07:45:14Z</time>
      </trkpt>
      <trkpt lat="45.36154" lon="1.1961">
        <ele>331</ele>
        <time>2011-05-08T07:45:15Z</time>
      </trkpt>
      <trkpt lat="45.3616" lon="1.19611">
        <ele>330.899994</ele>
        <time>2011-05-08T07:45:16Z</time>
      </trkpt>
      <trkpt lat="45.36167" lon="1.19612">
        <ele>330.799988</ele>
        <time>2011-05-08T07:45:17Z</time>
      </trkpt>
      <trkpt lat="45.36174" lon="1.19614">
        <ele>330.799988</ele>
        <time>2011-05-08T07:45:18Z</time>
      </trkpt>
      <trkpt lat="45.36181" lon="1.19615">
        <ele>330.899994</ele>
        <time>2011-05-08T07:45:19Z</time>
      </trkpt>
      <trkpt lat="45.36188" lon="1.19618">
        <ele>331</ele>
        <time>2011-05-08T07:45:20Z</time>
      </trkpt>
      <trkpt lat="45.36195" lon="1.1962">
        <ele>330.700012</ele>
        <time>2011-05-08T07:45:21Z</time>
      </trkpt>
      <trkpt lat="45.36203" lon="1.19623">
        <ele>330.399994</ele>
        <time>2011-05-08T07:45:22Z</time>
      </trkpt>
      <trkpt lat="45.3621" lon="1.19626">
        <ele>330.299988</ele>
        <time>2011-05-08T07:45:23Z</time>
      </trkpt>
      <trkpt lat="45.36218" lon="1.19629">
        <ele>329.799988</ele>
        <time>2011-05-08T07:45:24Z</time>
      </trkpt>
      <trkpt lat="45.36225" lon="1.19633">
        <ele>329.399994</ele>
        <time>2011-05-08T07:45:25Z</time>
      </trkpt>
      <trkpt lat="45.36233" lon="1.19636">
        <ele>329.5</ele>
        <time>2011-05-08T07:45:26Z</time>
      </trkpt>
      <trkpt lat="45.36239" lon="1.1964">
        <ele>329.600006</ele>
        <time>2011-05-08T07:45:27Z</time>
      </trkpt>
      <trkpt lat="45.36246" lon="1.19644">
        <ele>329.5</ele>
        <time>2011-05-08T07:45:28Z</time>
      </trkpt>
      <trkpt lat="45.36253" lon="1.19647">
        <ele>329.5</ele>
        <time>2011-05-08T07:45:29Z</time>
      </trkpt>
      <trkpt lat="45.3626" lon="1.19651">
        <ele>329.399994</ele>
        <time>2011-05-08T07:45:30Z</time>
      </trkpt>
      <trkpt lat="45.36267" lon="1.19654">
        <ele>328.799988</ele>
        <time>2011-05-08T07:45:31Z</time>
      </trkpt>
      <trkpt lat="45.36273" lon="1.19657">
        <ele>328.299988</ele>
        <time>2011-05-08T07:45:32Z</time>
      </trkpt>
      <trkpt lat="45.3628" lon="1.19661">
        <ele>328.299988</ele>
        <time>2011-05-08T07:45:33Z</time>
      </trkpt>
      <trkpt lat="45.36286" lon="1.19664">
        <ele>328.399994</ele>
        <time>2011-05-08T07:45:34Z</time>
      </trkpt>
      <trkpt lat="45.36292" lon="1.19667">
        <ele>328.799988</ele>
        <time>2011-05-08T07:45:35Z</time>
      </trkpt>
      <trkpt lat="45.36297" lon="1.1967">
        <ele>329.100006</ele>
        <time>2011-05-08T07:45:36Z</time>
      </trkpt>
      <trkpt lat="45.36302" lon="1.19672">
        <ele>329.299988</ele>
        <time>2011-05-08T07:45:37Z</time>
      </trkpt>
      <trkpt lat="45.36308" lon="1.19675">
        <ele>329.799988</ele>
        <time>2011-05-08T07:45:38Z</time>
      </trkpt>
      <trkpt lat="45.36313" lon="1.19677">
        <ele>330.200012</ele>
        <time>2011-05-08T07:45:39Z</time>
      </trkpt>
      <trkpt lat="45.36319" lon="1.1968">
        <ele>330.5</ele>
        <time>2011-05-08T07:45:40Z</time>
      </trkpt>
      <trkpt lat="45.36324" lon="1.19683">
        <ele>330.799988</ele>
        <time>2011-05-08T07:45:41Z</time>
      </trkpt>
      <trkpt lat="45.36329" lon="1.19685">
        <ele>330.899994</ele>
        <time>2011-05-08T07:45:42Z</time>
      </trkpt>
      <trkpt lat="45.36334" lon="1.19688">
        <ele>331</ele>
        <time>2011-05-08T07:45:43Z</time>
      </trkpt>
      <trkpt lat="45.3634" lon="1.1969">
        <ele>331</ele>
        <time>2011-05-08T07:45:44Z</time>
      </trkpt>
      <trkpt lat="45.36345" lon="1.19693">
        <ele>331.200012</ele>
        <time>2011-05-08T07:45:45Z</time>
      </trkpt>
      <trkpt lat="45.3635" lon="1.19695">
        <ele>331.299988</ele>
        <time>2011-05-08T07:45:46Z</time>
      </trkpt>
      <trkpt lat="45.36354" lon="1.19698">
        <ele>331</ele>
        <time>2011-05-08T07:45:47Z</time>
      </trkpt>
      <trkpt lat="45.36359" lon="1.197">
        <ele>330.700012</ele>
        <time>2011-05-08T07:45:48Z</time>
      </trkpt>
      <trkpt lat="45.36364" lon="1.19703">
        <ele>330.399994</ele>
        <time>2011-05-08T07:45:49Z</time>
      </trkpt>
      <trkpt lat="45.36368" lon="1.19706">
        <ele>330.799988</ele>
        <time>2011-05-08T07:45:50Z</time>
      </trkpt>
      <trkpt lat="45.36373" lon="1.19708">
        <ele>331.100006</ele>
        <time>2011-05-08T07:45:51Z</time>
      </trkpt>
      <trkpt lat="45.36378" lon="1.1971">
        <ele>331.5</ele>
        <time>2011-05-08T07:45:52Z</time>
      </trkpt>
      <trkpt lat="45.36382" lon="1.19712">
        <ele>331.799988</ele>
        <time>2011-05-08T07:45:53Z</time>
      </trkpt>
      <trkpt lat="45.36386" lon="1.19714">
        <ele>332.299988</ele>
        <time>2011-05-08T07:45:54Z</time>
      </trkpt>
      <trkpt lat="45.36391" lon="1.19716">
        <ele>332.700012</ele>
        <time>2011-05-08T07:45:55Z</time>
      </trkpt>
      <trkpt lat="45.36395" lon="1.19718">
        <ele>333.100006</ele>
        <time>2011-05-08T07:45:56Z</time>
      </trkpt>
      <trkpt lat="45.364" lon="1.19721">
        <ele>333</ele>
        <time>2011-05-08T07:45:57Z</time>
      </trkpt>
      <trkpt lat="45.36404" lon="1.19723">
        <ele>332.899994</ele>
        <time>2011-05-08T07:45:58Z</time>
      </trkpt>
      <trkpt lat="45.36409" lon="1.19725">
        <ele>333.399994</ele>
        <time>2011-05-08T07:45:59Z</time>
      </trkpt>
      <trkpt lat="45.36413" lon="1.19727">
        <ele>333.700012</ele>
        <time>2011-05-08T07:46:00Z</time>
      </trkpt>
      <trkpt lat="45.36418" lon="1.19729">
        <ele>333.899994</ele>
        <time>2011-05-08T07:46:01Z</time>
      </trkpt>
      <trkpt lat="45.36423" lon="1.19731">
        <ele>334.600006</ele>
        <time>2011-05-08T07:46:02Z</time>
      </trkpt>
      <trkpt lat="45.36427" lon="1.19733">
        <ele>335.100006</ele>
        <time>2011-05-08T07:46:03Z</time>
      </trkpt>
      <trkpt lat="45.36432" lon="1.19734">
        <ele>335</ele>
        <time>2011-05-08T07:46:04Z</time>
      </trkpt>
      <trkpt lat="45.36438" lon="1.19736">
        <ele>334.899994</ele>
        <time>2011-05-08T07:46:05Z</time>
      </trkpt>
      <trkpt lat="45.36443" lon="1.19737">
        <ele>335.100006</ele>
        <time>2011-05-08T07:46:06Z</time>
      </trkpt>
      <trkpt lat="45.36449" lon="1.19738">
        <ele>335.299988</ele>
        <time>2011-05-08T07:46:07Z</time>
      </trkpt>
      <trkpt lat="45.36454" lon="1.19739">
        <ele>335.399994</ele>
        <time>2011-05-08T07:46:08Z</time>
      </trkpt>
      <trkpt lat="45.3646" lon="1.1974">
        <ele>335.799988</ele>
        <time>2011-05-08T07:46:09Z</time>
      </trkpt>
      <trkpt lat="45.36467" lon="1.1974">
        <ele>336</ele>
        <time>2011-05-08T07:46:10Z</time>
      </trkpt>
      <trkpt lat="45.36473" lon="1.1974">
        <ele>335.700012</ele>
        <time>2011-05-08T07:46:11Z</time>
      </trkpt>
      <trkpt lat="45.36479" lon="1.19741">
        <ele>335.399994</ele>
        <time>2011-05-08T07:46:12Z</time>
      </trkpt>
      <trkpt lat="45.36486" lon="1.19741">
        <ele>335.5</ele>
        <time>2011-05-08T07:46:13Z</time>
      </trkpt>
      <trkpt lat="45.36492" lon="1.1974">
        <ele>335.5</ele>
        <time>2011-05-08T07:46:14Z</time>
      </trkpt>
      <trkpt lat="45.36498" lon="1.1974">
        <ele>335.5</ele>
        <time>2011-05-08T07:46:15Z</time>
      </trkpt>
      <trkpt lat="45.36504" lon="1.19739">
        <ele>335.200012</ele>
        <time>2011-05-08T07:46:16Z</time>
      </trkpt>
      <trkpt lat="45.36509" lon="1.19738">
        <ele>335</ele>
        <time>2011-05-08T07:46:17Z</time>
      </trkpt>
      <trkpt lat="45.36515" lon="1.19738">
        <ele>334.799988</ele>
        <time>2011-05-08T07:46:18Z</time>
      </trkpt>
      <trkpt lat="45.36521" lon="1.19737">
        <ele>334.700012</ele>
        <time>2011-05-08T07:46:19Z</time>
      </trkpt>
      <trkpt lat="45.36526" lon="1.19736">
        <ele>334.700012</ele>
        <time>2011-05-08T07:46:20Z</time>
      </trkpt>
      <trkpt lat="45.36532" lon="1.19735">
        <ele>334.700012</ele>
        <time>2011-05-08T07:46:21Z</time>
      </trkpt>
      <trkpt lat="45.36537" lon="1.19735">
        <ele>334.700012</ele>
        <time>2011-05-08T07:46:22Z</time>
      </trkpt>
      <trkpt lat="45.36542" lon="1.19734">
        <ele>334.700012</ele>
        <time>2011-05-08T07:46:23Z</time>
      </trkpt>
      <trkpt lat="45.36547" lon="1.19733">
        <ele>334.799988</ele>
        <time>2011-05-08T07:46:24Z</time>
      </trkpt>
      <trkpt lat="45.36553" lon="1.19732">
        <ele>334.700012</ele>
        <time>2011-05-08T07:46:25Z</time>
      </trkpt>
      <trkpt lat="45.36558" lon="1.19732">
        <ele>334.700012</ele>
        <time>2011-05-08T07:46:26Z</time>
      </trkpt>
      <trkpt lat="45.36563" lon="1.19731">
        <ele>334.600006</ele>
        <time>2011-05-08T07:46:27Z</time>
      </trkpt>
      <trkpt lat="45.36568" lon="1.1973">
        <ele>334.799988</ele>
        <time>2011-05-08T07:46:28Z</time>
      </trkpt>
      <trkpt lat="45.36573" lon="1.19729">
        <ele>335</ele>
        <time>2011-05-08T07:46:29Z</time>
      </trkpt>
      <trkpt lat="45.36578" lon="1.19728">
        <ele>335.399994</ele>
        <time>2011-05-08T07:46:30Z</time>
      </trkpt>
      <trkpt lat="45.36582" lon="1.19728">
        <ele>335.600006</ele>
        <time>2011-05-08T07:46:31Z</time>
      </trkpt>
      <trkpt lat="45.36587" lon="1.19727">
        <ele>336.100006</ele>
        <time>2011-05-08T07:46:32Z</time>
      </trkpt>
      <trkpt lat="45.36592" lon="1.19726">
        <ele>336.399994</ele>
        <time>2011-05-08T07:46:33Z</time>
      </trkpt>
      <trkpt lat="45.36597" lon="1.19726">
        <ele>336.600006</ele>
        <time>2011-05-08T07:46:34Z</time>
      </trkpt>
      <trkpt lat="45.36602" lon="1.19725">
        <ele>336.899994</ele>
        <time>2011-05-08T07:46:35Z</time>
      </trkpt>
      <trkpt lat="45.36606" lon="1.19725">
        <ele>337.200012</ele>
        <time>2011-05-08T07:46:36Z</time>
      </trkpt>
      <trkpt lat="45.36611" lon="1.19725">
        <ele>337.899994</ele>
        <time>2011-05-08T07:46:37Z</time>
      </trkpt>
      <trkpt lat="45.36616" lon="1.19725">
        <ele>338.5</ele>
        <time>2011-05-08T07:46:38Z</time>
      </trkpt>
      <trkpt lat="45.36621" lon="1.19725">
        <ele>338.5</ele>
        <time>2011-05-08T07:46:39Z</time>
      </trkpt>
      <trkpt lat="45.36625" lon="1.19725">
        <ele>338.600006</ele>
        <time>2011-05-08T07:46:40Z</time>
      </trkpt>
      <trkpt lat="45.3663" lon="1.19726">
        <ele>338.600006</ele>
        <time>2011-05-08T07:46:41Z</time>
      </trkpt>
      <trkpt lat="45.36635" lon="1.19725">
        <ele>338.200012</ele>
        <time>2011-05-08T07:46:42Z</time>
      </trkpt>
      <trkpt lat="45.3664" lon="1.19725">
        <ele>337.799988</ele>
        <time>2011-05-08T07:46:43Z</time>
      </trkpt>
      <trkpt lat="45.36644" lon="1.19726">
        <ele>337.700012</ele>
        <time>2011-05-08T07:46:44Z</time>
      </trkpt>
      <trkpt lat="45.3665" lon="1.19726">
        <ele>337.5</ele>
        <time>2011-05-08T07:46:45Z</time>
      </trkpt>
      <trkpt lat="45.36655" lon="1.19727">
        <ele>337.399994</ele>
        <time>2011-05-08T07:46:46Z</time>
      </trkpt>
      <trkpt lat="45.36661" lon="1.19727">
        <ele>337.5</ele>
        <time>2011-05-08T07:46:47Z</time>
      </trkpt>
      <trkpt lat="45.36667" lon="1.19728">
        <ele>337.600006</ele>
        <time>2011-05-08T07:46:48Z</time>
      </trkpt>
      <trkpt lat="45.36673" lon="1.19728">
        <ele>337.5</ele>
        <time>2011-05-08T07:46:49Z</time>
      </trkpt>
      <trkpt lat="45.3668" lon="1.1973">
        <ele>337.299988</ele>
        <time>2011-05-08T07:46:50Z</time>
      </trkpt>
      <trkpt lat="45.36687" lon="1.1973">
        <ele>336.700012</ele>
        <time>2011-05-08T07:46:51Z</time>
      </trkpt>
      <trkpt lat="45.36695" lon="1.19731">
        <ele>336.200012</ele>
        <time>2011-05-08T07:46:52Z</time>
      </trkpt>
      <trkpt lat="45.36702" lon="1.19732">
        <ele>335.899994</ele>
        <time>2011-05-08T07:46:53Z</time>
      </trkpt>
      <trkpt lat="45.3671" lon="1.19733">
        <ele>335.799988</ele>
        <time>2011-05-08T07:46:54Z</time>
      </trkpt>
      <trkpt lat="45.36718" lon="1.19734">
        <ele>335.700012</ele>
        <time>2011-05-08T07:46:55Z</time>
      </trkpt>
      <trkpt lat="45.36726" lon="1.19735">
        <ele>334.899994</ele>
        <time>2011-05-08T07:46:56Z</time>
      </trkpt>
      <trkpt lat="45.36735" lon="1.19738">
        <ele>334.299988</ele>
        <time>2011-05-08T07:46:57Z</time>
      </trkpt>
      <trkpt lat="45.36743" lon="1.19741">
        <ele>333.799988</ele>
        <time>2011-05-08T07:46:58Z</time>
      </trkpt>
      <trkpt lat="45.36751" lon="1.19746">
        <ele>333.399994</ele>
        <time>2011-05-08T07:46:59Z</time>
      </trkpt>
      <trkpt lat="45.36758" lon="1.19752">
        <ele>333.100006</ele>
        <time>2011-05-08T07:47:00Z</time>
      </trkpt>
      <trkpt lat="45.36765" lon="1.1976">
        <ele>332.5</ele>
        <time>2011-05-08T07:47:01Z</time>
      </trkpt>
      <trkpt lat="45.36772" lon="1.19768">
        <ele>332.100006</ele>
        <time>2011-05-08T07:47:02Z</time>
      </trkpt>
      <trkpt lat="45.36779" lon="1.19776">
        <ele>331.600006</ele>
        <time>2011-05-08T07:47:03Z</time>
      </trkpt>
      <trkpt lat="45.36785" lon="1.19784">
        <ele>331.200012</ele>
        <time>2011-05-08T07:47:04Z</time>
      </trkpt>
      <trkpt lat="45.3679" lon="1.19792">
        <ele>330.899994</ele>
        <time>2011-05-08T07:47:05Z</time>
      </trkpt>
      <trkpt lat="45.36794" lon="1.19798">
        <ele>330</ele>
        <time>2011-05-08T07:47:06Z</time>
      </trkpt>
      <trkpt lat="45.36799" lon="1.19808">
        <ele>328.600006</ele>
        <time>2011-05-08T07:47:08Z</time>
      </trkpt>
      <trkpt lat="45.36792" lon="1.19815">
        <ele>327.600006</ele>
        <time>2011-05-08T07:47:11Z</time>
      </trkpt>
      <trkpt lat="45.3679" lon="1.19816">
        <ele>327.5</ele>
        <time>2011-05-08T07:47:12Z</time>
      </trkpt>
      <trkpt lat="45.36782" lon="1.19826">
        <ele>326.799988</ele>
        <time>2011-05-08T07:47:15Z</time>
      </trkpt>
      <trkpt lat="45.36776" lon="1.19832">
        <ele>326.100006</ele>
        <time>2011-05-08T07:47:17Z</time>
      </trkpt>
      <trkpt lat="45.36769" lon="1.1984">
        <ele>325.899994</ele>
        <time>2011-05-08T07:47:19Z</time>
      </trkpt>
      <trkpt lat="45.36762" lon="1.19845">
        <ele>325.600006</ele>
        <time>2011-05-08T07:47:21Z</time>
      </trkpt>
      <trkpt lat="45.36757" lon="1.19848">
        <ele>325.5</ele>
        <time>2011-05-08T07:47:22Z</time>
      </trkpt>
      <trkpt lat="45.36752" lon="1.19851">
        <ele>325.399994</ele>
        <time>2011-05-08T07:47:23Z</time>
      </trkpt>
      <trkpt lat="45.36747" lon="1.19854">
        <ele>325.299988</ele>
        <time>2011-05-08T07:47:24Z</time>
      </trkpt>
      <trkpt lat="45.36742" lon="1.19856">
        <ele>325.200012</ele>
        <time>2011-05-08T07:47:25Z</time>
      </trkpt>
      <trkpt lat="45.36736" lon="1.19858">
        <ele>325.100006</ele>
        <time>2011-05-08T07:47:26Z</time>
      </trkpt>
      <trkpt lat="45.36732" lon="1.19859">
        <ele>324.600006</ele>
        <time>2011-05-08T07:47:27Z</time>
      </trkpt>
      <trkpt lat="45.36727" lon="1.19862">
        <ele>324.200012</ele>
        <time>2011-05-08T07:47:28Z</time>
      </trkpt>
      <trkpt lat="45.36723" lon="1.19865">
        <ele>324</ele>
        <time>2011-05-08T07:47:29Z</time>
      </trkpt>
      <trkpt lat="45.36718" lon="1.19868">
        <ele>323.899994</ele>
        <time>2011-05-08T07:47:30Z</time>
      </trkpt>
      <trkpt lat="45.36713" lon="1.19873">
        <ele>323.799988</ele>
        <time>2011-05-08T07:47:31Z</time>
      </trkpt>
      <trkpt lat="45.3671" lon="1.19876">
        <ele>323.399994</ele>
        <time>2011-05-08T07:47:32Z</time>
      </trkpt>
      <trkpt lat="45.36706" lon="1.19881">
        <ele>323.100006</ele>
        <time>2011-05-08T07:47:33Z</time>
      </trkpt>
      <trkpt lat="45.36701" lon="1.19885">
        <ele>322.600006</ele>
        <time>2011-05-08T07:47:34Z</time>
      </trkpt>
      <trkpt lat="45.36697" lon="1.1989">
        <ele>322.200012</ele>
        <time>2011-05-08T07:47:35Z</time>
      </trkpt>
      <trkpt lat="45.36693" lon="1.19896">
        <ele>321.700012</ele>
        <time>2011-05-08T07:47:36Z</time>
      </trkpt>
      <trkpt lat="45.36688" lon="1.19903">
        <ele>321.399994</ele>
        <time>2011-05-08T07:47:37Z</time>
      </trkpt>
      <trkpt lat="45.36683" lon="1.19911">
        <ele>321.100006</ele>
        <time>2011-05-08T07:47:38Z</time>
      </trkpt>
      <trkpt lat="45.36678" lon="1.19918">
        <ele>320.899994</ele>
        <time>2011-05-08T07:47:39Z</time>
      </trkpt>
      <trkpt lat="45.36673" lon="1.19925">
        <ele>320.799988</ele>
        <time>2011-05-08T07:47:40Z</time>
      </trkpt>
      <trkpt lat="45.36668" lon="1.19931">
        <ele>320.100006</ele>
        <time>2011-05-08T07:47:41Z</time>
      </trkpt>
      <trkpt lat="45.36662" lon="1.19937">
        <ele>319.700012</ele>
        <time>2011-05-08T07:47:42Z</time>
      </trkpt>
      <trkpt lat="45.36658" lon="1.19942">
        <ele>319.299988</ele>
        <time>2011-05-08T07:47:43Z</time>
      </trkpt>
      <trkpt lat="45.36654" lon="1.1995">
        <ele>319</ele>
        <time>2011-05-08T07:47:44Z</time>
      </trkpt>
      <trkpt lat="45.36649" lon="1.19958">
        <ele>318.700012</ele>
        <time>2011-05-08T07:47:45Z</time>
      </trkpt>
      <trkpt lat="45.36645" lon="1.19966">
        <ele>318.5</ele>
        <time>2011-05-08T07:47:46Z</time>
      </trkpt>
      <trkpt lat="45.36639" lon="1.19974">
        <ele>318.399994</ele>
        <time>2011-05-08T07:47:47Z</time>
      </trkpt>
      <trkpt lat="45.36633" lon="1.19981">
        <ele>318.200012</ele>
        <time>2011-05-08T07:47:48Z</time>
      </trkpt>
      <trkpt lat="45.36628" lon="1.19988">
        <ele>318.100006</ele>
        <time>2011-05-08T07:47:49Z</time>
      </trkpt>
      <trkpt lat="45.36626" lon="1.19996">
        <ele>318</ele>
        <time>2011-05-08T07:47:50Z</time>
      </trkpt>
      <trkpt lat="45.36624" lon="1.20003">
        <ele>318</ele>
        <time>2011-05-08T07:47:51Z</time>
      </trkpt>
      <trkpt lat="45.36622" lon="1.20015">
        <ele>316.899994</ele>
        <time>2011-05-08T07:47:53Z</time>
      </trkpt>
      <trkpt lat="45.36619" lon="1.20022">
        <ele>316.200012</ele>
        <time>2011-05-08T07:47:54Z</time>
      </trkpt>
      <trkpt lat="45.36614" lon="1.20029">
        <ele>316.100006</ele>
        <time>2011-05-08T07:47:55Z</time>
      </trkpt>
      <trkpt lat="45.3661" lon="1.20035">
        <ele>316</ele>
        <time>2011-05-08T07:47:56Z</time>
      </trkpt>
      <trkpt lat="45.36607" lon="1.20042">
        <ele>315.899994</ele>
        <time>2011-05-08T07:47:57Z</time>
      </trkpt>
      <trkpt lat="45.36603" lon="1.20049">
        <ele>315.5</ele>
        <time>2011-05-08T07:47:58Z</time>
      </trkpt>
      <trkpt lat="45.36599" lon="1.20056">
        <ele>315.200012</ele>
        <time>2011-05-08T07:47:59Z</time>
      </trkpt>
      <trkpt lat="45.36597" lon="1.20065">
        <ele>315</ele>
        <time>2011-05-08T07:48:00Z</time>
      </trkpt>
      <trkpt lat="45.36595" lon="1.20074">
        <ele>314.899994</ele>
        <time>2011-05-08T07:48:01Z</time>
      </trkpt>
      <trkpt lat="45.36594" lon="1.20083">
        <ele>314.799988</ele>
        <time>2011-05-08T07:48:02Z</time>
      </trkpt>
      <trkpt lat="45.36592" lon="1.20093">
        <ele>314.100006</ele>
        <time>2011-05-08T07:48:03Z</time>
      </trkpt>
      <trkpt lat="45.36591" lon="1.20102">
        <ele>313.600006</ele>
        <time>2011-05-08T07:48:04Z</time>
      </trkpt>
      <trkpt lat="45.3659" lon="1.20112">
        <ele>313</ele>
        <time>2011-05-08T07:48:05Z</time>
      </trkpt>
      <trkpt lat="45.36588" lon="1.20122">
        <ele>312.600006</ele>
        <time>2011-05-08T07:48:06Z</time>
      </trkpt>
      <trkpt lat="45.36586" lon="1.20133">
        <ele>311.799988</ele>
        <time>2011-05-08T07:48:07Z</time>
      </trkpt>
      <trkpt lat="45.36585" lon="1.20144">
        <ele>311.200012</ele>
        <time>2011-05-08T07:48:08Z</time>
      </trkpt>
      <trkpt lat="45.36584" lon="1.20155">
        <ele>310.700012</ele>
        <time>2011-05-08T07:48:09Z</time>
      </trkpt>
      <trkpt lat="45.36583" lon="1.20166">
        <ele>310.799988</ele>
        <time>2011-05-08T07:48:10Z</time>
      </trkpt>
      <trkpt lat="45.36581" lon="1.20176">
        <ele>310.899994</ele>
        <time>2011-05-08T07:48:11Z</time>
      </trkpt>
      <trkpt lat="45.3658" lon="1.20187">
        <ele>310.100006</ele>
        <time>2011-05-08T07:48:12Z</time>
      </trkpt>
      <trkpt lat="45.36579" lon="1.20196">
        <ele>309.399994</ele>
        <time>2011-05-08T07:48:13Z</time>
      </trkpt>
      <trkpt lat="45.36577" lon="1.20206">
        <ele>308.700012</ele>
        <time>2011-05-08T07:48:14Z</time>
      </trkpt>
      <trkpt lat="45.36577" lon="1.20216">
        <ele>308.100006</ele>
        <time>2011-05-08T07:48:15Z</time>
      </trkpt>
      <trkpt lat="45.36576" lon="1.20226">
        <ele>307.700012</ele>
        <time>2011-05-08T07:48:16Z</time>
      </trkpt>
      <trkpt lat="45.36575" lon="1.20236">
        <ele>307.299988</ele>
        <time>2011-05-08T07:48:17Z</time>
      </trkpt>
      <trkpt lat="45.36573" lon="1.20247">
        <ele>307</ele>
        <time>2011-05-08T07:48:18Z</time>
      </trkpt>
      <trkpt lat="45.36572" lon="1.20258">
        <ele>306.5</ele>
        <time>2011-05-08T07:48:19Z</time>
      </trkpt>
      <trkpt lat="45.3657" lon="1.20269">
        <ele>306.100006</ele>
        <time>2011-05-08T07:48:20Z</time>
      </trkpt>
      <trkpt lat="45.36569" lon="1.20281">
        <ele>305.799988</ele>
        <time>2011-05-08T07:48:21Z</time>
      </trkpt>
      <trkpt lat="45.36567" lon="1.20292">
        <ele>305.299988</ele>
        <time>2011-05-08T07:48:22Z</time>
      </trkpt>
      <trkpt lat="45.36566" lon="1.20303">
        <ele>304.899994</ele>
        <time>2011-05-08T07:48:23Z</time>
      </trkpt>
      <trkpt lat="45.36565" lon="1.20315">
        <ele>304.5</ele>
        <time>2011-05-08T07:48:24Z</time>
      </trkpt>
      <trkpt lat="45.36564" lon="1.20326">
        <ele>304.200012</ele>
        <time>2011-05-08T07:48:25Z</time>
      </trkpt>
      <trkpt lat="45.36563" lon="1.20338">
        <ele>303.600006</ele>
        <time>2011-05-08T07:48:26Z</time>
      </trkpt>
      <trkpt lat="45.36562" lon="1.20349">
        <ele>303.100006</ele>
        <time>2011-05-08T07:48:27Z</time>
      </trkpt>
      <trkpt lat="45.3656" lon="1.20361">
        <ele>302.700012</ele>
        <time>2011-05-08T07:48:28Z</time>
      </trkpt>
      <trkpt lat="45.36559" lon="1.20373">
        <ele>302.200012</ele>
        <time>2011-05-08T07:48:29Z</time>
      </trkpt>
      <trkpt lat="45.36558" lon="1.20385">
        <ele>301.899994</ele>
        <time>2011-05-08T07:48:30Z</time>
      </trkpt>
      <trkpt lat="45.36556" lon="1.20396">
        <ele>301.700012</ele>
        <time>2011-05-08T07:48:31Z</time>
      </trkpt>
      <trkpt lat="45.36555" lon="1.20408">
        <ele>301.5</ele>
        <time>2011-05-08T07:48:32Z</time>
      </trkpt>
      <trkpt lat="45.36553" lon="1.2042">
        <ele>301</ele>
        <time>2011-05-08T07:48:33Z</time>
      </trkpt>
      <trkpt lat="45.36551" lon="1.20432">
        <ele>300.600006</ele>
        <time>2011-05-08T07:48:34Z</time>
      </trkpt>
      <trkpt lat="45.3655" lon="1.20443">
        <ele>300.299988</ele>
        <time>2011-05-08T07:48:35Z</time>
      </trkpt>
      <trkpt lat="45.36549" lon="1.20455">
        <ele>300</ele>
        <time>2011-05-08T07:48:36Z</time>
      </trkpt>
      <trkpt lat="45.36547" lon="1.20465">
        <ele>299.799988</ele>
        <time>2011-05-08T07:48:37Z</time>
      </trkpt>
      <trkpt lat="45.36545" lon="1.20475">
        <ele>299</ele>
        <time>2011-05-08T07:48:38Z</time>
      </trkpt>
      <trkpt lat="45.36541" lon="1.20483">
        <ele>298.299988</ele>
        <time>2011-05-08T07:48:39Z</time>
      </trkpt>
      <trkpt lat="45.36536" lon="1.20489">
        <ele>298.399994</ele>
        <time>2011-05-08T07:48:40Z</time>
      </trkpt>
      <trkpt lat="45.36531" lon="1.20495">
        <ele>298.399994</ele>
        <time>2011-05-08T07:48:41Z</time>
      </trkpt>
      <trkpt lat="45.36526" lon="1.205">
        <ele>298.399994</ele>
        <time>2011-05-08T07:48:42Z</time>
      </trkpt>
      <trkpt lat="45.36521" lon="1.20504">
        <ele>298.700012</ele>
        <time>2011-05-08T07:48:43Z</time>
      </trkpt>
      <trkpt lat="45.36516" lon="1.20509">
        <ele>298.899994</ele>
        <time>2011-05-08T07:48:44Z</time>
      </trkpt>
      <trkpt lat="45.36511" lon="1.20513">
        <ele>298.600006</ele>
        <time>2011-05-08T07:48:45Z</time>
      </trkpt>
      <trkpt lat="45.36508" lon="1.20519">
        <ele>298.399994</ele>
        <time>2011-05-08T07:48:46Z</time>
      </trkpt>
      <trkpt lat="45.36504" lon="1.20525">
        <ele>298.299988</ele>
        <time>2011-05-08T07:48:47Z</time>
      </trkpt>
      <trkpt lat="45.36503" lon="1.20533">
        <ele>298.200012</ele>
        <time>2011-05-08T07:48:48Z</time>
      </trkpt>
      <trkpt lat="45.36502" lon="1.20541">
        <ele>298.100006</ele>
        <time>2011-05-08T07:48:49Z</time>
      </trkpt>
      <trkpt lat="45.36501" lon="1.2055">
        <ele>298</ele>
        <time>2011-05-08T07:48:50Z</time>
      </trkpt>
      <trkpt lat="45.365" lon="1.20558">
        <ele>297.899994</ele>
        <time>2011-05-08T07:48:51Z</time>
      </trkpt>
      <trkpt lat="45.36499" lon="1.20566">
        <ele>297.600006</ele>
        <time>2011-05-08T07:48:52Z</time>
      </trkpt>
      <trkpt lat="45.36498" lon="1.20575">
        <ele>297.5</ele>
        <time>2011-05-08T07:48:53Z</time>
      </trkpt>
      <trkpt lat="45.36497" lon="1.20583">
        <ele>297.299988</ele>
        <time>2011-05-08T07:48:54Z</time>
      </trkpt>
      <trkpt lat="45.36496" lon="1.20592">
        <ele>297</ele>
        <time>2011-05-08T07:48:55Z</time>
      </trkpt>
      <trkpt lat="45.36495" lon="1.206">
        <ele>296.700012</ele>
        <time>2011-05-08T07:48:56Z</time>
      </trkpt>
      <trkpt lat="45.36494" lon="1.20609">
        <ele>296.600006</ele>
        <time>2011-05-08T07:48:57Z</time>
      </trkpt>
      <trkpt lat="45.36493" lon="1.20618">
        <ele>296.5</ele>
        <time>2011-05-08T07:48:58Z</time>
      </trkpt>
      <trkpt lat="45.36492" lon="1.20627">
        <ele>296.399994</ele>
        <time>2011-05-08T07:48:59Z</time>
      </trkpt>
      <trkpt lat="45.36491" lon="1.20636">
        <ele>296.200012</ele>
        <time>2011-05-08T07:49:00Z</time>
      </trkpt>
      <trkpt lat="45.3649" lon="1.20645">
        <ele>296.100006</ele>
        <time>2011-05-08T07:49:01Z</time>
      </trkpt>
      <trkpt lat="45.36489" lon="1.20654">
        <ele>295.600006</ele>
        <time>2011-05-08T07:49:02Z</time>
      </trkpt>
      <trkpt lat="45.36488" lon="1.20663">
        <ele>295.299988</ele>
        <time>2011-05-08T07:49:03Z</time>
      </trkpt>
      <trkpt lat="45.36487" lon="1.20673">
        <ele>295.200012</ele>
        <time>2011-05-08T07:49:04Z</time>
      </trkpt>
      <trkpt lat="45.36485" lon="1.20682">
        <ele>295.100006</ele>
        <time>2011-05-08T07:49:05Z</time>
      </trkpt>
      <trkpt lat="45.36484" lon="1.20692">
        <ele>295.100006</ele>
        <time>2011-05-08T07:49:06Z</time>
      </trkpt>
      <trkpt lat="45.36483" lon="1.20702">
        <ele>294.700012</ele>
        <time>2011-05-08T07:49:07Z</time>
      </trkpt>
      <trkpt lat="45.36482" lon="1.20712">
        <ele>294.399994</ele>
        <time>2011-05-08T07:49:08Z</time>
      </trkpt>
      <trkpt lat="45.3648" lon="1.20722">
        <ele>293.5</ele>
        <time>2011-05-08T07:49:09Z</time>
      </trkpt>
      <trkpt lat="45.36479" lon="1.20733">
        <ele>292.899994</ele>
        <time>2011-05-08T07:49:10Z</time>
      </trkpt>
      <trkpt lat="45.36478" lon="1.20744">
        <ele>292.399994</ele>
        <time>2011-05-08T07:49:11Z</time>
      </trkpt>
      <trkpt lat="45.36476" lon="1.20754">
        <ele>292.100006</ele>
        <time>2011-05-08T07:49:12Z</time>
      </trkpt>
      <trkpt lat="45.36474" lon="1.20765">
        <ele>291.899994</ele>
        <time>2011-05-08T07:49:13Z</time>
      </trkpt>
      <trkpt lat="45.36471" lon="1.20776">
        <ele>291.799988</ele>
        <time>2011-05-08T07:49:14Z</time>
      </trkpt>
      <trkpt lat="45.36469" lon="1.20786">
        <ele>291.799988</ele>
        <time>2011-05-08T07:49:15Z</time>
      </trkpt>
      <trkpt lat="45.36466" lon="1.20795">
        <ele>291.100006</ele>
        <time>2011-05-08T07:49:16Z</time>
      </trkpt>
      <trkpt lat="45.36464" lon="1.20804">
        <ele>290.600006</ele>
        <time>2011-05-08T07:49:17Z</time>
      </trkpt>
      <trkpt lat="45.36463" lon="1.20814">
        <ele>290.200012</ele>
        <time>2011-05-08T07:49:18Z</time>
      </trkpt>
      <trkpt lat="45.36463" lon="1.20825">
        <ele>289.399994</ele>
        <time>2011-05-08T07:49:19Z</time>
      </trkpt>
      <trkpt lat="45.36462" lon="1.20836">
        <ele>288.799988</ele>
        <time>2011-05-08T07:49:20Z</time>
      </trkpt>
      <trkpt lat="45.36462" lon="1.20846">
        <ele>287.899994</ele>
        <time>2011-05-08T07:49:21Z</time>
      </trkpt>
      <trkpt lat="45.36463" lon="1.20855">
        <ele>287.299988</ele>
        <time>2011-05-08T07:49:22Z</time>
      </trkpt>
      <trkpt lat="45.36466" lon="1.20866">
        <ele>286.299988</ele>
        <time>2011-05-08T07:49:23Z</time>
      </trkpt>
      <trkpt lat="45.36467" lon="1.20876">
        <ele>285.600006</ele>
        <time>2011-05-08T07:49:24Z</time>
      </trkpt>
      <trkpt lat="45.36468" lon="1.20887">
        <ele>285.100006</ele>
        <time>2011-05-08T07:49:25Z</time>
      </trkpt>
      <trkpt lat="45.36469" lon="1.20899">
        <ele>283.799988</ele>
        <time>2011-05-08T07:49:26Z</time>
      </trkpt>
      <trkpt lat="45.36469" lon="1.2091">
        <ele>282.799988</ele>
        <time>2011-05-08T07:49:27Z</time>
      </trkpt>
      <trkpt lat="45.3647" lon="1.20921">
        <ele>282.200012</ele>
        <time>2011-05-08T07:49:28Z</time>
      </trkpt>
      <trkpt lat="45.36473" lon="1.20934">
        <ele>281.799988</ele>
        <time>2011-05-08T07:49:29Z</time>
      </trkpt>
      <trkpt lat="45.36475" lon="1.20945">
        <ele>280.899994</ele>
        <time>2011-05-08T07:49:30Z</time>
      </trkpt>
      <trkpt lat="45.36475" lon="1.20956">
        <ele>280.299988</ele>
        <time>2011-05-08T07:49:31Z</time>
      </trkpt>
      <trkpt lat="45.36477" lon="1.20969">
        <ele>279.799988</ele>
        <time>2011-05-08T07:49:32Z</time>
      </trkpt>
      <trkpt lat="45.36478" lon="1.20981">
        <ele>279.100006</ele>
        <time>2011-05-08T07:49:33Z</time>
      </trkpt>
      <trkpt lat="45.3648" lon="1.20993">
        <ele>278.600006</ele>
        <time>2011-05-08T07:49:34Z</time>
      </trkpt>
      <trkpt lat="45.36481" lon="1.21004">
        <ele>278.200012</ele>
        <time>2011-05-08T07:49:35Z</time>
      </trkpt>
      <trkpt lat="45.36483" lon="1.21015">
        <ele>277.799988</ele>
        <time>2011-05-08T07:49:36Z</time>
      </trkpt>
      <trkpt lat="45.36485" lon="1.21026">
        <ele>277.200012</ele>
        <time>2011-05-08T07:49:37Z</time>
      </trkpt>
      <trkpt lat="45.36487" lon="1.21037">
        <ele>276.700012</ele>
        <time>2011-05-08T07:49:38Z</time>
      </trkpt>
      <trkpt lat="45.36489" lon="1.21048">
        <ele>276.399994</ele>
        <time>2011-05-08T07:49:39Z</time>
      </trkpt>
      <trkpt lat="45.36491" lon="1.21057">
        <ele>276.600006</ele>
        <time>2011-05-08T07:49:40Z</time>
      </trkpt>
      <trkpt lat="45.36493" lon="1.21067">
        <ele>276.700012</ele>
        <time>2011-05-08T07:49:41Z</time>
      </trkpt>
      <trkpt lat="45.36494" lon="1.21077">
        <ele>276.100006</ele>
        <time>2011-05-08T07:49:42Z</time>
      </trkpt>
      <trkpt lat="45.36495" lon="1.21088">
        <ele>275.700012</ele>
        <time>2011-05-08T07:49:43Z</time>
      </trkpt>
      <trkpt lat="45.36495" lon="1.21098">
        <ele>275.399994</ele>
        <time>2011-05-08T07:49:44Z</time>
      </trkpt>
      <trkpt lat="45.36496" lon="1.21107">
        <ele>274.899994</ele>
        <time>2011-05-08T07:49:45Z</time>
      </trkpt>
      <trkpt lat="45.36496" lon="1.21117">
        <ele>274.5</ele>
        <time>2011-05-08T07:49:46Z</time>
      </trkpt>
      <trkpt lat="45.36497" lon="1.21128">
        <ele>273.799988</ele>
        <time>2011-05-08T07:49:47Z</time>
      </trkpt>
      <trkpt lat="45.36497" lon="1.2114">
        <ele>273.299988</ele>
        <time>2011-05-08T07:49:48Z</time>
      </trkpt>
      <trkpt lat="45.36497" lon="1.21151">
        <ele>272.399994</ele>
        <time>2011-05-08T07:49:49Z</time>
      </trkpt>
      <trkpt lat="45.36496" lon="1.2116">
        <ele>271.700012</ele>
        <time>2011-05-08T07:49:50Z</time>
      </trkpt>
      <trkpt lat="45.36494" lon="1.21169">
        <ele>271.200012</ele>
        <time>2011-05-08T07:49:51Z</time>
      </trkpt>
      <trkpt lat="45.36492" lon="1.21178">
        <ele>270.799988</ele>
        <time>2011-05-08T07:49:52Z</time>
      </trkpt>
      <trkpt lat="45.3649" lon="1.21185">
        <ele>270.399994</ele>
        <time>2011-05-08T07:49:53Z</time>
      </trkpt>
      <trkpt lat="45.36487" lon="1.21191">
        <ele>269.399994</ele>
        <time>2011-05-08T07:49:54Z</time>
      </trkpt>
      <trkpt lat="45.36482" lon="1.21198">
        <ele>268.600006</ele>
        <time>2011-05-08T07:49:55Z</time>
      </trkpt>
      <trkpt lat="45.36479" lon="1.21205">
        <ele>267.399994</ele>
        <time>2011-05-08T07:49:56Z</time>
      </trkpt>
      <trkpt lat="45.36478" lon="1.21213">
        <ele>266.5</ele>
        <time>2011-05-08T07:49:57Z</time>
      </trkpt>
      <trkpt lat="45.36479" lon="1.21221">
        <ele>265.799988</ele>
        <time>2011-05-08T07:49:58Z</time>
      </trkpt>
      <trkpt lat="45.36481" lon="1.21229">
        <ele>265.299988</ele>
        <time>2011-05-08T07:49:59Z</time>
      </trkpt>
      <trkpt lat="45.36484" lon="1.21239">
        <ele>264.899994</ele>
        <time>2011-05-08T07:50:00Z</time>
      </trkpt>
      <trkpt lat="45.36487" lon="1.21249">
        <ele>264</ele>
        <time>2011-05-08T07:50:01Z</time>
      </trkpt>
      <trkpt lat="45.36489" lon="1.21259">
        <ele>263.299988</ele>
        <time>2011-05-08T07:50:02Z</time>
      </trkpt>
      <trkpt lat="45.36493" lon="1.21269">
        <ele>262.799988</ele>
        <time>2011-05-08T07:50:03Z</time>
      </trkpt>
      <trkpt lat="45.36497" lon="1.21278">
        <ele>261.600006</ele>
        <time>2011-05-08T07:50:04Z</time>
      </trkpt>
      <trkpt lat="45.36501" lon="1.21287">
        <ele>260.700012</ele>
        <time>2011-05-08T07:50:05Z</time>
      </trkpt>
      <trkpt lat="45.36504" lon="1.21295">
        <ele>260.200012</ele>
        <time>2011-05-08T07:50:06Z</time>
      </trkpt>
      <trkpt lat="45.36506" lon="1.21303">
        <ele>259.899994</ele>
        <time>2011-05-08T07:50:07Z</time>
      </trkpt>
      <trkpt lat="45.36505" lon="1.21311">
        <ele>259.799988</ele>
        <time>2011-05-08T07:50:08Z</time>
      </trkpt>
      <trkpt lat="45.36503" lon="1.21323">
        <ele>259.100006</ele>
        <time>2011-05-08T07:50:11Z</time>
      </trkpt>
      <trkpt lat="45.36502" lon="1.21332">
        <ele>258.799988</ele>
        <time>2011-05-08T07:50:13Z</time>
      </trkpt>
      <trkpt lat="45.365" lon="1.21338">
        <ele>258.799988</ele>
        <time>2011-05-08T07:50:14Z</time>
      </trkpt>
      <trkpt lat="45.36499" lon="1.21346">
        <ele>258.399994</ele>
        <time>2011-05-08T07:50:15Z</time>
      </trkpt>
      <trkpt lat="45.36498" lon="1.21353">
        <ele>258.100006</ele>
        <time>2011-05-08T07:50:16Z</time>
      </trkpt>
      <trkpt lat="45.36496" lon="1.21361">
        <ele>257.899994</ele>
        <time>2011-05-08T07:50:17Z</time>
      </trkpt>
      <trkpt lat="45.36494" lon="1.21369">
        <ele>257.600006</ele>
        <time>2011-05-08T07:50:18Z</time>
      </trkpt>
      <trkpt lat="45.36492" lon="1.21377">
        <ele>257.399994</ele>
        <time>2011-05-08T07:50:19Z</time>
      </trkpt>
      <trkpt lat="45.36489" lon="1.21385">
        <ele>257.100006</ele>
        <time>2011-05-08T07:50:20Z</time>
      </trkpt>
      <trkpt lat="45.36486" lon="1.21393">
        <ele>256.899994</ele>
        <time>2011-05-08T07:50:21Z</time>
      </trkpt>
      <trkpt lat="45.36483" lon="1.21401">
        <ele>256.700012</ele>
        <time>2011-05-08T07:50:22Z</time>
      </trkpt>
      <trkpt lat="45.36479" lon="1.21408">
        <ele>255.600006</ele>
        <time>2011-05-08T07:50:23Z</time>
      </trkpt>
      <trkpt lat="45.36475" lon="1.21414">
        <ele>254.699997</ele>
        <time>2011-05-08T07:50:24Z</time>
      </trkpt>
      <trkpt lat="45.36472" lon="1.21421">
        <ele>254.300003</ele>
        <time>2011-05-08T07:50:25Z</time>
      </trkpt>
      <trkpt lat="45.3647" lon="1.2143">
        <ele>253.899994</ele>
        <time>2011-05-08T07:50:26Z</time>
      </trkpt>
      <trkpt lat="45.36471" lon="1.21439">
        <ele>253.100006</ele>
        <time>2011-05-08T07:50:27Z</time>
      </trkpt>
      <trkpt lat="45.36473" lon="1.21448">
        <ele>252.399994</ele>
        <time>2011-05-08T07:50:28Z</time>
      </trkpt>
      <trkpt lat="45.36475" lon="1.21455">
        <ele>252</ele>
        <time>2011-05-08T07:50:29Z</time>
      </trkpt>
      <trkpt lat="45.36478" lon="1.21461">
        <ele>251.100006</ele>
        <time>2011-05-08T07:50:30Z</time>
      </trkpt>
      <trkpt lat="45.36483" lon="1.21465">
        <ele>250.399994</ele>
        <time>2011-05-08T07:50:31Z</time>
      </trkpt>
      <trkpt lat="45.36489" lon="1.21468">
        <ele>249.300003</ele>
        <time>2011-05-08T07:50:32Z</time>
      </trkpt>
      <trkpt lat="45.36494" lon="1.21471">
        <ele>248.5</ele>
        <time>2011-05-08T07:50:33Z</time>
      </trkpt>
      <trkpt lat="45.36503" lon="1.21474">
        <ele>247.199997</ele>
        <time>2011-05-08T07:50:35Z</time>
      </trkpt>
      <trkpt lat="45.36505" lon="1.21485">
        <ele>244.5</ele>
        <time>2011-05-08T07:50:39Z</time>
      </trkpt>
      <trkpt lat="45.36498" lon="1.21491">
        <ele>243.399994</ele>
        <time>2011-05-08T07:50:42Z</time>
      </trkpt>
      <trkpt lat="45.36495" lon="1.21503">
        <ele>240.699997</ele>
        <time>2011-05-08T07:50:55Z</time>
      </trkpt>
      <trkpt lat="45.36492" lon="1.21513">
        <ele>241.399994</ele>
        <time>2011-05-08T07:51:13Z</time>
      </trkpt>
      <trkpt lat="45.36485" lon="1.21517">
        <ele>241.100006</ele>
        <time>2011-05-08T07:51:17Z</time>
      </trkpt>
      <trkpt lat="45.36483" lon="1.21517">
        <ele>240.899994</ele>
        <time>2011-05-08T07:51:18Z</time>
      </trkpt>
      <trkpt lat="45.36478" lon="1.2153">
        <ele>238.300003</ele>
        <time>2011-05-08T07:51:28Z</time>
      </trkpt>
      <trkpt lat="45.36484" lon="1.21531">
        <ele>237.899994</ele>
        <time>2011-05-08T07:51:30Z</time>
      </trkpt>
      <trkpt lat="45.36492" lon="1.21533">
        <ele>236.399994</ele>
        <time>2011-05-08T07:51:33Z</time>
      </trkpt>
      <trkpt lat="45.36498" lon="1.21535">
        <ele>236.399994</ele>
        <time>2011-05-08T07:51:35Z</time>
      </trkpt>
      <trkpt lat="45.36506" lon="1.21542">
        <ele>235.5</ele>
        <time>2011-05-08T07:51:46Z</time>
      </trkpt>
      <trkpt lat="45.36501" lon="1.2155">
        <ele>234.699997</ele>
        <time>2011-05-08T07:52:07Z</time>
      </trkpt>
      <trkpt lat="45.36495" lon="1.21559">
        <ele>233.100006</ele>
        <time>2011-05-08T07:52:10Z</time>
      </trkpt>
      <trkpt lat="45.36494" lon="1.21569">
        <ele>232.800003</ele>
        <time>2011-05-08T07:52:13Z</time>
      </trkpt>
      <trkpt lat="45.36495" lon="1.21578">
        <ele>233.399994</ele>
        <time>2011-05-08T07:52:16Z</time>
      </trkpt>
      <trkpt lat="45.36496" lon="1.21589">
        <ele>233.300003</ele>
        <time>2011-05-08T07:52:19Z</time>
      </trkpt>
      <trkpt lat="45.36496" lon="1.21592">
        <ele>233</ele>
        <time>2011-05-08T07:52:20Z</time>
      </trkpt>
      <trkpt lat="45.36488" lon="1.21604">
        <ele>232.5</ele>
        <time>2011-05-08T07:52:26Z</time>
      </trkpt>
      <trkpt lat="45.36482" lon="1.21605">
        <ele>232.399994</ele>
        <time>2011-05-08T07:52:28Z</time>
      </trkpt>
      <trkpt lat="45.36475" lon="1.21607">
        <ele>232.5</ele>
        <time>2011-05-08T07:52:30Z</time>
      </trkpt>
      <trkpt lat="45.36468" lon="1.2161">
        <ele>232.699997</ele>
        <time>2011-05-08T07:52:33Z</time>
      </trkpt>
      <trkpt lat="45.36461" lon="1.21608">
        <ele>232.300003</ele>
        <time>2011-05-08T07:52:36Z</time>
      </trkpt>
      <trkpt lat="45.36453" lon="1.21605">
        <ele>232</ele>
        <time>2011-05-08T07:52:39Z</time>
      </trkpt>
      <trkpt lat="45.36444" lon="1.216">
        <ele>232.399994</ele>
        <time>2011-05-08T07:52:42Z</time>
      </trkpt>
      <trkpt lat="45.36438" lon="1.21596">
        <ele>232.600006</ele>
        <time>2011-05-08T07:52:44Z</time>
      </trkpt>
      <trkpt lat="45.36429" lon="1.21593">
        <ele>233.399994</ele>
        <time>2011-05-08T07:52:48Z</time>
      </trkpt>
      <trkpt lat="45.36421" lon="1.21591">
        <ele>235.399994</ele>
        <time>2011-05-08T07:52:53Z</time>
      </trkpt>
      <trkpt lat="45.36413" lon="1.21587">
        <ele>237</ele>
        <time>2011-05-08T07:53:05Z</time>
      </trkpt>
      <trkpt lat="45.3641" lon="1.21575">
        <ele>239.800003</ele>
        <time>2011-05-08T07:53:19Z</time>
      </trkpt>
      <trkpt lat="45.36405" lon="1.21566">
        <ele>238.5</ele>
        <time>2011-05-08T07:53:25Z</time>
      </trkpt>
      <trkpt lat="45.36404" lon="1.21565">
        <ele>238.399994</ele>
        <time>2011-05-08T07:53:26Z</time>
      </trkpt>
      <trkpt lat="45.36394" lon="1.2155">
        <ele>238.800003</ele>
        <time>2011-05-08T07:53:34Z</time>
      </trkpt>
      <trkpt lat="45.36388" lon="1.21544">
        <ele>238.300003</ele>
        <time>2011-05-08T07:53:38Z</time>
      </trkpt>
      <trkpt lat="45.36381" lon="1.2154">
        <ele>238.199997</ele>
        <time>2011-05-08T07:53:43Z</time>
      </trkpt>
      <trkpt lat="45.36375" lon="1.21532">
        <ele>238.5</ele>
        <time>2011-05-08T07:53:47Z</time>
      </trkpt>
      <trkpt lat="45.3637" lon="1.21524">
        <ele>237.199997</ele>
        <time>2011-05-08T07:53:49Z</time>
      </trkpt>
      <trkpt lat="45.36365" lon="1.21518">
        <ele>235.5</ele>
        <time>2011-05-08T07:53:51Z</time>
      </trkpt>
      <trkpt lat="45.36357" lon="1.21518">
        <ele>234.5</ele>
        <time>2011-05-08T07:53:53Z</time>
      </trkpt>
      <trkpt lat="45.36348" lon="1.21519">
        <ele>233.699997</ele>
        <time>2011-05-08T07:53:58Z</time>
      </trkpt>
      <trkpt lat="45.36341" lon="1.21523">
        <ele>234.300003</ele>
        <time>2011-05-08T07:54:03Z</time>
      </trkpt>
      <trkpt lat="45.36333" lon="1.21525">
        <ele>235.699997</ele>
        <time>2011-05-08T07:54:08Z</time>
      </trkpt>
      <trkpt lat="45.36326" lon="1.2153">
        <ele>236.399994</ele>
        <time>2011-05-08T07:54:13Z</time>
      </trkpt>
      <trkpt lat="45.36319" lon="1.21535">
        <ele>237.300003</ele>
        <time>2011-05-08T07:54:17Z</time>
      </trkpt>
      <trkpt lat="45.36314" lon="1.21544">
        <ele>237.899994</ele>
        <time>2011-05-08T07:54:22Z</time>
      </trkpt>
      <trkpt lat="45.36309" lon="1.21552">
        <ele>239.100006</ele>
        <time>2011-05-08T07:54:26Z</time>
      </trkpt>
      <trkpt lat="45.36307" lon="1.21554">
        <ele>239.600006</ele>
        <time>2011-05-08T07:54:27Z</time>
      </trkpt>
      <trkpt lat="45.36295" lon="1.21564">
        <ele>240.800003</ele>
        <time>2011-05-08T07:54:34Z</time>
      </trkpt>
      <trkpt lat="45.36289" lon="1.21571">
        <ele>241.199997</ele>
        <time>2011-05-08T07:54:38Z</time>
      </trkpt>
      <trkpt lat="45.36282" lon="1.21579">
        <ele>241.600006</ele>
        <time>2011-05-08T07:54:42Z</time>
      </trkpt>
      <trkpt lat="45.36276" lon="1.21586">
        <ele>241.699997</ele>
        <time>2011-05-08T07:54:45Z</time>
      </trkpt>
      <trkpt lat="45.3627" lon="1.21593">
        <ele>242.699997</ele>
        <time>2011-05-08T07:54:48Z</time>
      </trkpt>
      <trkpt lat="45.36266" lon="1.216">
        <ele>243.5</ele>
        <time>2011-05-08T07:54:51Z</time>
      </trkpt>
      <trkpt lat="45.36261" lon="1.21608">
        <ele>243.899994</ele>
        <time>2011-05-08T07:54:54Z</time>
      </trkpt>
      <trkpt lat="45.36256" lon="1.21616">
        <ele>245.5</ele>
        <time>2011-05-08T07:54:58Z</time>
      </trkpt>
      <trkpt lat="45.3625" lon="1.21624">
        <ele>246.100006</ele>
        <time>2011-05-08T07:55:02Z</time>
      </trkpt>
      <trkpt lat="45.36245" lon="1.21632">
        <ele>247.699997</ele>
        <time>2011-05-08T07:55:06Z</time>
      </trkpt>
      <trkpt lat="45.3624" lon="1.21641">
        <ele>248.600006</ele>
        <time>2011-05-08T07:55:10Z</time>
      </trkpt>
      <trkpt lat="45.36237" lon="1.21651">
        <ele>249.100006</ele>
        <time>2011-05-08T07:55:14Z</time>
      </trkpt>
      <trkpt lat="45.36238" lon="1.21663">
        <ele>250.199997</ele>
        <time>2011-05-08T07:55:19Z</time>
      </trkpt>
      <trkpt lat="45.36244" lon="1.21672">
        <ele>251.800003</ele>
        <time>2011-05-08T07:55:25Z</time>
      </trkpt>
      <trkpt lat="45.36251" lon="1.2167">
        <ele>252.699997</ele>
        <time>2011-05-08T07:55:31Z</time>
      </trkpt>
      <trkpt lat="45.36253" lon="1.21669">
        <ele>253.199997</ele>
        <time>2011-05-08T07:55:32Z</time>
      </trkpt>
      <trkpt lat="45.36266" lon="1.21664">
        <ele>256</ele>
        <time>2011-05-08T07:55:42Z</time>
      </trkpt>
      <trkpt lat="45.36274" lon="1.21663">
        <ele>257.399994</ele>
        <time>2011-05-08T07:55:47Z</time>
      </trkpt>
      <trkpt lat="45.36282" lon="1.21662">
        <ele>257.5</ele>
        <time>2011-05-08T07:55:52Z</time>
      </trkpt>
      <trkpt lat="45.36291" lon="1.2166">
        <ele>258.600006</ele>
        <time>2011-05-08T07:55:57Z</time>
      </trkpt>
      <trkpt lat="45.36299" lon="1.21658">
        <ele>258.5</ele>
        <time>2011-05-08T07:56:02Z</time>
      </trkpt>
      <trkpt lat="45.36306" lon="1.21658">
        <ele>260.200012</ele>
        <time>2011-05-08T07:56:06Z</time>
      </trkpt>
      <trkpt lat="45.36314" lon="1.21662">
        <ele>261.399994</ele>
        <time>2011-05-08T07:56:11Z</time>
      </trkpt>
      <trkpt lat="45.36319" lon="1.21673">
        <ele>262.299988</ele>
        <time>2011-05-08T07:56:16Z</time>
      </trkpt>
      <trkpt lat="45.36321" lon="1.21682">
        <ele>263.100006</ele>
        <time>2011-05-08T07:56:20Z</time>
      </trkpt>
      <trkpt lat="45.36324" lon="1.21692">
        <ele>264.600006</ele>
        <time>2011-05-08T07:56:24Z</time>
      </trkpt>
      <trkpt lat="45.36327" lon="1.21702">
        <ele>265.700012</ele>
        <time>2011-05-08T07:56:28Z</time>
      </trkpt>
      <trkpt lat="45.3633" lon="1.21712">
        <ele>266.299988</ele>
        <time>2011-05-08T07:56:32Z</time>
      </trkpt>
      <trkpt lat="45.3633" lon="1.21715">
        <ele>266.600006</ele>
        <time>2011-05-08T07:56:33Z</time>
      </trkpt>
      <trkpt lat="45.36337" lon="1.21731">
        <ele>267.799988</ele>
        <time>2011-05-08T07:56:40Z</time>
      </trkpt>
      <trkpt lat="45.3634" lon="1.21741">
        <ele>267.399994</ele>
        <time>2011-05-08T07:56:44Z</time>
      </trkpt>
      <trkpt lat="45.36343" lon="1.21751">
        <ele>269.5</ele>
        <time>2011-05-08T07:56:48Z</time>
      </trkpt>
      <trkpt lat="45.3635" lon="1.21756">
        <ele>271.200012</ele>
        <time>2011-05-08T07:56:53Z</time>
      </trkpt>
      <trkpt lat="45.36354" lon="1.21766">
        <ele>272.200012</ele>
        <time>2011-05-08T07:56:57Z</time>
      </trkpt>
      <trkpt lat="45.36358" lon="1.21774">
        <ele>273.399994</ele>
        <time>2011-05-08T07:57:01Z</time>
      </trkpt>
      <trkpt lat="45.36363" lon="1.21783">
        <ele>274.399994</ele>
        <time>2011-05-08T07:57:05Z</time>
      </trkpt>
      <trkpt lat="45.36369" lon="1.21792">
        <ele>275.700012</ele>
        <time>2011-05-08T07:57:10Z</time>
      </trkpt>
      <trkpt lat="45.36374" lon="1.218">
        <ele>275.600006</ele>
        <time>2011-05-08T07:57:14Z</time>
      </trkpt>
      <trkpt lat="45.36378" lon="1.21808">
        <ele>277.100006</ele>
        <time>2011-05-08T07:57:18Z</time>
      </trkpt>
      <trkpt lat="45.36382" lon="1.21816">
        <ele>277.799988</ele>
        <time>2011-05-08T07:57:22Z</time>
      </trkpt>
      <trkpt lat="45.36387" lon="1.21827">
        <ele>279.399994</ele>
        <time>2011-05-08T07:57:27Z</time>
      </trkpt>
      <trkpt lat="45.3639" lon="1.21837">
        <ele>279.100006</ele>
        <time>2011-05-08T07:57:31Z</time>
      </trkpt>
      <trkpt lat="45.36393" lon="1.21847">
        <ele>279.799988</ele>
        <time>2011-05-08T07:57:35Z</time>
      </trkpt>
      <trkpt lat="45.36393" lon="1.2185">
        <ele>279.799988</ele>
        <time>2011-05-08T07:57:36Z</time>
      </trkpt>
      <trkpt lat="45.36406" lon="1.21858">
        <ele>281.700012</ele>
        <time>2011-05-08T07:57:42Z</time>
      </trkpt>
      <trkpt lat="45.36413" lon="1.21861">
        <ele>281.5</ele>
        <time>2011-05-08T07:57:44Z</time>
      </trkpt>
      <trkpt lat="45.36421" lon="1.21863">
        <ele>280.799988</ele>
        <time>2011-05-08T07:57:46Z</time>
      </trkpt>
      <trkpt lat="45.3643" lon="1.21866">
        <ele>280</ele>
        <time>2011-05-08T07:57:48Z</time>
      </trkpt>
      <trkpt lat="45.36434" lon="1.21868">
        <ele>280.299988</ele>
        <time>2011-05-08T07:57:49Z</time>
      </trkpt>
      <trkpt lat="45.36443" lon="1.2187">
        <ele>280.600006</ele>
        <time>2011-05-08T07:57:51Z</time>
      </trkpt>
      <trkpt lat="45.36452" lon="1.21872">
        <ele>280.5</ele>
        <time>2011-05-08T07:57:53Z</time>
      </trkpt>
      <trkpt lat="45.3646" lon="1.21872">
        <ele>280.399994</ele>
        <time>2011-05-08T07:57:55Z</time>
      </trkpt>
      <trkpt lat="45.36467" lon="1.21873">
        <ele>280.200012</ele>
        <time>2011-05-08T07:57:57Z</time>
      </trkpt>
      <trkpt lat="45.36473" lon="1.21871">
        <ele>280.600006</ele>
        <time>2011-05-08T07:57:59Z</time>
      </trkpt>
      <trkpt lat="45.36479" lon="1.21872">
        <ele>280.600006</ele>
        <time>2011-05-08T07:58:01Z</time>
      </trkpt>
      <trkpt lat="45.36487" lon="1.21875">
        <ele>280.700012</ele>
        <time>2011-05-08T07:58:04Z</time>
      </trkpt>
      <trkpt lat="45.36494" lon="1.21877">
        <ele>281.899994</ele>
        <time>2011-05-08T07:58:07Z</time>
      </trkpt>
      <trkpt lat="45.36503" lon="1.21879">
        <ele>282.600006</ele>
        <time>2011-05-08T07:58:11Z</time>
      </trkpt>
      <trkpt lat="45.36511" lon="1.21882">
        <ele>283.899994</ele>
        <time>2011-05-08T07:58:15Z</time>
      </trkpt>
      <trkpt lat="45.36519" lon="1.21884">
        <ele>285</ele>
        <time>2011-05-08T07:58:19Z</time>
      </trkpt>
      <trkpt lat="45.36526" lon="1.21887">
        <ele>285.899994</ele>
        <time>2011-05-08T07:58:23Z</time>
      </trkpt>
      <trkpt lat="45.36533" lon="1.21893">
        <ele>287</ele>
        <time>2011-05-08T07:58:27Z</time>
      </trkpt>
      <trkpt lat="45.36537" lon="1.21903">
        <ele>288</ele>
        <time>2011-05-08T07:58:31Z</time>
      </trkpt>
      <trkpt lat="45.36539" lon="1.21914">
        <ele>289.600006</ele>
        <time>2011-05-08T07:58:35Z</time>
      </trkpt>
      <trkpt lat="45.36544" lon="1.21922">
        <ele>290.200012</ele>
        <time>2011-05-08T07:58:39Z</time>
      </trkpt>
      <trkpt lat="45.36545" lon="1.21925">
        <ele>290.399994</ele>
        <time>2011-05-08T07:58:40Z</time>
      </trkpt>
      <trkpt lat="45.36551" lon="1.21942">
        <ele>291.5</ele>
        <time>2011-05-08T07:58:47Z</time>
      </trkpt>
      <trkpt lat="45.36555" lon="1.21951">
        <ele>292.799988</ele>
        <time>2011-05-08T07:58:51Z</time>
      </trkpt>
      <trkpt lat="45.36559" lon="1.2196">
        <ele>293.899994</ele>
        <time>2011-05-08T07:58:55Z</time>
      </trkpt>
      <trkpt lat="45.36563" lon="1.2197">
        <ele>294.5</ele>
        <time>2011-05-08T07:58:59Z</time>
      </trkpt>
      <trkpt lat="45.36566" lon="1.2198">
        <ele>294.700012</ele>
        <time>2011-05-08T07:59:03Z</time>
      </trkpt>
      <trkpt lat="45.36569" lon="1.21991">
        <ele>294.5</ele>
        <time>2011-05-08T07:59:07Z</time>
      </trkpt>
      <trkpt lat="45.36572" lon="1.22001">
        <ele>295.700012</ele>
        <time>2011-05-08T07:59:11Z</time>
      </trkpt>
      <trkpt lat="45.36577" lon="1.2201">
        <ele>295.5</ele>
        <time>2011-05-08T07:59:16Z</time>
      </trkpt>
      <trkpt lat="45.36586" lon="1.2201">
        <ele>295.700012</ele>
        <time>2011-05-08T07:59:20Z</time>
      </trkpt>
      <trkpt lat="45.36594" lon="1.22007">
        <ele>294.700012</ele>
        <time>2011-05-08T07:59:23Z</time>
      </trkpt>
      <trkpt lat="45.36601" lon="1.22005">
        <ele>294.799988</ele>
        <time>2011-05-08T07:59:25Z</time>
      </trkpt>
      <trkpt lat="45.36609" lon="1.22003">
        <ele>295.399994</ele>
        <time>2011-05-08T07:59:27Z</time>
      </trkpt>
      <trkpt lat="45.36613" lon="1.22">
        <ele>295.100006</ele>
        <time>2011-05-08T07:59:28Z</time>
      </trkpt>
      <trkpt lat="45.36618" lon="1.21999">
        <ele>295</ele>
        <time>2011-05-08T07:59:29Z</time>
      </trkpt>
      <trkpt lat="45.36623" lon="1.21998">
        <ele>294.899994</ele>
        <time>2011-05-08T07:59:30Z</time>
      </trkpt>
      <trkpt lat="45.36628" lon="1.21996">
        <ele>294.700012</ele>
        <time>2011-05-08T07:59:31Z</time>
      </trkpt>
      <trkpt lat="45.36633" lon="1.21994">
        <ele>294.600006</ele>
        <time>2011-05-08T07:59:32Z</time>
      </trkpt>
      <trkpt lat="45.36639" lon="1.21993">
        <ele>294.399994</ele>
        <time>2011-05-08T07:59:33Z</time>
      </trkpt>
      <trkpt lat="45.36645" lon="1.21992">
        <ele>294.299988</ele>
        <time>2011-05-08T07:59:34Z</time>
      </trkpt>
      <trkpt lat="45.3665" lon="1.21992">
        <ele>294.100006</ele>
        <time>2011-05-08T07:59:35Z</time>
      </trkpt>
      <trkpt lat="45.36656" lon="1.21994">
        <ele>293.899994</ele>
        <time>2011-05-08T07:59:36Z</time>
      </trkpt>
      <trkpt lat="45.36662" lon="1.21997">
        <ele>293.799988</ele>
        <time>2011-05-08T07:59:37Z</time>
      </trkpt>
      <trkpt lat="45.36667" lon="1.22002">
        <ele>293.399994</ele>
        <time>2011-05-08T07:59:38Z</time>
      </trkpt>
      <trkpt lat="45.36673" lon="1.22006">
        <ele>293.200012</ele>
        <time>2011-05-08T07:59:39Z</time>
      </trkpt>
      <trkpt lat="45.36679" lon="1.22011">
        <ele>292.799988</ele>
        <time>2011-05-08T07:59:40Z</time>
      </trkpt>
      <trkpt lat="45.36684" lon="1.22017">
        <ele>292.5</ele>
        <time>2011-05-08T07:59:41Z</time>
      </trkpt>
      <trkpt lat="45.3669" lon="1.22022">
        <ele>292.200012</ele>
        <time>2011-05-08T07:59:42Z</time>
      </trkpt>
      <trkpt lat="45.36697" lon="1.22027">
        <ele>291.700012</ele>
        <time>2011-05-08T07:59:43Z</time>
      </trkpt>
      <trkpt lat="45.36703" lon="1.22033">
        <ele>291.299988</ele>
        <time>2011-05-08T07:59:44Z</time>
      </trkpt>
      <trkpt lat="45.3671" lon="1.22039">
        <ele>290.600006</ele>
        <time>2011-05-08T07:59:45Z</time>
      </trkpt>
      <trkpt lat="45.36716" lon="1.22044">
        <ele>290.100006</ele>
        <time>2011-05-08T07:59:46Z</time>
      </trkpt>
      <trkpt lat="45.36723" lon="1.22049">
        <ele>289.799988</ele>
        <time>2011-05-08T07:59:47Z</time>
      </trkpt>
      <trkpt lat="45.36729" lon="1.22054">
        <ele>289.600006</ele>
        <time>2011-05-08T07:59:48Z</time>
      </trkpt>
      <trkpt lat="45.36735" lon="1.22059">
        <ele>289.5</ele>
        <time>2011-05-08T07:59:49Z</time>
      </trkpt>
      <trkpt lat="45.36742" lon="1.22064">
        <ele>289.100006</ele>
        <time>2011-05-08T07:59:50Z</time>
      </trkpt>
      <trkpt lat="45.36748" lon="1.2207">
        <ele>288.899994</ele>
        <time>2011-05-08T07:59:51Z</time>
      </trkpt>
      <trkpt lat="45.36754" lon="1.22076">
        <ele>288.899994</ele>
        <time>2011-05-08T07:59:52Z</time>
      </trkpt>
      <trkpt lat="45.36759" lon="1.22082">
        <ele>288.799988</ele>
        <time>2011-05-08T07:59:53Z</time>
      </trkpt>
      <trkpt lat="45.36764" lon="1.22088">
        <ele>289.100006</ele>
        <time>2011-05-08T07:59:54Z</time>
      </trkpt>
      <trkpt lat="45.36768" lon="1.22096">
        <ele>289.299988</ele>
        <time>2011-05-08T07:59:55Z</time>
      </trkpt>
      <trkpt lat="45.36773" lon="1.22104">
        <ele>289.5</ele>
        <time>2011-05-08T07:59:56Z</time>
      </trkpt>
      <trkpt lat="45.36775" lon="1.22112">
        <ele>289</ele>
        <time>2011-05-08T07:59:57Z</time>
      </trkpt>
      <trkpt lat="45.36778" lon="1.22121">
        <ele>288.600006</ele>
        <time>2011-05-08T07:59:58Z</time>
      </trkpt>
      <trkpt lat="45.36781" lon="1.2213">
        <ele>287.299988</ele>
        <time>2011-05-08T07:59:59Z</time>
      </trkpt>
      <trkpt lat="45.36784" lon="1.22139">
        <ele>286.399994</ele>
        <time>2011-05-08T08:00:00Z</time>
      </trkpt>
      <trkpt lat="45.36789" lon="1.22147">
        <ele>285.600006</ele>
        <time>2011-05-08T08:00:01Z</time>
      </trkpt>
      <trkpt lat="45.36795" lon="1.22155">
        <ele>285.200012</ele>
        <time>2011-05-08T08:00:02Z</time>
      </trkpt>
      <trkpt lat="45.368" lon="1.22164">
        <ele>284.899994</ele>
        <time>2011-05-08T08:00:03Z</time>
      </trkpt>
      <trkpt lat="45.36806" lon="1.22174">
        <ele>284.700012</ele>
        <time>2011-05-08T08:00:04Z</time>
      </trkpt>
      <trkpt lat="45.36812" lon="1.22183">
        <ele>284.600006</ele>
        <time>2011-05-08T08:00:05Z</time>
      </trkpt>
      <trkpt lat="45.36818" lon="1.22193">
        <ele>283.700012</ele>
        <time>2011-05-08T08:00:06Z</time>
      </trkpt>
      <trkpt lat="45.36823" lon="1.22204">
        <ele>283.100006</ele>
        <time>2011-05-08T08:00:07Z</time>
      </trkpt>
      <trkpt lat="45.36828" lon="1.22215">
        <ele>282.600006</ele>
        <time>2011-05-08T08:00:08Z</time>
      </trkpt>
      <trkpt lat="45.36833" lon="1.22226">
        <ele>282.399994</ele>
        <time>2011-05-08T08:00:09Z</time>
      </trkpt>
      <trkpt lat="45.36838" lon="1.22238">
        <ele>282.299988</ele>
        <time>2011-05-08T08:00:10Z</time>
      </trkpt>
      <trkpt lat="45.36843" lon="1.22251">
        <ele>281</ele>
        <time>2011-05-08T08:00:11Z</time>
      </trkpt>
      <trkpt lat="45.36846" lon="1.22263">
        <ele>280</ele>
        <time>2011-05-08T08:00:12Z</time>
      </trkpt>
      <trkpt lat="45.3685" lon="1.22275">
        <ele>278.899994</ele>
        <time>2011-05-08T08:00:13Z</time>
      </trkpt>
      <trkpt lat="45.36854" lon="1.22286">
        <ele>278.100006</ele>
        <time>2011-05-08T08:00:14Z</time>
      </trkpt>
      <trkpt lat="45.36859" lon="1.22298">
        <ele>277.5</ele>
        <time>2011-05-08T08:00:15Z</time>
      </trkpt>
      <trkpt lat="45.36865" lon="1.22308">
        <ele>277</ele>
        <time>2011-05-08T08:00:16Z</time>
      </trkpt>
      <trkpt lat="45.3687" lon="1.22318">
        <ele>276.600006</ele>
        <time>2011-05-08T08:00:17Z</time>
      </trkpt>
      <trkpt lat="45.36876" lon="1.22329">
        <ele>275.5</ele>
        <time>2011-05-08T08:00:18Z</time>
      </trkpt>
      <trkpt lat="45.36879" lon="1.22341">
        <ele>274.600006</ele>
        <time>2011-05-08T08:00:19Z</time>
      </trkpt>
      <trkpt lat="45.36882" lon="1.22353">
        <ele>273.899994</ele>
        <time>2011-05-08T08:00:20Z</time>
      </trkpt>
      <trkpt lat="45.36884" lon="1.22366">
        <ele>273.299988</ele>
        <time>2011-05-08T08:00:21Z</time>
      </trkpt>
      <trkpt lat="45.36885" lon="1.22379">
        <ele>272.899994</ele>
        <time>2011-05-08T08:00:22Z</time>
      </trkpt>
      <trkpt lat="45.36884" lon="1.22391">
        <ele>272.200012</ele>
        <time>2011-05-08T08:00:23Z</time>
      </trkpt>
      <trkpt lat="45.36883" lon="1.22403">
        <ele>271.700012</ele>
        <time>2011-05-08T08:00:24Z</time>
      </trkpt>
      <trkpt lat="45.3688" lon="1.22414">
        <ele>271.399994</ele>
        <time>2011-05-08T08:00:25Z</time>
      </trkpt>
      <trkpt lat="45.36875" lon="1.22424">
        <ele>271.200012</ele>
        <time>2011-05-08T08:00:26Z</time>
      </trkpt>
      <trkpt lat="45.3687" lon="1.2243">
        <ele>271.100006</ele>
        <time>2011-05-08T08:00:27Z</time>
      </trkpt>
      <trkpt lat="45.36864" lon="1.22434">
        <ele>270.299988</ele>
        <time>2011-05-08T08:00:28Z</time>
      </trkpt>
      <trkpt lat="45.36857" lon="1.22439">
        <ele>269.700012</ele>
        <time>2011-05-08T08:00:29Z</time>
      </trkpt>
      <trkpt lat="45.36852" lon="1.22443">
        <ele>269.5</ele>
        <time>2011-05-08T08:00:30Z</time>
      </trkpt>
      <trkpt lat="45.36848" lon="1.22448">
        <ele>269.399994</ele>
        <time>2011-05-08T08:00:31Z</time>
      </trkpt>
      <trkpt lat="45.36846" lon="1.22455">
        <ele>268.600006</ele>
        <time>2011-05-08T08:00:32Z</time>
      </trkpt>
      <trkpt lat="45.36846" lon="1.22461">
        <ele>268.100006</ele>
        <time>2011-05-08T08:00:33Z</time>
      </trkpt>
      <trkpt lat="45.36846" lon="1.22468">
        <ele>267.700012</ele>
        <time>2011-05-08T08:00:34Z</time>
      </trkpt>
      <trkpt lat="45.36847" lon="1.22474">
        <ele>266.799988</ele>
        <time>2011-05-08T08:00:35Z</time>
      </trkpt>
      <trkpt lat="45.36851" lon="1.22481">
        <ele>266.200012</ele>
        <time>2011-05-08T08:00:36Z</time>
      </trkpt>
      <trkpt lat="45.36855" lon="1.22487">
        <ele>265.600006</ele>
        <time>2011-05-08T08:00:37Z</time>
      </trkpt>
      <trkpt lat="45.3686" lon="1.22493">
        <ele>265.200012</ele>
        <time>2011-05-08T08:00:38Z</time>
      </trkpt>
      <trkpt lat="45.36865" lon="1.225">
        <ele>264.899994</ele>
        <time>2011-05-08T08:00:39Z</time>
      </trkpt>
      <trkpt lat="45.36869" lon="1.22507">
        <ele>264.5</ele>
        <time>2011-05-08T08:00:40Z</time>
      </trkpt>
      <trkpt lat="45.36872" lon="1.22516">
        <ele>264.200012</ele>
        <time>2011-05-08T08:00:41Z</time>
      </trkpt>
      <trkpt lat="45.36873" lon="1.22524">
        <ele>263.899994</ele>
        <time>2011-05-08T08:00:42Z</time>
      </trkpt>
      <trkpt lat="45.36874" lon="1.22532">
        <ele>263.700012</ele>
        <time>2011-05-08T08:00:43Z</time>
      </trkpt>
      <trkpt lat="45.36873" lon="1.2254">
        <ele>263.600006</ele>
        <time>2011-05-08T08:00:44Z</time>
      </trkpt>
      <trkpt lat="45.36873" lon="1.22549">
        <ele>263.399994</ele>
        <time>2011-05-08T08:00:45Z</time>
      </trkpt>
      <trkpt lat="45.36872" lon="1.22558">
        <ele>263.399994</ele>
        <time>2011-05-08T08:00:46Z</time>
      </trkpt>
      <trkpt lat="45.3687" lon="1.22568">
        <ele>263.200012</ele>
        <time>2011-05-08T08:00:47Z</time>
      </trkpt>
      <trkpt lat="45.36869" lon="1.22578">
        <ele>263.100006</ele>
        <time>2011-05-08T08:00:48Z</time>
      </trkpt>
      <trkpt lat="45.36868" lon="1.22588">
        <ele>262.600006</ele>
        <time>2011-05-08T08:00:49Z</time>
      </trkpt>
      <trkpt lat="45.36868" lon="1.22598">
        <ele>262.200012</ele>
        <time>2011-05-08T08:00:50Z</time>
      </trkpt>
      <trkpt lat="45.36867" lon="1.22608">
        <ele>262.200012</ele>
        <time>2011-05-08T08:00:51Z</time>
      </trkpt>
      <trkpt lat="45.36866" lon="1.22619">
        <ele>262.100006</ele>
        <time>2011-05-08T08:00:52Z</time>
      </trkpt>
      <trkpt lat="45.36866" lon="1.22629">
        <ele>262.100006</ele>
        <time>2011-05-08T08:00:53Z</time>
      </trkpt>
      <trkpt lat="45.36867" lon="1.22639">
        <ele>262</ele>
        <time>2011-05-08T08:00:54Z</time>
      </trkpt>
      <trkpt lat="45.36867" lon="1.22648">
        <ele>261.899994</ele>
        <time>2011-05-08T08:00:55Z</time>
      </trkpt>
      <trkpt lat="45.36866" lon="1.22659">
        <ele>261.5</ele>
        <time>2011-05-08T08:00:56Z</time>
      </trkpt>
      <trkpt lat="45.36866" lon="1.22669">
        <ele>261.299988</ele>
        <time>2011-05-08T08:00:57Z</time>
      </trkpt>
      <trkpt lat="45.36865" lon="1.22681">
        <ele>260.600006</ele>
        <time>2011-05-08T08:00:58Z</time>
      </trkpt>
      <trkpt lat="45.36866" lon="1.22691">
        <ele>260</ele>
        <time>2011-05-08T08:00:59Z</time>
      </trkpt>
      <trkpt lat="45.36869" lon="1.22701">
        <ele>259.600006</ele>
        <time>2011-05-08T08:01:00Z</time>
      </trkpt>
      <trkpt lat="45.36873" lon="1.22711">
        <ele>258.899994</ele>
        <time>2011-05-08T08:01:01Z</time>
      </trkpt>
      <trkpt lat="45.36876" lon="1.22721">
        <ele>258.399994</ele>
        <time>2011-05-08T08:01:02Z</time>
      </trkpt>
      <trkpt lat="45.36878" lon="1.2273">
        <ele>258.600006</ele>
        <time>2011-05-08T08:01:03Z</time>
      </trkpt>
      <trkpt lat="45.3688" lon="1.22739">
        <ele>258.799988</ele>
        <time>2011-05-08T08:01:04Z</time>
      </trkpt>
      <trkpt lat="45.3688" lon="1.22748">
        <ele>258.899994</ele>
        <time>2011-05-08T08:01:05Z</time>
      </trkpt>
      <trkpt lat="45.36881" lon="1.22757">
        <ele>258.799988</ele>
        <time>2011-05-08T08:01:06Z</time>
      </trkpt>
      <trkpt lat="45.36881" lon="1.22767">
        <ele>258.600006</ele>
        <time>2011-05-08T08:01:07Z</time>
      </trkpt>
      <trkpt lat="45.36882" lon="1.22778">
        <ele>258.299988</ele>
        <time>2011-05-08T08:01:08Z</time>
      </trkpt>
      <trkpt lat="45.36883" lon="1.2279">
        <ele>258</ele>
        <time>2011-05-08T08:01:09Z</time>
      </trkpt>
      <trkpt lat="45.36882" lon="1.22801">
        <ele>258</ele>
        <time>2011-05-08T08:01:10Z</time>
      </trkpt>
      <trkpt lat="45.36882" lon="1.22813">
        <ele>258</ele>
        <time>2011-05-08T08:01:11Z</time>
      </trkpt>
      <trkpt lat="45.36881" lon="1.22823">
        <ele>258</ele>
        <time>2011-05-08T08:01:12Z</time>
      </trkpt>
      <trkpt lat="45.36881" lon="1.22834">
        <ele>257.5</ele>
        <time>2011-05-08T08:01:13Z</time>
      </trkpt>
      <trkpt lat="45.36882" lon="1.22844">
        <ele>257.100006</ele>
        <time>2011-05-08T08:01:14Z</time>
      </trkpt>
      <trkpt lat="45.36884" lon="1.22854">
        <ele>257.399994</ele>
        <time>2011-05-08T08:01:15Z</time>
      </trkpt>
      <trkpt lat="45.36886" lon="1.22862">
        <ele>257.600006</ele>
        <time>2011-05-08T08:01:16Z</time>
      </trkpt>
      <trkpt lat="45.36889" lon="1.22871">
        <ele>257.600006</ele>
        <time>2011-05-08T08:01:17Z</time>
      </trkpt>
      <trkpt lat="45.36891" lon="1.22881">
        <ele>257.600006</ele>
        <time>2011-05-08T08:01:18Z</time>
      </trkpt>
      <trkpt lat="45.36894" lon="1.22891">
        <ele>257.600006</ele>
        <time>2011-05-08T08:01:19Z</time>
      </trkpt>
      <trkpt lat="45.36897" lon="1.22902">
        <ele>257.200012</ele>
        <time>2011-05-08T08:01:20Z</time>
      </trkpt>
      <trkpt lat="45.36898" lon="1.22912">
        <ele>256.899994</ele>
        <time>2011-05-08T08:01:21Z</time>
      </trkpt>
      <trkpt lat="45.36899" lon="1.22922">
        <ele>256.299988</ele>
        <time>2011-05-08T08:01:22Z</time>
      </trkpt>
      <trkpt lat="45.36902" lon="1.22932">
        <ele>255.899994</ele>
        <time>2011-05-08T08:01:23Z</time>
      </trkpt>
      <trkpt lat="45.36905" lon="1.22943">
        <ele>255.600006</ele>
        <time>2011-05-08T08:01:24Z</time>
      </trkpt>
      <trkpt lat="45.36909" lon="1.22953">
        <ele>255</ele>
        <time>2011-05-08T08:01:25Z</time>
      </trkpt>
      <trkpt lat="45.36913" lon="1.22964">
        <ele>254.5</ele>
        <time>2011-05-08T08:01:26Z</time>
      </trkpt>
      <trkpt lat="45.36918" lon="1.22974">
        <ele>253.699997</ele>
        <time>2011-05-08T08:01:27Z</time>
      </trkpt>
      <trkpt lat="45.36923" lon="1.22985">
        <ele>253.199997</ele>
        <time>2011-05-08T08:01:28Z</time>
      </trkpt>
      <trkpt lat="45.36929" lon="1.22996">
        <ele>252.100006</ele>
        <time>2011-05-08T08:01:29Z</time>
      </trkpt>
      <trkpt lat="45.36935" lon="1.23006">
        <ele>251.199997</ele>
        <time>2011-05-08T08:01:30Z</time>
      </trkpt>
      <trkpt lat="45.36943" lon="1.23016">
        <ele>250.600006</ele>
        <time>2011-05-08T08:01:31Z</time>
      </trkpt>
      <trkpt lat="45.3695" lon="1.23025">
        <ele>249.600006</ele>
        <time>2011-05-08T08:01:32Z</time>
      </trkpt>
      <trkpt lat="45.36957" lon="1.23034">
        <ele>248.800003</ele>
        <time>2011-05-08T08:01:33Z</time>
      </trkpt>
      <trkpt lat="45.36963" lon="1.23042">
        <ele>248.199997</ele>
        <time>2011-05-08T08:01:34Z</time>
      </trkpt>
      <trkpt lat="45.36968" lon="1.23049">
        <ele>247.800003</ele>
        <time>2011-05-08T08:01:35Z</time>
      </trkpt>
      <trkpt lat="45.36971" lon="1.23057">
        <ele>246.800003</ele>
        <time>2011-05-08T08:01:36Z</time>
      </trkpt>
      <trkpt lat="45.36973" lon="1.23065">
        <ele>246.100006</ele>
        <time>2011-05-08T08:01:37Z</time>
      </trkpt>
      <trkpt lat="45.36973" lon="1.23071">
        <ele>245.5</ele>
        <time>2011-05-08T08:01:38Z</time>
      </trkpt>
      <trkpt lat="45.36976" lon="1.23083">
        <ele>245</ele>
        <time>2011-05-08T08:01:40Z</time>
      </trkpt>
      <trkpt lat="45.36982" lon="1.23091">
        <ele>243.600006</ele>
        <time>2011-05-08T08:01:42Z</time>
      </trkpt>
      <trkpt lat="45.36985" lon="1.23097">
        <ele>243.100006</ele>
        <time>2011-05-08T08:01:43Z</time>
      </trkpt>
      <trkpt lat="45.36988" lon="1.23103">
        <ele>242.199997</ele>
        <time>2011-05-08T08:01:44Z</time>
      </trkpt>
      <trkpt lat="45.36992" lon="1.23109">
        <ele>241.600006</ele>
        <time>2011-05-08T08:01:45Z</time>
      </trkpt>
      <trkpt lat="45.36996" lon="1.23117">
        <ele>241.100006</ele>
        <time>2011-05-08T08:01:47Z</time>
      </trkpt>
      <trkpt lat="45.36999" lon="1.23127">
        <ele>241.899994</ele>
        <time>2011-05-08T08:01:50Z</time>
      </trkpt>
      <trkpt lat="45.37002" lon="1.23136">
        <ele>242.199997</ele>
        <time>2011-05-08T08:01:53Z</time>
      </trkpt>
      <trkpt lat="45.37006" lon="1.23147">
        <ele>243.5</ele>
        <time>2011-05-08T08:01:57Z</time>
      </trkpt>
      <trkpt lat="45.37009" lon="1.23158">
        <ele>244.399994</ele>
        <time>2011-05-08T08:02:01Z</time>
      </trkpt>
      <trkpt lat="45.37013" lon="1.23167">
        <ele>245</ele>
        <time>2011-05-08T08:02:04Z</time>
      </trkpt>
      <trkpt lat="45.37017" lon="1.23177">
        <ele>245.600006</ele>
        <time>2011-05-08T08:02:07Z</time>
      </trkpt>
      <trkpt lat="45.37022" lon="1.23185">
        <ele>246.399994</ele>
        <time>2011-05-08T08:02:10Z</time>
      </trkpt>
      <trkpt lat="45.37025" lon="1.23196">
        <ele>246.600006</ele>
        <time>2011-05-08T08:02:13Z</time>
      </trkpt>
      <trkpt lat="45.37028" lon="1.23204">
        <ele>246.199997</ele>
        <time>2011-05-08T08:02:15Z</time>
      </trkpt>
      <trkpt lat="45.3703" lon="1.23212">
        <ele>246.100006</ele>
        <time>2011-05-08T08:02:17Z</time>
      </trkpt>
      <trkpt lat="45.3703" lon="1.23221">
        <ele>246.300003</ele>
        <time>2011-05-08T08:02:19Z</time>
      </trkpt>
      <trkpt lat="45.37031" lon="1.2323">
        <ele>246.600006</ele>
        <time>2011-05-08T08:02:21Z</time>
      </trkpt>
      <trkpt lat="45.37033" lon="1.23242">
        <ele>247.800003</ele>
        <time>2011-05-08T08:02:24Z</time>
      </trkpt>
      <trkpt lat="45.37035" lon="1.23254">
        <ele>248.800003</ele>
        <time>2011-05-08T08:02:27Z</time>
      </trkpt>
      <trkpt lat="45.37036" lon="1.23267">
        <ele>248.699997</ele>
        <time>2011-05-08T08:02:30Z</time>
      </trkpt>
      <trkpt lat="45.37038" lon="1.23279">
        <ele>249.699997</ele>
        <time>2011-05-08T08:02:33Z</time>
      </trkpt>
      <trkpt lat="45.3704" lon="1.23291">
        <ele>249.300003</ele>
        <time>2011-05-08T08:02:36Z</time>
      </trkpt>
      <trkpt lat="45.37041" lon="1.23302">
        <ele>250</ele>
        <time>2011-05-08T08:02:39Z</time>
      </trkpt>
      <trkpt lat="45.3704" lon="1.23311">
        <ele>250.300003</ele>
        <time>2011-05-08T08:02:42Z</time>
      </trkpt>
      <trkpt lat="45.37039" lon="1.23321">
        <ele>251.399994</ele>
        <time>2011-05-08T08:02:45Z</time>
      </trkpt>
      <trkpt lat="45.37039" lon="1.23325">
        <ele>251.5</ele>
        <time>2011-05-08T08:02:46Z</time>
      </trkpt>
      <trkpt lat="45.3704" lon="1.23344">
        <ele>252.699997</ele>
        <time>2011-05-08T08:02:52Z</time>
      </trkpt>
      <trkpt lat="45.37044" lon="1.23354">
        <ele>253.300003</ele>
        <time>2011-05-08T08:02:56Z</time>
      </trkpt>
      <trkpt lat="45.37051" lon="1.23361">
        <ele>254.199997</ele>
        <time>2011-05-08T08:03:00Z</time>
      </trkpt>
      <trkpt lat="45.37055" lon="1.23368">
        <ele>254.199997</ele>
        <time>2011-05-08T08:03:02Z</time>
      </trkpt>
      <trkpt lat="45.37061" lon="1.23377">
        <ele>252.800003</ele>
        <time>2011-05-08T08:03:05Z</time>
      </trkpt>
      <trkpt lat="45.37066" lon="1.23384">
        <ele>251.5</ele>
        <time>2011-05-08T08:03:07Z</time>
      </trkpt>
      <trkpt lat="45.37071" lon="1.23391">
        <ele>250.300003</ele>
        <time>2011-05-08T08:03:09Z</time>
      </trkpt>
      <trkpt lat="45.37078" lon="1.23398">
        <ele>250</ele>
        <time>2011-05-08T08:03:11Z</time>
      </trkpt>
      <trkpt lat="45.37086" lon="1.23404">
        <ele>250</ele>
        <time>2011-05-08T08:03:13Z</time>
      </trkpt>
      <trkpt lat="45.37093" lon="1.2341">
        <ele>247.600006</ele>
        <time>2011-05-08T08:03:16Z</time>
      </trkpt>
      <trkpt lat="45.37098" lon="1.23415">
        <ele>246.899994</ele>
        <time>2011-05-08T08:03:18Z</time>
      </trkpt>
      <trkpt lat="45.37103" lon="1.23423">
        <ele>246.399994</ele>
        <time>2011-05-08T08:03:20Z</time>
      </trkpt>
      <trkpt lat="45.37108" lon="1.23433">
        <ele>246.300003</ele>
        <time>2011-05-08T08:03:22Z</time>
      </trkpt>
      <trkpt lat="45.37113" lon="1.23443">
        <ele>246</ele>
        <time>2011-05-08T08:03:24Z</time>
      </trkpt>
      <trkpt lat="45.37116" lon="1.23452">
        <ele>245.699997</ele>
        <time>2011-05-08T08:03:26Z</time>
      </trkpt>
      <trkpt lat="45.37121" lon="1.23461">
        <ele>245.5</ele>
        <time>2011-05-08T08:03:28Z</time>
      </trkpt>
      <trkpt lat="45.37124" lon="1.2347">
        <ele>245.800003</ele>
        <time>2011-05-08T08:03:30Z</time>
      </trkpt>
      <trkpt lat="45.37126" lon="1.23479">
        <ele>246</ele>
        <time>2011-05-08T08:03:32Z</time>
      </trkpt>
      <trkpt lat="45.37128" lon="1.23488">
        <ele>245.899994</ele>
        <time>2011-05-08T08:03:34Z</time>
      </trkpt>
      <trkpt lat="45.37127" lon="1.235">
        <ele>244.800003</ele>
        <time>2011-05-08T08:03:36Z</time>
      </trkpt>
      <trkpt lat="45.37125" lon="1.23511">
        <ele>243.399994</ele>
        <time>2011-05-08T08:03:38Z</time>
      </trkpt>
      <trkpt lat="45.37123" lon="1.23523">
        <ele>240.899994</ele>
        <time>2011-05-08T08:03:42Z</time>
      </trkpt>
      <trkpt lat="45.37127" lon="1.23534">
        <ele>239.199997</ele>
        <time>2011-05-08T08:03:48Z</time>
      </trkpt>
      <trkpt lat="45.37127" lon="1.23535">
        <ele>239.199997</ele>
        <time>2011-05-08T08:03:49Z</time>
      </trkpt>
      <trkpt lat="45.37134" lon="1.23556">
        <ele>241.100006</ele>
        <time>2011-05-08T08:04:10Z</time>
      </trkpt>
      <trkpt lat="45.37134" lon="1.23567">
        <ele>241.600006</ele>
        <time>2011-05-08T08:04:26Z</time>
      </trkpt>
      <trkpt lat="45.37134" lon="1.23579">
        <ele>242.899994</ele>
        <time>2011-05-08T08:04:33Z</time>
      </trkpt>
      <trkpt lat="45.37134" lon="1.23591">
        <ele>244.399994</ele>
        <time>2011-05-08T08:04:39Z</time>
      </trkpt>
      <trkpt lat="45.37132" lon="1.23602">
        <ele>245.899994</ele>
        <time>2011-05-08T08:04:45Z</time>
      </trkpt>
      <trkpt lat="45.37131" lon="1.23614">
        <ele>247.5</ele>
        <time>2011-05-08T08:04:51Z</time>
      </trkpt>
      <trkpt lat="45.37131" lon="1.23616">
        <ele>247.300003</ele>
        <time>2011-05-08T08:04:52Z</time>
      </trkpt>
      <trkpt lat="45.37127" lon="1.23637">
        <ele>249.800003</ele>
        <time>2011-05-08T08:05:04Z</time>
      </trkpt>
      <trkpt lat="45.37128" lon="1.23649">
        <ele>251.5</ele>
        <time>2011-05-08T08:05:11Z</time>
      </trkpt>
      <trkpt lat="45.37128" lon="1.2366">
        <ele>253.399994</ele>
        <time>2011-05-08T08:05:17Z</time>
      </trkpt>
      <trkpt lat="45.37127" lon="1.23672">
        <ele>255.300003</ele>
        <time>2011-05-08T08:05:24Z</time>
      </trkpt>
      <trkpt lat="45.37126" lon="1.23684">
        <ele>255.399994</ele>
        <time>2011-05-08T08:05:30Z</time>
      </trkpt>
      <trkpt lat="45.37125" lon="1.23696">
        <ele>257.100006</ele>
        <time>2011-05-08T08:05:37Z</time>
      </trkpt>
      <trkpt lat="45.37124" lon="1.23707">
        <ele>258.700012</ele>
        <time>2011-05-08T08:05:43Z</time>
      </trkpt>
      <trkpt lat="45.37122" lon="1.23719">
        <ele>259.799988</ele>
        <time>2011-05-08T08:05:49Z</time>
      </trkpt>
      <trkpt lat="45.3712" lon="1.2373">
        <ele>260.5</ele>
        <time>2011-05-08T08:05:55Z</time>
      </trkpt>
      <trkpt lat="45.37119" lon="1.23732">
        <ele>260.399994</ele>
        <time>2011-05-08T08:05:56Z</time>
      </trkpt>
      <trkpt lat="45.3711" lon="1.23736">
        <ele>266.299988</ele>
        <time>2011-05-08T08:06:11Z</time>
      </trkpt>
      <trkpt lat="45.37104" lon="1.23727">
        <ele>266.600006</ele>
        <time>2011-05-08T08:06:19Z</time>
      </trkpt>
      <trkpt lat="45.37099" lon="1.23717">
        <ele>269.5</ele>
        <time>2011-05-08T08:06:27Z</time>
      </trkpt>
      <trkpt lat="45.37093" lon="1.23709">
        <ele>270.600006</ele>
        <time>2011-05-08T08:06:34Z</time>
      </trkpt>
      <trkpt lat="45.37086" lon="1.23704">
        <ele>272.399994</ele>
        <time>2011-05-08T08:06:41Z</time>
      </trkpt>
      <trkpt lat="45.37077" lon="1.23705">
        <ele>273.399994</ele>
        <time>2011-05-08T08:06:49Z</time>
      </trkpt>
      <trkpt lat="45.37068" lon="1.23706">
        <ele>275.899994</ele>
        <time>2011-05-08T08:06:58Z</time>
      </trkpt>
      <trkpt lat="45.37067" lon="1.23707">
        <ele>276</ele>
        <time>2011-05-08T08:06:59Z</time>
      </trkpt>
      <trkpt lat="45.37054" lon="1.23716">
        <ele>277.399994</ele>
        <time>2011-05-08T08:07:11Z</time>
      </trkpt>
      <trkpt lat="45.37047" lon="1.23722">
        <ele>278.600006</ele>
        <time>2011-05-08T08:07:17Z</time>
      </trkpt>
      <trkpt lat="45.3704" lon="1.23729">
        <ele>280.100006</ele>
        <time>2011-05-08T08:07:23Z</time>
      </trkpt>
      <trkpt lat="45.37034" lon="1.23737">
        <ele>281.899994</ele>
        <time>2011-05-08T08:07:30Z</time>
      </trkpt>
      <trkpt lat="45.37029" lon="1.23746">
        <ele>282.700012</ele>
        <time>2011-05-08T08:07:36Z</time>
      </trkpt>
      <trkpt lat="45.37027" lon="1.23757">
        <ele>284.200012</ele>
        <time>2011-05-08T08:07:41Z</time>
      </trkpt>
      <trkpt lat="45.37025" lon="1.23769">
        <ele>285.799988</ele>
        <time>2011-05-08T08:07:46Z</time>
      </trkpt>
      <trkpt lat="45.37021" lon="1.2378">
        <ele>287.799988</ele>
        <time>2011-05-08T08:07:52Z</time>
      </trkpt>
      <trkpt lat="45.3702" lon="1.23791">
        <ele>289.100006</ele>
        <time>2011-05-08T08:07:57Z</time>
      </trkpt>
      <trkpt lat="45.3702" lon="1.23803">
        <ele>290.700012</ele>
        <time>2011-05-08T08:08:03Z</time>
      </trkpt>
      <trkpt lat="45.3702" lon="1.23805">
        <ele>290.799988</ele>
        <time>2011-05-08T08:08:04Z</time>
      </trkpt>
      <trkpt lat="45.37021" lon="1.23826">
        <ele>293.5</ele>
        <time>2011-05-08T08:08:15Z</time>
      </trkpt>
      <trkpt lat="45.37021" lon="1.23837">
        <ele>294.799988</ele>
        <time>2011-05-08T08:08:21Z</time>
      </trkpt>
      <trkpt lat="45.37021" lon="1.2385">
        <ele>295.799988</ele>
        <time>2011-05-08T08:08:27Z</time>
      </trkpt>
      <trkpt lat="45.37022" lon="1.23861">
        <ele>295.899994</ele>
        <time>2011-05-08T08:08:33Z</time>
      </trkpt>
      <trkpt lat="45.37021" lon="1.23873">
        <ele>297.600006</ele>
        <time>2011-05-08T08:08:39Z</time>
      </trkpt>
      <trkpt lat="45.37021" lon="1.23885">
        <ele>298.700012</ele>
        <time>2011-05-08T08:08:45Z</time>
      </trkpt>
      <trkpt lat="45.3702" lon="1.23896">
        <ele>299.700012</ele>
        <time>2011-05-08T08:08:51Z</time>
      </trkpt>
      <trkpt lat="45.37019" lon="1.23907">
        <ele>300.700012</ele>
        <time>2011-05-08T08:08:56Z</time>
      </trkpt>
      <trkpt lat="45.37018" lon="1.23919">
        <ele>301.100006</ele>
        <time>2011-05-08T08:09:01Z</time>
      </trkpt>
      <trkpt lat="45.37015" lon="1.23931">
        <ele>302.799988</ele>
        <time>2011-05-08T08:09:07Z</time>
      </trkpt>
      <trkpt lat="45.37015" lon="1.23933">
        <ele>303</ele>
        <time>2011-05-08T08:09:08Z</time>
      </trkpt>
      <trkpt lat="45.37011" lon="1.23955">
        <ele>304</ele>
        <time>2011-05-08T08:09:21Z</time>
      </trkpt>
      <trkpt lat="45.37009" lon="1.23966">
        <ele>304.700012</ele>
        <time>2011-05-08T08:09:27Z</time>
      </trkpt>
      <trkpt lat="45.37007" lon="1.23977">
        <ele>305.700012</ele>
        <time>2011-05-08T08:09:32Z</time>
      </trkpt>
      <trkpt lat="45.37005" lon="1.23988">
        <ele>306.600006</ele>
        <time>2011-05-08T08:09:37Z</time>
      </trkpt>
      <trkpt lat="45.37002" lon="1.24">
        <ele>307.200012</ele>
        <time>2011-05-08T08:09:42Z</time>
      </trkpt>
      <trkpt lat="45.36998" lon="1.24011">
        <ele>307.700012</ele>
        <time>2011-05-08T08:09:47Z</time>
      </trkpt>
      <trkpt lat="45.36996" lon="1.24023">
        <ele>309.600006</ele>
        <time>2011-05-08T08:09:52Z</time>
      </trkpt>
      <trkpt lat="45.36994" lon="1.24034">
        <ele>310</ele>
        <time>2011-05-08T08:09:56Z</time>
      </trkpt>
      <trkpt lat="45.36993" lon="1.24045">
        <ele>311.799988</ele>
        <time>2011-05-08T08:10:01Z</time>
      </trkpt>
      <trkpt lat="45.36992" lon="1.24056">
        <ele>312.899994</ele>
        <time>2011-05-08T08:10:05Z</time>
      </trkpt>
      <trkpt lat="45.36992" lon="1.24068">
        <ele>313.899994</ele>
        <time>2011-05-08T08:10:10Z</time>
      </trkpt>
      <trkpt lat="45.36992" lon="1.24071">
        <ele>314.100006</ele>
        <time>2011-05-08T08:10:11Z</time>
      </trkpt>
      <trkpt lat="45.36992" lon="1.24092">
        <ele>315.600006</ele>
        <time>2011-05-08T08:10:20Z</time>
      </trkpt>
      <trkpt lat="45.36991" lon="1.24104">
        <ele>317.799988</ele>
        <time>2011-05-08T08:10:25Z</time>
      </trkpt>
      <trkpt lat="45.36987" lon="1.24114">
        <ele>319.100006</ele>
        <time>2011-05-08T08:10:31Z</time>
      </trkpt>
      <trkpt lat="45.36982" lon="1.24123">
        <ele>320.600006</ele>
        <time>2011-05-08T08:10:39Z</time>
      </trkpt>
      <trkpt lat="45.36975" lon="1.24132">
        <ele>321.200012</ele>
        <time>2011-05-08T08:10:46Z</time>
      </trkpt>
      <trkpt lat="45.3697" lon="1.24139">
        <ele>321.600006</ele>
        <time>2011-05-08T08:10:51Z</time>
      </trkpt>
      <trkpt lat="45.36964" lon="1.24148">
        <ele>323.5</ele>
        <time>2011-05-08T08:10:57Z</time>
      </trkpt>
      <trkpt lat="45.36962" lon="1.24159">
        <ele>324.399994</ele>
        <time>2011-05-08T08:11:02Z</time>
      </trkpt>
      <trkpt lat="45.36961" lon="1.2417">
        <ele>324.600006</ele>
        <time>2011-05-08T08:11:07Z</time>
      </trkpt>
      <trkpt lat="45.36959" lon="1.24182">
        <ele>326.799988</ele>
        <time>2011-05-08T08:11:12Z</time>
      </trkpt>
      <trkpt lat="45.36958" lon="1.24184">
        <ele>327</ele>
        <time>2011-05-08T08:11:13Z</time>
      </trkpt>
      <trkpt lat="45.36959" lon="1.24205">
        <ele>328.399994</ele>
        <time>2011-05-08T08:11:21Z</time>
      </trkpt>
      <trkpt lat="45.36963" lon="1.24214">
        <ele>328.5</ele>
        <time>2011-05-08T08:11:26Z</time>
      </trkpt>
      <trkpt lat="45.36969" lon="1.24223">
        <ele>329.5</ele>
        <time>2011-05-08T08:11:32Z</time>
      </trkpt>
      <trkpt lat="45.36973" lon="1.24232">
        <ele>331.399994</ele>
        <time>2011-05-08T08:11:38Z</time>
      </trkpt>
      <trkpt lat="45.36979" lon="1.24241">
        <ele>333.200012</ele>
        <time>2011-05-08T08:11:45Z</time>
      </trkpt>
      <trkpt lat="45.36985" lon="1.2425">
        <ele>335.100006</ele>
        <time>2011-05-08T08:11:52Z</time>
      </trkpt>
      <trkpt lat="45.36991" lon="1.24258">
        <ele>336.600006</ele>
        <time>2011-05-08T08:11:57Z</time>
      </trkpt>
      <trkpt lat="45.36994" lon="1.24268">
        <ele>336.700012</ele>
        <time>2011-05-08T08:12:02Z</time>
      </trkpt>
      <trkpt lat="45.36997" lon="1.24278">
        <ele>337.5</ele>
        <time>2011-05-08T08:12:07Z</time>
      </trkpt>
      <trkpt lat="45.36998" lon="1.24289">
        <ele>338.200012</ele>
        <time>2011-05-08T08:12:12Z</time>
      </trkpt>
      <trkpt lat="45.36999" lon="1.24301">
        <ele>339.299988</ele>
        <time>2011-05-08T08:12:18Z</time>
      </trkpt>
      <trkpt lat="45.37" lon="1.24303">
        <ele>339.5</ele>
        <time>2011-05-08T08:12:19Z</time>
      </trkpt>
      <trkpt lat="45.37001" lon="1.24324">
        <ele>340.299988</ele>
        <time>2011-05-08T08:12:29Z</time>
      </trkpt>
      <trkpt lat="45.37001" lon="1.24334">
        <ele>340.899994</ele>
        <time>2011-05-08T08:12:33Z</time>
      </trkpt>
      <trkpt lat="45.37003" lon="1.24344">
        <ele>342.700012</ele>
        <time>2011-05-08T08:12:37Z</time>
      </trkpt>
      <trkpt lat="45.37004" lon="1.24354">
        <ele>343.799988</ele>
        <time>2011-05-08T08:12:41Z</time>
      </trkpt>
      <trkpt lat="45.37005" lon="1.24365">
        <ele>344.899994</ele>
        <time>2011-05-08T08:12:45Z</time>
      </trkpt>
      <trkpt lat="45.37004" lon="1.24377">
        <ele>345.399994</ele>
        <time>2011-05-08T08:12:50Z</time>
      </trkpt>
      <trkpt lat="45.37004" lon="1.24388">
        <ele>346.799988</ele>
        <time>2011-05-08T08:12:54Z</time>
      </trkpt>
      <trkpt lat="45.37004" lon="1.24401">
        <ele>347.600006</ele>
        <time>2011-05-08T08:12:59Z</time>
      </trkpt>
      <trkpt lat="45.37004" lon="1.24412">
        <ele>349.100006</ele>
        <time>2011-05-08T08:13:04Z</time>
      </trkpt>
      <trkpt lat="45.37003" lon="1.24424">
        <ele>350.700012</ele>
        <time>2011-05-08T08:13:09Z</time>
      </trkpt>
      <trkpt lat="45.37002" lon="1.24436">
        <ele>350.899994</ele>
        <time>2011-05-08T08:13:13Z</time>
      </trkpt>
      <trkpt lat="45.37001" lon="1.24449">
        <ele>351.399994</ele>
        <time>2011-05-08T08:13:17Z</time>
      </trkpt>
      <trkpt lat="45.37001" lon="1.24459">
        <ele>351.5</ele>
        <time>2011-05-08T08:13:20Z</time>
      </trkpt>
      <trkpt lat="45.37" lon="1.24462">
        <ele>351.5</ele>
        <time>2011-05-08T08:13:21Z</time>
      </trkpt>
      <trkpt lat="45.36997" lon="1.24481">
        <ele>351.299988</ele>
        <time>2011-05-08T08:13:26Z</time>
      </trkpt>
      <trkpt lat="45.36995" lon="1.24493">
        <ele>352.100006</ele>
        <time>2011-05-08T08:13:29Z</time>
      </trkpt>
      <trkpt lat="45.36992" lon="1.24504">
        <ele>352.700012</ele>
        <time>2011-05-08T08:13:32Z</time>
      </trkpt>
      <trkpt lat="45.36989" lon="1.24514">
        <ele>352.799988</ele>
        <time>2011-05-08T08:13:35Z</time>
      </trkpt>
      <trkpt lat="45.36987" lon="1.24525">
        <ele>353.5</ele>
        <time>2011-05-08T08:13:38Z</time>
      </trkpt>
      <trkpt lat="45.36984" lon="1.24536">
        <ele>353.700012</ele>
        <time>2011-05-08T08:13:41Z</time>
      </trkpt>
      <trkpt lat="45.36983" lon="1.24547">
        <ele>354.299988</ele>
        <time>2011-05-08T08:13:44Z</time>
      </trkpt>
      <trkpt lat="45.36981" lon="1.24559">
        <ele>354.799988</ele>
        <time>2011-05-08T08:13:47Z</time>
      </trkpt>
      <trkpt lat="45.3698" lon="1.2457">
        <ele>355.200012</ele>
        <time>2011-05-08T08:13:50Z</time>
      </trkpt>
      <trkpt lat="45.36978" lon="1.24581">
        <ele>355.299988</ele>
        <time>2011-05-08T08:13:53Z</time>
      </trkpt>
      <trkpt lat="45.36976" lon="1.24592">
        <ele>356.399994</ele>
        <time>2011-05-08T08:13:56Z</time>
      </trkpt>
      <trkpt lat="45.36975" lon="1.24602">
        <ele>356.600006</ele>
        <time>2011-05-08T08:13:59Z</time>
      </trkpt>
      <trkpt lat="45.36974" lon="1.24612">
        <ele>356.799988</ele>
        <time>2011-05-08T08:14:02Z</time>
      </trkpt>
      <trkpt lat="45.36971" lon="1.24622">
        <ele>357.5</ele>
        <time>2011-05-08T08:14:05Z</time>
      </trkpt>
      <trkpt lat="45.36969" lon="1.24632">
        <ele>357.700012</ele>
        <time>2011-05-08T08:14:08Z</time>
      </trkpt>
      <trkpt lat="45.36966" lon="1.24642">
        <ele>358.399994</ele>
        <time>2011-05-08T08:14:11Z</time>
      </trkpt>
      <trkpt lat="45.36963" lon="1.24652">
        <ele>359.700012</ele>
        <time>2011-05-08T08:14:14Z</time>
      </trkpt>
      <trkpt lat="45.36959" lon="1.24662">
        <ele>360</ele>
        <time>2011-05-08T08:14:17Z</time>
      </trkpt>
      <trkpt lat="45.36956" lon="1.24672">
        <ele>360.100006</ele>
        <time>2011-05-08T08:14:20Z</time>
      </trkpt>
      <trkpt lat="45.36952" lon="1.24682">
        <ele>360.299988</ele>
        <time>2011-05-08T08:14:23Z</time>
      </trkpt>
      <trkpt lat="45.36951" lon="1.24685">
        <ele>360.200012</ele>
        <time>2011-05-08T08:14:24Z</time>
      </trkpt>
      <trkpt lat="45.36944" lon="1.24702">
        <ele>361.899994</ele>
        <time>2011-05-08T08:14:29Z</time>
      </trkpt>
      <trkpt lat="45.36941" lon="1.24713">
        <ele>361.700012</ele>
        <time>2011-05-08T08:14:32Z</time>
      </trkpt>
      <trkpt lat="45.36938" lon="1.24721">
        <ele>361.799988</ele>
        <time>2011-05-08T08:14:34Z</time>
      </trkpt>
      <trkpt lat="45.36936" lon="1.24728">
        <ele>362.299988</ele>
        <time>2011-05-08T08:14:36Z</time>
      </trkpt>
      <trkpt lat="45.36931" lon="1.24739">
        <ele>362.399994</ele>
        <time>2011-05-08T08:14:39Z</time>
      </trkpt>
      <trkpt lat="45.36926" lon="1.24744">
        <ele>362.799988</ele>
        <time>2011-05-08T08:14:41Z</time>
      </trkpt>
      <trkpt lat="45.3692" lon="1.24745">
        <ele>362.600006</ele>
        <time>2011-05-08T08:14:43Z</time>
      </trkpt>
      <trkpt lat="45.36912" lon="1.24745">
        <ele>362.5</ele>
        <time>2011-05-08T08:14:45Z</time>
      </trkpt>
      <trkpt lat="45.36907" lon="1.24755">
        <ele>363.600006</ele>
        <time>2011-05-08T08:14:49Z</time>
      </trkpt>
      <trkpt lat="45.36905" lon="1.24767">
        <ele>363.299988</ele>
        <time>2011-05-08T08:14:54Z</time>
      </trkpt>
      <trkpt lat="45.36903" lon="1.24779">
        <ele>363.5</ele>
        <time>2011-05-08T08:14:58Z</time>
      </trkpt>
      <trkpt lat="45.36902" lon="1.24789">
        <ele>364.200012</ele>
        <time>2011-05-08T08:15:01Z</time>
      </trkpt>
      <trkpt lat="45.369" lon="1.24799">
        <ele>364.799988</ele>
        <time>2011-05-08T08:15:04Z</time>
      </trkpt>
      <trkpt lat="45.36899" lon="1.24808">
        <ele>365</ele>
        <time>2011-05-08T08:15:07Z</time>
      </trkpt>
      <trkpt lat="45.36895" lon="1.2482">
        <ele>366.100006</ele>
        <time>2011-05-08T08:15:11Z</time>
      </trkpt>
      <trkpt lat="45.36892" lon="1.24831">
        <ele>366.100006</ele>
        <time>2011-05-08T08:15:15Z</time>
      </trkpt>
      <trkpt lat="45.3689" lon="1.24841">
        <ele>365.899994</ele>
        <time>2011-05-08T08:15:18Z</time>
      </trkpt>
      <trkpt lat="45.36887" lon="1.24852">
        <ele>367</ele>
        <time>2011-05-08T08:15:22Z</time>
      </trkpt>
      <trkpt lat="45.36883" lon="1.24862">
        <ele>367.700012</ele>
        <time>2011-05-08T08:15:26Z</time>
      </trkpt>
      <trkpt lat="45.36882" lon="1.24864">
        <ele>368</ele>
        <time>2011-05-08T08:15:27Z</time>
      </trkpt>
      <trkpt lat="45.3687" lon="1.24875">
        <ele>368.600006</ele>
        <time>2011-05-08T08:15:33Z</time>
      </trkpt>
      <trkpt lat="45.36863" lon="1.2488">
        <ele>368.700012</ele>
        <time>2011-05-08T08:15:36Z</time>
      </trkpt>
      <trkpt lat="45.36857" lon="1.24886">
        <ele>369</ele>
        <time>2011-05-08T08:15:39Z</time>
      </trkpt>
      <trkpt lat="45.36852" lon="1.2489">
        <ele>369.299988</ele>
        <time>2011-05-08T08:15:41Z</time>
      </trkpt>
      <trkpt lat="45.36846" lon="1.24896">
        <ele>369.799988</ele>
        <time>2011-05-08T08:15:43Z</time>
      </trkpt>
      <trkpt lat="45.3684" lon="1.24902">
        <ele>369.899994</ele>
        <time>2011-05-08T08:15:45Z</time>
      </trkpt>
      <trkpt lat="45.36835" lon="1.24908">
        <ele>368.899994</ele>
        <time>2011-05-08T08:15:47Z</time>
      </trkpt>
      <trkpt lat="45.36831" lon="1.24915">
        <ele>368.5</ele>
        <time>2011-05-08T08:15:49Z</time>
      </trkpt>
      <trkpt lat="45.36826" lon="1.24923">
        <ele>368.799988</ele>
        <time>2011-05-08T08:15:51Z</time>
      </trkpt>
      <trkpt lat="45.36822" lon="1.24932">
        <ele>369.100006</ele>
        <time>2011-05-08T08:15:54Z</time>
      </trkpt>
      <trkpt lat="45.36817" lon="1.24941">
        <ele>369.799988</ele>
        <time>2011-05-08T08:15:57Z</time>
      </trkpt>
      <trkpt lat="45.36813" lon="1.2495">
        <ele>370.100006</ele>
        <time>2011-05-08T08:16:00Z</time>
      </trkpt>
      <trkpt lat="45.36809" lon="1.24956">
        <ele>370.600006</ele>
        <time>2011-05-08T08:16:02Z</time>
      </trkpt>
      <trkpt lat="45.36804" lon="1.24966">
        <ele>370.399994</ele>
        <time>2011-05-08T08:16:05Z</time>
      </trkpt>
      <trkpt lat="45.36801" lon="1.24974">
        <ele>370.5</ele>
        <time>2011-05-08T08:16:08Z</time>
      </trkpt>
      <trkpt lat="45.36796" lon="1.24983">
        <ele>371.399994</ele>
        <time>2011-05-08T08:16:11Z</time>
      </trkpt>
      <trkpt lat="45.36792" lon="1.24993">
        <ele>371.600006</ele>
        <time>2011-05-08T08:16:14Z</time>
      </trkpt>
      <trkpt lat="45.36786" lon="1.25003">
        <ele>371.700012</ele>
        <time>2011-05-08T08:16:17Z</time>
      </trkpt>
      <trkpt lat="45.36783" lon="1.25011">
        <ele>371.799988</ele>
        <time>2011-05-08T08:16:19Z</time>
      </trkpt>
      <trkpt lat="45.3678" lon="1.25018">
        <ele>371.899994</ele>
        <time>2011-05-08T08:16:21Z</time>
      </trkpt>
      <trkpt lat="45.36777" lon="1.25026">
        <ele>371.700012</ele>
        <time>2011-05-08T08:16:23Z</time>
      </trkpt>
      <trkpt lat="45.36774" lon="1.25035">
        <ele>372</ele>
        <time>2011-05-08T08:16:25Z</time>
      </trkpt>
      <trkpt lat="45.36771" lon="1.25044">
        <ele>372.399994</ele>
        <time>2011-05-08T08:16:27Z</time>
      </trkpt>
      <trkpt lat="45.36769" lon="1.25049">
        <ele>372.5</ele>
        <time>2011-05-08T08:16:28Z</time>
      </trkpt>
      <trkpt lat="45.36767" lon="1.25062">
        <ele>372.600006</ele>
        <time>2011-05-08T08:16:31Z</time>
      </trkpt>
      <trkpt lat="45.36764" lon="1.25071">
        <ele>373</ele>
        <time>2011-05-08T08:16:33Z</time>
      </trkpt>
      <trkpt lat="45.36762" lon="1.25081">
        <ele>373.600006</ele>
        <time>2011-05-08T08:16:35Z</time>
      </trkpt>
      <trkpt lat="45.3676" lon="1.25092">
        <ele>373.600006</ele>
        <time>2011-05-08T08:16:37Z</time>
      </trkpt>
      <trkpt lat="45.3676" lon="1.25101">
        <ele>373.399994</ele>
        <time>2011-05-08T08:16:39Z</time>
      </trkpt>
      <trkpt lat="45.36761" lon="1.2511">
        <ele>373.600006</ele>
        <time>2011-05-08T08:16:41Z</time>
      </trkpt>
      <trkpt lat="45.36761" lon="1.25118">
        <ele>373.899994</ele>
        <time>2011-05-08T08:16:43Z</time>
      </trkpt>
      <trkpt lat="45.3676" lon="1.25131">
        <ele>373.899994</ele>
        <time>2011-05-08T08:16:46Z</time>
      </trkpt>
      <trkpt lat="45.36759" lon="1.2514">
        <ele>374.5</ele>
        <time>2011-05-08T08:16:48Z</time>
      </trkpt>
      <trkpt lat="45.36758" lon="1.25149">
        <ele>375.5</ele>
        <time>2011-05-08T08:16:50Z</time>
      </trkpt>
      <trkpt lat="45.36757" lon="1.25159">
        <ele>375.799988</ele>
        <time>2011-05-08T08:16:52Z</time>
      </trkpt>
      <trkpt lat="45.36754" lon="1.25169">
        <ele>375.600006</ele>
        <time>2011-05-08T08:16:54Z</time>
      </trkpt>
      <trkpt lat="45.36751" lon="1.2518">
        <ele>376.700012</ele>
        <time>2011-05-08T08:16:56Z</time>
      </trkpt>
      <trkpt lat="45.36748" lon="1.2519">
        <ele>377.399994</ele>
        <time>2011-05-08T08:16:58Z</time>
      </trkpt>
      <trkpt lat="45.36745" lon="1.252">
        <ele>377.600006</ele>
        <time>2011-05-08T08:17:00Z</time>
      </trkpt>
      <trkpt lat="45.36743" lon="1.25209">
        <ele>377.700012</ele>
        <time>2011-05-08T08:17:02Z</time>
      </trkpt>
      <trkpt lat="45.36741" lon="1.25219">
        <ele>377.799988</ele>
        <time>2011-05-08T08:17:04Z</time>
      </trkpt>
      <trkpt lat="45.36739" lon="1.25228">
        <ele>377.899994</ele>
        <time>2011-05-08T08:17:06Z</time>
      </trkpt>
      <trkpt lat="45.36737" lon="1.25238">
        <ele>378.899994</ele>
        <time>2011-05-08T08:17:08Z</time>
      </trkpt>
      <trkpt lat="45.36735" lon="1.25247">
        <ele>379.299988</ele>
        <time>2011-05-08T08:17:10Z</time>
      </trkpt>
      <trkpt lat="45.36733" lon="1.25256">
        <ele>379.5</ele>
        <time>2011-05-08T08:17:12Z</time>
      </trkpt>
      <trkpt lat="45.36732" lon="1.25266">
        <ele>379.600006</ele>
        <time>2011-05-08T08:17:14Z</time>
      </trkpt>
      <trkpt lat="45.36729" lon="1.25275">
        <ele>379.399994</ele>
        <time>2011-05-08T08:17:16Z</time>
      </trkpt>
      <trkpt lat="45.36728" lon="1.25283">
        <ele>379.600006</ele>
        <time>2011-05-08T08:17:18Z</time>
      </trkpt>
      <trkpt lat="45.36726" lon="1.25293">
        <ele>380.200012</ele>
        <time>2011-05-08T08:17:20Z</time>
      </trkpt>
      <trkpt lat="45.36724" lon="1.25302">
        <ele>379.799988</ele>
        <time>2011-05-08T08:17:22Z</time>
      </trkpt>
      <trkpt lat="45.36721" lon="1.25312">
        <ele>380.100006</ele>
        <time>2011-05-08T08:17:25Z</time>
      </trkpt>
      <trkpt lat="45.36719" lon="1.25324">
        <ele>380.899994</ele>
        <time>2011-05-08T08:17:28Z</time>
      </trkpt>
      <trkpt lat="45.36719" lon="1.25328">
        <ele>381.100006</ele>
        <time>2011-05-08T08:17:29Z</time>
      </trkpt>
      <trkpt lat="45.36715" lon="1.25348">
        <ele>381.600006</ele>
        <time>2011-05-08T08:17:34Z</time>
      </trkpt>
      <trkpt lat="45.36713" lon="1.25358">
        <ele>381.799988</ele>
        <time>2011-05-08T08:17:37Z</time>
      </trkpt>
      <trkpt lat="45.36711" lon="1.25369">
        <ele>382</ele>
        <time>2011-05-08T08:17:40Z</time>
      </trkpt>
      <trkpt lat="45.36715" lon="1.2538">
        <ele>383.5</ele>
        <time>2011-05-08T08:17:46Z</time>
      </trkpt>
      <trkpt lat="45.36721" lon="1.25387">
        <ele>384.200012</ele>
        <time>2011-05-08T08:17:52Z</time>
      </trkpt>
      <trkpt lat="45.36724" lon="1.25398">
        <ele>387.399994</ele>
        <time>2011-05-08T08:17:59Z</time>
      </trkpt>
      <trkpt lat="45.36728" lon="1.25408">
        <ele>389.100006</ele>
        <time>2011-05-08T08:18:06Z</time>
      </trkpt>
      <trkpt lat="45.36733" lon="1.25419">
        <ele>389.299988</ele>
        <time>2011-05-08T08:18:12Z</time>
      </trkpt>
      <trkpt lat="45.36735" lon="1.2543">
        <ele>389.700012</ele>
        <time>2011-05-08T08:18:16Z</time>
      </trkpt>
      <trkpt lat="45.36734" lon="1.25443">
        <ele>390.399994</ele>
        <time>2011-05-08T08:18:20Z</time>
      </trkpt>
      <trkpt lat="45.36734" lon="1.25455">
        <ele>391.100006</ele>
        <time>2011-05-08T08:18:24Z</time>
      </trkpt>
      <trkpt lat="45.36732" lon="1.25466">
        <ele>390.899994</ele>
        <time>2011-05-08T08:18:27Z</time>
      </trkpt>
      <trkpt lat="45.3673" lon="1.25476">
        <ele>391.200012</ele>
        <time>2011-05-08T08:18:30Z</time>
      </trkpt>
      <trkpt lat="45.36729" lon="1.25479">
        <ele>391.5</ele>
        <time>2011-05-08T08:18:31Z</time>
      </trkpt>
      <trkpt lat="45.36724" lon="1.25496">
        <ele>393.600006</ele>
        <time>2011-05-08T08:18:36Z</time>
      </trkpt>
      <trkpt lat="45.3672" lon="1.25505">
        <ele>392.799988</ele>
        <time>2011-05-08T08:18:39Z</time>
      </trkpt>
      <trkpt lat="45.36717" lon="1.25513">
        <ele>392.600006</ele>
        <time>2011-05-08T08:18:41Z</time>
      </trkpt>
      <trkpt lat="45.36713" lon="1.2552">
        <ele>392</ele>
        <time>2011-05-08T08:18:43Z</time>
      </trkpt>
      <trkpt lat="45.3671" lon="1.25528">
        <ele>392.100006</ele>
        <time>2011-05-08T08:18:45Z</time>
      </trkpt>
      <trkpt lat="45.36707" lon="1.25537">
        <ele>391.600006</ele>
        <time>2011-05-08T08:18:47Z</time>
      </trkpt>
      <trkpt lat="45.36703" lon="1.25546">
        <ele>391.600006</ele>
        <time>2011-05-08T08:18:49Z</time>
      </trkpt>
      <trkpt lat="45.367" lon="1.25555">
        <ele>392</ele>
        <time>2011-05-08T08:18:51Z</time>
      </trkpt>
      <trkpt lat="45.36697" lon="1.25564">
        <ele>392.200012</ele>
        <time>2011-05-08T08:18:53Z</time>
      </trkpt>
      <trkpt lat="45.36695" lon="1.25572">
        <ele>392.100006</ele>
        <time>2011-05-08T08:18:55Z</time>
      </trkpt>
      <trkpt lat="45.36691" lon="1.2558">
        <ele>393.200012</ele>
        <time>2011-05-08T08:18:57Z</time>
      </trkpt>
      <trkpt lat="45.36688" lon="1.25588">
        <ele>393.600006</ele>
        <time>2011-05-08T08:18:59Z</time>
      </trkpt>
      <trkpt lat="45.36686" lon="1.256">
        <ele>393.5</ele>
        <time>2011-05-08T08:19:02Z</time>
      </trkpt>
      <trkpt lat="45.36685" lon="1.25612">
        <ele>393.200012</ele>
        <time>2011-05-08T08:19:05Z</time>
      </trkpt>
      <trkpt lat="45.36683" lon="1.25622">
        <ele>393.399994</ele>
        <time>2011-05-08T08:19:08Z</time>
      </trkpt>
      <trkpt lat="45.3668" lon="1.25631">
        <ele>393.200012</ele>
        <time>2011-05-08T08:19:11Z</time>
      </trkpt>
      <trkpt lat="45.36675" lon="1.25642">
        <ele>394.600006</ele>
        <time>2011-05-08T08:19:14Z</time>
      </trkpt>
      <trkpt lat="45.36672" lon="1.25649">
        <ele>395.5</ele>
        <time>2011-05-08T08:19:16Z</time>
      </trkpt>
      <trkpt lat="45.36668" lon="1.25661">
        <ele>395.899994</ele>
        <time>2011-05-08T08:19:19Z</time>
      </trkpt>
      <trkpt lat="45.36666" lon="1.25669">
        <ele>396.799988</ele>
        <time>2011-05-08T08:19:21Z</time>
      </trkpt>
      <trkpt lat="45.36663" lon="1.25677">
        <ele>396.600006</ele>
        <time>2011-05-08T08:19:23Z</time>
      </trkpt>
      <trkpt lat="45.36661" lon="1.25685">
        <ele>397.600006</ele>
        <time>2011-05-08T08:19:25Z</time>
      </trkpt>
      <trkpt lat="45.36658" lon="1.25694">
        <ele>398.200012</ele>
        <time>2011-05-08T08:19:27Z</time>
      </trkpt>
      <trkpt lat="45.36656" lon="1.25702">
        <ele>398.100006</ele>
        <time>2011-05-08T08:19:29Z</time>
      </trkpt>
      <trkpt lat="45.36654" lon="1.25711">
        <ele>397.899994</ele>
        <time>2011-05-08T08:19:31Z</time>
      </trkpt>
      <trkpt lat="45.36652" lon="1.25715">
        <ele>397.899994</ele>
        <time>2011-05-08T08:19:32Z</time>
      </trkpt>
      <trkpt lat="45.36649" lon="1.25728">
        <ele>398.700012</ele>
        <time>2011-05-08T08:19:35Z</time>
      </trkpt>
      <trkpt lat="45.36647" lon="1.25738">
        <ele>398.399994</ele>
        <time>2011-05-08T08:19:37Z</time>
      </trkpt>
      <trkpt lat="45.36644" lon="1.25748">
        <ele>398.399994</ele>
        <time>2011-05-08T08:19:39Z</time>
      </trkpt>
      <trkpt lat="45.3664" lon="1.25757">
        <ele>398.299988</ele>
        <time>2011-05-08T08:19:41Z</time>
      </trkpt>
      <trkpt lat="45.36635" lon="1.25765">
        <ele>398.200012</ele>
        <time>2011-05-08T08:19:43Z</time>
      </trkpt>
      <trkpt lat="45.36631" lon="1.25773">
        <ele>398.100006</ele>
        <time>2011-05-08T08:19:45Z</time>
      </trkpt>
      <trkpt lat="45.36627" lon="1.25781">
        <ele>398.299988</ele>
        <time>2011-05-08T08:19:47Z</time>
      </trkpt>
      <trkpt lat="45.36625" lon="1.2579">
        <ele>398.399994</ele>
        <time>2011-05-08T08:19:49Z</time>
      </trkpt>
      <trkpt lat="45.3662" lon="1.258">
        <ele>399.700012</ele>
        <time>2011-05-08T08:19:52Z</time>
      </trkpt>
      <trkpt lat="45.36616" lon="1.25811">
        <ele>400.700012</ele>
        <time>2011-05-08T08:19:55Z</time>
      </trkpt>
      <trkpt lat="45.36613" lon="1.25819">
        <ele>401.299988</ele>
        <time>2011-05-08T08:19:57Z</time>
      </trkpt>
      <trkpt lat="45.3661" lon="1.25828">
        <ele>401.700012</ele>
        <time>2011-05-08T08:19:59Z</time>
      </trkpt>
      <trkpt lat="45.36608" lon="1.25837">
        <ele>401.899994</ele>
        <time>2011-05-08T08:20:01Z</time>
      </trkpt>
      <trkpt lat="45.36604" lon="1.25846">
        <ele>401.5</ele>
        <time>2011-05-08T08:20:03Z</time>
      </trkpt>
      <trkpt lat="45.366" lon="1.25854">
        <ele>401.700012</ele>
        <time>2011-05-08T08:20:05Z</time>
      </trkpt>
      <trkpt lat="45.36598" lon="1.25864">
        <ele>401.399994</ele>
        <time>2011-05-08T08:20:07Z</time>
      </trkpt>
      <trkpt lat="45.36595" lon="1.25873">
        <ele>401</ele>
        <time>2011-05-08T08:20:09Z</time>
      </trkpt>
      <trkpt lat="45.36592" lon="1.25883">
        <ele>400.899994</ele>
        <time>2011-05-08T08:20:11Z</time>
      </trkpt>
      <trkpt lat="45.36588" lon="1.25893">
        <ele>401.299988</ele>
        <time>2011-05-08T08:20:13Z</time>
      </trkpt>
      <trkpt lat="45.36582" lon="1.25902">
        <ele>402.100006</ele>
        <time>2011-05-08T08:20:15Z</time>
      </trkpt>
      <trkpt lat="45.36577" lon="1.25912">
        <ele>401.899994</ele>
        <time>2011-05-08T08:20:17Z</time>
      </trkpt>
      <trkpt lat="45.36575" lon="1.25918">
        <ele>401.799988</ele>
        <time>2011-05-08T08:20:18Z</time>
      </trkpt>
      <trkpt lat="45.36573" lon="1.25923">
        <ele>401.600006</ele>
        <time>2011-05-08T08:20:19Z</time>
      </trkpt>
      <trkpt lat="45.36568" lon="1.25934">
        <ele>401.700012</ele>
        <time>2011-05-08T08:20:21Z</time>
      </trkpt>
      <trkpt lat="45.36566" lon="1.2594">
        <ele>401.799988</ele>
        <time>2011-05-08T08:20:22Z</time>
      </trkpt>
      <trkpt lat="45.36561" lon="1.2595">
        <ele>401.5</ele>
        <time>2011-05-08T08:20:24Z</time>
      </trkpt>
      <trkpt lat="45.36557" lon="1.25961">
        <ele>401.299988</ele>
        <time>2011-05-08T08:20:26Z</time>
      </trkpt>
      <trkpt lat="45.36553" lon="1.25973">
        <ele>401.600006</ele>
        <time>2011-05-08T08:20:28Z</time>
      </trkpt>
      <trkpt lat="45.3655" lon="1.25984">
        <ele>401.799988</ele>
        <time>2011-05-08T08:20:30Z</time>
      </trkpt>
      <trkpt lat="45.36549" lon="1.2599">
        <ele>401.899994</ele>
        <time>2011-05-08T08:20:31Z</time>
      </trkpt>
      <trkpt lat="45.36546" lon="1.25996">
        <ele>401.899994</ele>
        <time>2011-05-08T08:20:32Z</time>
      </trkpt>
      <trkpt lat="45.36544" lon="1.26001">
        <ele>402</ele>
        <time>2011-05-08T08:20:33Z</time>
      </trkpt>
      <trkpt lat="45.36541" lon="1.26007">
        <ele>402</ele>
        <time>2011-05-08T08:20:34Z</time>
      </trkpt>
      <trkpt lat="45.36539" lon="1.26012">
        <ele>402.100006</ele>
        <time>2011-05-08T08:20:35Z</time>
      </trkpt>
      <trkpt lat="45.36536" lon="1.26018">
        <ele>402.100006</ele>
        <time>2011-05-08T08:20:36Z</time>
      </trkpt>
      <trkpt lat="45.36531" lon="1.26029">
        <ele>402.299988</ele>
        <time>2011-05-08T08:20:38Z</time>
      </trkpt>
      <trkpt lat="45.36527" lon="1.26039">
        <ele>402.399994</ele>
        <time>2011-05-08T08:20:40Z</time>
      </trkpt>
      <trkpt lat="45.36523" lon="1.26049">
        <ele>402.299988</ele>
        <time>2011-05-08T08:20:42Z</time>
      </trkpt>
      <trkpt lat="45.36519" lon="1.26058">
        <ele>403.399994</ele>
        <time>2011-05-08T08:20:44Z</time>
      </trkpt>
      <trkpt lat="45.36516" lon="1.26067">
        <ele>403.700012</ele>
        <time>2011-05-08T08:20:46Z</time>
      </trkpt>
      <trkpt lat="45.36513" lon="1.26077">
        <ele>404.100006</ele>
        <time>2011-05-08T08:20:48Z</time>
      </trkpt>
      <trkpt lat="45.36509" lon="1.26087">
        <ele>404.5</ele>
        <time>2011-05-08T08:20:50Z</time>
      </trkpt>
      <trkpt lat="45.36506" lon="1.26098">
        <ele>404.299988</ele>
        <time>2011-05-08T08:20:52Z</time>
      </trkpt>
      <trkpt lat="45.36503" lon="1.26108">
        <ele>404.200012</ele>
        <time>2011-05-08T08:20:54Z</time>
      </trkpt>
      <trkpt lat="45.36499" lon="1.26118">
        <ele>404.299988</ele>
        <time>2011-05-08T08:20:56Z</time>
      </trkpt>
      <trkpt lat="45.36495" lon="1.26128">
        <ele>404.700012</ele>
        <time>2011-05-08T08:20:58Z</time>
      </trkpt>
      <trkpt lat="45.36493" lon="1.26139">
        <ele>406</ele>
        <time>2011-05-08T08:21:00Z</time>
      </trkpt>
      <trkpt lat="45.36489" lon="1.26149">
        <ele>405.700012</ele>
        <time>2011-05-08T08:21:02Z</time>
      </trkpt>
      <trkpt lat="45.36486" lon="1.2616">
        <ele>405.700012</ele>
        <time>2011-05-08T08:21:04Z</time>
      </trkpt>
      <trkpt lat="45.36482" lon="1.26172">
        <ele>405.100006</ele>
        <time>2011-05-08T08:21:06Z</time>
      </trkpt>
      <trkpt lat="45.3648" lon="1.26177">
        <ele>404.700012</ele>
        <time>2011-05-08T08:21:07Z</time>
      </trkpt>
      <trkpt lat="45.36477" lon="1.26183">
        <ele>404.299988</ele>
        <time>2011-05-08T08:21:08Z</time>
      </trkpt>
      <trkpt lat="45.36474" lon="1.26189">
        <ele>405</ele>
        <time>2011-05-08T08:21:09Z</time>
      </trkpt>
      <trkpt lat="45.36472" lon="1.26194">
        <ele>405.5</ele>
        <time>2011-05-08T08:21:10Z</time>
      </trkpt>
      <trkpt lat="45.36469" lon="1.262">
        <ele>405.100006</ele>
        <time>2011-05-08T08:21:11Z</time>
      </trkpt>
      <trkpt lat="45.36467" lon="1.26206">
        <ele>404.700012</ele>
        <time>2011-05-08T08:21:12Z</time>
      </trkpt>
      <trkpt lat="45.36465" lon="1.26212">
        <ele>404.5</ele>
        <time>2011-05-08T08:21:13Z</time>
      </trkpt>
      <trkpt lat="45.36462" lon="1.26218">
        <ele>404.399994</ele>
        <time>2011-05-08T08:21:14Z</time>
      </trkpt>
      <trkpt lat="45.3646" lon="1.26224">
        <ele>404.299988</ele>
        <time>2011-05-08T08:21:15Z</time>
      </trkpt>
      <trkpt lat="45.36457" lon="1.2623">
        <ele>404.399994</ele>
        <time>2011-05-08T08:21:16Z</time>
      </trkpt>
      <trkpt lat="45.36455" lon="1.26237">
        <ele>404.399994</ele>
        <time>2011-05-08T08:21:17Z</time>
      </trkpt>
      <trkpt lat="45.36452" lon="1.26242">
        <ele>404.399994</ele>
        <time>2011-05-08T08:21:18Z</time>
      </trkpt>
      <trkpt lat="45.36449" lon="1.26248">
        <ele>404.5</ele>
        <time>2011-05-08T08:21:19Z</time>
      </trkpt>
      <trkpt lat="45.36447" lon="1.26254">
        <ele>404.899994</ele>
        <time>2011-05-08T08:21:20Z</time>
      </trkpt>
      <trkpt lat="45.36444" lon="1.26259">
        <ele>405.200012</ele>
        <time>2011-05-08T08:21:21Z</time>
      </trkpt>
      <trkpt lat="45.36439" lon="1.2627">
        <ele>405.700012</ele>
        <time>2011-05-08T08:21:23Z</time>
      </trkpt>
      <trkpt lat="45.36434" lon="1.2628">
        <ele>405.700012</ele>
        <time>2011-05-08T08:21:25Z</time>
      </trkpt>
      <trkpt lat="45.3643" lon="1.26289">
        <ele>405.5</ele>
        <time>2011-05-08T08:21:27Z</time>
      </trkpt>
      <trkpt lat="45.36425" lon="1.26299">
        <ele>405.299988</ele>
        <time>2011-05-08T08:21:29Z</time>
      </trkpt>
      <trkpt lat="45.36421" lon="1.26309">
        <ele>405.600006</ele>
        <time>2011-05-08T08:21:31Z</time>
      </trkpt>
      <trkpt lat="45.36417" lon="1.26319">
        <ele>405.700012</ele>
        <time>2011-05-08T08:21:33Z</time>
      </trkpt>
      <trkpt lat="45.36414" lon="1.26324">
        <ele>405.799988</ele>
        <time>2011-05-08T08:21:34Z</time>
      </trkpt>
      <trkpt lat="45.36408" lon="1.26338">
        <ele>406.299988</ele>
        <time>2011-05-08T08:21:37Z</time>
      </trkpt>
      <trkpt lat="45.36405" lon="1.26348">
        <ele>407</ele>
        <time>2011-05-08T08:21:39Z</time>
      </trkpt>
      <trkpt lat="45.36401" lon="1.26358">
        <ele>407.600006</ele>
        <time>2011-05-08T08:21:41Z</time>
      </trkpt>
      <trkpt lat="45.36397" lon="1.26368">
        <ele>407.399994</ele>
        <time>2011-05-08T08:21:43Z</time>
      </trkpt>
      <trkpt lat="45.36394" lon="1.26377">
        <ele>407.200012</ele>
        <time>2011-05-08T08:21:45Z</time>
      </trkpt>
      <trkpt lat="45.3639" lon="1.26387">
        <ele>407.899994</ele>
        <time>2011-05-08T08:21:47Z</time>
      </trkpt>
      <trkpt lat="45.36387" lon="1.26396">
        <ele>408.600006</ele>
        <time>2011-05-08T08:21:49Z</time>
      </trkpt>
      <trkpt lat="45.36383" lon="1.26405">
        <ele>408.600006</ele>
        <time>2011-05-08T08:21:51Z</time>
      </trkpt>
      <trkpt lat="45.3638" lon="1.26415">
        <ele>408.399994</ele>
        <time>2011-05-08T08:21:53Z</time>
      </trkpt>
      <trkpt lat="45.36376" lon="1.26424">
        <ele>409.100006</ele>
        <time>2011-05-08T08:21:55Z</time>
      </trkpt>
      <trkpt lat="45.36373" lon="1.26434">
        <ele>409.700012</ele>
        <time>2011-05-08T08:21:57Z</time>
      </trkpt>
      <trkpt lat="45.36369" lon="1.26443">
        <ele>409.799988</ele>
        <time>2011-05-08T08:21:59Z</time>
      </trkpt>
      <trkpt lat="45.36364" lon="1.26451">
        <ele>409.600006</ele>
        <time>2011-05-08T08:22:01Z</time>
      </trkpt>
      <trkpt lat="45.3636" lon="1.2646">
        <ele>409.399994</ele>
        <time>2011-05-08T08:22:03Z</time>
      </trkpt>
      <trkpt lat="45.36356" lon="1.26469">
        <ele>409.299988</ele>
        <time>2011-05-08T08:22:05Z</time>
      </trkpt>
      <trkpt lat="45.36352" lon="1.26479">
        <ele>409.299988</ele>
        <time>2011-05-08T08:22:07Z</time>
      </trkpt>
      <trkpt lat="45.36349" lon="1.26486">
        <ele>410.100006</ele>
        <time>2011-05-08T08:22:09Z</time>
      </trkpt>
      <trkpt lat="45.36343" lon="1.26495">
        <ele>410.899994</ele>
        <time>2011-05-08T08:22:13Z</time>
      </trkpt>
      <trkpt lat="45.36336" lon="1.26502">
        <ele>412.5</ele>
        <time>2011-05-08T08:23:15Z</time>
      </trkpt>
      <trkpt lat="45.36335" lon="1.26502">
        <ele>412.600006</ele>
        <time>2011-05-08T08:23:16Z</time>
      </trkpt>
      <trkpt lat="45.36326" lon="1.2652">
        <ele>410.799988</ele>
        <time>2011-05-08T08:23:57Z</time>
      </trkpt>
      <trkpt lat="45.3632" lon="1.26528">
        <ele>411.700012</ele>
        <time>2011-05-08T08:24:00Z</time>
      </trkpt>
      <trkpt lat="45.36316" lon="1.26536">
        <ele>412.200012</ele>
        <time>2011-05-08T08:24:02Z</time>
      </trkpt>
      <trkpt lat="45.36314" lon="1.26545">
        <ele>412.399994</ele>
        <time>2011-05-08T08:24:04Z</time>
      </trkpt>
      <trkpt lat="45.36313" lon="1.26555">
        <ele>412.600006</ele>
        <time>2011-05-08T08:24:06Z</time>
      </trkpt>
      <trkpt lat="45.36311" lon="1.26564">
        <ele>412.399994</ele>
        <time>2011-05-08T08:24:08Z</time>
      </trkpt>
      <trkpt lat="45.36306" lon="1.26572">
        <ele>411.799988</ele>
        <time>2011-05-08T08:24:10Z</time>
      </trkpt>
      <trkpt lat="45.36301" lon="1.26582">
        <ele>411.5</ele>
        <time>2011-05-08T08:24:12Z</time>
      </trkpt>
      <trkpt lat="45.36297" lon="1.26592">
        <ele>411</ele>
        <time>2011-05-08T08:24:14Z</time>
      </trkpt>
      <trkpt lat="45.3629" lon="1.26599">
        <ele>410.399994</ele>
        <time>2011-05-08T08:24:16Z</time>
      </trkpt>
      <trkpt lat="45.36287" lon="1.26604">
        <ele>410.200012</ele>
        <time>2011-05-08T08:24:17Z</time>
      </trkpt>
      <trkpt lat="45.36279" lon="1.26618">
        <ele>409.899994</ele>
        <time>2011-05-08T08:24:20Z</time>
      </trkpt>
      <trkpt lat="45.36276" lon="1.26623">
        <ele>410.299988</ele>
        <time>2011-05-08T08:24:21Z</time>
      </trkpt>
      <trkpt lat="45.36273" lon="1.26629">
        <ele>410.600006</ele>
        <time>2011-05-08T08:24:22Z</time>
      </trkpt>
      <trkpt lat="45.3627" lon="1.26635">
        <ele>410.299988</ele>
        <time>2011-05-08T08:24:23Z</time>
      </trkpt>
      <trkpt lat="45.36267" lon="1.26641">
        <ele>410.100006</ele>
        <time>2011-05-08T08:24:24Z</time>
      </trkpt>
      <trkpt lat="45.36264" lon="1.26647">
        <ele>410</ele>
        <time>2011-05-08T08:24:25Z</time>
      </trkpt>
      <trkpt lat="45.36261" lon="1.26653">
        <ele>410.200012</ele>
        <time>2011-05-08T08:24:26Z</time>
      </trkpt>
      <trkpt lat="45.36258" lon="1.26659">
        <ele>410.399994</ele>
        <time>2011-05-08T08:24:27Z</time>
      </trkpt>
      <trkpt lat="45.36255" lon="1.26665">
        <ele>410.600006</ele>
        <time>2011-05-08T08:24:28Z</time>
      </trkpt>
      <trkpt lat="45.36252" lon="1.26671">
        <ele>410.799988</ele>
        <time>2011-05-08T08:24:29Z</time>
      </trkpt>
      <trkpt lat="45.3625" lon="1.26676">
        <ele>410.899994</ele>
        <time>2011-05-08T08:24:30Z</time>
      </trkpt>
      <trkpt lat="45.36248" lon="1.26682">
        <ele>411</ele>
        <time>2011-05-08T08:24:31Z</time>
      </trkpt>
      <trkpt lat="45.36245" lon="1.26689">
        <ele>411.100006</ele>
        <time>2011-05-08T08:24:32Z</time>
      </trkpt>
      <trkpt lat="45.36242" lon="1.26695">
        <ele>410.899994</ele>
        <time>2011-05-08T08:24:33Z</time>
      </trkpt>
      <trkpt lat="45.36239" lon="1.26702">
        <ele>410.799988</ele>
        <time>2011-05-08T08:24:34Z</time>
      </trkpt>
      <trkpt lat="45.36236" lon="1.26708">
        <ele>410.799988</ele>
        <time>2011-05-08T08:24:35Z</time>
      </trkpt>
      <trkpt lat="45.36232" lon="1.26713">
        <ele>410.799988</ele>
        <time>2011-05-08T08:24:36Z</time>
      </trkpt>
      <trkpt lat="45.36226" lon="1.26721">
        <ele>410.700012</ele>
        <time>2011-05-08T08:24:38Z</time>
      </trkpt>
      <trkpt lat="45.36221" lon="1.26724">
        <ele>410.600006</ele>
        <time>2011-05-08T08:24:39Z</time>
      </trkpt>
      <trkpt lat="45.36217" lon="1.26726">
        <ele>410.299988</ele>
        <time>2011-05-08T08:24:40Z</time>
      </trkpt>
      <trkpt lat="45.36212" lon="1.26728">
        <ele>410</ele>
        <time>2011-05-08T08:24:41Z</time>
      </trkpt>
      <trkpt lat="45.36207" lon="1.26731">
        <ele>410.200012</ele>
        <time>2011-05-08T08:24:42Z</time>
      </trkpt>
      <trkpt lat="45.36201" lon="1.26734">
        <ele>410.399994</ele>
        <time>2011-05-08T08:24:43Z</time>
      </trkpt>
      <trkpt lat="45.36194" lon="1.26737">
        <ele>410.5</ele>
        <time>2011-05-08T08:24:44Z</time>
      </trkpt>
      <trkpt lat="45.36187" lon="1.26741">
        <ele>409.799988</ele>
        <time>2011-05-08T08:24:45Z</time>
      </trkpt>
      <trkpt lat="45.36179" lon="1.26746">
        <ele>409.299988</ele>
        <time>2011-05-08T08:24:46Z</time>
      </trkpt>
      <trkpt lat="45.36172" lon="1.2675">
        <ele>408.200012</ele>
        <time>2011-05-08T08:24:47Z</time>
      </trkpt>
      <trkpt lat="45.36165" lon="1.26754">
        <ele>407.5</ele>
        <time>2011-05-08T08:24:48Z</time>
      </trkpt>
      <trkpt lat="45.36159" lon="1.26757">
        <ele>406.200012</ele>
        <time>2011-05-08T08:24:49Z</time>
      </trkpt>
      <trkpt lat="45.36152" lon="1.26763">
        <ele>404.5</ele>
        <time>2011-05-08T08:24:51Z</time>
      </trkpt>
      <trkpt lat="45.36144" lon="1.26759">
        <ele>403.799988</ele>
        <time>2011-05-08T08:24:53Z</time>
      </trkpt>
      <trkpt lat="45.36138" lon="1.26751">
        <ele>402.200012</ele>
        <time>2011-05-08T08:24:55Z</time>
      </trkpt>
      <trkpt lat="45.36134" lon="1.26746">
        <ele>401.399994</ele>
        <time>2011-05-08T08:24:56Z</time>
      </trkpt>
      <trkpt lat="45.3613" lon="1.26742">
        <ele>400.700012</ele>
        <time>2011-05-08T08:24:57Z</time>
      </trkpt>
      <trkpt lat="45.36124" lon="1.26738">
        <ele>400.299988</ele>
        <time>2011-05-08T08:24:58Z</time>
      </trkpt>
      <trkpt lat="45.36119" lon="1.26733">
        <ele>400</ele>
        <time>2011-05-08T08:24:59Z</time>
      </trkpt>
      <trkpt lat="45.36114" lon="1.26727">
        <ele>399.799988</ele>
        <time>2011-05-08T08:25:00Z</time>
      </trkpt>
      <trkpt lat="45.36109" lon="1.26721">
        <ele>399.299988</ele>
        <time>2011-05-08T08:25:01Z</time>
      </trkpt>
      <trkpt lat="45.36104" lon="1.26716">
        <ele>398.799988</ele>
        <time>2011-05-08T08:25:02Z</time>
      </trkpt>
      <trkpt lat="45.361" lon="1.26711">
        <ele>398.5</ele>
        <time>2011-05-08T08:25:03Z</time>
      </trkpt>
      <trkpt lat="45.36094" lon="1.26705">
        <ele>398.399994</ele>
        <time>2011-05-08T08:25:04Z</time>
      </trkpt>
      <trkpt lat="45.36089" lon="1.267">
        <ele>398.399994</ele>
        <time>2011-05-08T08:25:05Z</time>
      </trkpt>
      <trkpt lat="45.36081" lon="1.26696">
        <ele>397.100006</ele>
        <time>2011-05-08T08:25:07Z</time>
      </trkpt>
      <trkpt lat="45.36075" lon="1.26698">
        <ele>396</ele>
        <time>2011-05-08T08:25:09Z</time>
      </trkpt>
      <trkpt lat="45.36068" lon="1.26698">
        <ele>395.799988</ele>
        <time>2011-05-08T08:25:11Z</time>
      </trkpt>
      <trkpt lat="45.3606" lon="1.26692">
        <ele>395.5</ele>
        <time>2011-05-08T08:25:13Z</time>
      </trkpt>
      <trkpt lat="45.36056" lon="1.26689">
        <ele>395.200012</ele>
        <time>2011-05-08T08:25:14Z</time>
      </trkpt>
      <trkpt lat="45.36051" lon="1.26686">
        <ele>395</ele>
        <time>2011-05-08T08:25:15Z</time>
      </trkpt>
      <trkpt lat="45.36047" lon="1.26682">
        <ele>394.899994</ele>
        <time>2011-05-08T08:25:16Z</time>
      </trkpt>
      <trkpt lat="45.36042" lon="1.26678">
        <ele>394.799988</ele>
        <time>2011-05-08T08:25:17Z</time>
      </trkpt>
      <trkpt lat="45.36037" lon="1.26673">
        <ele>394.5</ele>
        <time>2011-05-08T08:25:18Z</time>
      </trkpt>
      <trkpt lat="45.36031" lon="1.26669">
        <ele>394.299988</ele>
        <time>2011-05-08T08:25:19Z</time>
      </trkpt>
      <trkpt lat="45.36027" lon="1.26663">
        <ele>393.799988</ele>
        <time>2011-05-08T08:25:20Z</time>
      </trkpt>
      <trkpt lat="45.36022" lon="1.26657">
        <ele>393.399994</ele>
        <time>2011-05-08T08:25:21Z</time>
      </trkpt>
      <trkpt lat="45.36017" lon="1.26651">
        <ele>392.799988</ele>
        <time>2011-05-08T08:25:22Z</time>
      </trkpt>
      <trkpt lat="45.36012" lon="1.26646">
        <ele>392.399994</ele>
        <time>2011-05-08T08:25:23Z</time>
      </trkpt>
      <trkpt lat="45.36006" lon="1.26644">
        <ele>392</ele>
        <time>2011-05-08T08:25:24Z</time>
      </trkpt>
      <trkpt lat="45.35999" lon="1.26643">
        <ele>391.299988</ele>
        <time>2011-05-08T08:25:25Z</time>
      </trkpt>
      <trkpt lat="45.35992" lon="1.26642">
        <ele>390.799988</ele>
        <time>2011-05-08T08:25:26Z</time>
      </trkpt>
      <trkpt lat="45.35985" lon="1.26639">
        <ele>390.200012</ele>
        <time>2011-05-08T08:25:27Z</time>
      </trkpt>
      <trkpt lat="45.3598" lon="1.26634">
        <ele>389.799988</ele>
        <time>2011-05-08T08:25:28Z</time>
      </trkpt>
      <trkpt lat="45.35975" lon="1.26628">
        <ele>389.399994</ele>
        <time>2011-05-08T08:25:29Z</time>
      </trkpt>
      <trkpt lat="45.35971" lon="1.26624">
        <ele>389.100006</ele>
        <time>2011-05-08T08:25:30Z</time>
      </trkpt>
      <trkpt lat="45.35967" lon="1.26619">
        <ele>388.799988</ele>
        <time>2011-05-08T08:25:31Z</time>
      </trkpt>
      <trkpt lat="45.35963" lon="1.26612">
        <ele>388.299988</ele>
        <time>2011-05-08T08:25:32Z</time>
      </trkpt>
      <trkpt lat="45.35961" lon="1.26605">
        <ele>388</ele>
        <time>2011-05-08T08:25:33Z</time>
      </trkpt>
      <trkpt lat="45.35958" lon="1.26599">
        <ele>387</ele>
        <time>2011-05-08T08:25:34Z</time>
      </trkpt>
      <trkpt lat="45.35954" lon="1.26591">
        <ele>386.399994</ele>
        <time>2011-05-08T08:25:35Z</time>
      </trkpt>
      <trkpt lat="45.35949" lon="1.26583">
        <ele>385.799988</ele>
        <time>2011-05-08T08:25:36Z</time>
      </trkpt>
      <trkpt lat="45.35944" lon="1.26575">
        <ele>385.399994</ele>
        <time>2011-05-08T08:25:37Z</time>
      </trkpt>
      <trkpt lat="45.35941" lon="1.26567">
        <ele>385.100006</ele>
        <time>2011-05-08T08:25:38Z</time>
      </trkpt>
      <trkpt lat="45.3594" lon="1.26559">
        <ele>384.5</ele>
        <time>2011-05-08T08:25:39Z</time>
      </trkpt>
      <trkpt lat="45.35937" lon="1.26553">
        <ele>384.100006</ele>
        <time>2011-05-08T08:25:40Z</time>
      </trkpt>
      <trkpt lat="45.35933" lon="1.26545">
        <ele>383.799988</ele>
        <time>2011-05-08T08:25:41Z</time>
      </trkpt>
      <trkpt lat="45.35929" lon="1.26537">
        <ele>383.200012</ele>
        <time>2011-05-08T08:25:42Z</time>
      </trkpt>
      <trkpt lat="45.35923" lon="1.26529">
        <ele>382.700012</ele>
        <time>2011-05-08T08:25:43Z</time>
      </trkpt>
      <trkpt lat="45.3592" lon="1.26521">
        <ele>382</ele>
        <time>2011-05-08T08:25:44Z</time>
      </trkpt>
      <trkpt lat="45.35916" lon="1.26514">
        <ele>381.5</ele>
        <time>2011-05-08T08:25:45Z</time>
      </trkpt>
      <trkpt lat="45.35911" lon="1.26506">
        <ele>380.799988</ele>
        <time>2011-05-08T08:25:46Z</time>
      </trkpt>
      <trkpt lat="45.35906" lon="1.26498">
        <ele>380.200012</ele>
        <time>2011-05-08T08:25:47Z</time>
      </trkpt>
      <trkpt lat="45.35902" lon="1.26492">
        <ele>379.799988</ele>
        <time>2011-05-08T08:25:48Z</time>
      </trkpt>
      <trkpt lat="45.35897" lon="1.26486">
        <ele>378.200012</ele>
        <time>2011-05-08T08:25:49Z</time>
      </trkpt>
      <trkpt lat="45.35892" lon="1.26479">
        <ele>377</ele>
        <time>2011-05-08T08:25:50Z</time>
      </trkpt>
      <trkpt lat="45.35887" lon="1.26473">
        <ele>376.200012</ele>
        <time>2011-05-08T08:25:51Z</time>
      </trkpt>
      <trkpt lat="45.35882" lon="1.26467">
        <ele>375.5</ele>
        <time>2011-05-08T08:25:52Z</time>
      </trkpt>
      <trkpt lat="45.35877" lon="1.26459">
        <ele>374.100006</ele>
        <time>2011-05-08T08:25:53Z</time>
      </trkpt>
      <trkpt lat="45.35873" lon="1.26454">
        <ele>373</ele>
        <time>2011-05-08T08:25:54Z</time>
      </trkpt>
      <trkpt lat="45.35868" lon="1.26449">
        <ele>372.100006</ele>
        <time>2011-05-08T08:25:55Z</time>
      </trkpt>
      <trkpt lat="45.35862" lon="1.26443">
        <ele>371.399994</ele>
        <time>2011-05-08T08:25:56Z</time>
      </trkpt>
      <trkpt lat="45.35856" lon="1.26436">
        <ele>370.799988</ele>
        <time>2011-05-08T08:25:57Z</time>
      </trkpt>
      <trkpt lat="45.3585" lon="1.26428">
        <ele>369.600006</ele>
        <time>2011-05-08T08:25:58Z</time>
      </trkpt>
      <trkpt lat="45.35844" lon="1.26421">
        <ele>368.600006</ele>
        <time>2011-05-08T08:25:59Z</time>
      </trkpt>
      <trkpt lat="45.35838" lon="1.26413">
        <ele>368</ele>
        <time>2011-05-08T08:26:00Z</time>
      </trkpt>
      <trkpt lat="45.35831" lon="1.26405">
        <ele>367.100006</ele>
        <time>2011-05-08T08:26:01Z</time>
      </trkpt>
      <trkpt lat="45.35825" lon="1.26397">
        <ele>366.5</ele>
        <time>2011-05-08T08:26:02Z</time>
      </trkpt>
      <trkpt lat="45.35819" lon="1.26389">
        <ele>365.899994</ele>
        <time>2011-05-08T08:26:03Z</time>
      </trkpt>
      <trkpt lat="45.35812" lon="1.2638">
        <ele>365.399994</ele>
        <time>2011-05-08T08:26:04Z</time>
      </trkpt>
      <trkpt lat="45.35806" lon="1.26371">
        <ele>364.799988</ele>
        <time>2011-05-08T08:26:05Z</time>
      </trkpt>
      <trkpt lat="45.35799" lon="1.26362">
        <ele>364.299988</ele>
        <time>2011-05-08T08:26:06Z</time>
      </trkpt>
      <trkpt lat="45.35793" lon="1.26354">
        <ele>363.899994</ele>
        <time>2011-05-08T08:26:07Z</time>
      </trkpt>
      <trkpt lat="45.35786" lon="1.26345">
        <ele>363.200012</ele>
        <time>2011-05-08T08:26:08Z</time>
      </trkpt>
      <trkpt lat="45.35779" lon="1.26336">
        <ele>362.700012</ele>
        <time>2011-05-08T08:26:09Z</time>
      </trkpt>
      <trkpt lat="45.35773" lon="1.26327">
        <ele>361.799988</ele>
        <time>2011-05-08T08:26:10Z</time>
      </trkpt>
      <trkpt lat="45.35766" lon="1.26318">
        <ele>361.100006</ele>
        <time>2011-05-08T08:26:11Z</time>
      </trkpt>
      <trkpt lat="45.3576" lon="1.26309">
        <ele>360.799988</ele>
        <time>2011-05-08T08:26:12Z</time>
      </trkpt>
      <trkpt lat="45.35753" lon="1.263">
        <ele>360.5</ele>
        <time>2011-05-08T08:26:13Z</time>
      </trkpt>
      <trkpt lat="45.35746" lon="1.26292">
        <ele>360.299988</ele>
        <time>2011-05-08T08:26:14Z</time>
      </trkpt>
      <trkpt lat="45.35739" lon="1.26283">
        <ele>360</ele>
        <time>2011-05-08T08:26:15Z</time>
      </trkpt>
      <trkpt lat="45.35733" lon="1.26275">
        <ele>359.700012</ele>
        <time>2011-05-08T08:26:16Z</time>
      </trkpt>
      <trkpt lat="45.35726" lon="1.26266">
        <ele>358.899994</ele>
        <time>2011-05-08T08:26:17Z</time>
      </trkpt>
      <trkpt lat="45.35719" lon="1.26257">
        <ele>358.200012</ele>
        <time>2011-05-08T08:26:18Z</time>
      </trkpt>
      <trkpt lat="45.35713" lon="1.26249">
        <ele>357.600006</ele>
        <time>2011-05-08T08:26:19Z</time>
      </trkpt>
      <trkpt lat="45.35707" lon="1.2624">
        <ele>357.100006</ele>
        <time>2011-05-08T08:26:20Z</time>
      </trkpt>
      <trkpt lat="45.357" lon="1.26231">
        <ele>356.700012</ele>
        <time>2011-05-08T08:26:21Z</time>
      </trkpt>
      <trkpt lat="45.35693" lon="1.26222">
        <ele>355.799988</ele>
        <time>2011-05-08T08:26:22Z</time>
      </trkpt>
      <trkpt lat="45.35687" lon="1.26214">
        <ele>355.100006</ele>
        <time>2011-05-08T08:26:23Z</time>
      </trkpt>
      <trkpt lat="45.3568" lon="1.26205">
        <ele>354.399994</ele>
        <time>2011-05-08T08:26:24Z</time>
      </trkpt>
      <trkpt lat="45.35674" lon="1.26197">
        <ele>353.899994</ele>
        <time>2011-05-08T08:26:25Z</time>
      </trkpt>
      <trkpt lat="45.35669" lon="1.2619">
        <ele>353.5</ele>
        <time>2011-05-08T08:26:26Z</time>
      </trkpt>
      <trkpt lat="45.35663" lon="1.26183">
        <ele>353.100006</ele>
        <time>2011-05-08T08:26:27Z</time>
      </trkpt>
      <trkpt lat="45.35658" lon="1.26176">
        <ele>352.700012</ele>
        <time>2011-05-08T08:26:28Z</time>
      </trkpt>
      <trkpt lat="45.35653" lon="1.2617">
        <ele>352.200012</ele>
        <time>2011-05-08T08:26:29Z</time>
      </trkpt>
      <trkpt lat="45.35648" lon="1.26163">
        <ele>351.700012</ele>
        <time>2011-05-08T08:26:30Z</time>
      </trkpt>
      <trkpt lat="45.35643" lon="1.26156">
        <ele>351.299988</ele>
        <time>2011-05-08T08:26:31Z</time>
      </trkpt>
      <trkpt lat="45.35638" lon="1.26149">
        <ele>351</ele>
        <time>2011-05-08T08:26:32Z</time>
      </trkpt>
      <trkpt lat="45.35633" lon="1.26142">
        <ele>350.700012</ele>
        <time>2011-05-08T08:26:33Z</time>
      </trkpt>
      <trkpt lat="45.35628" lon="1.26135">
        <ele>350.399994</ele>
        <time>2011-05-08T08:26:34Z</time>
      </trkpt>
      <trkpt lat="45.35623" lon="1.26129">
        <ele>350.200012</ele>
        <time>2011-05-08T08:26:35Z</time>
      </trkpt>
      <trkpt lat="45.35617" lon="1.26122">
        <ele>350</ele>
        <time>2011-05-08T08:26:36Z</time>
      </trkpt>
      <trkpt lat="45.35612" lon="1.26116">
        <ele>349.799988</ele>
        <time>2011-05-08T08:26:37Z</time>
      </trkpt>
      <trkpt lat="45.35607" lon="1.26109">
        <ele>349.200012</ele>
        <time>2011-05-08T08:26:38Z</time>
      </trkpt>
      <trkpt lat="45.35602" lon="1.26103">
        <ele>348.799988</ele>
        <time>2011-05-08T08:26:39Z</time>
      </trkpt>
      <trkpt lat="45.35595" lon="1.26098">
        <ele>348</ele>
        <time>2011-05-08T08:26:41Z</time>
      </trkpt>
      <trkpt lat="45.35589" lon="1.26103">
        <ele>347.600006</ele>
        <time>2011-05-08T08:26:43Z</time>
      </trkpt>
      <trkpt lat="45.35586" lon="1.26113">
        <ele>347.5</ele>
        <time>2011-05-08T08:26:45Z</time>
      </trkpt>
      <trkpt lat="45.35582" lon="1.26125">
        <ele>347.799988</ele>
        <time>2011-05-08T08:26:47Z</time>
      </trkpt>
      <trkpt lat="45.35581" lon="1.26131">
        <ele>347.200012</ele>
        <time>2011-05-08T08:26:48Z</time>
      </trkpt>
      <trkpt lat="45.35579" lon="1.26137">
        <ele>346.799988</ele>
        <time>2011-05-08T08:26:49Z</time>
      </trkpt>
      <trkpt lat="45.35577" lon="1.26144">
        <ele>346.600006</ele>
        <time>2011-05-08T08:26:50Z</time>
      </trkpt>
      <trkpt lat="45.35576" lon="1.2615">
        <ele>346.5</ele>
        <time>2011-05-08T08:26:51Z</time>
      </trkpt>
      <trkpt lat="45.35574" lon="1.26157">
        <ele>346.299988</ele>
        <time>2011-05-08T08:26:52Z</time>
      </trkpt>
      <trkpt lat="45.35572" lon="1.26163">
        <ele>346.5</ele>
        <time>2011-05-08T08:26:53Z</time>
      </trkpt>
      <trkpt lat="45.35571" lon="1.2617">
        <ele>346.600006</ele>
        <time>2011-05-08T08:26:54Z</time>
      </trkpt>
      <trkpt lat="45.3557" lon="1.26176">
        <ele>346</ele>
        <time>2011-05-08T08:26:55Z</time>
      </trkpt>
      <trkpt lat="45.35568" lon="1.26183">
        <ele>345.600006</ele>
        <time>2011-05-08T08:26:56Z</time>
      </trkpt>
      <trkpt lat="45.35566" lon="1.2619">
        <ele>345.799988</ele>
        <time>2011-05-08T08:26:57Z</time>
      </trkpt>
      <trkpt lat="45.35564" lon="1.26196">
        <ele>346</ele>
        <time>2011-05-08T08:26:58Z</time>
      </trkpt>
      <trkpt lat="45.35563" lon="1.26203">
        <ele>346.100006</ele>
        <time>2011-05-08T08:26:59Z</time>
      </trkpt>
      <trkpt lat="45.35561" lon="1.2621">
        <ele>346</ele>
        <time>2011-05-08T08:27:00Z</time>
      </trkpt>
      <trkpt lat="45.35559" lon="1.26216">
        <ele>345.899994</ele>
        <time>2011-05-08T08:27:01Z</time>
      </trkpt>
      <trkpt lat="45.35558" lon="1.26223">
        <ele>345.899994</ele>
        <time>2011-05-08T08:27:02Z</time>
      </trkpt>
      <trkpt lat="45.35556" lon="1.2623">
        <ele>345.799988</ele>
        <time>2011-05-08T08:27:03Z</time>
      </trkpt>
      <trkpt lat="45.35554" lon="1.26236">
        <ele>345.799988</ele>
        <time>2011-05-08T08:27:04Z</time>
      </trkpt>
      <trkpt lat="45.35552" lon="1.26243">
        <ele>345.899994</ele>
        <time>2011-05-08T08:27:05Z</time>
      </trkpt>
      <trkpt lat="45.35551" lon="1.2625">
        <ele>346</ele>
        <time>2011-05-08T08:27:06Z</time>
      </trkpt>
      <trkpt lat="45.35549" lon="1.26256">
        <ele>346.100006</ele>
        <time>2011-05-08T08:27:07Z</time>
      </trkpt>
      <trkpt lat="45.35547" lon="1.26263">
        <ele>346.200012</ele>
        <time>2011-05-08T08:27:08Z</time>
      </trkpt>
      <trkpt lat="45.35546" lon="1.26269">
        <ele>346.299988</ele>
        <time>2011-05-08T08:27:09Z</time>
      </trkpt>
      <trkpt lat="45.35544" lon="1.26276">
        <ele>346.399994</ele>
        <time>2011-05-08T08:27:10Z</time>
      </trkpt>
      <trkpt lat="45.35543" lon="1.26282">
        <ele>346.5</ele>
        <time>2011-05-08T08:27:11Z</time>
      </trkpt>
      <trkpt lat="45.35541" lon="1.26289">
        <ele>346.600006</ele>
        <time>2011-05-08T08:27:12Z</time>
      </trkpt>
      <trkpt lat="45.35538" lon="1.263">
        <ele>346.200012</ele>
        <time>2011-05-08T08:27:14Z</time>
      </trkpt>
      <trkpt lat="45.35536" lon="1.26312">
        <ele>345.600006</ele>
        <time>2011-05-08T08:27:16Z</time>
      </trkpt>
      <trkpt lat="45.35534" lon="1.26318">
        <ele>345.5</ele>
        <time>2011-05-08T08:27:17Z</time>
      </trkpt>
      <trkpt lat="45.35532" lon="1.26324">
        <ele>345.399994</ele>
        <time>2011-05-08T08:27:18Z</time>
      </trkpt>
      <trkpt lat="45.3553" lon="1.26331">
        <ele>345.5</ele>
        <time>2011-05-08T08:27:19Z</time>
      </trkpt>
      <trkpt lat="45.35528" lon="1.26337">
        <ele>345.600006</ele>
        <time>2011-05-08T08:27:20Z</time>
      </trkpt>
      <trkpt lat="45.35526" lon="1.26343">
        <ele>345.200012</ele>
        <time>2011-05-08T08:27:21Z</time>
      </trkpt>
      <trkpt lat="45.35524" lon="1.26349">
        <ele>345</ele>
        <time>2011-05-08T08:27:22Z</time>
      </trkpt>
      <trkpt lat="45.35522" lon="1.26355">
        <ele>344.700012</ele>
        <time>2011-05-08T08:27:23Z</time>
      </trkpt>
      <trkpt lat="45.3552" lon="1.26361">
        <ele>344.5</ele>
        <time>2011-05-08T08:27:24Z</time>
      </trkpt>
      <trkpt lat="45.35518" lon="1.26368">
        <ele>344.299988</ele>
        <time>2011-05-08T08:27:25Z</time>
      </trkpt>
      <trkpt lat="45.35515" lon="1.26379">
        <ele>344.700012</ele>
        <time>2011-05-08T08:27:27Z</time>
      </trkpt>
      <trkpt lat="45.35512" lon="1.26391">
        <ele>344.299988</ele>
        <time>2011-05-08T08:27:29Z</time>
      </trkpt>
      <trkpt lat="45.3551" lon="1.26397">
        <ele>344.200012</ele>
        <time>2011-05-08T08:27:30Z</time>
      </trkpt>
      <trkpt lat="45.35509" lon="1.26403">
        <ele>343.899994</ele>
        <time>2011-05-08T08:27:31Z</time>
      </trkpt>
      <trkpt lat="45.35508" lon="1.2641">
        <ele>343.700012</ele>
        <time>2011-05-08T08:27:32Z</time>
      </trkpt>
      <trkpt lat="45.35506" lon="1.26416">
        <ele>343.700012</ele>
        <time>2011-05-08T08:27:33Z</time>
      </trkpt>
      <trkpt lat="45.35504" lon="1.26422">
        <ele>343.799988</ele>
        <time>2011-05-08T08:27:34Z</time>
      </trkpt>
      <trkpt lat="45.35503" lon="1.26429">
        <ele>344</ele>
        <time>2011-05-08T08:27:35Z</time>
      </trkpt>
      <trkpt lat="45.355" lon="1.2644">
        <ele>344.399994</ele>
        <time>2011-05-08T08:27:37Z</time>
      </trkpt>
      <trkpt lat="45.35498" lon="1.26451">
        <ele>344.299988</ele>
        <time>2011-05-08T08:27:39Z</time>
      </trkpt>
      <trkpt lat="45.35496" lon="1.26462">
        <ele>344.399994</ele>
        <time>2011-05-08T08:27:41Z</time>
      </trkpt>
      <trkpt lat="45.35493" lon="1.26474">
        <ele>344.100006</ele>
        <time>2011-05-08T08:27:43Z</time>
      </trkpt>
      <trkpt lat="45.3549" lon="1.26484">
        <ele>344.100006</ele>
        <time>2011-05-08T08:27:45Z</time>
      </trkpt>
      <trkpt lat="45.35487" lon="1.26494">
        <ele>344.5</ele>
        <time>2011-05-08T08:27:47Z</time>
      </trkpt>
      <trkpt lat="45.35485" lon="1.26503">
        <ele>344.700012</ele>
        <time>2011-05-08T08:27:49Z</time>
      </trkpt>
      <trkpt lat="45.35482" lon="1.26513">
        <ele>344.399994</ele>
        <time>2011-05-08T08:27:51Z</time>
      </trkpt>
      <trkpt lat="45.35479" lon="1.26522">
        <ele>344.700012</ele>
        <time>2011-05-08T08:27:53Z</time>
      </trkpt>
      <trkpt lat="45.35477" lon="1.26532">
        <ele>344.700012</ele>
        <time>2011-05-08T08:27:55Z</time>
      </trkpt>
      <trkpt lat="45.35474" lon="1.26543">
        <ele>344.799988</ele>
        <time>2011-05-08T08:27:57Z</time>
      </trkpt>
      <trkpt lat="45.35471" lon="1.26554">
        <ele>344.700012</ele>
        <time>2011-05-08T08:27:59Z</time>
      </trkpt>
      <trkpt lat="45.35468" lon="1.26566">
        <ele>344.299988</ele>
        <time>2011-05-08T08:28:01Z</time>
      </trkpt>
      <trkpt lat="45.35465" lon="1.26577">
        <ele>344.5</ele>
        <time>2011-05-08T08:28:03Z</time>
      </trkpt>
      <trkpt lat="45.35462" lon="1.26588">
        <ele>345.299988</ele>
        <time>2011-05-08T08:28:05Z</time>
      </trkpt>
      <trkpt lat="45.35457" lon="1.26595">
        <ele>346.600006</ele>
        <time>2011-05-08T08:28:07Z</time>
      </trkpt>
      <trkpt lat="45.3545" lon="1.26595">
        <ele>346.799988</ele>
        <time>2011-05-08T08:28:09Z</time>
      </trkpt>
      <trkpt lat="45.35442" lon="1.26591">
        <ele>346.399994</ele>
        <time>2011-05-08T08:28:11Z</time>
      </trkpt>
      <trkpt lat="45.35436" lon="1.26586">
        <ele>346.100006</ele>
        <time>2011-05-08T08:28:13Z</time>
      </trkpt>
      <trkpt lat="45.35429" lon="1.26581">
        <ele>346</ele>
        <time>2011-05-08T08:28:15Z</time>
      </trkpt>
      <trkpt lat="45.35422" lon="1.26574">
        <ele>346.200012</ele>
        <time>2011-05-08T08:28:17Z</time>
      </trkpt>
      <trkpt lat="45.35418" lon="1.2657">
        <ele>345.899994</ele>
        <time>2011-05-08T08:28:18Z</time>
      </trkpt>
      <trkpt lat="45.35415" lon="1.26566">
        <ele>345.700012</ele>
        <time>2011-05-08T08:28:19Z</time>
      </trkpt>
      <trkpt lat="45.35411" lon="1.26561">
        <ele>345.299988</ele>
        <time>2011-05-08T08:28:20Z</time>
      </trkpt>
      <trkpt lat="45.35407" lon="1.26558">
        <ele>345.100006</ele>
        <time>2011-05-08T08:28:21Z</time>
      </trkpt>
      <trkpt lat="45.35403" lon="1.26553">
        <ele>344.899994</ele>
        <time>2011-05-08T08:28:22Z</time>
      </trkpt>
      <trkpt lat="45.35396" lon="1.26546">
        <ele>344.5</ele>
        <time>2011-05-08T08:28:24Z</time>
      </trkpt>
      <trkpt lat="45.35388" lon="1.2654">
        <ele>344.399994</ele>
        <time>2011-05-08T08:28:26Z</time>
      </trkpt>
      <trkpt lat="45.35381" lon="1.26534">
        <ele>344.399994</ele>
        <time>2011-05-08T08:28:28Z</time>
      </trkpt>
      <trkpt lat="45.35377" lon="1.26531">
        <ele>344.399994</ele>
        <time>2011-05-08T08:28:29Z</time>
      </trkpt>
      <trkpt lat="45.35373" lon="1.26527">
        <ele>344.299988</ele>
        <time>2011-05-08T08:28:30Z</time>
      </trkpt>
      <trkpt lat="45.35369" lon="1.26521">
        <ele>344.299988</ele>
        <time>2011-05-08T08:28:31Z</time>
      </trkpt>
      <trkpt lat="45.35366" lon="1.26517">
        <ele>343.799988</ele>
        <time>2011-05-08T08:28:32Z</time>
      </trkpt>
      <trkpt lat="45.35362" lon="1.26512">
        <ele>343.399994</ele>
        <time>2011-05-08T08:28:33Z</time>
      </trkpt>
      <trkpt lat="45.35359" lon="1.26508">
        <ele>343.200012</ele>
        <time>2011-05-08T08:28:34Z</time>
      </trkpt>
      <trkpt lat="45.35354" lon="1.26503">
        <ele>342.700012</ele>
        <time>2011-05-08T08:28:35Z</time>
      </trkpt>
      <trkpt lat="45.3535" lon="1.26499">
        <ele>342.399994</ele>
        <time>2011-05-08T08:28:36Z</time>
      </trkpt>
      <trkpt lat="45.35346" lon="1.26495">
        <ele>342.200012</ele>
        <time>2011-05-08T08:28:37Z</time>
      </trkpt>
      <trkpt lat="45.35341" lon="1.26492">
        <ele>342</ele>
        <time>2011-05-08T08:28:38Z</time>
      </trkpt>
      <trkpt lat="45.35336" lon="1.26489">
        <ele>342</ele>
        <time>2011-05-08T08:28:39Z</time>
      </trkpt>
      <trkpt lat="45.35331" lon="1.26487">
        <ele>341.899994</ele>
        <time>2011-05-08T08:28:40Z</time>
      </trkpt>
      <trkpt lat="45.35325" lon="1.26485">
        <ele>341.899994</ele>
        <time>2011-05-08T08:28:41Z</time>
      </trkpt>
      <trkpt lat="45.3532" lon="1.26484">
        <ele>341.5</ele>
        <time>2011-05-08T08:28:42Z</time>
      </trkpt>
      <trkpt lat="45.35315" lon="1.26482">
        <ele>341.100006</ele>
        <time>2011-05-08T08:28:43Z</time>
      </trkpt>
      <trkpt lat="45.3531" lon="1.26481">
        <ele>341.100006</ele>
        <time>2011-05-08T08:28:44Z</time>
      </trkpt>
      <trkpt lat="45.35305" lon="1.26479">
        <ele>341.100006</ele>
        <time>2011-05-08T08:28:45Z</time>
      </trkpt>
      <trkpt lat="45.35299" lon="1.26477">
        <ele>341.100006</ele>
        <time>2011-05-08T08:28:46Z</time>
      </trkpt>
      <trkpt lat="45.35295" lon="1.26477">
        <ele>340.600006</ele>
        <time>2011-05-08T08:28:47Z</time>
      </trkpt>
      <trkpt lat="45.3529" lon="1.26475">
        <ele>340.299988</ele>
        <time>2011-05-08T08:28:48Z</time>
      </trkpt>
      <trkpt lat="45.35286" lon="1.26473">
        <ele>339.899994</ele>
        <time>2011-05-08T08:28:49Z</time>
      </trkpt>
      <trkpt lat="45.35281" lon="1.26471">
        <ele>339.700012</ele>
        <time>2011-05-08T08:28:50Z</time>
      </trkpt>
      <trkpt lat="45.35276" lon="1.26468">
        <ele>339.299988</ele>
        <time>2011-05-08T08:28:51Z</time>
      </trkpt>
      <trkpt lat="45.35271" lon="1.26465">
        <ele>339.100006</ele>
        <time>2011-05-08T08:28:52Z</time>
      </trkpt>
      <trkpt lat="45.35267" lon="1.26461">
        <ele>338.899994</ele>
        <time>2011-05-08T08:28:53Z</time>
      </trkpt>
      <trkpt lat="45.35259" lon="1.26456">
        <ele>338.700012</ele>
        <time>2011-05-08T08:28:55Z</time>
      </trkpt>
      <trkpt lat="45.35252" lon="1.26451">
        <ele>339.399994</ele>
        <time>2011-05-08T08:28:57Z</time>
      </trkpt>
      <trkpt lat="45.35248" lon="1.2645">
        <ele>339.5</ele>
        <time>2011-05-08T08:28:58Z</time>
      </trkpt>
      <trkpt lat="45.35243" lon="1.26447">
        <ele>339.600006</ele>
        <time>2011-05-08T08:28:59Z</time>
      </trkpt>
      <trkpt lat="45.35238" lon="1.26445">
        <ele>339.700012</ele>
        <time>2011-05-08T08:29:00Z</time>
      </trkpt>
      <trkpt lat="45.35233" lon="1.26443">
        <ele>338.799988</ele>
        <time>2011-05-08T08:29:01Z</time>
      </trkpt>
      <trkpt lat="45.35228" lon="1.26439">
        <ele>338.100006</ele>
        <time>2011-05-08T08:29:02Z</time>
      </trkpt>
      <trkpt lat="45.35223" lon="1.26436">
        <ele>337.700012</ele>
        <time>2011-05-08T08:29:03Z</time>
      </trkpt>
      <trkpt lat="45.35217" lon="1.26433">
        <ele>337.299988</ele>
        <time>2011-05-08T08:29:04Z</time>
      </trkpt>
      <trkpt lat="45.35211" lon="1.2643">
        <ele>337.100006</ele>
        <time>2011-05-08T08:29:05Z</time>
      </trkpt>
      <trkpt lat="45.35205" lon="1.26427">
        <ele>336.5</ele>
        <time>2011-05-08T08:29:06Z</time>
      </trkpt>
      <trkpt lat="45.35199" lon="1.26424">
        <ele>336</ele>
        <time>2011-05-08T08:29:07Z</time>
      </trkpt>
      <trkpt lat="45.35192" lon="1.2642">
        <ele>335.899994</ele>
        <time>2011-05-08T08:29:08Z</time>
      </trkpt>
      <trkpt lat="45.35187" lon="1.26418">
        <ele>335.899994</ele>
        <time>2011-05-08T08:29:09Z</time>
      </trkpt>
      <trkpt lat="45.35181" lon="1.26418">
        <ele>335.100006</ele>
        <time>2011-05-08T08:29:10Z</time>
      </trkpt>
      <trkpt lat="45.35176" lon="1.26419">
        <ele>334.399994</ele>
        <time>2011-05-08T08:29:11Z</time>
      </trkpt>
      <trkpt lat="45.35167" lon="1.26422">
        <ele>333.100006</ele>
        <time>2011-05-08T08:29:13Z</time>
      </trkpt>
      <trkpt lat="45.35161" lon="1.26424">
        <ele>332.299988</ele>
        <time>2011-05-08T08:29:15Z</time>
      </trkpt>
      <trkpt lat="45.35154" lon="1.26424">
        <ele>332.600006</ele>
        <time>2011-05-08T08:29:17Z</time>
      </trkpt>
      <trkpt lat="45.35147" lon="1.26425">
        <ele>333.200012</ele>
        <time>2011-05-08T08:29:19Z</time>
      </trkpt>
      <trkpt lat="45.3514" lon="1.26425">
        <ele>333.100006</ele>
        <time>2011-05-08T08:29:21Z</time>
      </trkpt>
      <trkpt lat="45.35137" lon="1.26425">
        <ele>333</ele>
        <time>2011-05-08T08:29:22Z</time>
      </trkpt>
      <trkpt lat="45.35127" lon="1.26425">
        <ele>333.100006</ele>
        <time>2011-05-08T08:29:25Z</time>
      </trkpt>
      <trkpt lat="45.35118" lon="1.26425">
        <ele>332.799988</ele>
        <time>2011-05-08T08:29:28Z</time>
      </trkpt>
      <trkpt lat="45.3511" lon="1.26429">
        <ele>333.899994</ele>
        <time>2011-05-08T08:29:32Z</time>
      </trkpt>
      <trkpt lat="45.35102" lon="1.26431">
        <ele>335.100006</ele>
        <time>2011-05-08T08:29:44Z</time>
      </trkpt>
      <trkpt lat="45.35094" lon="1.26434">
        <ele>335.5</ele>
        <time>2011-05-08T08:29:48Z</time>
      </trkpt>
      <trkpt lat="45.35088" lon="1.26437">
        <ele>335.600006</ele>
        <time>2011-05-08T08:29:51Z</time>
      </trkpt>
      <trkpt lat="45.35081" lon="1.26441">
        <ele>335.600006</ele>
        <time>2011-05-08T08:29:54Z</time>
      </trkpt>
      <trkpt lat="45.35075" lon="1.26445">
        <ele>335.700012</ele>
        <time>2011-05-08T08:29:57Z</time>
      </trkpt>
      <trkpt lat="45.35068" lon="1.26451">
        <ele>336.299988</ele>
        <time>2011-05-08T08:30:01Z</time>
      </trkpt>
      <trkpt lat="45.35062" lon="1.26459">
        <ele>336.5</ele>
        <time>2011-05-08T08:30:05Z</time>
      </trkpt>
      <trkpt lat="45.35056" lon="1.26468">
        <ele>338</ele>
        <time>2011-05-08T08:30:10Z</time>
      </trkpt>
      <trkpt lat="45.3505" lon="1.26475">
        <ele>337.899994</ele>
        <time>2011-05-08T08:30:14Z</time>
      </trkpt>
      <trkpt lat="45.35044" lon="1.26481">
        <ele>338.5</ele>
        <time>2011-05-08T08:30:17Z</time>
      </trkpt>
      <trkpt lat="45.35037" lon="1.26487">
        <ele>339.600006</ele>
        <time>2011-05-08T08:30:20Z</time>
      </trkpt>
      <trkpt lat="45.35031" lon="1.26491">
        <ele>339.899994</ele>
        <time>2011-05-08T08:30:23Z</time>
      </trkpt>
      <trkpt lat="45.35029" lon="1.26492">
        <ele>340.299988</ele>
        <time>2011-05-08T08:30:24Z</time>
      </trkpt>
      <trkpt lat="45.35014" lon="1.26496">
        <ele>342.5</ele>
        <time>2011-05-08T08:30:33Z</time>
      </trkpt>
      <trkpt lat="45.35006" lon="1.26498">
        <ele>344.600006</ele>
        <time>2011-05-08T08:30:38Z</time>
      </trkpt>
      <trkpt lat="45.34998" lon="1.26495">
        <ele>346</ele>
        <time>2011-05-08T08:30:44Z</time>
      </trkpt>
      <trkpt lat="45.34991" lon="1.2649">
        <ele>345.799988</ele>
        <time>2011-05-08T08:30:49Z</time>
      </trkpt>
      <trkpt lat="45.34984" lon="1.26487">
        <ele>346.899994</ele>
        <time>2011-05-08T08:30:54Z</time>
      </trkpt>
      <trkpt lat="45.34975" lon="1.26485">
        <ele>347.700012</ele>
        <time>2011-05-08T08:30:58Z</time>
      </trkpt>
      <trkpt lat="45.34967" lon="1.26483">
        <ele>348.100006</ele>
        <time>2011-05-08T08:31:02Z</time>
      </trkpt>
      <trkpt lat="45.3496" lon="1.26481">
        <ele>349.100006</ele>
        <time>2011-05-08T08:31:05Z</time>
      </trkpt>
      <trkpt lat="45.34954" lon="1.26479">
        <ele>349.100006</ele>
        <time>2011-05-08T08:31:07Z</time>
      </trkpt>
      <trkpt lat="45.34947" lon="1.26476">
        <ele>348.399994</ele>
        <time>2011-05-08T08:31:10Z</time>
      </trkpt>
      <trkpt lat="45.34942" lon="1.26471">
        <ele>348.799988</ele>
        <time>2011-05-08T08:31:13Z</time>
      </trkpt>
      <trkpt lat="45.34934" lon="1.26466">
        <ele>349</ele>
        <time>2011-05-08T08:31:16Z</time>
      </trkpt>
      <trkpt lat="45.34927" lon="1.2646">
        <ele>349.700012</ele>
        <time>2011-05-08T08:31:19Z</time>
      </trkpt>
      <trkpt lat="45.34922" lon="1.26456">
        <ele>350.399994</ele>
        <time>2011-05-08T08:31:21Z</time>
      </trkpt>
      <trkpt lat="45.34918" lon="1.26447">
        <ele>350.799988</ele>
        <time>2011-05-08T08:31:23Z</time>
      </trkpt>
      <trkpt lat="45.34918" lon="1.26437">
        <ele>350.899994</ele>
        <time>2011-05-08T08:31:26Z</time>
      </trkpt>
      <trkpt lat="45.34917" lon="1.26433">
        <ele>350.899994</ele>
        <time>2011-05-08T08:31:27Z</time>
      </trkpt>
      <trkpt lat="45.34908" lon="1.26423">
        <ele>350.700012</ele>
        <time>2011-05-08T08:31:30Z</time>
      </trkpt>
      <trkpt lat="45.349" lon="1.26418">
        <ele>351.100006</ele>
        <time>2011-05-08T08:31:32Z</time>
      </trkpt>
      <trkpt lat="45.34893" lon="1.26414">
        <ele>350.899994</ele>
        <time>2011-05-08T08:31:34Z</time>
      </trkpt>
      <trkpt lat="45.34885" lon="1.26411">
        <ele>351.600006</ele>
        <time>2011-05-08T08:31:36Z</time>
      </trkpt>
      <trkpt lat="45.34877" lon="1.26409">
        <ele>352.5</ele>
        <time>2011-05-08T08:31:38Z</time>
      </trkpt>
      <trkpt lat="45.34868" lon="1.26411">
        <ele>352.799988</ele>
        <time>2011-05-08T08:31:40Z</time>
      </trkpt>
      <trkpt lat="45.3486" lon="1.26416">
        <ele>353</ele>
        <time>2011-05-08T08:31:42Z</time>
      </trkpt>
      <trkpt lat="45.34853" lon="1.26423">
        <ele>353.299988</ele>
        <time>2011-05-08T08:31:44Z</time>
      </trkpt>
      <trkpt lat="45.34846" lon="1.26431">
        <ele>353.200012</ele>
        <time>2011-05-08T08:31:46Z</time>
      </trkpt>
      <trkpt lat="45.34841" lon="1.2644">
        <ele>353.5</ele>
        <time>2011-05-08T08:31:48Z</time>
      </trkpt>
      <trkpt lat="45.34835" lon="1.26449">
        <ele>353.700012</ele>
        <time>2011-05-08T08:31:50Z</time>
      </trkpt>
      <trkpt lat="45.34831" lon="1.26458">
        <ele>353.299988</ele>
        <time>2011-05-08T08:31:52Z</time>
      </trkpt>
      <trkpt lat="45.34827" lon="1.26468">
        <ele>353.100006</ele>
        <time>2011-05-08T08:31:54Z</time>
      </trkpt>
      <trkpt lat="45.34823" lon="1.26478">
        <ele>353.399994</ele>
        <time>2011-05-08T08:31:56Z</time>
      </trkpt>
      <trkpt lat="45.34819" lon="1.26489">
        <ele>353.700012</ele>
        <time>2011-05-08T08:31:58Z</time>
      </trkpt>
      <trkpt lat="45.34816" lon="1.26494">
        <ele>353.799988</ele>
        <time>2011-05-08T08:31:59Z</time>
      </trkpt>
      <trkpt lat="45.34813" lon="1.26499">
        <ele>353.799988</ele>
        <time>2011-05-08T08:32:00Z</time>
      </trkpt>
      <trkpt lat="45.3481" lon="1.26504">
        <ele>353.700012</ele>
        <time>2011-05-08T08:32:01Z</time>
      </trkpt>
      <trkpt lat="45.34806" lon="1.26509">
        <ele>353.700012</ele>
        <time>2011-05-08T08:32:02Z</time>
      </trkpt>
      <trkpt lat="45.34803" lon="1.26514">
        <ele>353.700012</ele>
        <time>2011-05-08T08:32:03Z</time>
      </trkpt>
      <trkpt lat="45.34799" lon="1.2652">
        <ele>353.5</ele>
        <time>2011-05-08T08:32:04Z</time>
      </trkpt>
      <trkpt lat="45.34795" lon="1.26525">
        <ele>353.399994</ele>
        <time>2011-05-08T08:32:05Z</time>
      </trkpt>
      <trkpt lat="45.34791" lon="1.26531">
        <ele>353.5</ele>
        <time>2011-05-08T08:32:06Z</time>
      </trkpt>
      <trkpt lat="45.34787" lon="1.26537">
        <ele>353.600006</ele>
        <time>2011-05-08T08:32:07Z</time>
      </trkpt>
      <trkpt lat="45.34784" lon="1.26543">
        <ele>353.200012</ele>
        <time>2011-05-08T08:32:08Z</time>
      </trkpt>
      <trkpt lat="45.3478" lon="1.26549">
        <ele>352.899994</ele>
        <time>2011-05-08T08:32:09Z</time>
      </trkpt>
      <trkpt lat="45.34776" lon="1.26555">
        <ele>352.600006</ele>
        <time>2011-05-08T08:32:10Z</time>
      </trkpt>
      <trkpt lat="45.34771" lon="1.26561">
        <ele>352.5</ele>
        <time>2011-05-08T08:32:11Z</time>
      </trkpt>
      <trkpt lat="45.34767" lon="1.26567">
        <ele>352.399994</ele>
        <time>2011-05-08T08:32:12Z</time>
      </trkpt>
      <trkpt lat="45.34763" lon="1.26573">
        <ele>352.700012</ele>
        <time>2011-05-08T08:32:13Z</time>
      </trkpt>
      <trkpt lat="45.34758" lon="1.26579">
        <ele>352.899994</ele>
        <time>2011-05-08T08:32:14Z</time>
      </trkpt>
      <trkpt lat="45.34753" lon="1.26585">
        <ele>353</ele>
        <time>2011-05-08T08:32:15Z</time>
      </trkpt>
      <trkpt lat="45.34749" lon="1.26591">
        <ele>353</ele>
        <time>2011-05-08T08:32:16Z</time>
      </trkpt>
      <trkpt lat="45.34745" lon="1.26597">
        <ele>353.100006</ele>
        <time>2011-05-08T08:32:17Z</time>
      </trkpt>
      <trkpt lat="45.3474" lon="1.26603">
        <ele>352.5</ele>
        <time>2011-05-08T08:32:18Z</time>
      </trkpt>
      <trkpt lat="45.34735" lon="1.26608">
        <ele>352</ele>
        <time>2011-05-08T08:32:19Z</time>
      </trkpt>
      <trkpt lat="45.3473" lon="1.26613">
        <ele>351.700012</ele>
        <time>2011-05-08T08:32:20Z</time>
      </trkpt>
      <trkpt lat="45.34726" lon="1.26619">
        <ele>351.5</ele>
        <time>2011-05-08T08:32:21Z</time>
      </trkpt>
      <trkpt lat="45.34721" lon="1.26624">
        <ele>351.5</ele>
        <time>2011-05-08T08:32:22Z</time>
      </trkpt>
      <trkpt lat="45.34716" lon="1.26629">
        <ele>351.5</ele>
        <time>2011-05-08T08:32:23Z</time>
      </trkpt>
      <trkpt lat="45.34712" lon="1.26634">
        <ele>351.5</ele>
        <time>2011-05-08T08:32:24Z</time>
      </trkpt>
      <trkpt lat="45.34707" lon="1.2664">
        <ele>351.600006</ele>
        <time>2011-05-08T08:32:25Z</time>
      </trkpt>
      <trkpt lat="45.34703" lon="1.26645">
        <ele>351.700012</ele>
        <time>2011-05-08T08:32:26Z</time>
      </trkpt>
      <trkpt lat="45.34698" lon="1.2665">
        <ele>351.700012</ele>
        <time>2011-05-08T08:32:27Z</time>
      </trkpt>
      <trkpt lat="45.34693" lon="1.26655">
        <ele>351.700012</ele>
        <time>2011-05-08T08:32:28Z</time>
      </trkpt>
      <trkpt lat="45.34689" lon="1.26661">
        <ele>351.700012</ele>
        <time>2011-05-08T08:32:29Z</time>
      </trkpt>
      <trkpt lat="45.34685" lon="1.26667">
        <ele>352.200012</ele>
        <time>2011-05-08T08:32:30Z</time>
      </trkpt>
      <trkpt lat="45.34682" lon="1.26674">
        <ele>352.5</ele>
        <time>2011-05-08T08:32:31Z</time>
      </trkpt>
      <trkpt lat="45.34679" lon="1.26681">
        <ele>352.5</ele>
        <time>2011-05-08T08:32:32Z</time>
      </trkpt>
      <trkpt lat="45.34675" lon="1.26688">
        <ele>352.399994</ele>
        <time>2011-05-08T08:32:33Z</time>
      </trkpt>
      <trkpt lat="45.34673" lon="1.26695">
        <ele>352.399994</ele>
        <time>2011-05-08T08:32:34Z</time>
      </trkpt>
      <trkpt lat="45.3467" lon="1.26702">
        <ele>352.399994</ele>
        <time>2011-05-08T08:32:35Z</time>
      </trkpt>
      <trkpt lat="45.34667" lon="1.26709">
        <ele>352.299988</ele>
        <time>2011-05-08T08:32:36Z</time>
      </trkpt>
      <trkpt lat="45.34664" lon="1.26716">
        <ele>352.299988</ele>
        <time>2011-05-08T08:32:37Z</time>
      </trkpt>
      <trkpt lat="45.34662" lon="1.26723">
        <ele>352.299988</ele>
        <time>2011-05-08T08:32:38Z</time>
      </trkpt>
      <trkpt lat="45.3466" lon="1.2673">
        <ele>352.399994</ele>
        <time>2011-05-08T08:32:39Z</time>
      </trkpt>
      <trkpt lat="45.34658" lon="1.26737">
        <ele>352.5</ele>
        <time>2011-05-08T08:32:40Z</time>
      </trkpt>
      <trkpt lat="45.34656" lon="1.26744">
        <ele>352.600006</ele>
        <time>2011-05-08T08:32:41Z</time>
      </trkpt>
      <trkpt lat="45.34655" lon="1.26751">
        <ele>352.700012</ele>
        <time>2011-05-08T08:32:42Z</time>
      </trkpt>
      <trkpt lat="45.34653" lon="1.26758">
        <ele>352.899994</ele>
        <time>2011-05-08T08:32:43Z</time>
      </trkpt>
      <trkpt lat="45.34652" lon="1.26766">
        <ele>352.399994</ele>
        <time>2011-05-08T08:32:44Z</time>
      </trkpt>
      <trkpt lat="45.3465" lon="1.26773">
        <ele>352</ele>
        <time>2011-05-08T08:32:45Z</time>
      </trkpt>
      <trkpt lat="45.34648" lon="1.26781">
        <ele>352.5</ele>
        <time>2011-05-08T08:32:46Z</time>
      </trkpt>
      <trkpt lat="45.34647" lon="1.26789">
        <ele>352.899994</ele>
        <time>2011-05-08T08:32:47Z</time>
      </trkpt>
      <trkpt lat="45.34645" lon="1.26796">
        <ele>353.200012</ele>
        <time>2011-05-08T08:32:48Z</time>
      </trkpt>
      <trkpt lat="45.34643" lon="1.26804">
        <ele>353.200012</ele>
        <time>2011-05-08T08:32:49Z</time>
      </trkpt>
      <trkpt lat="45.34641" lon="1.26813">
        <ele>353.200012</ele>
        <time>2011-05-08T08:32:50Z</time>
      </trkpt>
      <trkpt lat="45.34639" lon="1.26821">
        <ele>352.899994</ele>
        <time>2011-05-08T08:32:51Z</time>
      </trkpt>
      <trkpt lat="45.34636" lon="1.26828">
        <ele>352.600006</ele>
        <time>2011-05-08T08:32:52Z</time>
      </trkpt>
      <trkpt lat="45.34634" lon="1.26836">
        <ele>352.5</ele>
        <time>2011-05-08T08:32:53Z</time>
      </trkpt>
      <trkpt lat="45.34632" lon="1.26843">
        <ele>352.399994</ele>
        <time>2011-05-08T08:32:54Z</time>
      </trkpt>
      <trkpt lat="45.3463" lon="1.26851">
        <ele>352.299988</ele>
        <time>2011-05-08T08:32:55Z</time>
      </trkpt>
      <trkpt lat="45.34628" lon="1.26858">
        <ele>352</ele>
        <time>2011-05-08T08:32:56Z</time>
      </trkpt>
      <trkpt lat="45.34625" lon="1.26865">
        <ele>351.799988</ele>
        <time>2011-05-08T08:32:57Z</time>
      </trkpt>
      <trkpt lat="45.34623" lon="1.26872">
        <ele>351.200012</ele>
        <time>2011-05-08T08:32:58Z</time>
      </trkpt>
      <trkpt lat="45.3462" lon="1.26879">
        <ele>350.799988</ele>
        <time>2011-05-08T08:32:59Z</time>
      </trkpt>
      <trkpt lat="45.34616" lon="1.26883">
        <ele>350.700012</ele>
        <time>2011-05-08T08:33:00Z</time>
      </trkpt>
      <trkpt lat="45.34611" lon="1.26885">
        <ele>350.600006</ele>
        <time>2011-05-08T08:33:01Z</time>
      </trkpt>
      <trkpt lat="45.34606" lon="1.26883">
        <ele>350.600006</ele>
        <time>2011-05-08T08:33:02Z</time>
      </trkpt>
      <trkpt lat="45.34603" lon="1.26878">
        <ele>350.5</ele>
        <time>2011-05-08T08:33:03Z</time>
      </trkpt>
      <trkpt lat="45.34601" lon="1.26872">
        <ele>350.5</ele>
        <time>2011-05-08T08:33:04Z</time>
      </trkpt>
      <trkpt lat="45.34598" lon="1.26866">
        <ele>349.899994</ele>
        <time>2011-05-08T08:33:05Z</time>
      </trkpt>
      <trkpt lat="45.34595" lon="1.2686">
        <ele>349.5</ele>
        <time>2011-05-08T08:33:06Z</time>
      </trkpt>
      <trkpt lat="45.34593" lon="1.26853">
        <ele>349.200012</ele>
        <time>2011-05-08T08:33:07Z</time>
      </trkpt>
      <trkpt lat="45.3459" lon="1.26846">
        <ele>349.600006</ele>
        <time>2011-05-08T08:33:08Z</time>
      </trkpt>
      <trkpt lat="45.34587" lon="1.2684">
        <ele>349.899994</ele>
        <time>2011-05-08T08:33:09Z</time>
      </trkpt>
      <trkpt lat="45.34585" lon="1.26833">
        <ele>350</ele>
        <time>2011-05-08T08:33:10Z</time>
      </trkpt>
      <trkpt lat="45.34582" lon="1.26826">
        <ele>350</ele>
        <time>2011-05-08T08:33:11Z</time>
      </trkpt>
      <trkpt lat="45.3458" lon="1.26819">
        <ele>350.200012</ele>
        <time>2011-05-08T08:33:12Z</time>
      </trkpt>
      <trkpt lat="45.34578" lon="1.26812">
        <ele>350.399994</ele>
        <time>2011-05-08T08:33:13Z</time>
      </trkpt>
      <trkpt lat="45.34575" lon="1.26805">
        <ele>350.5</ele>
        <time>2011-05-08T08:33:14Z</time>
      </trkpt>
      <trkpt lat="45.34573" lon="1.26797">
        <ele>350.799988</ele>
        <time>2011-05-08T08:33:15Z</time>
      </trkpt>
      <trkpt lat="45.34571" lon="1.2679">
        <ele>350.899994</ele>
        <time>2011-05-08T08:33:16Z</time>
      </trkpt>
      <trkpt lat="45.34569" lon="1.26783">
        <ele>350.799988</ele>
        <time>2011-05-08T08:33:17Z</time>
      </trkpt>
      <trkpt lat="45.34568" lon="1.26775">
        <ele>350.700012</ele>
        <time>2011-05-08T08:33:18Z</time>
      </trkpt>
      <trkpt lat="45.34566" lon="1.26767">
        <ele>350.600006</ele>
        <time>2011-05-08T08:33:19Z</time>
      </trkpt>
      <trkpt lat="45.34565" lon="1.2676">
        <ele>351.100006</ele>
        <time>2011-05-08T08:33:20Z</time>
      </trkpt>
      <trkpt lat="45.34564" lon="1.26752">
        <ele>351.399994</ele>
        <time>2011-05-08T08:33:21Z</time>
      </trkpt>
      <trkpt lat="45.34563" lon="1.26745">
        <ele>351.399994</ele>
        <time>2011-05-08T08:33:22Z</time>
      </trkpt>
      <trkpt lat="45.34562" lon="1.26737">
        <ele>351.399994</ele>
        <time>2011-05-08T08:33:23Z</time>
      </trkpt>
      <trkpt lat="45.34561" lon="1.2673">
        <ele>351.5</ele>
        <time>2011-05-08T08:33:24Z</time>
      </trkpt>
      <trkpt lat="45.3456" lon="1.26723">
        <ele>351.600006</ele>
        <time>2011-05-08T08:33:25Z</time>
      </trkpt>
      <trkpt lat="45.34558" lon="1.26716">
        <ele>351.600006</ele>
        <time>2011-05-08T08:33:26Z</time>
      </trkpt>
      <trkpt lat="45.34556" lon="1.2671">
        <ele>351.799988</ele>
        <time>2011-05-08T08:33:27Z</time>
      </trkpt>
      <trkpt lat="45.34549" lon="1.26702">
        <ele>351.899994</ele>
        <time>2011-05-08T08:33:29Z</time>
      </trkpt>
      <trkpt lat="45.34545" lon="1.26702">
        <ele>351.799988</ele>
        <time>2011-05-08T08:33:30Z</time>
      </trkpt>
      <trkpt lat="45.34537" lon="1.26707">
        <ele>352.799988</ele>
        <time>2011-05-08T08:33:32Z</time>
      </trkpt>
      <trkpt lat="45.34532" lon="1.26709">
        <ele>353.200012</ele>
        <time>2011-05-08T08:33:33Z</time>
      </trkpt>
      <trkpt lat="45.34527" lon="1.26711">
        <ele>353</ele>
        <time>2011-05-08T08:33:34Z</time>
      </trkpt>
      <trkpt lat="45.3452" lon="1.26713">
        <ele>352.700012</ele>
        <time>2011-05-08T08:33:36Z</time>
      </trkpt>
      <trkpt lat="45.34516" lon="1.26703">
        <ele>350.799988</ele>
        <time>2011-05-08T08:33:41Z</time>
      </trkpt>
      <trkpt lat="45.34514" lon="1.26692">
        <ele>349.600006</ele>
        <time>2011-05-08T08:33:45Z</time>
      </trkpt>
      <trkpt lat="45.34508" lon="1.26685">
        <ele>350.299988</ele>
        <time>2011-05-08T08:33:49Z</time>
      </trkpt>
      <trkpt lat="45.34501" lon="1.2668">
        <ele>351.100006</ele>
        <time>2011-05-08T08:33:53Z</time>
      </trkpt>
      <trkpt lat="45.34494" lon="1.26681">
        <ele>351.399994</ele>
        <time>2011-05-08T08:33:56Z</time>
      </trkpt>
      <trkpt lat="45.34486" lon="1.26683">
        <ele>351.899994</ele>
        <time>2011-05-08T08:33:59Z</time>
      </trkpt>
      <trkpt lat="45.34478" lon="1.26683">
        <ele>352.299988</ele>
        <time>2011-05-08T08:34:02Z</time>
      </trkpt>
      <trkpt lat="45.3447" lon="1.26684">
        <ele>353</ele>
        <time>2011-05-08T08:34:05Z</time>
      </trkpt>
      <trkpt lat="45.34462" lon="1.26685">
        <ele>353.600006</ele>
        <time>2011-05-08T08:34:08Z</time>
      </trkpt>
      <trkpt lat="45.34456" lon="1.26686">
        <ele>353.100006</ele>
        <time>2011-05-08T08:34:10Z</time>
      </trkpt>
      <trkpt lat="45.3445" lon="1.26686">
        <ele>353.399994</ele>
        <time>2011-05-08T08:34:12Z</time>
      </trkpt>
      <trkpt lat="45.34442" lon="1.26686">
        <ele>354.200012</ele>
        <time>2011-05-08T08:34:15Z</time>
      </trkpt>
      <trkpt lat="45.34436" lon="1.26692">
        <ele>355.200012</ele>
        <time>2011-05-08T08:34:18Z</time>
      </trkpt>
      <trkpt lat="45.3443" lon="1.26702">
        <ele>354.5</ele>
        <time>2011-05-08T08:34:22Z</time>
      </trkpt>
      <trkpt lat="45.34422" lon="1.26706">
        <ele>354.100006</ele>
        <time>2011-05-08T08:34:25Z</time>
      </trkpt>
      <trkpt lat="45.34415" lon="1.26713">
        <ele>354.700012</ele>
        <time>2011-05-08T08:34:28Z</time>
      </trkpt>
      <trkpt lat="45.3441" lon="1.26718">
        <ele>354.700012</ele>
        <time>2011-05-08T08:34:30Z</time>
      </trkpt>
      <trkpt lat="45.34406" lon="1.2672">
        <ele>354.700012</ele>
        <time>2011-05-08T08:34:31Z</time>
      </trkpt>
      <trkpt lat="45.34397" lon="1.26726">
        <ele>354.899994</ele>
        <time>2011-05-08T08:34:34Z</time>
      </trkpt>
      <trkpt lat="45.34389" lon="1.26731">
        <ele>354.600006</ele>
        <time>2011-05-08T08:34:36Z</time>
      </trkpt>
      <trkpt lat="45.34382" lon="1.26737">
        <ele>354.600006</ele>
        <time>2011-05-08T08:34:38Z</time>
      </trkpt>
      <trkpt lat="45.34374" lon="1.26742">
        <ele>354.799988</ele>
        <time>2011-05-08T08:34:40Z</time>
      </trkpt>
      <trkpt lat="45.34365" lon="1.2674">
        <ele>355.100006</ele>
        <time>2011-05-08T08:34:43Z</time>
      </trkpt>
      <trkpt lat="45.34356" lon="1.26737">
        <ele>354.700012</ele>
        <time>2011-05-08T08:34:49Z</time>
      </trkpt>
      <trkpt lat="45.34348" lon="1.26739">
        <ele>353.899994</ele>
        <time>2011-05-08T08:34:58Z</time>
      </trkpt>
      <trkpt lat="45.34341" lon="1.26732">
        <ele>355.200012</ele>
        <time>2011-05-08T08:35:04Z</time>
      </trkpt>
      <trkpt lat="45.34338" lon="1.26723">
        <ele>355.299988</ele>
        <time>2011-05-08T08:35:07Z</time>
      </trkpt>
      <trkpt lat="45.34336" lon="1.26714">
        <ele>355.899994</ele>
        <time>2011-05-08T08:35:10Z</time>
      </trkpt>
      <trkpt lat="45.34332" lon="1.26704">
        <ele>356</ele>
        <time>2011-05-08T08:35:14Z</time>
      </trkpt>
      <trkpt lat="45.34326" lon="1.26695">
        <ele>356.200012</ele>
        <time>2011-05-08T08:35:17Z</time>
      </trkpt>
      <trkpt lat="45.34323" lon="1.26683">
        <ele>356.299988</ele>
        <time>2011-05-08T08:35:20Z</time>
      </trkpt>
      <trkpt lat="45.34319" lon="1.26672">
        <ele>355.799988</ele>
        <time>2011-05-08T08:35:23Z</time>
      </trkpt>
      <trkpt lat="45.34311" lon="1.26666">
        <ele>355.899994</ele>
        <time>2011-05-08T08:35:26Z</time>
      </trkpt>
      <trkpt lat="45.34304" lon="1.26666">
        <ele>355.700012</ele>
        <time>2011-05-08T08:35:28Z</time>
      </trkpt>
      <trkpt lat="45.34298" lon="1.26672">
        <ele>355.299988</ele>
        <time>2011-05-08T08:35:30Z</time>
      </trkpt>
      <trkpt lat="45.34294" lon="1.2668">
        <ele>354.600006</ele>
        <time>2011-05-08T08:35:32Z</time>
      </trkpt>
      <trkpt lat="45.34292" lon="1.26684">
        <ele>354.299988</ele>
        <time>2011-05-08T08:35:33Z</time>
      </trkpt>
      <trkpt lat="45.34282" lon="1.26695">
        <ele>353.600006</ele>
        <time>2011-05-08T08:35:36Z</time>
      </trkpt>
      <trkpt lat="45.34278" lon="1.26699">
        <ele>353.799988</ele>
        <time>2011-05-08T08:35:37Z</time>
      </trkpt>
      <trkpt lat="45.34274" lon="1.26703">
        <ele>354</ele>
        <time>2011-05-08T08:35:38Z</time>
      </trkpt>
      <trkpt lat="45.34269" lon="1.26707">
        <ele>353.700012</ele>
        <time>2011-05-08T08:35:39Z</time>
      </trkpt>
      <trkpt lat="45.34264" lon="1.26711">
        <ele>353.5</ele>
        <time>2011-05-08T08:35:40Z</time>
      </trkpt>
      <trkpt lat="45.34259" lon="1.26715">
        <ele>353.299988</ele>
        <time>2011-05-08T08:35:41Z</time>
      </trkpt>
      <trkpt lat="45.34254" lon="1.26719">
        <ele>353.200012</ele>
        <time>2011-05-08T08:35:42Z</time>
      </trkpt>
      <trkpt lat="45.34249" lon="1.26723">
        <ele>353.200012</ele>
        <time>2011-05-08T08:35:43Z</time>
      </trkpt>
      <trkpt lat="45.34244" lon="1.26727">
        <ele>352.600006</ele>
        <time>2011-05-08T08:35:44Z</time>
      </trkpt>
      <trkpt lat="45.34239" lon="1.26732">
        <ele>352.100006</ele>
        <time>2011-05-08T08:35:45Z</time>
      </trkpt>
      <trkpt lat="45.34234" lon="1.26736">
        <ele>351.799988</ele>
        <time>2011-05-08T08:35:46Z</time>
      </trkpt>
      <trkpt lat="45.34229" lon="1.2674">
        <ele>351.600006</ele>
        <time>2011-05-08T08:35:47Z</time>
      </trkpt>
      <trkpt lat="45.34224" lon="1.26745">
        <ele>351.399994</ele>
        <time>2011-05-08T08:35:48Z</time>
      </trkpt>
      <trkpt lat="45.34219" lon="1.26749">
        <ele>351</ele>
        <time>2011-05-08T08:35:49Z</time>
      </trkpt>
      <trkpt lat="45.34214" lon="1.26754">
        <ele>350.700012</ele>
        <time>2011-05-08T08:35:50Z</time>
      </trkpt>
      <trkpt lat="45.34209" lon="1.26759">
        <ele>350.5</ele>
        <time>2011-05-08T08:35:51Z</time>
      </trkpt>
      <trkpt lat="45.34204" lon="1.26764">
        <ele>350.299988</ele>
        <time>2011-05-08T08:35:52Z</time>
      </trkpt>
      <trkpt lat="45.34199" lon="1.26769">
        <ele>350.200012</ele>
        <time>2011-05-08T08:35:53Z</time>
      </trkpt>
      <trkpt lat="45.34194" lon="1.26774">
        <ele>350.100006</ele>
        <time>2011-05-08T08:35:54Z</time>
      </trkpt>
      <trkpt lat="45.34189" lon="1.26779">
        <ele>350</ele>
        <time>2011-05-08T08:35:55Z</time>
      </trkpt>
      <trkpt lat="45.34184" lon="1.26784">
        <ele>350.100006</ele>
        <time>2011-05-08T08:35:56Z</time>
      </trkpt>
      <trkpt lat="45.34179" lon="1.26789">
        <ele>350.200012</ele>
        <time>2011-05-08T08:35:57Z</time>
      </trkpt>
      <trkpt lat="45.34174" lon="1.26795">
        <ele>350</ele>
        <time>2011-05-08T08:35:58Z</time>
      </trkpt>
      <trkpt lat="45.34168" lon="1.268">
        <ele>349.899994</ele>
        <time>2011-05-08T08:35:59Z</time>
      </trkpt>
      <trkpt lat="45.34163" lon="1.26806">
        <ele>349.799988</ele>
        <time>2011-05-08T08:36:00Z</time>
      </trkpt>
      <trkpt lat="45.34157" lon="1.26811">
        <ele>349.299988</ele>
        <time>2011-05-08T08:36:01Z</time>
      </trkpt>
      <trkpt lat="45.34152" lon="1.26817">
        <ele>348.899994</ele>
        <time>2011-05-08T08:36:02Z</time>
      </trkpt>
      <trkpt lat="45.34146" lon="1.26823">
        <ele>348.5</ele>
        <time>2011-05-08T08:36:03Z</time>
      </trkpt>
      <trkpt lat="45.3414" lon="1.26828">
        <ele>348.200012</ele>
        <time>2011-05-08T08:36:04Z</time>
      </trkpt>
      <trkpt lat="45.34134" lon="1.26831">
        <ele>348</ele>
        <time>2011-05-08T08:36:05Z</time>
      </trkpt>
      <trkpt lat="45.34127" lon="1.26833">
        <ele>347.600006</ele>
        <time>2011-05-08T08:36:06Z</time>
      </trkpt>
      <trkpt lat="45.3412" lon="1.26835">
        <ele>347.299988</ele>
        <time>2011-05-08T08:36:07Z</time>
      </trkpt>
      <trkpt lat="45.34113" lon="1.26837">
        <ele>346.600006</ele>
        <time>2011-05-08T08:36:08Z</time>
      </trkpt>
      <trkpt lat="45.34106" lon="1.26839">
        <ele>346.100006</ele>
        <time>2011-05-08T08:36:09Z</time>
      </trkpt>
      <trkpt lat="45.34099" lon="1.26842">
        <ele>346.100006</ele>
        <time>2011-05-08T08:36:10Z</time>
      </trkpt>
      <trkpt lat="45.34092" lon="1.26845">
        <ele>346</ele>
        <time>2011-05-08T08:36:11Z</time>
      </trkpt>
      <trkpt lat="45.34085" lon="1.26849">
        <ele>346</ele>
        <time>2011-05-08T08:36:12Z</time>
      </trkpt>
      <trkpt lat="45.34078" lon="1.26852">
        <ele>345.700012</ele>
        <time>2011-05-08T08:36:13Z</time>
      </trkpt>
      <trkpt lat="45.34071" lon="1.26855">
        <ele>345.5</ele>
        <time>2011-05-08T08:36:14Z</time>
      </trkpt>
      <trkpt lat="45.34064" lon="1.26859">
        <ele>345.200012</ele>
        <time>2011-05-08T08:36:15Z</time>
      </trkpt>
      <trkpt lat="45.34057" lon="1.26863">
        <ele>345</ele>
        <time>2011-05-08T08:36:16Z</time>
      </trkpt>
      <trkpt lat="45.34051" lon="1.26868">
        <ele>344.399994</ele>
        <time>2011-05-08T08:36:17Z</time>
      </trkpt>
      <trkpt lat="45.34044" lon="1.26872">
        <ele>344.100006</ele>
        <time>2011-05-08T08:36:18Z</time>
      </trkpt>
      <trkpt lat="45.34038" lon="1.26874">
        <ele>343.799988</ele>
        <time>2011-05-08T08:36:19Z</time>
      </trkpt>
      <trkpt lat="45.34032" lon="1.26873">
        <ele>343.700012</ele>
        <time>2011-05-08T08:36:20Z</time>
      </trkpt>
      <trkpt lat="45.34027" lon="1.2687">
        <ele>343.600006</ele>
        <time>2011-05-08T08:36:21Z</time>
      </trkpt>
      <trkpt lat="45.34022" lon="1.2686">
        <ele>343.299988</ele>
        <time>2011-05-08T08:36:23Z</time>
      </trkpt>
      <trkpt lat="45.34017" lon="1.26851">
        <ele>343.200012</ele>
        <time>2011-05-08T08:36:25Z</time>
      </trkpt>
      <trkpt lat="45.34008" lon="1.2685">
        <ele>343.200012</ele>
        <time>2011-05-08T08:36:27Z</time>
      </trkpt>
      <trkpt lat="45.34004" lon="1.26851">
        <ele>343.200012</ele>
        <time>2011-05-08T08:36:28Z</time>
      </trkpt>
      <trkpt lat="45.33999" lon="1.26855">
        <ele>342.5</ele>
        <time>2011-05-08T08:36:29Z</time>
      </trkpt>
      <trkpt lat="45.33996" lon="1.26859">
        <ele>342</ele>
        <time>2011-05-08T08:36:30Z</time>
      </trkpt>
      <trkpt lat="45.33993" lon="1.26864">
        <ele>341.600006</ele>
        <time>2011-05-08T08:36:31Z</time>
      </trkpt>
      <trkpt lat="45.33988" lon="1.26868">
        <ele>341.700012</ele>
        <time>2011-05-08T08:36:32Z</time>
      </trkpt>
      <trkpt lat="45.33984" lon="1.26872">
        <ele>341.799988</ele>
        <time>2011-05-08T08:36:33Z</time>
      </trkpt>
      <trkpt lat="45.33979" lon="1.26877">
        <ele>341.5</ele>
        <time>2011-05-08T08:36:34Z</time>
      </trkpt>
      <trkpt lat="45.33974" lon="1.26881">
        <ele>341.299988</ele>
        <time>2011-05-08T08:36:35Z</time>
      </trkpt>
      <trkpt lat="45.33967" lon="1.26883">
        <ele>340.799988</ele>
        <time>2011-05-08T08:36:36Z</time>
      </trkpt>
      <trkpt lat="45.33961" lon="1.26886">
        <ele>340.399994</ele>
        <time>2011-05-08T08:36:37Z</time>
      </trkpt>
      <trkpt lat="45.33954" lon="1.26887">
        <ele>340.100006</ele>
        <time>2011-05-08T08:36:38Z</time>
      </trkpt>
      <trkpt lat="45.33948" lon="1.26887">
        <ele>339.700012</ele>
        <time>2011-05-08T08:36:39Z</time>
      </trkpt>
      <trkpt lat="45.33941" lon="1.26888">
        <ele>339.399994</ele>
        <time>2011-05-08T08:36:40Z</time>
      </trkpt>
      <trkpt lat="45.33935" lon="1.2689">
        <ele>339.5</ele>
        <time>2011-05-08T08:36:41Z</time>
      </trkpt>
      <trkpt lat="45.3393" lon="1.26893">
        <ele>339.600006</ele>
        <time>2011-05-08T08:36:42Z</time>
      </trkpt>
      <trkpt lat="45.33925" lon="1.26898">
        <ele>339.600006</ele>
        <time>2011-05-08T08:36:43Z</time>
      </trkpt>
      <trkpt lat="45.33919" lon="1.26902">
        <ele>339</ele>
        <time>2011-05-08T08:36:44Z</time>
      </trkpt>
      <trkpt lat="45.33913" lon="1.26906">
        <ele>338.600006</ele>
        <time>2011-05-08T08:36:45Z</time>
      </trkpt>
      <trkpt lat="45.33907" lon="1.2691">
        <ele>337.600006</ele>
        <time>2011-05-08T08:36:46Z</time>
      </trkpt>
      <trkpt lat="45.33902" lon="1.26915">
        <ele>336.899994</ele>
        <time>2011-05-08T08:36:47Z</time>
      </trkpt>
      <trkpt lat="45.33897" lon="1.2692">
        <ele>336.600006</ele>
        <time>2011-05-08T08:36:48Z</time>
      </trkpt>
      <trkpt lat="45.33893" lon="1.26925">
        <ele>336.399994</ele>
        <time>2011-05-08T08:36:49Z</time>
      </trkpt>
      <trkpt lat="45.3389" lon="1.26931">
        <ele>336.299988</ele>
        <time>2011-05-08T08:36:50Z</time>
      </trkpt>
      <trkpt lat="45.33887" lon="1.26936">
        <ele>336.200012</ele>
        <time>2011-05-08T08:36:51Z</time>
      </trkpt>
      <trkpt lat="45.33881" lon="1.26943">
        <ele>335.399994</ele>
        <time>2011-05-08T08:36:53Z</time>
      </trkpt>
      <trkpt lat="45.33873" lon="1.26948">
        <ele>335.299988</ele>
        <time>2011-05-08T08:36:55Z</time>
      </trkpt>
      <trkpt lat="45.33865" lon="1.26951">
        <ele>335.799988</ele>
        <time>2011-05-08T08:36:57Z</time>
      </trkpt>
      <trkpt lat="45.33857" lon="1.26951">
        <ele>334.399994</ele>
        <time>2011-05-08T08:36:59Z</time>
      </trkpt>
      <trkpt lat="45.3385" lon="1.26952">
        <ele>334.100006</ele>
        <time>2011-05-08T08:37:01Z</time>
      </trkpt>
      <trkpt lat="45.33843" lon="1.26951">
        <ele>333.799988</ele>
        <time>2011-05-08T08:37:03Z</time>
      </trkpt>
      <trkpt lat="45.33838" lon="1.26945">
        <ele>333.600006</ele>
        <time>2011-05-08T08:37:05Z</time>
      </trkpt>
      <trkpt lat="45.33835" lon="1.26935">
        <ele>333.600006</ele>
        <time>2011-05-08T08:37:08Z</time>
      </trkpt>
      <trkpt lat="45.33837" lon="1.26924">
        <ele>334.600006</ele>
        <time>2011-05-08T08:37:11Z</time>
      </trkpt>
      <trkpt lat="45.33835" lon="1.26912">
        <ele>335.5</ele>
        <time>2011-05-08T08:37:14Z</time>
      </trkpt>
      <trkpt lat="45.33832" lon="1.26901">
        <ele>336</ele>
        <time>2011-05-08T08:37:17Z</time>
      </trkpt>
      <trkpt lat="45.33828" lon="1.26893">
        <ele>336.399994</ele>
        <time>2011-05-08T08:37:19Z</time>
      </trkpt>
      <trkpt lat="45.33824" lon="1.26886">
        <ele>336.700012</ele>
        <time>2011-05-08T08:37:21Z</time>
      </trkpt>
      <trkpt lat="45.33821" lon="1.26878">
        <ele>337.600006</ele>
        <time>2011-05-08T08:37:23Z</time>
      </trkpt>
      <trkpt lat="45.33817" lon="1.2687">
        <ele>337.799988</ele>
        <time>2011-05-08T08:37:25Z</time>
      </trkpt>
      <trkpt lat="45.33814" lon="1.26862">
        <ele>338.299988</ele>
        <time>2011-05-08T08:37:27Z</time>
      </trkpt>
      <trkpt lat="45.33811" lon="1.2685">
        <ele>339.399994</ele>
        <time>2011-05-08T08:37:30Z</time>
      </trkpt>
      <trkpt lat="45.3381" lon="1.26838">
        <ele>339.899994</ele>
        <time>2011-05-08T08:37:33Z</time>
      </trkpt>
      <trkpt lat="45.33808" lon="1.26826">
        <ele>340</ele>
        <time>2011-05-08T08:37:36Z</time>
      </trkpt>
      <trkpt lat="45.33808" lon="1.26822">
        <ele>340.100006</ele>
        <time>2011-05-08T08:37:37Z</time>
      </trkpt>
      <trkpt lat="45.33809" lon="1.26804">
        <ele>341.200012</ele>
        <time>2011-05-08T08:37:41Z</time>
      </trkpt>
      <trkpt lat="45.3381" lon="1.26795">
        <ele>341.299988</ele>
        <time>2011-05-08T08:37:43Z</time>
      </trkpt>
      <trkpt lat="45.3381" lon="1.26785">
        <ele>341.299988</ele>
        <time>2011-05-08T08:37:45Z</time>
      </trkpt>
      <trkpt lat="45.33811" lon="1.26776">
        <ele>341.200012</ele>
        <time>2011-05-08T08:37:47Z</time>
      </trkpt>
      <trkpt lat="45.33811" lon="1.26766">
        <ele>341.100006</ele>
        <time>2011-05-08T08:37:49Z</time>
      </trkpt>
      <trkpt lat="45.33811" lon="1.26756">
        <ele>341.100006</ele>
        <time>2011-05-08T08:37:51Z</time>
      </trkpt>
      <trkpt lat="45.33812" lon="1.26745">
        <ele>341.799988</ele>
        <time>2011-05-08T08:37:53Z</time>
      </trkpt>
      <trkpt lat="45.33813" lon="1.26734">
        <ele>342.100006</ele>
        <time>2011-05-08T08:37:55Z</time>
      </trkpt>
      <trkpt lat="45.33813" lon="1.26723">
        <ele>342.100006</ele>
        <time>2011-05-08T08:37:57Z</time>
      </trkpt>
      <trkpt lat="45.33814" lon="1.26713">
        <ele>341.899994</ele>
        <time>2011-05-08T08:37:59Z</time>
      </trkpt>
      <trkpt lat="45.33814" lon="1.26703">
        <ele>341.899994</ele>
        <time>2011-05-08T08:38:01Z</time>
      </trkpt>
      <trkpt lat="45.33815" lon="1.26692">
        <ele>342.399994</ele>
        <time>2011-05-08T08:38:03Z</time>
      </trkpt>
      <trkpt lat="45.33816" lon="1.26682">
        <ele>343.299988</ele>
        <time>2011-05-08T08:38:05Z</time>
      </trkpt>
      <trkpt lat="45.33816" lon="1.26671">
        <ele>343.399994</ele>
        <time>2011-05-08T08:38:07Z</time>
      </trkpt>
      <trkpt lat="45.33815" lon="1.2666">
        <ele>343.399994</ele>
        <time>2011-05-08T08:38:09Z</time>
      </trkpt>
      <trkpt lat="45.33814" lon="1.26648">
        <ele>343.399994</ele>
        <time>2011-05-08T08:38:11Z</time>
      </trkpt>
      <trkpt lat="45.33814" lon="1.26636">
        <ele>343.5</ele>
        <time>2011-05-08T08:38:13Z</time>
      </trkpt>
      <trkpt lat="45.33813" lon="1.26625">
        <ele>343.799988</ele>
        <time>2011-05-08T08:38:15Z</time>
      </trkpt>
      <trkpt lat="45.33813" lon="1.26613">
        <ele>343.799988</ele>
        <time>2011-05-08T08:38:17Z</time>
      </trkpt>
      <trkpt lat="45.33812" lon="1.26601">
        <ele>344.200012</ele>
        <time>2011-05-08T08:38:19Z</time>
      </trkpt>
      <trkpt lat="45.3381" lon="1.2659">
        <ele>344.200012</ele>
        <time>2011-05-08T08:38:21Z</time>
      </trkpt>
      <trkpt lat="45.33809" lon="1.26579">
        <ele>343.799988</ele>
        <time>2011-05-08T08:38:23Z</time>
      </trkpt>
      <trkpt lat="45.33807" lon="1.26569">
        <ele>343.399994</ele>
        <time>2011-05-08T08:38:25Z</time>
      </trkpt>
      <trkpt lat="45.33803" lon="1.26558">
        <ele>343.600006</ele>
        <time>2011-05-08T08:38:27Z</time>
      </trkpt>
      <trkpt lat="45.33801" lon="1.26546">
        <ele>343.299988</ele>
        <time>2011-05-08T08:38:29Z</time>
      </trkpt>
      <trkpt lat="45.338" lon="1.26534">
        <ele>344</ele>
        <time>2011-05-08T08:38:31Z</time>
      </trkpt>
      <trkpt lat="45.33798" lon="1.26522">
        <ele>344.299988</ele>
        <time>2011-05-08T08:38:33Z</time>
      </trkpt>
      <trkpt lat="45.33798" lon="1.26516">
        <ele>344.299988</ele>
        <time>2011-05-08T08:38:34Z</time>
      </trkpt>
      <trkpt lat="45.33798" lon="1.26509">
        <ele>344.200012</ele>
        <time>2011-05-08T08:38:35Z</time>
      </trkpt>
      <trkpt lat="45.33797" lon="1.26497">
        <ele>344.5</ele>
        <time>2011-05-08T08:38:37Z</time>
      </trkpt>
      <trkpt lat="45.33795" lon="1.26491">
        <ele>344.700012</ele>
        <time>2011-05-08T08:38:38Z</time>
      </trkpt>
      <trkpt lat="45.33792" lon="1.26478">
        <ele>344.600006</ele>
        <time>2011-05-08T08:38:40Z</time>
      </trkpt>
      <trkpt lat="45.3379" lon="1.2647">
        <ele>344.5</ele>
        <time>2011-05-08T08:38:41Z</time>
      </trkpt>
      <trkpt lat="45.33789" lon="1.26462">
        <ele>343.799988</ele>
        <time>2011-05-08T08:38:42Z</time>
      </trkpt>
      <trkpt lat="45.33788" lon="1.26454">
        <ele>343.299988</ele>
        <time>2011-05-08T08:38:43Z</time>
      </trkpt>
      <trkpt lat="45.33787" lon="1.26445">
        <ele>342.899994</ele>
        <time>2011-05-08T08:38:44Z</time>
      </trkpt>
      <trkpt lat="45.33786" lon="1.26437">
        <ele>342.399994</ele>
        <time>2011-05-08T08:38:45Z</time>
      </trkpt>
      <trkpt lat="45.33786" lon="1.26428">
        <ele>342</ele>
        <time>2011-05-08T08:38:46Z</time>
      </trkpt>
      <trkpt lat="45.33785" lon="1.26419">
        <ele>341.5</ele>
        <time>2011-05-08T08:38:47Z</time>
      </trkpt>
      <trkpt lat="45.33785" lon="1.26411">
        <ele>341.100006</ele>
        <time>2011-05-08T08:38:48Z</time>
      </trkpt>
      <trkpt lat="45.33784" lon="1.26402">
        <ele>340.899994</ele>
        <time>2011-05-08T08:38:49Z</time>
      </trkpt>
      <trkpt lat="45.33783" lon="1.26393">
        <ele>340.700012</ele>
        <time>2011-05-08T08:38:50Z</time>
      </trkpt>
      <trkpt lat="45.33783" lon="1.26384">
        <ele>340.5</ele>
        <time>2011-05-08T08:38:51Z</time>
      </trkpt>
      <trkpt lat="45.33782" lon="1.26375">
        <ele>340.299988</ele>
        <time>2011-05-08T08:38:52Z</time>
      </trkpt>
      <trkpt lat="45.33781" lon="1.26366">
        <ele>340.100006</ele>
        <time>2011-05-08T08:38:53Z</time>
      </trkpt>
      <trkpt lat="45.33781" lon="1.26358">
        <ele>339.799988</ele>
        <time>2011-05-08T08:38:54Z</time>
      </trkpt>
      <trkpt lat="45.33782" lon="1.26349">
        <ele>339.5</ele>
        <time>2011-05-08T08:38:55Z</time>
      </trkpt>
      <trkpt lat="45.33782" lon="1.26341">
        <ele>339</ele>
        <time>2011-05-08T08:38:56Z</time>
      </trkpt>
      <trkpt lat="45.33782" lon="1.26333">
        <ele>338.600006</ele>
        <time>2011-05-08T08:38:57Z</time>
      </trkpt>
      <trkpt lat="45.33783" lon="1.26325">
        <ele>338.299988</ele>
        <time>2011-05-08T08:38:58Z</time>
      </trkpt>
      <trkpt lat="45.33782" lon="1.26317">
        <ele>338.299988</ele>
        <time>2011-05-08T08:38:59Z</time>
      </trkpt>
      <trkpt lat="45.33782" lon="1.2631">
        <ele>338.299988</ele>
        <time>2011-05-08T08:39:00Z</time>
      </trkpt>
      <trkpt lat="45.33781" lon="1.26302">
        <ele>338.200012</ele>
        <time>2011-05-08T08:39:01Z</time>
      </trkpt>
      <trkpt lat="45.33781" lon="1.26294">
        <ele>338.200012</ele>
        <time>2011-05-08T08:39:02Z</time>
      </trkpt>
      <trkpt lat="45.33781" lon="1.26286">
        <ele>338.100006</ele>
        <time>2011-05-08T08:39:03Z</time>
      </trkpt>
      <trkpt lat="45.33781" lon="1.26279">
        <ele>337.5</ele>
        <time>2011-05-08T08:39:04Z</time>
      </trkpt>
      <trkpt lat="45.33781" lon="1.26272">
        <ele>337.100006</ele>
        <time>2011-05-08T08:39:05Z</time>
      </trkpt>
      <trkpt lat="45.3378" lon="1.26265">
        <ele>337.200012</ele>
        <time>2011-05-08T08:39:06Z</time>
      </trkpt>
      <trkpt lat="45.33778" lon="1.26257">
        <ele>337.200012</ele>
        <time>2011-05-08T08:39:07Z</time>
      </trkpt>
      <trkpt lat="45.33777" lon="1.26249">
        <ele>336.899994</ele>
        <time>2011-05-08T08:39:08Z</time>
      </trkpt>
      <trkpt lat="45.33776" lon="1.26242">
        <ele>336.700012</ele>
        <time>2011-05-08T08:39:09Z</time>
      </trkpt>
      <trkpt lat="45.33775" lon="1.26234">
        <ele>336.5</ele>
        <time>2011-05-08T08:39:10Z</time>
      </trkpt>
      <trkpt lat="45.33775" lon="1.26226">
        <ele>336.700012</ele>
        <time>2011-05-08T08:39:11Z</time>
      </trkpt>
      <trkpt lat="45.33774" lon="1.26218">
        <ele>336.899994</ele>
        <time>2011-05-08T08:39:12Z</time>
      </trkpt>
      <trkpt lat="45.33774" lon="1.2621">
        <ele>336.799988</ele>
        <time>2011-05-08T08:39:13Z</time>
      </trkpt>
      <trkpt lat="45.33773" lon="1.26202">
        <ele>336.799988</ele>
        <time>2011-05-08T08:39:14Z</time>
      </trkpt>
      <trkpt lat="45.33772" lon="1.26195">
        <ele>336</ele>
        <time>2011-05-08T08:39:15Z</time>
      </trkpt>
      <trkpt lat="45.33772" lon="1.26187">
        <ele>335.5</ele>
        <time>2011-05-08T08:39:16Z</time>
      </trkpt>
      <trkpt lat="45.33771" lon="1.26179">
        <ele>335.100006</ele>
        <time>2011-05-08T08:39:17Z</time>
      </trkpt>
      <trkpt lat="45.3377" lon="1.26172">
        <ele>335.100006</ele>
        <time>2011-05-08T08:39:18Z</time>
      </trkpt>
      <trkpt lat="45.33769" lon="1.26164">
        <ele>335.200012</ele>
        <time>2011-05-08T08:39:19Z</time>
      </trkpt>
      <trkpt lat="45.33769" lon="1.26157">
        <ele>335.299988</ele>
        <time>2011-05-08T08:39:20Z</time>
      </trkpt>
      <trkpt lat="45.33768" lon="1.26149">
        <ele>335.399994</ele>
        <time>2011-05-08T08:39:21Z</time>
      </trkpt>
      <trkpt lat="45.33768" lon="1.26141">
        <ele>335.5</ele>
        <time>2011-05-08T08:39:22Z</time>
      </trkpt>
      <trkpt lat="45.33768" lon="1.26134">
        <ele>335.5</ele>
        <time>2011-05-08T08:39:23Z</time>
      </trkpt>
      <trkpt lat="45.33767" lon="1.26126">
        <ele>335.5</ele>
        <time>2011-05-08T08:39:24Z</time>
      </trkpt>
      <trkpt lat="45.33767" lon="1.26119">
        <ele>336</ele>
        <time>2011-05-08T08:39:25Z</time>
      </trkpt>
      <trkpt lat="45.33767" lon="1.26112">
        <ele>336.299988</ele>
        <time>2011-05-08T08:39:26Z</time>
      </trkpt>
      <trkpt lat="45.33767" lon="1.26104">
        <ele>335.899994</ele>
        <time>2011-05-08T08:39:27Z</time>
      </trkpt>
      <trkpt lat="45.33767" lon="1.26097">
        <ele>335.5</ele>
        <time>2011-05-08T08:39:28Z</time>
      </trkpt>
      <trkpt lat="45.33768" lon="1.2609">
        <ele>335.299988</ele>
        <time>2011-05-08T08:39:29Z</time>
      </trkpt>
      <trkpt lat="45.33768" lon="1.26083">
        <ele>335</ele>
        <time>2011-05-08T08:39:30Z</time>
      </trkpt>
      <trkpt lat="45.33769" lon="1.26076">
        <ele>334.700012</ele>
        <time>2011-05-08T08:39:31Z</time>
      </trkpt>
      <trkpt lat="45.3377" lon="1.26063">
        <ele>335.899994</ele>
        <time>2011-05-08T08:39:33Z</time>
      </trkpt>
      <trkpt lat="45.3377" lon="1.26051">
        <ele>335.600006</ele>
        <time>2011-05-08T08:39:35Z</time>
      </trkpt>
      <trkpt lat="45.33769" lon="1.26039">
        <ele>335.899994</ele>
        <time>2011-05-08T08:39:37Z</time>
      </trkpt>
      <trkpt lat="45.3377" lon="1.26027">
        <ele>336.5</ele>
        <time>2011-05-08T08:39:39Z</time>
      </trkpt>
      <trkpt lat="45.3377" lon="1.26021">
        <ele>336.799988</ele>
        <time>2011-05-08T08:39:40Z</time>
      </trkpt>
      <trkpt lat="45.3377" lon="1.26004">
        <ele>336.899994</ele>
        <time>2011-05-08T08:39:43Z</time>
      </trkpt>
      <trkpt lat="45.33775" lon="1.25997">
        <ele>336.600006</ele>
        <time>2011-05-08T08:39:46Z</time>
      </trkpt>
      <trkpt lat="45.33783" lon="1.25995">
        <ele>336.700012</ele>
        <time>2011-05-08T08:39:49Z</time>
      </trkpt>
      <trkpt lat="45.33791" lon="1.25992">
        <ele>337</ele>
        <time>2011-05-08T08:39:52Z</time>
      </trkpt>
      <trkpt lat="45.338" lon="1.25989">
        <ele>337.5</ele>
        <time>2011-05-08T08:39:55Z</time>
      </trkpt>
      <trkpt lat="45.33808" lon="1.25987">
        <ele>339.299988</ele>
        <time>2011-05-08T08:39:58Z</time>
      </trkpt>
      <trkpt lat="45.33816" lon="1.25985">
        <ele>340.5</ele>
        <time>2011-05-08T08:40:01Z</time>
      </trkpt>
      <trkpt lat="45.33825" lon="1.25984">
        <ele>341.299988</ele>
        <time>2011-05-08T08:40:04Z</time>
      </trkpt>
      <trkpt lat="45.33833" lon="1.25985">
        <ele>341.600006</ele>
        <time>2011-05-08T08:40:07Z</time>
      </trkpt>
      <trkpt lat="45.33839" lon="1.25988">
        <ele>341.5</ele>
        <time>2011-05-08T08:40:09Z</time>
      </trkpt>
      <trkpt lat="45.33845" lon="1.25992">
        <ele>341.700012</ele>
        <time>2011-05-08T08:40:11Z</time>
      </trkpt>
      <trkpt lat="45.3385" lon="1.25997">
        <ele>342.200012</ele>
        <time>2011-05-08T08:40:13Z</time>
      </trkpt>
      <trkpt lat="45.33855" lon="1.26003">
        <ele>342.100006</ele>
        <time>2011-05-08T08:40:15Z</time>
      </trkpt>
      <trkpt lat="45.33861" lon="1.26008">
        <ele>342.299988</ele>
        <time>2011-05-08T08:40:17Z</time>
      </trkpt>
      <trkpt lat="45.33867" lon="1.26012">
        <ele>342.5</ele>
        <time>2011-05-08T08:40:19Z</time>
      </trkpt>
      <trkpt lat="45.33873" lon="1.26017">
        <ele>342.600006</ele>
        <time>2011-05-08T08:40:21Z</time>
      </trkpt>
      <trkpt lat="45.33879" lon="1.26022">
        <ele>342.899994</ele>
        <time>2011-05-08T08:40:23Z</time>
      </trkpt>
      <trkpt lat="45.33886" lon="1.26026">
        <ele>342.700012</ele>
        <time>2011-05-08T08:40:25Z</time>
      </trkpt>
      <trkpt lat="45.33892" lon="1.26032">
        <ele>342.5</ele>
        <time>2011-05-08T08:40:27Z</time>
      </trkpt>
      <trkpt lat="45.339" lon="1.26037">
        <ele>342.399994</ele>
        <time>2011-05-08T08:40:29Z</time>
      </trkpt>
      <trkpt lat="45.33905" lon="1.2604">
        <ele>342.5</ele>
        <time>2011-05-08T08:40:30Z</time>
      </trkpt>
      <trkpt lat="45.33908" lon="1.26044">
        <ele>343.100006</ele>
        <time>2011-05-08T08:40:31Z</time>
      </trkpt>
      <trkpt lat="45.33912" lon="1.26047">
        <ele>343.600006</ele>
        <time>2011-05-08T08:40:32Z</time>
      </trkpt>
      <trkpt lat="45.33916" lon="1.26051">
        <ele>344</ele>
        <time>2011-05-08T08:40:33Z</time>
      </trkpt>
      <trkpt lat="45.3392" lon="1.26055">
        <ele>343.700012</ele>
        <time>2011-05-08T08:40:34Z</time>
      </trkpt>
      <trkpt lat="45.33923" lon="1.26059">
        <ele>343.5</ele>
        <time>2011-05-08T08:40:35Z</time>
      </trkpt>
      <trkpt lat="45.33927" lon="1.26064">
        <ele>343.5</ele>
        <time>2011-05-08T08:40:36Z</time>
      </trkpt>
      <trkpt lat="45.33931" lon="1.26068">
        <ele>343.600006</ele>
        <time>2011-05-08T08:40:37Z</time>
      </trkpt>
      <trkpt lat="45.33935" lon="1.26073">
        <ele>343.299988</ele>
        <time>2011-05-08T08:40:38Z</time>
      </trkpt>
      <trkpt lat="45.33939" lon="1.26077">
        <ele>343</ele>
        <time>2011-05-08T08:40:39Z</time>
      </trkpt>
      <trkpt lat="45.33943" lon="1.26082">
        <ele>342.799988</ele>
        <time>2011-05-08T08:40:40Z</time>
      </trkpt>
      <trkpt lat="45.33947" lon="1.26085">
        <ele>343.200012</ele>
        <time>2011-05-08T08:40:41Z</time>
      </trkpt>
      <trkpt lat="45.33951" lon="1.26089">
        <ele>343.5</ele>
        <time>2011-05-08T08:40:42Z</time>
      </trkpt>
      <trkpt lat="45.33955" lon="1.26093">
        <ele>343.600006</ele>
        <time>2011-05-08T08:40:43Z</time>
      </trkpt>
      <trkpt lat="45.33959" lon="1.26097">
        <ele>343.700012</ele>
        <time>2011-05-08T08:40:44Z</time>
      </trkpt>
      <trkpt lat="45.33963" lon="1.26101">
        <ele>343.700012</ele>
        <time>2011-05-08T08:40:45Z</time>
      </trkpt>
      <trkpt lat="45.33968" lon="1.26105">
        <ele>343.700012</ele>
        <time>2011-05-08T08:40:46Z</time>
      </trkpt>
      <trkpt lat="45.33971" lon="1.26109">
        <ele>343.700012</ele>
        <time>2011-05-08T08:40:47Z</time>
      </trkpt>
      <trkpt lat="45.33975" lon="1.26113">
        <ele>343.5</ele>
        <time>2011-05-08T08:40:48Z</time>
      </trkpt>
      <trkpt lat="45.33979" lon="1.26116">
        <ele>343.399994</ele>
        <time>2011-05-08T08:40:49Z</time>
      </trkpt>
      <trkpt lat="45.33984" lon="1.2612">
        <ele>342.899994</ele>
        <time>2011-05-08T08:40:50Z</time>
      </trkpt>
      <trkpt lat="45.33988" lon="1.26123">
        <ele>342.5</ele>
        <time>2011-05-08T08:40:51Z</time>
      </trkpt>
      <trkpt lat="45.33993" lon="1.26127">
        <ele>342.200012</ele>
        <time>2011-05-08T08:40:52Z</time>
      </trkpt>
      <trkpt lat="45.33997" lon="1.2613">
        <ele>342</ele>
        <time>2011-05-08T08:40:53Z</time>
      </trkpt>
      <trkpt lat="45.34002" lon="1.26134">
        <ele>341.899994</ele>
        <time>2011-05-08T08:40:54Z</time>
      </trkpt>
      <trkpt lat="45.34006" lon="1.26139">
        <ele>341.799988</ele>
        <time>2011-05-08T08:40:55Z</time>
      </trkpt>
      <trkpt lat="45.3401" lon="1.26144">
        <ele>341.799988</ele>
        <time>2011-05-08T08:40:56Z</time>
      </trkpt>
      <trkpt lat="45.34015" lon="1.26149">
        <ele>341.799988</ele>
        <time>2011-05-08T08:40:57Z</time>
      </trkpt>
      <trkpt lat="45.3402" lon="1.26154">
        <ele>341.799988</ele>
        <time>2011-05-08T08:40:58Z</time>
      </trkpt>
      <trkpt lat="45.34025" lon="1.26158">
        <ele>341.799988</ele>
        <time>2011-05-08T08:40:59Z</time>
      </trkpt>
      <trkpt lat="45.34031" lon="1.26164">
        <ele>341.600006</ele>
        <time>2011-05-08T08:41:00Z</time>
      </trkpt>
      <trkpt lat="45.34037" lon="1.2617">
        <ele>341.399994</ele>
        <time>2011-05-08T08:41:01Z</time>
      </trkpt>
      <trkpt lat="45.34043" lon="1.26176">
        <ele>340.799988</ele>
        <time>2011-05-08T08:41:02Z</time>
      </trkpt>
      <trkpt lat="45.3405" lon="1.2618">
        <ele>340.299988</ele>
        <time>2011-05-08T08:41:03Z</time>
      </trkpt>
      <trkpt lat="45.34056" lon="1.26184">
        <ele>340</ele>
        <time>2011-05-08T08:41:04Z</time>
      </trkpt>
      <trkpt lat="45.34063" lon="1.26187">
        <ele>339.799988</ele>
        <time>2011-05-08T08:41:05Z</time>
      </trkpt>
      <trkpt lat="45.34069" lon="1.2619">
        <ele>339.700012</ele>
        <time>2011-05-08T08:41:06Z</time>
      </trkpt>
      <trkpt lat="45.34075" lon="1.26194">
        <ele>339.200012</ele>
        <time>2011-05-08T08:41:07Z</time>
      </trkpt>
      <trkpt lat="45.3408" lon="1.26197">
        <ele>338.899994</ele>
        <time>2011-05-08T08:41:08Z</time>
      </trkpt>
      <trkpt lat="45.34085" lon="1.26201">
        <ele>339</ele>
        <time>2011-05-08T08:41:09Z</time>
      </trkpt>
      <trkpt lat="45.3409" lon="1.26204">
        <ele>339.100006</ele>
        <time>2011-05-08T08:41:10Z</time>
      </trkpt>
      <trkpt lat="45.34099" lon="1.26207">
        <ele>339.5</ele>
        <time>2011-05-08T08:41:12Z</time>
      </trkpt>
      <trkpt lat="45.34106" lon="1.26205">
        <ele>339.600006</ele>
        <time>2011-05-08T08:41:14Z</time>
      </trkpt>
      <trkpt lat="45.34113" lon="1.26207">
        <ele>339.5</ele>
        <time>2011-05-08T08:41:16Z</time>
      </trkpt>
      <trkpt lat="45.3412" lon="1.26211">
        <ele>339.399994</ele>
        <time>2011-05-08T08:41:18Z</time>
      </trkpt>
      <trkpt lat="45.34127" lon="1.26216">
        <ele>340.5</ele>
        <time>2011-05-08T08:41:20Z</time>
      </trkpt>
      <trkpt lat="45.34134" lon="1.2622">
        <ele>341.5</ele>
        <time>2011-05-08T08:41:22Z</time>
      </trkpt>
      <trkpt lat="45.34142" lon="1.26224">
        <ele>341.700012</ele>
        <time>2011-05-08T08:41:24Z</time>
      </trkpt>
      <trkpt lat="45.34149" lon="1.26227">
        <ele>342.299988</ele>
        <time>2011-05-08T08:41:26Z</time>
      </trkpt>
      <trkpt lat="45.34155" lon="1.2623">
        <ele>343.100006</ele>
        <time>2011-05-08T08:41:28Z</time>
      </trkpt>
      <trkpt lat="45.34162" lon="1.26234">
        <ele>343.700012</ele>
        <time>2011-05-08T08:41:30Z</time>
      </trkpt>
      <trkpt lat="45.34169" lon="1.26239">
        <ele>344.200012</ele>
        <time>2011-05-08T08:41:32Z</time>
      </trkpt>
      <trkpt lat="45.34176" lon="1.26243">
        <ele>344.100006</ele>
        <time>2011-05-08T08:41:34Z</time>
      </trkpt>
      <trkpt lat="45.34184" lon="1.26247">
        <ele>344.700012</ele>
        <time>2011-05-08T08:41:36Z</time>
      </trkpt>
      <trkpt lat="45.3419" lon="1.26254">
        <ele>344.899994</ele>
        <time>2011-05-08T08:41:38Z</time>
      </trkpt>
      <trkpt lat="45.34196" lon="1.26261">
        <ele>344.600006</ele>
        <time>2011-05-08T08:41:40Z</time>
      </trkpt>
      <trkpt lat="45.34203" lon="1.26269">
        <ele>345</ele>
        <time>2011-05-08T08:41:42Z</time>
      </trkpt>
      <trkpt lat="45.34206" lon="1.26272">
        <ele>345.5</ele>
        <time>2011-05-08T08:41:43Z</time>
      </trkpt>
      <trkpt lat="45.34215" lon="1.26281">
        <ele>346.600006</ele>
        <time>2011-05-08T08:41:46Z</time>
      </trkpt>
      <trkpt lat="45.34221" lon="1.26282">
        <ele>346</ele>
        <time>2011-05-08T08:41:48Z</time>
      </trkpt>
      <trkpt lat="45.34225" lon="1.26275">
        <ele>346.200012</ele>
        <time>2011-05-08T08:41:50Z</time>
      </trkpt>
      <trkpt lat="45.34226" lon="1.26266">
        <ele>346.299988</ele>
        <time>2011-05-08T08:41:52Z</time>
      </trkpt>
      <trkpt lat="45.34227" lon="1.26254">
        <ele>346.399994</ele>
        <time>2011-05-08T08:41:54Z</time>
      </trkpt>
      <trkpt lat="45.34229" lon="1.26243">
        <ele>346.799988</ele>
        <time>2011-05-08T08:41:56Z</time>
      </trkpt>
      <trkpt lat="45.3423" lon="1.26232">
        <ele>346.700012</ele>
        <time>2011-05-08T08:41:58Z</time>
      </trkpt>
      <trkpt lat="45.34232" lon="1.26221">
        <ele>346.299988</ele>
        <time>2011-05-08T08:42:00Z</time>
      </trkpt>
      <trkpt lat="45.34234" lon="1.2621">
        <ele>346.100006</ele>
        <time>2011-05-08T08:42:02Z</time>
      </trkpt>
      <trkpt lat="45.34235" lon="1.26198">
        <ele>345.700012</ele>
        <time>2011-05-08T08:42:04Z</time>
      </trkpt>
      <trkpt lat="45.34236" lon="1.26191">
        <ele>345.5</ele>
        <time>2011-05-08T08:42:05Z</time>
      </trkpt>
      <trkpt lat="45.34238" lon="1.26179">
        <ele>345.200012</ele>
        <time>2011-05-08T08:42:07Z</time>
      </trkpt>
      <trkpt lat="45.3424" lon="1.26173">
        <ele>345.100006</ele>
        <time>2011-05-08T08:42:08Z</time>
      </trkpt>
      <trkpt lat="45.34243" lon="1.26161">
        <ele>345.100006</ele>
        <time>2011-05-08T08:42:10Z</time>
      </trkpt>
      <trkpt lat="45.34247" lon="1.2615">
        <ele>345.399994</ele>
        <time>2011-05-08T08:42:12Z</time>
      </trkpt>
      <trkpt lat="45.34249" lon="1.26138">
        <ele>345.600006</ele>
        <time>2011-05-08T08:42:14Z</time>
      </trkpt>
      <trkpt lat="45.3425" lon="1.26131">
        <ele>345.700012</ele>
        <time>2011-05-08T08:42:15Z</time>
      </trkpt>
      <trkpt lat="45.34251" lon="1.26125">
        <ele>345.5</ele>
        <time>2011-05-08T08:42:16Z</time>
      </trkpt>
      <trkpt lat="45.34251" lon="1.26112">
        <ele>345.299988</ele>
        <time>2011-05-08T08:42:18Z</time>
      </trkpt>
      <trkpt lat="45.34252" lon="1.26105">
        <ele>345.200012</ele>
        <time>2011-05-08T08:42:19Z</time>
      </trkpt>
      <trkpt lat="45.34252" lon="1.26099">
        <ele>345.200012</ele>
        <time>2011-05-08T08:42:20Z</time>
      </trkpt>
      <trkpt lat="45.34251" lon="1.26086">
        <ele>345.299988</ele>
        <time>2011-05-08T08:42:22Z</time>
      </trkpt>
      <trkpt lat="45.3425" lon="1.26074">
        <ele>344.799988</ele>
        <time>2011-05-08T08:42:24Z</time>
      </trkpt>
      <trkpt lat="45.34249" lon="1.26061">
        <ele>344.399994</ele>
        <time>2011-05-08T08:42:26Z</time>
      </trkpt>
      <trkpt lat="45.34249" lon="1.26055">
        <ele>344.299988</ele>
        <time>2011-05-08T08:42:27Z</time>
      </trkpt>
      <trkpt lat="45.34248" lon="1.26048">
        <ele>344.399994</ele>
        <time>2011-05-08T08:42:28Z</time>
      </trkpt>
      <trkpt lat="45.34247" lon="1.26041">
        <ele>344.399994</ele>
        <time>2011-05-08T08:42:29Z</time>
      </trkpt>
      <trkpt lat="45.34246" lon="1.26034">
        <ele>344.5</ele>
        <time>2011-05-08T08:42:30Z</time>
      </trkpt>
      <trkpt lat="45.34245" lon="1.26027">
        <ele>344.5</ele>
        <time>2011-05-08T08:42:31Z</time>
      </trkpt>
      <trkpt lat="45.34244" lon="1.26019">
        <ele>344.200012</ele>
        <time>2011-05-08T08:42:32Z</time>
      </trkpt>
      <trkpt lat="45.34243" lon="1.26012">
        <ele>344</ele>
        <time>2011-05-08T08:42:33Z</time>
      </trkpt>
      <trkpt lat="45.34242" lon="1.26004">
        <ele>343.899994</ele>
        <time>2011-05-08T08:42:34Z</time>
      </trkpt>
      <trkpt lat="45.34241" lon="1.25997">
        <ele>343.600006</ele>
        <time>2011-05-08T08:42:35Z</time>
      </trkpt>
      <trkpt lat="45.3424" lon="1.25989">
        <ele>343.299988</ele>
        <time>2011-05-08T08:42:36Z</time>
      </trkpt>
      <trkpt lat="45.34239" lon="1.25981">
        <ele>342.899994</ele>
        <time>2011-05-08T08:42:37Z</time>
      </trkpt>
      <trkpt lat="45.34238" lon="1.25973">
        <ele>342.5</ele>
        <time>2011-05-08T08:42:38Z</time>
      </trkpt>
      <trkpt lat="45.34238" lon="1.25964">
        <ele>342.399994</ele>
        <time>2011-05-08T08:42:39Z</time>
      </trkpt>
      <trkpt lat="45.34237" lon="1.25956">
        <ele>342.200012</ele>
        <time>2011-05-08T08:42:40Z</time>
      </trkpt>
      <trkpt lat="45.34236" lon="1.25947">
        <ele>342.100006</ele>
        <time>2011-05-08T08:42:41Z</time>
      </trkpt>
      <trkpt lat="45.34235" lon="1.25939">
        <ele>341.899994</ele>
        <time>2011-05-08T08:42:42Z</time>
      </trkpt>
      <trkpt lat="45.34235" lon="1.2593">
        <ele>341.700012</ele>
        <time>2011-05-08T08:42:43Z</time>
      </trkpt>
      <trkpt lat="45.34234" lon="1.25921">
        <ele>341.399994</ele>
        <time>2011-05-08T08:42:44Z</time>
      </trkpt>
      <trkpt lat="45.34233" lon="1.25913">
        <ele>341.200012</ele>
        <time>2011-05-08T08:42:45Z</time>
      </trkpt>
      <trkpt lat="45.34232" lon="1.25904">
        <ele>341</ele>
        <time>2011-05-08T08:42:46Z</time>
      </trkpt>
      <trkpt lat="45.34231" lon="1.25896">
        <ele>340.899994</ele>
        <time>2011-05-08T08:42:47Z</time>
      </trkpt>
      <trkpt lat="45.3423" lon="1.25888">
        <ele>340.799988</ele>
        <time>2011-05-08T08:42:48Z</time>
      </trkpt>
      <trkpt lat="45.34229" lon="1.2588">
        <ele>340.600006</ele>
        <time>2011-05-08T08:42:49Z</time>
      </trkpt>
      <trkpt lat="45.34229" lon="1.25872">
        <ele>340.5</ele>
        <time>2011-05-08T08:42:50Z</time>
      </trkpt>
      <trkpt lat="45.34228" lon="1.25865">
        <ele>340.399994</ele>
        <time>2011-05-08T08:42:51Z</time>
      </trkpt>
      <trkpt lat="45.34227" lon="1.25857">
        <ele>340.399994</ele>
        <time>2011-05-08T08:42:52Z</time>
      </trkpt>
      <trkpt lat="45.34227" lon="1.2585">
        <ele>340.299988</ele>
        <time>2011-05-08T08:42:53Z</time>
      </trkpt>
      <trkpt lat="45.34228" lon="1.25843">
        <ele>340.100006</ele>
        <time>2011-05-08T08:42:54Z</time>
      </trkpt>
      <trkpt lat="45.34229" lon="1.25837">
        <ele>340</ele>
        <time>2011-05-08T08:42:55Z</time>
      </trkpt>
      <trkpt lat="45.34233" lon="1.25825">
        <ele>339.799988</ele>
        <time>2011-05-08T08:42:57Z</time>
      </trkpt>
      <trkpt lat="45.34234" lon="1.25814">
        <ele>339.299988</ele>
        <time>2011-05-08T08:42:59Z</time>
      </trkpt>
      <trkpt lat="45.34231" lon="1.25804">
        <ele>339.200012</ele>
        <time>2011-05-08T08:43:01Z</time>
      </trkpt>
      <trkpt lat="45.34229" lon="1.25793">
        <ele>339.299988</ele>
        <time>2011-05-08T08:43:03Z</time>
      </trkpt>
      <trkpt lat="45.34228" lon="1.25786">
        <ele>339.399994</ele>
        <time>2011-05-08T08:43:04Z</time>
      </trkpt>
      <trkpt lat="45.34228" lon="1.2578">
        <ele>339.399994</ele>
        <time>2011-05-08T08:43:05Z</time>
      </trkpt>
      <trkpt lat="45.34227" lon="1.25767">
        <ele>340.100006</ele>
        <time>2011-05-08T08:43:07Z</time>
      </trkpt>
      <trkpt lat="45.34226" lon="1.25756">
        <ele>340.399994</ele>
        <time>2011-05-08T08:43:09Z</time>
      </trkpt>
      <trkpt lat="45.34227" lon="1.25745">
        <ele>340.899994</ele>
        <time>2011-05-08T08:43:11Z</time>
      </trkpt>
      <trkpt lat="45.34227" lon="1.25733">
        <ele>341.700012</ele>
        <time>2011-05-08T08:43:13Z</time>
      </trkpt>
      <trkpt lat="45.34226" lon="1.25722">
        <ele>343.200012</ele>
        <time>2011-05-08T08:43:15Z</time>
      </trkpt>
      <trkpt lat="45.34226" lon="1.25711">
        <ele>344.399994</ele>
        <time>2011-05-08T08:43:17Z</time>
      </trkpt>
      <trkpt lat="45.34226" lon="1.257">
        <ele>345</ele>
        <time>2011-05-08T08:43:19Z</time>
      </trkpt>
      <trkpt lat="45.34225" lon="1.25689">
        <ele>345.799988</ele>
        <time>2011-05-08T08:43:21Z</time>
      </trkpt>
      <trkpt lat="45.34225" lon="1.25678">
        <ele>346</ele>
        <time>2011-05-08T08:43:23Z</time>
      </trkpt>
      <trkpt lat="45.34224" lon="1.25666">
        <ele>346.399994</ele>
        <time>2011-05-08T08:43:25Z</time>
      </trkpt>
      <trkpt lat="45.34223" lon="1.25654">
        <ele>347.100006</ele>
        <time>2011-05-08T08:43:27Z</time>
      </trkpt>
      <trkpt lat="45.34222" lon="1.25642">
        <ele>347.5</ele>
        <time>2011-05-08T08:43:29Z</time>
      </trkpt>
      <trkpt lat="45.34222" lon="1.25635">
        <ele>347.5</ele>
        <time>2011-05-08T08:43:30Z</time>
      </trkpt>
      <trkpt lat="45.34221" lon="1.25628">
        <ele>347.600006</ele>
        <time>2011-05-08T08:43:31Z</time>
      </trkpt>
      <trkpt lat="45.34221" lon="1.25621">
        <ele>347.200012</ele>
        <time>2011-05-08T08:43:32Z</time>
      </trkpt>
      <trkpt lat="45.3422" lon="1.25613">
        <ele>347</ele>
        <time>2011-05-08T08:43:33Z</time>
      </trkpt>
      <trkpt lat="45.3422" lon="1.25606">
        <ele>346.600006</ele>
        <time>2011-05-08T08:43:34Z</time>
      </trkpt>
      <trkpt lat="45.3422" lon="1.25598">
        <ele>346.299988</ele>
        <time>2011-05-08T08:43:35Z</time>
      </trkpt>
      <trkpt lat="45.3422" lon="1.25589">
        <ele>346.100006</ele>
        <time>2011-05-08T08:43:36Z</time>
      </trkpt>
      <trkpt lat="45.34221" lon="1.2558">
        <ele>346</ele>
        <time>2011-05-08T08:43:37Z</time>
      </trkpt>
      <trkpt lat="45.34223" lon="1.25572">
        <ele>346</ele>
        <time>2011-05-08T08:43:38Z</time>
      </trkpt>
      <trkpt lat="45.34225" lon="1.25563">
        <ele>345.799988</ele>
        <time>2011-05-08T08:43:39Z</time>
      </trkpt>
      <trkpt lat="45.34227" lon="1.25555">
        <ele>345.799988</ele>
        <time>2011-05-08T08:43:40Z</time>
      </trkpt>
      <trkpt lat="45.3423" lon="1.25548">
        <ele>345.700012</ele>
        <time>2011-05-08T08:43:41Z</time>
      </trkpt>
      <trkpt lat="45.34232" lon="1.2554">
        <ele>345.700012</ele>
        <time>2011-05-08T08:43:42Z</time>
      </trkpt>
      <trkpt lat="45.34233" lon="1.25532">
        <ele>345.299988</ele>
        <time>2011-05-08T08:43:43Z</time>
      </trkpt>
      <trkpt lat="45.34235" lon="1.25525">
        <ele>345</ele>
        <time>2011-05-08T08:43:44Z</time>
      </trkpt>
      <trkpt lat="45.34236" lon="1.25517">
        <ele>344.700012</ele>
        <time>2011-05-08T08:43:45Z</time>
      </trkpt>
      <trkpt lat="45.34237" lon="1.25509">
        <ele>344.899994</ele>
        <time>2011-05-08T08:43:46Z</time>
      </trkpt>
      <trkpt lat="45.34238" lon="1.25501">
        <ele>345</ele>
        <time>2011-05-08T08:43:47Z</time>
      </trkpt>
      <trkpt lat="45.3424" lon="1.25493">
        <ele>345.399994</ele>
        <time>2011-05-08T08:43:48Z</time>
      </trkpt>
      <trkpt lat="45.34242" lon="1.25485">
        <ele>345.600006</ele>
        <time>2011-05-08T08:43:49Z</time>
      </trkpt>
      <trkpt lat="45.34243" lon="1.25477">
        <ele>345.799988</ele>
        <time>2011-05-08T08:43:50Z</time>
      </trkpt>
      <trkpt lat="45.34245" lon="1.25469">
        <ele>346</ele>
        <time>2011-05-08T08:43:51Z</time>
      </trkpt>
      <trkpt lat="45.34246" lon="1.2546">
        <ele>346.100006</ele>
        <time>2011-05-08T08:43:52Z</time>
      </trkpt>
      <trkpt lat="45.34248" lon="1.25451">
        <ele>345.799988</ele>
        <time>2011-05-08T08:43:53Z</time>
      </trkpt>
      <trkpt lat="45.3425" lon="1.25442">
        <ele>345.5</ele>
        <time>2011-05-08T08:43:54Z</time>
      </trkpt>
      <trkpt lat="45.34251" lon="1.25432">
        <ele>345.200012</ele>
        <time>2011-05-08T08:43:55Z</time>
      </trkpt>
      <trkpt lat="45.34253" lon="1.25422">
        <ele>345</ele>
        <time>2011-05-08T08:43:56Z</time>
      </trkpt>
      <trkpt lat="45.34255" lon="1.25411">
        <ele>344.799988</ele>
        <time>2011-05-08T08:43:57Z</time>
      </trkpt>
      <trkpt lat="45.34257" lon="1.254">
        <ele>344</ele>
        <time>2011-05-08T08:43:58Z</time>
      </trkpt>
      <trkpt lat="45.34259" lon="1.25388">
        <ele>343.399994</ele>
        <time>2011-05-08T08:43:59Z</time>
      </trkpt>
      <trkpt lat="45.34262" lon="1.25375">
        <ele>342.600006</ele>
        <time>2011-05-08T08:44:00Z</time>
      </trkpt>
      <trkpt lat="45.34266" lon="1.25363">
        <ele>342</ele>
        <time>2011-05-08T08:44:01Z</time>
      </trkpt>
      <trkpt lat="45.34271" lon="1.25353">
        <ele>341.399994</ele>
        <time>2011-05-08T08:44:02Z</time>
      </trkpt>
      <trkpt lat="45.34276" lon="1.25343">
        <ele>340.899994</ele>
        <time>2011-05-08T08:44:03Z</time>
      </trkpt>
      <trkpt lat="45.34282" lon="1.25336">
        <ele>340.600006</ele>
        <time>2011-05-08T08:44:04Z</time>
      </trkpt>
      <trkpt lat="45.34289" lon="1.2533">
        <ele>340.700012</ele>
        <time>2011-05-08T08:44:05Z</time>
      </trkpt>
      <trkpt lat="45.34295" lon="1.25326">
        <ele>340.799988</ele>
        <time>2011-05-08T08:44:06Z</time>
      </trkpt>
      <trkpt lat="45.34302" lon="1.25325">
        <ele>340.700012</ele>
        <time>2011-05-08T08:44:07Z</time>
      </trkpt>
      <trkpt lat="45.34308" lon="1.25327">
        <ele>340.600006</ele>
        <time>2011-05-08T08:44:08Z</time>
      </trkpt>
      <trkpt lat="45.34314" lon="1.2533">
        <ele>340.600006</ele>
        <time>2011-05-08T08:44:09Z</time>
      </trkpt>
      <trkpt lat="45.34319" lon="1.25334">
        <ele>341.299988</ele>
        <time>2011-05-08T08:44:10Z</time>
      </trkpt>
      <trkpt lat="45.34325" lon="1.25335">
        <ele>341.899994</ele>
        <time>2011-05-08T08:44:11Z</time>
      </trkpt>
      <trkpt lat="45.3433" lon="1.25335">
        <ele>342.700012</ele>
        <time>2011-05-08T08:44:12Z</time>
      </trkpt>
      <trkpt lat="45.34335" lon="1.25332">
        <ele>343.299988</ele>
        <time>2011-05-08T08:44:13Z</time>
      </trkpt>
      <trkpt lat="45.34339" lon="1.25326">
        <ele>343.700012</ele>
        <time>2011-05-08T08:44:14Z</time>
      </trkpt>
      <trkpt lat="45.34342" lon="1.2532">
        <ele>344</ele>
        <time>2011-05-08T08:44:15Z</time>
      </trkpt>
      <trkpt lat="45.34345" lon="1.25313">
        <ele>344.299988</ele>
        <time>2011-05-08T08:44:16Z</time>
      </trkpt>
      <trkpt lat="45.34348" lon="1.25307">
        <ele>344.799988</ele>
        <time>2011-05-08T08:44:17Z</time>
      </trkpt>
      <trkpt lat="45.34352" lon="1.253">
        <ele>345.100006</ele>
        <time>2011-05-08T08:44:18Z</time>
      </trkpt>
      <trkpt lat="45.34354" lon="1.25292">
        <ele>345.399994</ele>
        <time>2011-05-08T08:44:19Z</time>
      </trkpt>
      <trkpt lat="45.34357" lon="1.25284">
        <ele>345.600006</ele>
        <time>2011-05-08T08:44:20Z</time>
      </trkpt>
      <trkpt lat="45.3436" lon="1.25277">
        <ele>345.700012</ele>
        <time>2011-05-08T08:44:21Z</time>
      </trkpt>
      <trkpt lat="45.34364" lon="1.2527">
        <ele>345.700012</ele>
        <time>2011-05-08T08:44:22Z</time>
      </trkpt>
      <trkpt lat="45.34368" lon="1.25263">
        <ele>345.700012</ele>
        <time>2011-05-08T08:44:23Z</time>
      </trkpt>
      <trkpt lat="45.34372" lon="1.25256">
        <ele>345.5</ele>
        <time>2011-05-08T08:44:24Z</time>
      </trkpt>
      <trkpt lat="45.34376" lon="1.25249">
        <ele>345.299988</ele>
        <time>2011-05-08T08:44:25Z</time>
      </trkpt>
      <trkpt lat="45.34381" lon="1.25242">
        <ele>345.100006</ele>
        <time>2011-05-08T08:44:26Z</time>
      </trkpt>
      <trkpt lat="45.34385" lon="1.25235">
        <ele>344.899994</ele>
        <time>2011-05-08T08:44:27Z</time>
      </trkpt>
      <trkpt lat="45.34389" lon="1.25228">
        <ele>344.799988</ele>
        <time>2011-05-08T08:44:28Z</time>
      </trkpt>
      <trkpt lat="45.34394" lon="1.2522">
        <ele>344.700012</ele>
        <time>2011-05-08T08:44:29Z</time>
      </trkpt>
      <trkpt lat="45.34398" lon="1.25212">
        <ele>344.600006</ele>
        <time>2011-05-08T08:44:30Z</time>
      </trkpt>
      <trkpt lat="45.34403" lon="1.25204">
        <ele>344.5</ele>
        <time>2011-05-08T08:44:31Z</time>
      </trkpt>
      <trkpt lat="45.34408" lon="1.25196">
        <ele>344.399994</ele>
        <time>2011-05-08T08:44:32Z</time>
      </trkpt>
      <trkpt lat="45.34413" lon="1.25188">
        <ele>344.399994</ele>
        <time>2011-05-08T08:44:33Z</time>
      </trkpt>
      <trkpt lat="45.34418" lon="1.2518">
        <ele>344.399994</ele>
        <time>2011-05-08T08:44:34Z</time>
      </trkpt>
      <trkpt lat="45.34423" lon="1.25172">
        <ele>344.399994</ele>
        <time>2011-05-08T08:44:35Z</time>
      </trkpt>
      <trkpt lat="45.34427" lon="1.25165">
        <ele>344.5</ele>
        <time>2011-05-08T08:44:36Z</time>
      </trkpt>
      <trkpt lat="45.34432" lon="1.25157">
        <ele>344.5</ele>
        <time>2011-05-08T08:44:37Z</time>
      </trkpt>
      <trkpt lat="45.34436" lon="1.2515">
        <ele>344.700012</ele>
        <time>2011-05-08T08:44:38Z</time>
      </trkpt>
      <trkpt lat="45.3444" lon="1.25142">
        <ele>344.799988</ele>
        <time>2011-05-08T08:44:39Z</time>
      </trkpt>
      <trkpt lat="45.34445" lon="1.25135">
        <ele>344.600006</ele>
        <time>2011-05-08T08:44:40Z</time>
      </trkpt>
      <trkpt lat="45.34449" lon="1.25128">
        <ele>344.399994</ele>
        <time>2011-05-08T08:44:41Z</time>
      </trkpt>
      <trkpt lat="45.34453" lon="1.25121">
        <ele>344.299988</ele>
        <time>2011-05-08T08:44:42Z</time>
      </trkpt>
      <trkpt lat="45.34456" lon="1.25114">
        <ele>344.5</ele>
        <time>2011-05-08T08:44:43Z</time>
      </trkpt>
      <trkpt lat="45.34459" lon="1.25106">
        <ele>344.600006</ele>
        <time>2011-05-08T08:44:44Z</time>
      </trkpt>
      <trkpt lat="45.34462" lon="1.25098">
        <ele>344.700012</ele>
        <time>2011-05-08T08:44:45Z</time>
      </trkpt>
      <trkpt lat="45.34465" lon="1.2509">
        <ele>344.799988</ele>
        <time>2011-05-08T08:44:46Z</time>
      </trkpt>
      <trkpt lat="45.34468" lon="1.25082">
        <ele>344.899994</ele>
        <time>2011-05-08T08:44:47Z</time>
      </trkpt>
      <trkpt lat="45.34471" lon="1.25074">
        <ele>344.899994</ele>
        <time>2011-05-08T08:44:48Z</time>
      </trkpt>
      <trkpt lat="45.34473" lon="1.25067">
        <ele>344.899994</ele>
        <time>2011-05-08T08:44:49Z</time>
      </trkpt>
      <trkpt lat="45.34476" lon="1.25059">
        <ele>344.899994</ele>
        <time>2011-05-08T08:44:50Z</time>
      </trkpt>
      <trkpt lat="45.34478" lon="1.25052">
        <ele>344.899994</ele>
        <time>2011-05-08T08:44:51Z</time>
      </trkpt>
      <trkpt lat="45.34479" lon="1.25045">
        <ele>345.100006</ele>
        <time>2011-05-08T08:44:52Z</time>
      </trkpt>
      <trkpt lat="45.3448" lon="1.25037">
        <ele>345.299988</ele>
        <time>2011-05-08T08:44:53Z</time>
      </trkpt>
      <trkpt lat="45.34479" lon="1.25029">
        <ele>345.5</ele>
        <time>2011-05-08T08:44:54Z</time>
      </trkpt>
      <trkpt lat="45.34478" lon="1.25021">
        <ele>345.700012</ele>
        <time>2011-05-08T08:44:55Z</time>
      </trkpt>
      <trkpt lat="45.34476" lon="1.25014">
        <ele>345.799988</ele>
        <time>2011-05-08T08:44:56Z</time>
      </trkpt>
      <trkpt lat="45.34473" lon="1.25007">
        <ele>345.600006</ele>
        <time>2011-05-08T08:44:57Z</time>
      </trkpt>
      <trkpt lat="45.34471" lon="1.25">
        <ele>345.5</ele>
        <time>2011-05-08T08:44:58Z</time>
      </trkpt>
      <trkpt lat="45.34469" lon="1.24994">
        <ele>345.799988</ele>
        <time>2011-05-08T08:44:59Z</time>
      </trkpt>
      <trkpt lat="45.34467" lon="1.24987">
        <ele>346</ele>
        <time>2011-05-08T08:45:00Z</time>
      </trkpt>
      <trkpt lat="45.34465" lon="1.24981">
        <ele>346.100006</ele>
        <time>2011-05-08T08:45:01Z</time>
      </trkpt>
      <trkpt lat="45.34463" lon="1.24974">
        <ele>346.200012</ele>
        <time>2011-05-08T08:45:02Z</time>
      </trkpt>
      <trkpt lat="45.34461" lon="1.24968">
        <ele>346.200012</ele>
        <time>2011-05-08T08:45:03Z</time>
      </trkpt>
      <trkpt lat="45.34459" lon="1.24961">
        <ele>346.399994</ele>
        <time>2011-05-08T08:45:04Z</time>
      </trkpt>
      <trkpt lat="45.34457" lon="1.24955">
        <ele>346.600006</ele>
        <time>2011-05-08T08:45:05Z</time>
      </trkpt>
      <trkpt lat="45.34454" lon="1.2495">
        <ele>346.700012</ele>
        <time>2011-05-08T08:45:06Z</time>
      </trkpt>
      <trkpt lat="45.34451" lon="1.24944">
        <ele>347</ele>
        <time>2011-05-08T08:45:07Z</time>
      </trkpt>
      <trkpt lat="45.34448" lon="1.24938">
        <ele>347.200012</ele>
        <time>2011-05-08T08:45:08Z</time>
      </trkpt>
      <trkpt lat="45.34445" lon="1.24932">
        <ele>347.299988</ele>
        <time>2011-05-08T08:45:09Z</time>
      </trkpt>
      <trkpt lat="45.34442" lon="1.24927">
        <ele>347.299988</ele>
        <time>2011-05-08T08:45:10Z</time>
      </trkpt>
      <trkpt lat="45.34439" lon="1.24921">
        <ele>347.200012</ele>
        <time>2011-05-08T08:45:11Z</time>
      </trkpt>
      <trkpt lat="45.34436" lon="1.24916">
        <ele>347.100006</ele>
        <time>2011-05-08T08:45:12Z</time>
      </trkpt>
      <trkpt lat="45.34432" lon="1.24911">
        <ele>347.100006</ele>
        <time>2011-05-08T08:45:13Z</time>
      </trkpt>
      <trkpt lat="45.34429" lon="1.24905">
        <ele>347.299988</ele>
        <time>2011-05-08T08:45:14Z</time>
      </trkpt>
      <trkpt lat="45.34426" lon="1.24899">
        <ele>347.399994</ele>
        <time>2011-05-08T08:45:15Z</time>
      </trkpt>
      <trkpt lat="45.34423" lon="1.24892">
        <ele>347.200012</ele>
        <time>2011-05-08T08:45:16Z</time>
      </trkpt>
      <trkpt lat="45.34421" lon="1.24884">
        <ele>347</ele>
        <time>2011-05-08T08:45:17Z</time>
      </trkpt>
      <trkpt lat="45.34419" lon="1.24876">
        <ele>347</ele>
        <time>2011-05-08T08:45:18Z</time>
      </trkpt>
      <trkpt lat="45.34417" lon="1.24867">
        <ele>346.899994</ele>
        <time>2011-05-08T08:45:19Z</time>
      </trkpt>
      <trkpt lat="45.34415" lon="1.24858">
        <ele>346.899994</ele>
        <time>2011-05-08T08:45:20Z</time>
      </trkpt>
      <trkpt lat="45.34413" lon="1.24849">
        <ele>346.799988</ele>
        <time>2011-05-08T08:45:21Z</time>
      </trkpt>
      <trkpt lat="45.34413" lon="1.2484">
        <ele>346.700012</ele>
        <time>2011-05-08T08:45:22Z</time>
      </trkpt>
      <trkpt lat="45.34413" lon="1.24832">
        <ele>347</ele>
        <time>2011-05-08T08:45:23Z</time>
      </trkpt>
      <trkpt lat="45.34413" lon="1.24824">
        <ele>347.200012</ele>
        <time>2011-05-08T08:45:24Z</time>
      </trkpt>
      <trkpt lat="45.34412" lon="1.24817">
        <ele>346.899994</ele>
        <time>2011-05-08T08:45:25Z</time>
      </trkpt>
      <trkpt lat="45.34411" lon="1.24809">
        <ele>346.600006</ele>
        <time>2011-05-08T08:45:26Z</time>
      </trkpt>
      <trkpt lat="45.34411" lon="1.24801">
        <ele>346.399994</ele>
        <time>2011-05-08T08:45:27Z</time>
      </trkpt>
      <trkpt lat="45.3441" lon="1.24793">
        <ele>346.299988</ele>
        <time>2011-05-08T08:45:28Z</time>
      </trkpt>
      <trkpt lat="45.34408" lon="1.24784">
        <ele>346.200012</ele>
        <time>2011-05-08T08:45:29Z</time>
      </trkpt>
      <trkpt lat="45.34407" lon="1.24776">
        <ele>345.799988</ele>
        <time>2011-05-08T08:45:30Z</time>
      </trkpt>
      <trkpt lat="45.34406" lon="1.24767">
        <ele>345.5</ele>
        <time>2011-05-08T08:45:31Z</time>
      </trkpt>
      <trkpt lat="45.34405" lon="1.24758">
        <ele>345.299988</ele>
        <time>2011-05-08T08:45:32Z</time>
      </trkpt>
      <trkpt lat="45.34404" lon="1.24749">
        <ele>345.100006</ele>
        <time>2011-05-08T08:45:33Z</time>
      </trkpt>
      <trkpt lat="45.34404" lon="1.2474">
        <ele>344.899994</ele>
        <time>2011-05-08T08:45:34Z</time>
      </trkpt>
      <trkpt lat="45.34403" lon="1.24731">
        <ele>344.799988</ele>
        <time>2011-05-08T08:45:35Z</time>
      </trkpt>
      <trkpt lat="45.34402" lon="1.24721">
        <ele>344.799988</ele>
        <time>2011-05-08T08:45:36Z</time>
      </trkpt>
      <trkpt lat="45.34401" lon="1.24711">
        <ele>344.100006</ele>
        <time>2011-05-08T08:45:37Z</time>
      </trkpt>
      <trkpt lat="45.34401" lon="1.24701">
        <ele>343.600006</ele>
        <time>2011-05-08T08:45:38Z</time>
      </trkpt>
      <trkpt lat="45.34401" lon="1.24691">
        <ele>343.200012</ele>
        <time>2011-05-08T08:45:39Z</time>
      </trkpt>
      <trkpt lat="45.34402" lon="1.24681">
        <ele>342.899994</ele>
        <time>2011-05-08T08:45:40Z</time>
      </trkpt>
      <trkpt lat="45.34404" lon="1.24672">
        <ele>342.799988</ele>
        <time>2011-05-08T08:45:41Z</time>
      </trkpt>
      <trkpt lat="45.34408" lon="1.24664">
        <ele>342.799988</ele>
        <time>2011-05-08T08:45:42Z</time>
      </trkpt>
      <trkpt lat="45.34411" lon="1.24656">
        <ele>342.799988</ele>
        <time>2011-05-08T08:45:43Z</time>
      </trkpt>
      <trkpt lat="45.34413" lon="1.24648">
        <ele>342.799988</ele>
        <time>2011-05-08T08:45:44Z</time>
      </trkpt>
      <trkpt lat="45.34415" lon="1.2464">
        <ele>342.799988</ele>
        <time>2011-05-08T08:45:45Z</time>
      </trkpt>
      <trkpt lat="45.34417" lon="1.24632">
        <ele>342.899994</ele>
        <time>2011-05-08T08:45:46Z</time>
      </trkpt>
      <trkpt lat="45.34419" lon="1.24623">
        <ele>342.399994</ele>
        <time>2011-05-08T08:45:47Z</time>
      </trkpt>
      <trkpt lat="45.34421" lon="1.24614">
        <ele>342</ele>
        <time>2011-05-08T08:45:48Z</time>
      </trkpt>
      <trkpt lat="45.34423" lon="1.24605">
        <ele>341.799988</ele>
        <time>2011-05-08T08:45:49Z</time>
      </trkpt>
      <trkpt lat="45.34424" lon="1.24595">
        <ele>341.600006</ele>
        <time>2011-05-08T08:45:50Z</time>
      </trkpt>
      <trkpt lat="45.34424" lon="1.24585">
        <ele>341.5</ele>
        <time>2011-05-08T08:45:51Z</time>
      </trkpt>
      <trkpt lat="45.34424" lon="1.24575">
        <ele>340.899994</ele>
        <time>2011-05-08T08:45:52Z</time>
      </trkpt>
      <trkpt lat="45.34423" lon="1.24564">
        <ele>340.5</ele>
        <time>2011-05-08T08:45:53Z</time>
      </trkpt>
      <trkpt lat="45.34422" lon="1.24554">
        <ele>340.299988</ele>
        <time>2011-05-08T08:45:54Z</time>
      </trkpt>
      <trkpt lat="45.34421" lon="1.24544">
        <ele>340.200012</ele>
        <time>2011-05-08T08:45:55Z</time>
      </trkpt>
      <trkpt lat="45.3442" lon="1.24535">
        <ele>339.600006</ele>
        <time>2011-05-08T08:45:56Z</time>
      </trkpt>
      <trkpt lat="45.34419" lon="1.24527">
        <ele>339.200012</ele>
        <time>2011-05-08T08:45:57Z</time>
      </trkpt>
      <trkpt lat="45.34419" lon="1.24519">
        <ele>338.899994</ele>
        <time>2011-05-08T08:45:58Z</time>
      </trkpt>
      <trkpt lat="45.34419" lon="1.24511">
        <ele>339</ele>
        <time>2011-05-08T08:45:59Z</time>
      </trkpt>
      <trkpt lat="45.34419" lon="1.24503">
        <ele>339.100006</ele>
        <time>2011-05-08T08:46:00Z</time>
      </trkpt>
      <trkpt lat="45.34418" lon="1.24495">
        <ele>338.299988</ele>
        <time>2011-05-08T08:46:01Z</time>
      </trkpt>
      <trkpt lat="45.34419" lon="1.24487">
        <ele>337.700012</ele>
        <time>2011-05-08T08:46:02Z</time>
      </trkpt>
      <trkpt lat="45.34419" lon="1.24479">
        <ele>337.700012</ele>
        <time>2011-05-08T08:46:03Z</time>
      </trkpt>
      <trkpt lat="45.34419" lon="1.24471">
        <ele>337.700012</ele>
        <time>2011-05-08T08:46:04Z</time>
      </trkpt>
      <trkpt lat="45.34419" lon="1.24463">
        <ele>337.700012</ele>
        <time>2011-05-08T08:46:05Z</time>
      </trkpt>
      <trkpt lat="45.3442" lon="1.24456">
        <ele>337.799988</ele>
        <time>2011-05-08T08:46:06Z</time>
      </trkpt>
      <trkpt lat="45.3442" lon="1.24448">
        <ele>337.899994</ele>
        <time>2011-05-08T08:46:07Z</time>
      </trkpt>
      <trkpt lat="45.3442" lon="1.24441">
        <ele>338.399994</ele>
        <time>2011-05-08T08:46:08Z</time>
      </trkpt>
      <trkpt lat="45.34421" lon="1.24434">
        <ele>338.799988</ele>
        <time>2011-05-08T08:46:09Z</time>
      </trkpt>
      <trkpt lat="45.34422" lon="1.24427">
        <ele>339</ele>
        <time>2011-05-08T08:46:10Z</time>
      </trkpt>
      <trkpt lat="45.34423" lon="1.24419">
        <ele>338.799988</ele>
        <time>2011-05-08T08:46:11Z</time>
      </trkpt>
      <trkpt lat="45.34424" lon="1.24411">
        <ele>338.700012</ele>
        <time>2011-05-08T08:46:12Z</time>
      </trkpt>
      <trkpt lat="45.34425" lon="1.24403">
        <ele>338.700012</ele>
        <time>2011-05-08T08:46:13Z</time>
      </trkpt>
      <trkpt lat="45.34426" lon="1.24395">
        <ele>338.799988</ele>
        <time>2011-05-08T08:46:14Z</time>
      </trkpt>
      <trkpt lat="45.34427" lon="1.24388">
        <ele>339.299988</ele>
        <time>2011-05-08T08:46:15Z</time>
      </trkpt>
      <trkpt lat="45.34427" lon="1.24377">
        <ele>340</ele>
        <time>2011-05-08T08:46:17Z</time>
      </trkpt>
      <trkpt lat="45.34419" lon="1.24371">
        <ele>340.100006</ele>
        <time>2011-05-08T08:46:20Z</time>
      </trkpt>
      <trkpt lat="45.34412" lon="1.24371">
        <ele>340.399994</ele>
        <time>2011-05-08T08:46:22Z</time>
      </trkpt>
      <trkpt lat="45.34405" lon="1.24371">
        <ele>340</ele>
        <time>2011-05-08T08:46:24Z</time>
      </trkpt>
      <trkpt lat="45.34396" lon="1.24371">
        <ele>339.799988</ele>
        <time>2011-05-08T08:46:26Z</time>
      </trkpt>
      <trkpt lat="45.34387" lon="1.2437">
        <ele>340.200012</ele>
        <time>2011-05-08T08:46:28Z</time>
      </trkpt>
      <trkpt lat="45.34383" lon="1.2437">
        <ele>340.399994</ele>
        <time>2011-05-08T08:46:29Z</time>
      </trkpt>
      <trkpt lat="45.34378" lon="1.24371">
        <ele>340.100006</ele>
        <time>2011-05-08T08:46:30Z</time>
      </trkpt>
      <trkpt lat="45.34374" lon="1.24371">
        <ele>339.899994</ele>
        <time>2011-05-08T08:46:31Z</time>
      </trkpt>
      <trkpt lat="45.34369" lon="1.24371">
        <ele>340</ele>
        <time>2011-05-08T08:46:32Z</time>
      </trkpt>
      <trkpt lat="45.34364" lon="1.24371">
        <ele>340</ele>
        <time>2011-05-08T08:46:33Z</time>
      </trkpt>
      <trkpt lat="45.34359" lon="1.24371">
        <ele>340.200012</ele>
        <time>2011-05-08T08:46:34Z</time>
      </trkpt>
      <trkpt lat="45.34354" lon="1.24372">
        <ele>340.299988</ele>
        <time>2011-05-08T08:46:35Z</time>
      </trkpt>
      <trkpt lat="45.34349" lon="1.24373">
        <ele>340.399994</ele>
        <time>2011-05-08T08:46:36Z</time>
      </trkpt>
      <trkpt lat="45.34343" lon="1.24374">
        <ele>340.200012</ele>
        <time>2011-05-08T08:46:37Z</time>
      </trkpt>
      <trkpt lat="45.34337" lon="1.24374">
        <ele>340</ele>
        <time>2011-05-08T08:46:38Z</time>
      </trkpt>
      <trkpt lat="45.34332" lon="1.24375">
        <ele>339.700012</ele>
        <time>2011-05-08T08:46:39Z</time>
      </trkpt>
      <trkpt lat="45.34326" lon="1.24375">
        <ele>339.399994</ele>
        <time>2011-05-08T08:46:40Z</time>
      </trkpt>
      <trkpt lat="45.3432" lon="1.24375">
        <ele>339.200012</ele>
        <time>2011-05-08T08:46:41Z</time>
      </trkpt>
      <trkpt lat="45.34314" lon="1.24376">
        <ele>339.700012</ele>
        <time>2011-05-08T08:46:42Z</time>
      </trkpt>
      <trkpt lat="45.34307" lon="1.24376">
        <ele>340</ele>
        <time>2011-05-08T08:46:43Z</time>
      </trkpt>
      <trkpt lat="45.34301" lon="1.24376">
        <ele>339.700012</ele>
        <time>2011-05-08T08:46:44Z</time>
      </trkpt>
      <trkpt lat="45.34295" lon="1.24376">
        <ele>339.399994</ele>
        <time>2011-05-08T08:46:45Z</time>
      </trkpt>
      <trkpt lat="45.34289" lon="1.24377">
        <ele>339.200012</ele>
        <time>2011-05-08T08:46:46Z</time>
      </trkpt>
      <trkpt lat="45.34283" lon="1.24377">
        <ele>339</ele>
        <time>2011-05-08T08:46:47Z</time>
      </trkpt>
      <trkpt lat="45.34276" lon="1.24377">
        <ele>338.899994</ele>
        <time>2011-05-08T08:46:48Z</time>
      </trkpt>
      <trkpt lat="45.3427" lon="1.24377">
        <ele>338.299988</ele>
        <time>2011-05-08T08:46:49Z</time>
      </trkpt>
      <trkpt lat="45.34263" lon="1.24377">
        <ele>337.799988</ele>
        <time>2011-05-08T08:46:50Z</time>
      </trkpt>
      <trkpt lat="45.34256" lon="1.24376">
        <ele>337.399994</ele>
        <time>2011-05-08T08:46:51Z</time>
      </trkpt>
      <trkpt lat="45.34249" lon="1.24375">
        <ele>337.100006</ele>
        <time>2011-05-08T08:46:52Z</time>
      </trkpt>
      <trkpt lat="45.34243" lon="1.24373">
        <ele>337.100006</ele>
        <time>2011-05-08T08:46:53Z</time>
      </trkpt>
      <trkpt lat="45.34237" lon="1.2437">
        <ele>337</ele>
        <time>2011-05-08T08:46:54Z</time>
      </trkpt>
      <trkpt lat="45.34231" lon="1.24367">
        <ele>337</ele>
        <time>2011-05-08T08:46:55Z</time>
      </trkpt>
      <trkpt lat="45.34225" lon="1.24362">
        <ele>336.600006</ele>
        <time>2011-05-08T08:46:56Z</time>
      </trkpt>
      <trkpt lat="45.3422" lon="1.24358">
        <ele>336.399994</ele>
        <time>2011-05-08T08:46:57Z</time>
      </trkpt>
      <trkpt lat="45.34215" lon="1.24354">
        <ele>336.200012</ele>
        <time>2011-05-08T08:46:58Z</time>
      </trkpt>
      <trkpt lat="45.34209" lon="1.24349">
        <ele>336.100006</ele>
        <time>2011-05-08T08:46:59Z</time>
      </trkpt>
      <trkpt lat="45.34205" lon="1.24345">
        <ele>336.100006</ele>
        <time>2011-05-08T08:47:00Z</time>
      </trkpt>
      <trkpt lat="45.342" lon="1.24341">
        <ele>336.100006</ele>
        <time>2011-05-08T08:47:01Z</time>
      </trkpt>
      <trkpt lat="45.34195" lon="1.24336">
        <ele>336</ele>
        <time>2011-05-08T08:47:02Z</time>
      </trkpt>
      <trkpt lat="45.34191" lon="1.24333">
        <ele>336.5</ele>
        <time>2011-05-08T08:47:03Z</time>
      </trkpt>
      <trkpt lat="45.34187" lon="1.24329">
        <ele>336.799988</ele>
        <time>2011-05-08T08:47:04Z</time>
      </trkpt>
      <trkpt lat="45.3418" lon="1.24322">
        <ele>337.200012</ele>
        <time>2011-05-08T08:47:06Z</time>
      </trkpt>
      <trkpt lat="45.34175" lon="1.24319">
        <ele>337.299988</ele>
        <time>2011-05-08T08:47:07Z</time>
      </trkpt>
      <trkpt lat="45.34171" lon="1.24315">
        <ele>337.399994</ele>
        <time>2011-05-08T08:47:08Z</time>
      </trkpt>
      <trkpt lat="45.34166" lon="1.24313">
        <ele>337.399994</ele>
        <time>2011-05-08T08:47:09Z</time>
      </trkpt>
      <trkpt lat="45.34161" lon="1.24309">
        <ele>338</ele>
        <time>2011-05-08T08:47:10Z</time>
      </trkpt>
      <trkpt lat="45.34157" lon="1.24306">
        <ele>338.5</ele>
        <time>2011-05-08T08:47:11Z</time>
      </trkpt>
      <trkpt lat="45.34153" lon="1.24302">
        <ele>338.899994</ele>
        <time>2011-05-08T08:47:12Z</time>
      </trkpt>
      <trkpt lat="45.34148" lon="1.24299">
        <ele>339.200012</ele>
        <time>2011-05-08T08:47:13Z</time>
      </trkpt>
      <trkpt lat="45.34143" lon="1.24296">
        <ele>339.399994</ele>
        <time>2011-05-08T08:47:14Z</time>
      </trkpt>
      <trkpt lat="45.34139" lon="1.24292">
        <ele>339.5</ele>
        <time>2011-05-08T08:47:15Z</time>
      </trkpt>
      <trkpt lat="45.34134" lon="1.24289">
        <ele>339.5</ele>
        <time>2011-05-08T08:47:16Z</time>
      </trkpt>
      <trkpt lat="45.34129" lon="1.24286">
        <ele>339.799988</ele>
        <time>2011-05-08T08:47:17Z</time>
      </trkpt>
      <trkpt lat="45.34124" lon="1.24282">
        <ele>340</ele>
        <time>2011-05-08T08:47:18Z</time>
      </trkpt>
      <trkpt lat="45.3412" lon="1.24279">
        <ele>340.600006</ele>
        <time>2011-05-08T08:47:19Z</time>
      </trkpt>
      <trkpt lat="45.34115" lon="1.24276">
        <ele>341</ele>
        <time>2011-05-08T08:47:20Z</time>
      </trkpt>
      <trkpt lat="45.34111" lon="1.24272">
        <ele>341.299988</ele>
        <time>2011-05-08T08:47:21Z</time>
      </trkpt>
      <trkpt lat="45.34106" lon="1.2427">
        <ele>341.200012</ele>
        <time>2011-05-08T08:47:22Z</time>
      </trkpt>
      <trkpt lat="45.34101" lon="1.24267">
        <ele>341.100006</ele>
        <time>2011-05-08T08:47:23Z</time>
      </trkpt>
      <trkpt lat="45.34097" lon="1.24267">
        <ele>341.5</ele>
        <time>2011-05-08T08:47:24Z</time>
      </trkpt>
      <trkpt lat="45.34088" lon="1.24269">
        <ele>341.899994</ele>
        <time>2011-05-08T08:47:26Z</time>
      </trkpt>
      <trkpt lat="45.34082" lon="1.24273">
        <ele>342.700012</ele>
        <time>2011-05-08T08:47:28Z</time>
      </trkpt>
      <trkpt lat="45.34074" lon="1.24279">
        <ele>342.700012</ele>
        <time>2011-05-08T08:47:31Z</time>
      </trkpt>
      <trkpt lat="45.34068" lon="1.24287">
        <ele>343.399994</ele>
        <time>2011-05-08T08:47:33Z</time>
      </trkpt>
      <trkpt lat="45.34064" lon="1.24291">
        <ele>343.700012</ele>
        <time>2011-05-08T08:47:34Z</time>
      </trkpt>
      <trkpt lat="45.34061" lon="1.24295">
        <ele>343.899994</ele>
        <time>2011-05-08T08:47:35Z</time>
      </trkpt>
      <trkpt lat="45.34056" lon="1.24299">
        <ele>343.899994</ele>
        <time>2011-05-08T08:47:36Z</time>
      </trkpt>
      <trkpt lat="45.34052" lon="1.24302">
        <ele>343.899994</ele>
        <time>2011-05-08T08:47:37Z</time>
      </trkpt>
      <trkpt lat="45.34047" lon="1.24305">
        <ele>343.700012</ele>
        <time>2011-05-08T08:47:38Z</time>
      </trkpt>
      <trkpt lat="45.34043" lon="1.24308">
        <ele>343.600006</ele>
        <time>2011-05-08T08:47:39Z</time>
      </trkpt>
      <trkpt lat="45.34038" lon="1.24311">
        <ele>343.5</ele>
        <time>2011-05-08T08:47:40Z</time>
      </trkpt>
      <trkpt lat="45.34034" lon="1.24315">
        <ele>343.399994</ele>
        <time>2011-05-08T08:47:41Z</time>
      </trkpt>
      <trkpt lat="45.34029" lon="1.24318">
        <ele>343.299988</ele>
        <time>2011-05-08T08:47:42Z</time>
      </trkpt>
      <trkpt lat="45.34025" lon="1.24323">
        <ele>344</ele>
        <time>2011-05-08T08:47:43Z</time>
      </trkpt>
      <trkpt lat="45.34021" lon="1.24328">
        <ele>344.5</ele>
        <time>2011-05-08T08:47:44Z</time>
      </trkpt>
      <trkpt lat="45.34017" lon="1.24334">
        <ele>344.399994</ele>
        <time>2011-05-08T08:47:45Z</time>
      </trkpt>
      <trkpt lat="45.34014" lon="1.2434">
        <ele>344.299988</ele>
        <time>2011-05-08T08:47:46Z</time>
      </trkpt>
      <trkpt lat="45.3401" lon="1.24346">
        <ele>344.299988</ele>
        <time>2011-05-08T08:47:47Z</time>
      </trkpt>
      <trkpt lat="45.34007" lon="1.24351">
        <ele>344.200012</ele>
        <time>2011-05-08T08:47:48Z</time>
      </trkpt>
      <trkpt lat="45.34003" lon="1.24356">
        <ele>344.100006</ele>
        <time>2011-05-08T08:47:49Z</time>
      </trkpt>
      <trkpt lat="45.33999" lon="1.2436">
        <ele>344.200012</ele>
        <time>2011-05-08T08:47:50Z</time>
      </trkpt>
      <trkpt lat="45.33995" lon="1.24364">
        <ele>344.399994</ele>
        <time>2011-05-08T08:47:51Z</time>
      </trkpt>
      <trkpt lat="45.33991" lon="1.24367">
        <ele>344.5</ele>
        <time>2011-05-08T08:47:52Z</time>
      </trkpt>
      <trkpt lat="45.33986" lon="1.24371">
        <ele>344.700012</ele>
        <time>2011-05-08T08:47:53Z</time>
      </trkpt>
      <trkpt lat="45.33983" lon="1.24377">
        <ele>344.899994</ele>
        <time>2011-05-08T08:47:54Z</time>
      </trkpt>
      <trkpt lat="45.33981" lon="1.24383">
        <ele>344.5</ele>
        <time>2011-05-08T08:47:55Z</time>
      </trkpt>
      <trkpt lat="45.33978" lon="1.2439">
        <ele>344.299988</ele>
        <time>2011-05-08T08:47:56Z</time>
      </trkpt>
      <trkpt lat="45.33977" lon="1.24397">
        <ele>344.200012</ele>
        <time>2011-05-08T08:47:57Z</time>
      </trkpt>
      <trkpt lat="45.33976" lon="1.24405">
        <ele>344.200012</ele>
        <time>2011-05-08T08:47:58Z</time>
      </trkpt>
      <trkpt lat="45.33975" lon="1.24412">
        <ele>344.100006</ele>
        <time>2011-05-08T08:47:59Z</time>
      </trkpt>
      <trkpt lat="45.33974" lon="1.2442">
        <ele>344.200012</ele>
        <time>2011-05-08T08:48:00Z</time>
      </trkpt>
      <trkpt lat="45.33972" lon="1.24428">
        <ele>344.200012</ele>
        <time>2011-05-08T08:48:01Z</time>
      </trkpt>
      <trkpt lat="45.33971" lon="1.24436">
        <ele>343.899994</ele>
        <time>2011-05-08T08:48:02Z</time>
      </trkpt>
      <trkpt lat="45.3397" lon="1.24444">
        <ele>343.700012</ele>
        <time>2011-05-08T08:48:03Z</time>
      </trkpt>
      <trkpt lat="45.33969" lon="1.24452">
        <ele>343.899994</ele>
        <time>2011-05-08T08:48:04Z</time>
      </trkpt>
      <trkpt lat="45.33968" lon="1.24459">
        <ele>344</ele>
        <time>2011-05-08T08:48:05Z</time>
      </trkpt>
      <trkpt lat="45.33967" lon="1.24467">
        <ele>344.100006</ele>
        <time>2011-05-08T08:48:06Z</time>
      </trkpt>
      <trkpt lat="45.33966" lon="1.24475">
        <ele>343.600006</ele>
        <time>2011-05-08T08:48:07Z</time>
      </trkpt>
      <trkpt lat="45.33964" lon="1.24482">
        <ele>343.299988</ele>
        <time>2011-05-08T08:48:08Z</time>
      </trkpt>
      <trkpt lat="45.33963" lon="1.2449">
        <ele>343.100006</ele>
        <time>2011-05-08T08:48:09Z</time>
      </trkpt>
      <trkpt lat="45.33961" lon="1.24497">
        <ele>342.899994</ele>
        <time>2011-05-08T08:48:10Z</time>
      </trkpt>
      <trkpt lat="45.3396" lon="1.24504">
        <ele>342.799988</ele>
        <time>2011-05-08T08:48:11Z</time>
      </trkpt>
      <trkpt lat="45.33958" lon="1.24511">
        <ele>342.799988</ele>
        <time>2011-05-08T08:48:12Z</time>
      </trkpt>
      <trkpt lat="45.33956" lon="1.24518">
        <ele>342.799988</ele>
        <time>2011-05-08T08:48:13Z</time>
      </trkpt>
      <trkpt lat="45.33954" lon="1.24525">
        <ele>342.899994</ele>
        <time>2011-05-08T08:48:14Z</time>
      </trkpt>
      <trkpt lat="45.33951" lon="1.24531">
        <ele>343</ele>
        <time>2011-05-08T08:48:15Z</time>
      </trkpt>
      <trkpt lat="45.33947" lon="1.24534">
        <ele>343.100006</ele>
        <time>2011-05-08T08:48:16Z</time>
      </trkpt>
      <trkpt lat="45.33942" lon="1.24534">
        <ele>343.200012</ele>
        <time>2011-05-08T08:48:17Z</time>
      </trkpt>
      <trkpt lat="45.33938" lon="1.24533">
        <ele>343.200012</ele>
        <time>2011-05-08T08:48:18Z</time>
      </trkpt>
      <trkpt lat="45.33929" lon="1.2453">
        <ele>343.600006</ele>
        <time>2011-05-08T08:48:20Z</time>
      </trkpt>
      <trkpt lat="45.33923" lon="1.24526">
        <ele>343.5</ele>
        <time>2011-05-08T08:48:22Z</time>
      </trkpt>
      <trkpt lat="45.33916" lon="1.24523">
        <ele>343.5</ele>
        <time>2011-05-08T08:48:24Z</time>
      </trkpt>
      <trkpt lat="45.33908" lon="1.24518">
        <ele>343.200012</ele>
        <time>2011-05-08T08:48:26Z</time>
      </trkpt>
      <trkpt lat="45.33903" lon="1.24516">
        <ele>343.100006</ele>
        <time>2011-05-08T08:48:27Z</time>
      </trkpt>
      <trkpt lat="45.33899" lon="1.24514">
        <ele>343.200012</ele>
        <time>2011-05-08T08:48:28Z</time>
      </trkpt>
      <trkpt lat="45.33894" lon="1.24513">
        <ele>343.399994</ele>
        <time>2011-05-08T08:48:29Z</time>
      </trkpt>
      <trkpt lat="45.3389" lon="1.24512">
        <ele>343.5</ele>
        <time>2011-05-08T08:48:30Z</time>
      </trkpt>
      <trkpt lat="45.33885" lon="1.24511">
        <ele>343.399994</ele>
        <time>2011-05-08T08:48:31Z</time>
      </trkpt>
      <trkpt lat="45.33877" lon="1.24506">
        <ele>343</ele>
        <time>2011-05-08T08:48:33Z</time>
      </trkpt>
      <trkpt lat="45.33877" lon="1.24495">
        <ele>342.600006</ele>
        <time>2011-05-08T08:48:35Z</time>
      </trkpt>
      <trkpt lat="45.33879" lon="1.24484">
        <ele>342.399994</ele>
        <time>2011-05-08T08:48:37Z</time>
      </trkpt>
      <trkpt lat="45.33882" lon="1.24473">
        <ele>342.200012</ele>
        <time>2011-05-08T08:48:39Z</time>
      </trkpt>
      <trkpt lat="45.33886" lon="1.24461">
        <ele>342.700012</ele>
        <time>2011-05-08T08:48:41Z</time>
      </trkpt>
      <trkpt lat="45.33888" lon="1.24449">
        <ele>342.399994</ele>
        <time>2011-05-08T08:48:43Z</time>
      </trkpt>
      <trkpt lat="45.33883" lon="1.24439">
        <ele>342.299988</ele>
        <time>2011-05-08T08:48:45Z</time>
      </trkpt>
      <trkpt lat="45.33879" lon="1.24435">
        <ele>342.5</ele>
        <time>2011-05-08T08:48:46Z</time>
      </trkpt>
      <trkpt lat="45.33875" lon="1.24432">
        <ele>341.799988</ele>
        <time>2011-05-08T08:48:47Z</time>
      </trkpt>
      <trkpt lat="45.33871" lon="1.24427">
        <ele>341.299988</ele>
        <time>2011-05-08T08:48:48Z</time>
      </trkpt>
      <trkpt lat="45.33869" lon="1.24421">
        <ele>340.899994</ele>
        <time>2011-05-08T08:48:49Z</time>
      </trkpt>
      <trkpt lat="45.33868" lon="1.24415">
        <ele>340.899994</ele>
        <time>2011-05-08T08:48:50Z</time>
      </trkpt>
      <trkpt lat="45.33864" lon="1.24403">
        <ele>340.200012</ele>
        <time>2011-05-08T08:48:52Z</time>
      </trkpt>
      <trkpt lat="45.33862" lon="1.24397">
        <ele>339.600006</ele>
        <time>2011-05-08T08:48:53Z</time>
      </trkpt>
      <trkpt lat="45.33858" lon="1.24391">
        <ele>338.700012</ele>
        <time>2011-05-08T08:48:54Z</time>
      </trkpt>
      <trkpt lat="45.33855" lon="1.24386">
        <ele>338.100006</ele>
        <time>2011-05-08T08:48:55Z</time>
      </trkpt>
      <trkpt lat="45.33852" lon="1.24379">
        <ele>337.600006</ele>
        <time>2011-05-08T08:48:56Z</time>
      </trkpt>
      <trkpt lat="45.33849" lon="1.24372">
        <ele>336.600006</ele>
        <time>2011-05-08T08:48:57Z</time>
      </trkpt>
      <trkpt lat="45.33847" lon="1.24365">
        <ele>335.899994</ele>
        <time>2011-05-08T08:48:58Z</time>
      </trkpt>
      <trkpt lat="45.33845" lon="1.24357">
        <ele>334.700012</ele>
        <time>2011-05-08T08:48:59Z</time>
      </trkpt>
      <trkpt lat="45.33844" lon="1.24349">
        <ele>333.799988</ele>
        <time>2011-05-08T08:49:00Z</time>
      </trkpt>
      <trkpt lat="45.33843" lon="1.24341">
        <ele>333.100006</ele>
        <time>2011-05-08T08:49:01Z</time>
      </trkpt>
      <trkpt lat="45.33842" lon="1.24332">
        <ele>332.700012</ele>
        <time>2011-05-08T08:49:02Z</time>
      </trkpt>
      <trkpt lat="45.3384" lon="1.24322">
        <ele>332.399994</ele>
        <time>2011-05-08T08:49:03Z</time>
      </trkpt>
      <trkpt lat="45.33838" lon="1.24312">
        <ele>331.799988</ele>
        <time>2011-05-08T08:49:04Z</time>
      </trkpt>
      <trkpt lat="45.33837" lon="1.24303">
        <ele>331.299988</ele>
        <time>2011-05-08T08:49:05Z</time>
      </trkpt>
      <trkpt lat="45.33836" lon="1.24293">
        <ele>331</ele>
        <time>2011-05-08T08:49:06Z</time>
      </trkpt>
      <trkpt lat="45.33835" lon="1.24285">
        <ele>330.700012</ele>
        <time>2011-05-08T08:49:07Z</time>
      </trkpt>
      <trkpt lat="45.33835" lon="1.24276">
        <ele>330.600006</ele>
        <time>2011-05-08T08:49:08Z</time>
      </trkpt>
      <trkpt lat="45.33835" lon="1.24268">
        <ele>330.399994</ele>
        <time>2011-05-08T08:49:09Z</time>
      </trkpt>
      <trkpt lat="45.33835" lon="1.2426">
        <ele>330.200012</ele>
        <time>2011-05-08T08:49:10Z</time>
      </trkpt>
      <trkpt lat="45.33834" lon="1.24253">
        <ele>329.200012</ele>
        <time>2011-05-08T08:49:11Z</time>
      </trkpt>
      <trkpt lat="45.33833" lon="1.24246">
        <ele>328.399994</ele>
        <time>2011-05-08T08:49:12Z</time>
      </trkpt>
      <trkpt lat="45.33833" lon="1.24238">
        <ele>327.5</ele>
        <time>2011-05-08T08:49:13Z</time>
      </trkpt>
      <trkpt lat="45.33832" lon="1.24231">
        <ele>326.899994</ele>
        <time>2011-05-08T08:49:14Z</time>
      </trkpt>
      <trkpt lat="45.33832" lon="1.24223">
        <ele>326.399994</ele>
        <time>2011-05-08T08:49:15Z</time>
      </trkpt>
      <trkpt lat="45.33832" lon="1.24216">
        <ele>326.200012</ele>
        <time>2011-05-08T08:49:16Z</time>
      </trkpt>
      <trkpt lat="45.33831" lon="1.24209">
        <ele>326</ele>
        <time>2011-05-08T08:49:17Z</time>
      </trkpt>
      <trkpt lat="45.33831" lon="1.24202">
        <ele>326.200012</ele>
        <time>2011-05-08T08:49:18Z</time>
      </trkpt>
      <trkpt lat="45.33828" lon="1.24196">
        <ele>326.299988</ele>
        <time>2011-05-08T08:49:19Z</time>
      </trkpt>
      <trkpt lat="45.33826" lon="1.24189">
        <ele>325.899994</ele>
        <time>2011-05-08T08:49:20Z</time>
      </trkpt>
      <trkpt lat="45.33824" lon="1.24183">
        <ele>325.5</ele>
        <time>2011-05-08T08:49:21Z</time>
      </trkpt>
      <trkpt lat="45.33823" lon="1.24177">
        <ele>325.200012</ele>
        <time>2011-05-08T08:49:22Z</time>
      </trkpt>
      <trkpt lat="45.33821" lon="1.24171">
        <ele>324.5</ele>
        <time>2011-05-08T08:49:23Z</time>
      </trkpt>
      <trkpt lat="45.33819" lon="1.24164">
        <ele>323.899994</ele>
        <time>2011-05-08T08:49:24Z</time>
      </trkpt>
      <trkpt lat="45.33818" lon="1.24158">
        <ele>323.100006</ele>
        <time>2011-05-08T08:49:25Z</time>
      </trkpt>
      <trkpt lat="45.33814" lon="1.24148">
        <ele>322</ele>
        <time>2011-05-08T08:49:27Z</time>
      </trkpt>
      <trkpt lat="45.3381" lon="1.24136">
        <ele>318.299988</ele>
        <time>2011-05-08T08:49:34Z</time>
      </trkpt>
      <trkpt lat="45.33807" lon="1.24125">
        <ele>317.899994</ele>
        <time>2011-05-08T08:49:52Z</time>
      </trkpt>
      <trkpt lat="45.33806" lon="1.24125">
        <ele>317.799988</ele>
        <time>2011-05-08T08:49:53Z</time>
      </trkpt>
      <trkpt lat="45.33803" lon="1.24112">
        <ele>318.399994</ele>
        <time>2011-05-08T08:51:13Z</time>
      </trkpt>
      <trkpt lat="45.33792" lon="1.24098">
        <ele>317.899994</ele>
        <time>2011-05-08T08:51:19Z</time>
      </trkpt>
      <trkpt lat="45.33786" lon="1.24092">
        <ele>317.5</ele>
        <time>2011-05-08T08:51:21Z</time>
      </trkpt>
      <trkpt lat="45.33779" lon="1.24088">
        <ele>317.5</ele>
        <time>2011-05-08T08:51:23Z</time>
      </trkpt>
      <trkpt lat="45.33771" lon="1.24084">
        <ele>316.799988</ele>
        <time>2011-05-08T08:51:26Z</time>
      </trkpt>
      <trkpt lat="45.33763" lon="1.24081">
        <ele>315.700012</ele>
        <time>2011-05-08T08:51:29Z</time>
      </trkpt>
      <trkpt lat="45.33756" lon="1.24078">
        <ele>314.5</ele>
        <time>2011-05-08T08:51:32Z</time>
      </trkpt>
      <trkpt lat="45.33751" lon="1.24075">
        <ele>313.399994</ele>
        <time>2011-05-08T08:51:34Z</time>
      </trkpt>
      <trkpt lat="45.33744" lon="1.24069">
        <ele>312.700012</ele>
        <time>2011-05-08T08:51:36Z</time>
      </trkpt>
      <trkpt lat="45.33741" lon="1.24065">
        <ele>312.399994</ele>
        <time>2011-05-08T08:51:37Z</time>
      </trkpt>
      <trkpt lat="45.33734" lon="1.24057">
        <ele>311</ele>
        <time>2011-05-08T08:51:39Z</time>
      </trkpt>
      <trkpt lat="45.33729" lon="1.2405">
        <ele>310.299988</ele>
        <time>2011-05-08T08:51:41Z</time>
      </trkpt>
      <trkpt lat="45.33723" lon="1.24045">
        <ele>309.799988</ele>
        <time>2011-05-08T08:51:43Z</time>
      </trkpt>
      <trkpt lat="45.33717" lon="1.24039">
        <ele>308.799988</ele>
        <time>2011-05-08T08:51:45Z</time>
      </trkpt>
      <trkpt lat="45.33712" lon="1.24031">
        <ele>307.600006</ele>
        <time>2011-05-08T08:51:47Z</time>
      </trkpt>
      <trkpt lat="45.3371" lon="1.24025">
        <ele>307.399994</ele>
        <time>2011-05-08T08:51:48Z</time>
      </trkpt>
      <trkpt lat="45.33705" lon="1.24016">
        <ele>306.5</ele>
        <time>2011-05-08T08:51:50Z</time>
      </trkpt>
      <trkpt lat="45.337" lon="1.24008">
        <ele>305.299988</ele>
        <time>2011-05-08T08:51:52Z</time>
      </trkpt>
      <trkpt lat="45.33695" lon="1.24001">
        <ele>304.399994</ele>
        <time>2011-05-08T08:51:54Z</time>
      </trkpt>
      <trkpt lat="45.33689" lon="1.23992">
        <ele>303.200012</ele>
        <time>2011-05-08T08:51:56Z</time>
      </trkpt>
      <trkpt lat="45.33684" lon="1.23983">
        <ele>302.600006</ele>
        <time>2011-05-08T08:51:58Z</time>
      </trkpt>
      <trkpt lat="45.33678" lon="1.23976">
        <ele>301.899994</ele>
        <time>2011-05-08T08:52:01Z</time>
      </trkpt>
      <trkpt lat="45.33673" lon="1.23969">
        <ele>300.399994</ele>
        <time>2011-05-08T08:52:04Z</time>
      </trkpt>
      <trkpt lat="45.33667" lon="1.23962">
        <ele>299.200012</ele>
        <time>2011-05-08T08:52:07Z</time>
      </trkpt>
      <trkpt lat="45.33659" lon="1.23963">
        <ele>298</ele>
        <time>2011-05-08T08:52:11Z</time>
      </trkpt>
      <trkpt lat="45.33653" lon="1.23967">
        <ele>297.899994</ele>
        <time>2011-05-08T08:52:13Z</time>
      </trkpt>
      <trkpt lat="45.3365" lon="1.2397">
        <ele>297.5</ele>
        <time>2011-05-08T08:52:14Z</time>
      </trkpt>
      <trkpt lat="45.33647" lon="1.23988">
        <ele>295.200012</ele>
        <time>2011-05-08T08:52:19Z</time>
      </trkpt>
      <trkpt lat="45.33646" lon="1.23999">
        <ele>294.200012</ele>
        <time>2011-05-08T08:52:21Z</time>
      </trkpt>
      <trkpt lat="45.33646" lon="1.24007">
        <ele>293.600006</ele>
        <time>2011-05-08T08:52:22Z</time>
      </trkpt>
      <trkpt lat="45.33645" lon="1.24014">
        <ele>292.799988</ele>
        <time>2011-05-08T08:52:23Z</time>
      </trkpt>
      <trkpt lat="45.33644" lon="1.24022">
        <ele>292.200012</ele>
        <time>2011-05-08T08:52:24Z</time>
      </trkpt>
      <trkpt lat="45.33643" lon="1.2403">
        <ele>291.5</ele>
        <time>2011-05-08T08:52:25Z</time>
      </trkpt>
      <trkpt lat="45.33643" lon="1.24038">
        <ele>291</ele>
        <time>2011-05-08T08:52:26Z</time>
      </trkpt>
      <trkpt lat="45.33644" lon="1.24048">
        <ele>289.700012</ele>
        <time>2011-05-08T08:52:28Z</time>
      </trkpt>
      <trkpt lat="45.33643" lon="1.24058">
        <ele>288.399994</ele>
        <time>2011-05-08T08:52:30Z</time>
      </trkpt>
      <trkpt lat="45.33639" lon="1.24067">
        <ele>287.399994</ele>
        <time>2011-05-08T08:52:32Z</time>
      </trkpt>
      <trkpt lat="45.33636" lon="1.24077">
        <ele>286</ele>
        <time>2011-05-08T08:52:35Z</time>
      </trkpt>
      <trkpt lat="45.33628" lon="1.2408">
        <ele>284.799988</ele>
        <time>2011-05-08T08:52:39Z</time>
      </trkpt>
      <trkpt lat="45.33624" lon="1.24072">
        <ele>284.5</ele>
        <time>2011-05-08T08:52:42Z</time>
      </trkpt>
      <trkpt lat="45.33619" lon="1.24063">
        <ele>284.100006</ele>
        <time>2011-05-08T08:52:45Z</time>
      </trkpt>
      <trkpt lat="45.33615" lon="1.24052">
        <ele>283.899994</ele>
        <time>2011-05-08T08:52:48Z</time>
      </trkpt>
      <trkpt lat="45.3361" lon="1.24042">
        <ele>284.600006</ele>
        <time>2011-05-08T08:52:51Z</time>
      </trkpt>
      <trkpt lat="45.33603" lon="1.2404">
        <ele>284.700012</ele>
        <time>2011-05-08T08:52:54Z</time>
      </trkpt>
      <trkpt lat="45.33596" lon="1.24043">
        <ele>283.700012</ele>
        <time>2011-05-08T08:52:56Z</time>
      </trkpt>
      <trkpt lat="45.33588" lon="1.24045">
        <ele>282.799988</ele>
        <time>2011-05-08T08:52:58Z</time>
      </trkpt>
      <trkpt lat="45.33581" lon="1.24051">
        <ele>280.799988</ele>
        <time>2011-05-08T08:53:00Z</time>
      </trkpt>
      <trkpt lat="45.33574" lon="1.24056">
        <ele>279.899994</ele>
        <time>2011-05-08T08:53:02Z</time>
      </trkpt>
      <trkpt lat="45.33566" lon="1.24058">
        <ele>278.5</ele>
        <time>2011-05-08T08:53:04Z</time>
      </trkpt>
      <trkpt lat="45.33562" lon="1.24058">
        <ele>278</ele>
        <time>2011-05-08T08:53:05Z</time>
      </trkpt>
      <trkpt lat="45.33557" lon="1.24059">
        <ele>277.399994</ele>
        <time>2011-05-08T08:53:06Z</time>
      </trkpt>
      <trkpt lat="45.33553" lon="1.2406">
        <ele>277</ele>
        <time>2011-05-08T08:53:07Z</time>
      </trkpt>
      <trkpt lat="45.33544" lon="1.24061">
        <ele>275.700012</ele>
        <time>2011-05-08T08:53:09Z</time>
      </trkpt>
      <trkpt lat="45.33535" lon="1.24061">
        <ele>273.899994</ele>
        <time>2011-05-08T08:53:12Z</time>
      </trkpt>
      <trkpt lat="45.33527" lon="1.24062">
        <ele>274</ele>
        <time>2011-05-08T08:53:15Z</time>
      </trkpt>
      <trkpt lat="45.33524" lon="1.24063">
        <ele>273.799988</ele>
        <time>2011-05-08T08:53:16Z</time>
      </trkpt>
      <trkpt lat="45.33511" lon="1.24065">
        <ele>273.399994</ele>
        <time>2011-05-08T08:53:20Z</time>
      </trkpt>
      <trkpt lat="45.33504" lon="1.24067">
        <ele>273.299988</ele>
        <time>2011-05-08T08:53:22Z</time>
      </trkpt>
      <trkpt lat="45.33497" lon="1.24067">
        <ele>274.299988</ele>
        <time>2011-05-08T08:53:24Z</time>
      </trkpt>
      <trkpt lat="45.33489" lon="1.24062">
        <ele>274.600006</ele>
        <time>2011-05-08T08:53:27Z</time>
      </trkpt>
      <trkpt lat="45.33487" lon="1.24054">
        <ele>275</ele>
        <time>2011-05-08T08:53:30Z</time>
      </trkpt>
      <trkpt lat="45.33484" lon="1.24044">
        <ele>275.5</ele>
        <time>2011-05-08T08:53:33Z</time>
      </trkpt>
      <trkpt lat="45.3348" lon="1.24035">
        <ele>275.600006</ele>
        <time>2011-05-08T08:53:36Z</time>
      </trkpt>
      <trkpt lat="45.33476" lon="1.24025">
        <ele>277.200012</ele>
        <time>2011-05-08T08:53:40Z</time>
      </trkpt>
      <trkpt lat="45.33474" lon="1.24015">
        <ele>278</ele>
        <time>2011-05-08T08:53:44Z</time>
      </trkpt>
      <trkpt lat="45.33473" lon="1.24005">
        <ele>278.100006</ele>
        <time>2011-05-08T08:53:47Z</time>
      </trkpt>
      <trkpt lat="45.33471" lon="1.23993">
        <ele>278.600006</ele>
        <time>2011-05-08T08:53:50Z</time>
      </trkpt>
      <trkpt lat="45.33469" lon="1.23984">
        <ele>278.399994</ele>
        <time>2011-05-08T08:53:52Z</time>
      </trkpt>
      <trkpt lat="45.33468" lon="1.23975">
        <ele>278.399994</ele>
        <time>2011-05-08T08:53:54Z</time>
      </trkpt>
      <trkpt lat="45.33467" lon="1.23963">
        <ele>278.600006</ele>
        <time>2011-05-08T08:53:57Z</time>
      </trkpt>
      <trkpt lat="45.33465" lon="1.23954">
        <ele>278.5</ele>
        <time>2011-05-08T08:53:59Z</time>
      </trkpt>
      <trkpt lat="45.33463" lon="1.23945">
        <ele>278.700012</ele>
        <time>2011-05-08T08:54:01Z</time>
      </trkpt>
      <trkpt lat="45.33462" lon="1.23934">
        <ele>278.399994</ele>
        <time>2011-05-08T08:54:04Z</time>
      </trkpt>
      <trkpt lat="45.33459" lon="1.23924">
        <ele>279.600006</ele>
        <time>2011-05-08T08:54:07Z</time>
      </trkpt>
      <trkpt lat="45.33456" lon="1.23914">
        <ele>279.799988</ele>
        <time>2011-05-08T08:54:10Z</time>
      </trkpt>
      <trkpt lat="45.33453" lon="1.23904">
        <ele>280.5</ele>
        <time>2011-05-08T08:54:13Z</time>
      </trkpt>
      <trkpt lat="45.33451" lon="1.23892">
        <ele>281.200012</ele>
        <time>2011-05-08T08:54:16Z</time>
      </trkpt>
      <trkpt lat="45.3345" lon="1.23888">
        <ele>281.5</ele>
        <time>2011-05-08T08:54:17Z</time>
      </trkpt>
      <trkpt lat="45.33447" lon="1.2387">
        <ele>281.899994</ele>
        <time>2011-05-08T08:54:22Z</time>
      </trkpt>
      <trkpt lat="45.33446" lon="1.23861">
        <ele>282.299988</ele>
        <time>2011-05-08T08:54:24Z</time>
      </trkpt>
      <trkpt lat="45.33445" lon="1.23853">
        <ele>282.399994</ele>
        <time>2011-05-08T08:54:26Z</time>
      </trkpt>
      <trkpt lat="45.33443" lon="1.23844">
        <ele>283.100006</ele>
        <time>2011-05-08T08:54:28Z</time>
      </trkpt>
      <trkpt lat="45.33443" lon="1.23834">
        <ele>282.799988</ele>
        <time>2011-05-08T08:54:30Z</time>
      </trkpt>
      <trkpt lat="45.33442" lon="1.23824">
        <ele>282.600006</ele>
        <time>2011-05-08T08:54:32Z</time>
      </trkpt>
      <trkpt lat="45.33443" lon="1.23812">
        <ele>282.5</ele>
        <time>2011-05-08T08:54:35Z</time>
      </trkpt>
      <trkpt lat="45.33442" lon="1.238">
        <ele>282.5</ele>
        <time>2011-05-08T08:54:37Z</time>
      </trkpt>
      <trkpt lat="45.33442" lon="1.23789">
        <ele>282.299988</ele>
        <time>2011-05-08T08:54:39Z</time>
      </trkpt>
      <trkpt lat="45.33442" lon="1.23776">
        <ele>282</ele>
        <time>2011-05-08T08:54:41Z</time>
      </trkpt>
      <trkpt lat="45.33442" lon="1.23769">
        <ele>281.899994</ele>
        <time>2011-05-08T08:54:42Z</time>
      </trkpt>
      <trkpt lat="45.33442" lon="1.23761">
        <ele>281.799988</ele>
        <time>2011-05-08T08:54:43Z</time>
      </trkpt>
      <trkpt lat="45.33444" lon="1.23754">
        <ele>281.700012</ele>
        <time>2011-05-08T08:54:44Z</time>
      </trkpt>
      <trkpt lat="45.33445" lon="1.23748">
        <ele>281.600006</ele>
        <time>2011-05-08T08:54:45Z</time>
      </trkpt>
      <trkpt lat="45.33445" lon="1.23741">
        <ele>280.200012</ele>
        <time>2011-05-08T08:54:46Z</time>
      </trkpt>
      <trkpt lat="45.33445" lon="1.23735">
        <ele>279.100006</ele>
        <time>2011-05-08T08:54:47Z</time>
      </trkpt>
      <trkpt lat="45.33445" lon="1.23727">
        <ele>277.899994</ele>
        <time>2011-05-08T08:54:48Z</time>
      </trkpt>
      <trkpt lat="45.33445" lon="1.2372">
        <ele>277.100006</ele>
        <time>2011-05-08T08:54:49Z</time>
      </trkpt>
      <trkpt lat="45.33446" lon="1.23713">
        <ele>276.600006</ele>
        <time>2011-05-08T08:54:50Z</time>
      </trkpt>
      <trkpt lat="45.33448" lon="1.23705">
        <ele>276.299988</ele>
        <time>2011-05-08T08:54:51Z</time>
      </trkpt>
      <trkpt lat="45.33451" lon="1.23697">
        <ele>276</ele>
        <time>2011-05-08T08:54:52Z</time>
      </trkpt>
      <trkpt lat="45.33453" lon="1.23689">
        <ele>275.700012</ele>
        <time>2011-05-08T08:54:53Z</time>
      </trkpt>
      <trkpt lat="45.33455" lon="1.23681">
        <ele>275.399994</ele>
        <time>2011-05-08T08:54:54Z</time>
      </trkpt>
      <trkpt lat="45.33456" lon="1.23672">
        <ele>275.100006</ele>
        <time>2011-05-08T08:54:55Z</time>
      </trkpt>
      <trkpt lat="45.33457" lon="1.23662">
        <ele>274.799988</ele>
        <time>2011-05-08T08:54:56Z</time>
      </trkpt>
      <trkpt lat="45.33459" lon="1.23654">
        <ele>274.600006</ele>
        <time>2011-05-08T08:54:57Z</time>
      </trkpt>
      <trkpt lat="45.3346" lon="1.23645">
        <ele>274.5</ele>
        <time>2011-05-08T08:54:58Z</time>
      </trkpt>
      <trkpt lat="45.33462" lon="1.23636">
        <ele>274.5</ele>
        <time>2011-05-08T08:54:59Z</time>
      </trkpt>
      <trkpt lat="45.33463" lon="1.23627">
        <ele>274.100006</ele>
        <time>2011-05-08T08:55:00Z</time>
      </trkpt>
      <trkpt lat="45.33464" lon="1.23618">
        <ele>273.799988</ele>
        <time>2011-05-08T08:55:01Z</time>
      </trkpt>
      <trkpt lat="45.33463" lon="1.23609">
        <ele>273.5</ele>
        <time>2011-05-08T08:55:02Z</time>
      </trkpt>
      <trkpt lat="45.33462" lon="1.23601">
        <ele>273.299988</ele>
        <time>2011-05-08T08:55:03Z</time>
      </trkpt>
      <trkpt lat="45.33461" lon="1.23593">
        <ele>273.200012</ele>
        <time>2011-05-08T08:55:04Z</time>
      </trkpt>
      <trkpt lat="45.33459" lon="1.23585">
        <ele>273.200012</ele>
        <time>2011-05-08T08:55:05Z</time>
      </trkpt>
      <trkpt lat="45.33457" lon="1.23578">
        <ele>273.200012</ele>
        <time>2011-05-08T08:55:06Z</time>
      </trkpt>
      <trkpt lat="45.33456" lon="1.2357">
        <ele>273.299988</ele>
        <time>2011-05-08T08:55:07Z</time>
      </trkpt>
      <trkpt lat="45.33456" lon="1.23562">
        <ele>273.399994</ele>
        <time>2011-05-08T08:55:08Z</time>
      </trkpt>
      <trkpt lat="45.33457" lon="1.23554">
        <ele>273</ele>
        <time>2011-05-08T08:55:09Z</time>
      </trkpt>
      <trkpt lat="45.33459" lon="1.23546">
        <ele>272.700012</ele>
        <time>2011-05-08T08:55:10Z</time>
      </trkpt>
      <trkpt lat="45.3346" lon="1.23538">
        <ele>272.5</ele>
        <time>2011-05-08T08:55:11Z</time>
      </trkpt>
      <trkpt lat="45.33461" lon="1.23529">
        <ele>272.700012</ele>
        <time>2011-05-08T08:55:12Z</time>
      </trkpt>
      <trkpt lat="45.33461" lon="1.2352">
        <ele>272.799988</ele>
        <time>2011-05-08T08:55:13Z</time>
      </trkpt>
      <trkpt lat="45.33461" lon="1.23511">
        <ele>273.100006</ele>
        <time>2011-05-08T08:55:14Z</time>
      </trkpt>
      <trkpt lat="45.3346" lon="1.23502">
        <ele>273.299988</ele>
        <time>2011-05-08T08:55:15Z</time>
      </trkpt>
      <trkpt lat="45.33459" lon="1.23493">
        <ele>272.799988</ele>
        <time>2011-05-08T08:55:16Z</time>
      </trkpt>
      <trkpt lat="45.33458" lon="1.23484">
        <ele>272.5</ele>
        <time>2011-05-08T08:55:17Z</time>
      </trkpt>
      <trkpt lat="45.33458" lon="1.23475">
        <ele>272.299988</ele>
        <time>2011-05-08T08:55:18Z</time>
      </trkpt>
      <trkpt lat="45.33458" lon="1.23465">
        <ele>272.100006</ele>
        <time>2011-05-08T08:55:19Z</time>
      </trkpt>
      <trkpt lat="45.33458" lon="1.23456">
        <ele>271.899994</ele>
        <time>2011-05-08T08:55:20Z</time>
      </trkpt>
      <trkpt lat="45.33458" lon="1.23447">
        <ele>271.899994</ele>
        <time>2011-05-08T08:55:21Z</time>
      </trkpt>
      <trkpt lat="45.33458" lon="1.23438">
        <ele>271.899994</ele>
        <time>2011-05-08T08:55:22Z</time>
      </trkpt>
      <trkpt lat="45.33457" lon="1.23429">
        <ele>272</ele>
        <time>2011-05-08T08:55:23Z</time>
      </trkpt>
      <trkpt lat="45.33455" lon="1.2342">
        <ele>271.600006</ele>
        <time>2011-05-08T08:55:24Z</time>
      </trkpt>
      <trkpt lat="45.33454" lon="1.23411">
        <ele>271.299988</ele>
        <time>2011-05-08T08:55:25Z</time>
      </trkpt>
      <trkpt lat="45.33452" lon="1.23402">
        <ele>270.799988</ele>
        <time>2011-05-08T08:55:26Z</time>
      </trkpt>
      <trkpt lat="45.33451" lon="1.23393">
        <ele>270.399994</ele>
        <time>2011-05-08T08:55:27Z</time>
      </trkpt>
      <trkpt lat="45.33449" lon="1.23383">
        <ele>270</ele>
        <time>2011-05-08T08:55:28Z</time>
      </trkpt>
      <trkpt lat="45.33448" lon="1.23374">
        <ele>269.700012</ele>
        <time>2011-05-08T08:55:29Z</time>
      </trkpt>
      <trkpt lat="45.33446" lon="1.23365">
        <ele>269.5</ele>
        <time>2011-05-08T08:55:30Z</time>
      </trkpt>
      <trkpt lat="45.33445" lon="1.23356">
        <ele>269.700012</ele>
        <time>2011-05-08T08:55:31Z</time>
      </trkpt>
      <trkpt lat="45.33444" lon="1.23347">
        <ele>269.799988</ele>
        <time>2011-05-08T08:55:32Z</time>
      </trkpt>
      <trkpt lat="45.33442" lon="1.23338">
        <ele>269.5</ele>
        <time>2011-05-08T08:55:33Z</time>
      </trkpt>
      <trkpt lat="45.3344" lon="1.23329">
        <ele>269.200012</ele>
        <time>2011-05-08T08:55:34Z</time>
      </trkpt>
      <trkpt lat="45.33439" lon="1.2332">
        <ele>269.299988</ele>
        <time>2011-05-08T08:55:35Z</time>
      </trkpt>
      <trkpt lat="45.33437" lon="1.23311">
        <ele>269.399994</ele>
        <time>2011-05-08T08:55:36Z</time>
      </trkpt>
      <trkpt lat="45.33436" lon="1.23302">
        <ele>269.5</ele>
        <time>2011-05-08T08:55:37Z</time>
      </trkpt>
      <trkpt lat="45.33434" lon="1.23294">
        <ele>269.299988</ele>
        <time>2011-05-08T08:55:38Z</time>
      </trkpt>
      <trkpt lat="45.33431" lon="1.23285">
        <ele>269.200012</ele>
        <time>2011-05-08T08:55:39Z</time>
      </trkpt>
      <trkpt lat="45.33429" lon="1.23277">
        <ele>269.100006</ele>
        <time>2011-05-08T08:55:40Z</time>
      </trkpt>
      <trkpt lat="45.33426" lon="1.23269">
        <ele>269</ele>
        <time>2011-05-08T08:55:41Z</time>
      </trkpt>
      <trkpt lat="45.33423" lon="1.23261">
        <ele>268.799988</ele>
        <time>2011-05-08T08:55:42Z</time>
      </trkpt>
      <trkpt lat="45.3342" lon="1.23253">
        <ele>268.700012</ele>
        <time>2011-05-08T08:55:43Z</time>
      </trkpt>
      <trkpt lat="45.33417" lon="1.23246">
        <ele>268.5</ele>
        <time>2011-05-08T08:55:44Z</time>
      </trkpt>
      <trkpt lat="45.33413" lon="1.23238">
        <ele>268.5</ele>
        <time>2011-05-08T08:55:45Z</time>
      </trkpt>
      <trkpt lat="45.33409" lon="1.23231">
        <ele>268.5</ele>
        <time>2011-05-08T08:55:46Z</time>
      </trkpt>
      <trkpt lat="45.33405" lon="1.23224">
        <ele>268.5</ele>
        <time>2011-05-08T08:55:47Z</time>
      </trkpt>
      <trkpt lat="45.334" lon="1.23218">
        <ele>268.5</ele>
        <time>2011-05-08T08:55:48Z</time>
      </trkpt>
      <trkpt lat="45.33396" lon="1.23211">
        <ele>268.600006</ele>
        <time>2011-05-08T08:55:49Z</time>
      </trkpt>
      <trkpt lat="45.33391" lon="1.23205">
        <ele>268.299988</ele>
        <time>2011-05-08T08:55:50Z</time>
      </trkpt>
      <trkpt lat="45.33386" lon="1.23199">
        <ele>268</ele>
        <time>2011-05-08T08:55:51Z</time>
      </trkpt>
      <trkpt lat="45.33381" lon="1.23194">
        <ele>268.299988</ele>
        <time>2011-05-08T08:55:52Z</time>
      </trkpt>
      <trkpt lat="45.33377" lon="1.23188">
        <ele>268.600006</ele>
        <time>2011-05-08T08:55:53Z</time>
      </trkpt>
      <trkpt lat="45.33372" lon="1.23183">
        <ele>268.600006</ele>
        <time>2011-05-08T08:55:54Z</time>
      </trkpt>
      <trkpt lat="45.33367" lon="1.23177">
        <ele>268.700012</ele>
        <time>2011-05-08T08:55:55Z</time>
      </trkpt>
      <trkpt lat="45.33363" lon="1.23172">
        <ele>268.700012</ele>
        <time>2011-05-08T08:55:56Z</time>
      </trkpt>
      <trkpt lat="45.33358" lon="1.23167">
        <ele>268.5</ele>
        <time>2011-05-08T08:55:57Z</time>
      </trkpt>
      <trkpt lat="45.33353" lon="1.23162">
        <ele>268.299988</ele>
        <time>2011-05-08T08:55:58Z</time>
      </trkpt>
      <trkpt lat="45.33348" lon="1.23158">
        <ele>268.700012</ele>
        <time>2011-05-08T08:55:59Z</time>
      </trkpt>
      <trkpt lat="45.33343" lon="1.23154">
        <ele>268.899994</ele>
        <time>2011-05-08T08:56:00Z</time>
      </trkpt>
      <trkpt lat="45.33337" lon="1.2315">
        <ele>269.100006</ele>
        <time>2011-05-08T08:56:01Z</time>
      </trkpt>
      <trkpt lat="45.33332" lon="1.23146">
        <ele>268.799988</ele>
        <time>2011-05-08T08:56:02Z</time>
      </trkpt>
      <trkpt lat="45.33328" lon="1.23141">
        <ele>268.5</ele>
        <time>2011-05-08T08:56:03Z</time>
      </trkpt>
      <trkpt lat="45.33323" lon="1.23138">
        <ele>268.399994</ele>
        <time>2011-05-08T08:56:04Z</time>
      </trkpt>
      <trkpt lat="45.33318" lon="1.23134">
        <ele>268.299988</ele>
        <time>2011-05-08T08:56:05Z</time>
      </trkpt>
      <trkpt lat="45.33314" lon="1.2313">
        <ele>268.600006</ele>
        <time>2011-05-08T08:56:06Z</time>
      </trkpt>
      <trkpt lat="45.33309" lon="1.23126">
        <ele>268.899994</ele>
        <time>2011-05-08T08:56:07Z</time>
      </trkpt>
      <trkpt lat="45.33304" lon="1.23123">
        <ele>269.100006</ele>
        <time>2011-05-08T08:56:08Z</time>
      </trkpt>
      <trkpt lat="45.333" lon="1.2312">
        <ele>268.799988</ele>
        <time>2011-05-08T08:56:09Z</time>
      </trkpt>
      <trkpt lat="45.33295" lon="1.23117">
        <ele>268.600006</ele>
        <time>2011-05-08T08:56:10Z</time>
      </trkpt>
      <trkpt lat="45.33291" lon="1.23114">
        <ele>268.399994</ele>
        <time>2011-05-08T08:56:11Z</time>
      </trkpt>
      <trkpt lat="45.33286" lon="1.23111">
        <ele>268.299988</ele>
        <time>2011-05-08T08:56:12Z</time>
      </trkpt>
      <trkpt lat="45.33281" lon="1.23107">
        <ele>268.100006</ele>
        <time>2011-05-08T08:56:13Z</time>
      </trkpt>
      <trkpt lat="45.33277" lon="1.23104">
        <ele>268</ele>
        <time>2011-05-08T08:56:14Z</time>
      </trkpt>
      <trkpt lat="45.33272" lon="1.23101">
        <ele>267.899994</ele>
        <time>2011-05-08T08:56:15Z</time>
      </trkpt>
      <trkpt lat="45.33267" lon="1.23098">
        <ele>268</ele>
        <time>2011-05-08T08:56:16Z</time>
      </trkpt>
      <trkpt lat="45.33262" lon="1.23095">
        <ele>268</ele>
        <time>2011-05-08T08:56:17Z</time>
      </trkpt>
      <trkpt lat="45.33257" lon="1.23092">
        <ele>268.299988</ele>
        <time>2011-05-08T08:56:18Z</time>
      </trkpt>
      <trkpt lat="45.33252" lon="1.23089">
        <ele>268.5</ele>
        <time>2011-05-08T08:56:19Z</time>
      </trkpt>
      <trkpt lat="45.33247" lon="1.23087">
        <ele>268.600006</ele>
        <time>2011-05-08T08:56:20Z</time>
      </trkpt>
      <trkpt lat="45.33242" lon="1.23084">
        <ele>268.600006</ele>
        <time>2011-05-08T08:56:21Z</time>
      </trkpt>
      <trkpt lat="45.33237" lon="1.23081">
        <ele>268.700012</ele>
        <time>2011-05-08T08:56:22Z</time>
      </trkpt>
      <trkpt lat="45.33231" lon="1.23079">
        <ele>268.899994</ele>
        <time>2011-05-08T08:56:23Z</time>
      </trkpt>
      <trkpt lat="45.33225" lon="1.23077">
        <ele>269.100006</ele>
        <time>2011-05-08T08:56:24Z</time>
      </trkpt>
      <trkpt lat="45.3322" lon="1.23074">
        <ele>269.299988</ele>
        <time>2011-05-08T08:56:25Z</time>
      </trkpt>
      <trkpt lat="45.33214" lon="1.23072">
        <ele>269.5</ele>
        <time>2011-05-08T08:56:26Z</time>
      </trkpt>
      <trkpt lat="45.33209" lon="1.23069">
        <ele>269.600006</ele>
        <time>2011-05-08T08:56:27Z</time>
      </trkpt>
      <trkpt lat="45.33203" lon="1.23065">
        <ele>268.799988</ele>
        <time>2011-05-08T08:56:28Z</time>
      </trkpt>
      <trkpt lat="45.33197" lon="1.23061">
        <ele>268.200012</ele>
        <time>2011-05-08T08:56:29Z</time>
      </trkpt>
      <trkpt lat="45.33192" lon="1.23057">
        <ele>267.899994</ele>
        <time>2011-05-08T08:56:30Z</time>
      </trkpt>
      <trkpt lat="45.33186" lon="1.23052">
        <ele>267.799988</ele>
        <time>2011-05-08T08:56:31Z</time>
      </trkpt>
      <trkpt lat="45.33182" lon="1.23045">
        <ele>267.899994</ele>
        <time>2011-05-08T08:56:32Z</time>
      </trkpt>
      <trkpt lat="45.33179" lon="1.23039">
        <ele>268</ele>
        <time>2011-05-08T08:56:33Z</time>
      </trkpt>
      <trkpt lat="45.33176" lon="1.23032">
        <ele>268.100006</ele>
        <time>2011-05-08T08:56:34Z</time>
      </trkpt>
      <trkpt lat="45.33172" lon="1.23026">
        <ele>267.5</ele>
        <time>2011-05-08T08:56:35Z</time>
      </trkpt>
      <trkpt lat="45.33168" lon="1.23021">
        <ele>267</ele>
        <time>2011-05-08T08:56:36Z</time>
      </trkpt>
      <trkpt lat="45.33159" lon="1.23022">
        <ele>267.100006</ele>
        <time>2011-05-08T08:56:38Z</time>
      </trkpt>
      <trkpt lat="45.33153" lon="1.23028">
        <ele>267.600006</ele>
        <time>2011-05-08T08:56:42Z</time>
      </trkpt>
      <trkpt lat="45.33146" lon="1.23034">
        <ele>270.5</ele>
        <time>2011-05-08T08:56:49Z</time>
      </trkpt>
      <trkpt lat="45.33138" lon="1.23039">
        <ele>272.700012</ele>
        <time>2011-05-08T08:56:56Z</time>
      </trkpt>
      <trkpt lat="45.3313" lon="1.23033">
        <ele>273.899994</ele>
        <time>2011-05-08T08:57:04Z</time>
      </trkpt>
      <trkpt lat="45.33123" lon="1.23026">
        <ele>276.700012</ele>
        <time>2011-05-08T08:57:12Z</time>
      </trkpt>
      <trkpt lat="45.33116" lon="1.2302">
        <ele>278.200012</ele>
        <time>2011-05-08T08:57:20Z</time>
      </trkpt>
      <trkpt lat="45.33114" lon="1.2302">
        <ele>278.5</ele>
        <time>2011-05-08T08:57:21Z</time>
      </trkpt>
      <trkpt lat="45.33098" lon="1.2302">
        <ele>280.799988</ele>
        <time>2011-05-08T08:57:35Z</time>
      </trkpt>
      <trkpt lat="45.33091" lon="1.23018">
        <ele>282.299988</ele>
        <time>2011-05-08T08:57:42Z</time>
      </trkpt>
      <trkpt lat="45.33083" lon="1.23015">
        <ele>283.100006</ele>
        <time>2011-05-08T08:57:48Z</time>
      </trkpt>
      <trkpt lat="45.33075" lon="1.2301">
        <ele>283.5</ele>
        <time>2011-05-08T08:57:54Z</time>
      </trkpt>
      <trkpt lat="45.33067" lon="1.23005">
        <ele>284.299988</ele>
        <time>2011-05-08T08:58:00Z</time>
      </trkpt>
      <trkpt lat="45.33059" lon="1.23002">
        <ele>285.799988</ele>
        <time>2011-05-08T08:58:05Z</time>
      </trkpt>
      <trkpt lat="45.33052" lon="1.22998">
        <ele>287.100006</ele>
        <time>2011-05-08T08:58:10Z</time>
      </trkpt>
      <trkpt lat="45.33044" lon="1.22995">
        <ele>288.5</ele>
        <time>2011-05-08T08:58:15Z</time>
      </trkpt>
      <trkpt lat="45.33036" lon="1.22989">
        <ele>288.600006</ele>
        <time>2011-05-08T08:58:21Z</time>
      </trkpt>
      <trkpt lat="45.33035" lon="1.22988">
        <ele>288.600006</ele>
        <time>2011-05-08T08:58:22Z</time>
      </trkpt>
      <trkpt lat="45.33022" lon="1.22979">
        <ele>289.899994</ele>
        <time>2011-05-08T08:58:31Z</time>
      </trkpt>
      <trkpt lat="45.33014" lon="1.2298">
        <ele>290.5</ele>
        <time>2011-05-08T08:58:36Z</time>
      </trkpt>
      <trkpt lat="45.33005" lon="1.22983">
        <ele>292.799988</ele>
        <time>2011-05-08T08:58:44Z</time>
      </trkpt>
      <trkpt lat="45.32997" lon="1.22987">
        <ele>294.100006</ele>
        <time>2011-05-08T08:58:51Z</time>
      </trkpt>
      <trkpt lat="45.32989" lon="1.22991">
        <ele>295</ele>
        <time>2011-05-08T08:58:56Z</time>
      </trkpt>
      <trkpt lat="45.32983" lon="1.22995">
        <ele>295.799988</ele>
        <time>2011-05-08T08:59:00Z</time>
      </trkpt>
      <trkpt lat="45.32975" lon="1.22998">
        <ele>297.200012</ele>
        <time>2011-05-08T08:59:06Z</time>
      </trkpt>
      <trkpt lat="45.32967" lon="1.23003">
        <ele>298.399994</ele>
        <time>2011-05-08T08:59:13Z</time>
      </trkpt>
      <trkpt lat="45.3296" lon="1.23007">
        <ele>300.200012</ele>
        <time>2011-05-08T08:59:18Z</time>
      </trkpt>
      <trkpt lat="45.32952" lon="1.23012">
        <ele>301</ele>
        <time>2011-05-08T08:59:23Z</time>
      </trkpt>
      <trkpt lat="45.32951" lon="1.23013">
        <ele>301.299988</ele>
        <time>2011-05-08T08:59:24Z</time>
      </trkpt>
      <trkpt lat="45.32938" lon="1.23022">
        <ele>302.299988</ele>
        <time>2011-05-08T08:59:33Z</time>
      </trkpt>
      <trkpt lat="45.3293" lon="1.23028">
        <ele>303</ele>
        <time>2011-05-08T08:59:38Z</time>
      </trkpt>
      <trkpt lat="45.32922" lon="1.23032">
        <ele>304.700012</ele>
        <time>2011-05-08T08:59:43Z</time>
      </trkpt>
      <trkpt lat="45.32915" lon="1.23037">
        <ele>305</ele>
        <time>2011-05-08T08:59:48Z</time>
      </trkpt>
      <trkpt lat="45.32907" lon="1.23042">
        <ele>306.100006</ele>
        <time>2011-05-08T08:59:55Z</time>
      </trkpt>
      <trkpt lat="45.329" lon="1.23046">
        <ele>307.5</ele>
        <time>2011-05-08T09:00:01Z</time>
      </trkpt>
      <trkpt lat="45.32892" lon="1.2305">
        <ele>309.100006</ele>
        <time>2011-05-08T09:00:06Z</time>
      </trkpt>
      <trkpt lat="45.32886" lon="1.23054">
        <ele>309.899994</ele>
        <time>2011-05-08T09:00:10Z</time>
      </trkpt>
      <trkpt lat="45.32878" lon="1.23058">
        <ele>310.299988</ele>
        <time>2011-05-08T09:00:15Z</time>
      </trkpt>
      <trkpt lat="45.32871" lon="1.23062">
        <ele>311</ele>
        <time>2011-05-08T09:00:20Z</time>
      </trkpt>
      <trkpt lat="45.32862" lon="1.23067">
        <ele>312.799988</ele>
        <time>2011-05-08T09:00:25Z</time>
      </trkpt>
      <trkpt lat="45.32861" lon="1.23068">
        <ele>313</ele>
        <time>2011-05-08T09:00:26Z</time>
      </trkpt>
      <trkpt lat="45.32849" lon="1.23076">
        <ele>314.299988</ele>
        <time>2011-05-08T09:00:33Z</time>
      </trkpt>
      <trkpt lat="45.32842" lon="1.23081">
        <ele>315.600006</ele>
        <time>2011-05-08T09:00:37Z</time>
      </trkpt>
      <trkpt lat="45.32834" lon="1.23086">
        <ele>316.899994</ele>
        <time>2011-05-08T09:00:42Z</time>
      </trkpt>
      <trkpt lat="45.32826" lon="1.23091">
        <ele>317.5</ele>
        <time>2011-05-08T09:00:47Z</time>
      </trkpt>
      <trkpt lat="45.32819" lon="1.23096">
        <ele>319.200012</ele>
        <time>2011-05-08T09:00:52Z</time>
      </trkpt>
      <trkpt lat="45.32812" lon="1.231">
        <ele>320.600006</ele>
        <time>2011-05-08T09:00:57Z</time>
      </trkpt>
      <trkpt lat="45.32805" lon="1.23105">
        <ele>320.899994</ele>
        <time>2011-05-08T09:01:02Z</time>
      </trkpt>
      <trkpt lat="45.32797" lon="1.23109">
        <ele>322.799988</ele>
        <time>2011-05-08T09:01:07Z</time>
      </trkpt>
      <trkpt lat="45.3279" lon="1.23114">
        <ele>323.200012</ele>
        <time>2011-05-08T09:01:12Z</time>
      </trkpt>
      <trkpt lat="45.32784" lon="1.23118">
        <ele>323.700012</ele>
        <time>2011-05-08T09:01:16Z</time>
      </trkpt>
      <trkpt lat="45.32777" lon="1.23123">
        <ele>324.899994</ele>
        <time>2011-05-08T09:01:20Z</time>
      </trkpt>
      <trkpt lat="45.3277" lon="1.23127">
        <ele>325.100006</ele>
        <time>2011-05-08T09:01:24Z</time>
      </trkpt>
      <trkpt lat="45.32763" lon="1.23131">
        <ele>325.5</ele>
        <time>2011-05-08T09:01:28Z</time>
      </trkpt>
      <trkpt lat="45.32761" lon="1.23132">
        <ele>325.5</ele>
        <time>2011-05-08T09:01:29Z</time>
      </trkpt>
      <trkpt lat="45.32749" lon="1.23139">
        <ele>326.799988</ele>
        <time>2011-05-08T09:01:36Z</time>
      </trkpt>
      <trkpt lat="45.32742" lon="1.23144">
        <ele>326.5</ele>
        <time>2011-05-08T09:01:40Z</time>
      </trkpt>
      <trkpt lat="45.32734" lon="1.23149">
        <ele>327.600006</ele>
        <time>2011-05-08T09:01:44Z</time>
      </trkpt>
      <trkpt lat="45.32727" lon="1.23153">
        <ele>327.700012</ele>
        <time>2011-05-08T09:01:47Z</time>
      </trkpt>
      <trkpt lat="45.3272" lon="1.23157">
        <ele>328.799988</ele>
        <time>2011-05-08T09:01:50Z</time>
      </trkpt>
      <trkpt lat="45.32714" lon="1.23161">
        <ele>329.5</ele>
        <time>2011-05-08T09:01:53Z</time>
      </trkpt>
      <trkpt lat="45.32707" lon="1.23165">
        <ele>329.299988</ele>
        <time>2011-05-08T09:01:56Z</time>
      </trkpt>
      <trkpt lat="45.327" lon="1.23169">
        <ele>328.899994</ele>
        <time>2011-05-08T09:01:59Z</time>
      </trkpt>
      <trkpt lat="45.32694" lon="1.23173">
        <ele>329.100006</ele>
        <time>2011-05-08T09:02:02Z</time>
      </trkpt>
      <trkpt lat="45.32687" lon="1.23178">
        <ele>329.200012</ele>
        <time>2011-05-08T09:02:05Z</time>
      </trkpt>
      <trkpt lat="45.3268" lon="1.23182">
        <ele>330.399994</ele>
        <time>2011-05-08T09:02:08Z</time>
      </trkpt>
      <trkpt lat="45.32674" lon="1.23186">
        <ele>330.899994</ele>
        <time>2011-05-08T09:02:11Z</time>
      </trkpt>
      <trkpt lat="45.32668" lon="1.2319">
        <ele>330.600006</ele>
        <time>2011-05-08T09:02:14Z</time>
      </trkpt>
      <trkpt lat="45.32661" lon="1.23195">
        <ele>331.399994</ele>
        <time>2011-05-08T09:02:17Z</time>
      </trkpt>
      <trkpt lat="45.32654" lon="1.23201">
        <ele>332.299988</ele>
        <time>2011-05-08T09:02:21Z</time>
      </trkpt>
      <trkpt lat="45.32647" lon="1.23204">
        <ele>332.200012</ele>
        <time>2011-05-08T09:02:24Z</time>
      </trkpt>
      <trkpt lat="45.32641" lon="1.23208">
        <ele>332.399994</ele>
        <time>2011-05-08T09:02:27Z</time>
      </trkpt>
      <trkpt lat="45.32634" lon="1.23212">
        <ele>333.200012</ele>
        <time>2011-05-08T09:02:30Z</time>
      </trkpt>
      <trkpt lat="45.32632" lon="1.23213">
        <ele>333.399994</ele>
        <time>2011-05-08T09:02:31Z</time>
      </trkpt>
      <trkpt lat="45.32622" lon="1.2322">
        <ele>333.899994</ele>
        <time>2011-05-08T09:02:36Z</time>
      </trkpt>
      <trkpt lat="45.32615" lon="1.23225">
        <ele>334.299988</ele>
        <time>2011-05-08T09:02:39Z</time>
      </trkpt>
      <trkpt lat="45.32608" lon="1.23229">
        <ele>334.600006</ele>
        <time>2011-05-08T09:02:42Z</time>
      </trkpt>
      <trkpt lat="45.32601" lon="1.23234">
        <ele>334.899994</ele>
        <time>2011-05-08T09:02:45Z</time>
      </trkpt>
      <trkpt lat="45.32594" lon="1.23238">
        <ele>335.299988</ele>
        <time>2011-05-08T09:02:48Z</time>
      </trkpt>
      <trkpt lat="45.32587" lon="1.23243">
        <ele>335.799988</ele>
        <time>2011-05-08T09:02:51Z</time>
      </trkpt>
      <trkpt lat="45.32578" lon="1.23247">
        <ele>336.700012</ele>
        <time>2011-05-08T09:02:54Z</time>
      </trkpt>
      <trkpt lat="45.3257" lon="1.23251">
        <ele>336.899994</ele>
        <time>2011-05-08T09:02:57Z</time>
      </trkpt>
      <trkpt lat="45.32564" lon="1.23255">
        <ele>337.200012</ele>
        <time>2011-05-08T09:02:59Z</time>
      </trkpt>
      <trkpt lat="45.32558" lon="1.23258">
        <ele>337.5</ele>
        <time>2011-05-08T09:03:01Z</time>
      </trkpt>
      <trkpt lat="45.32552" lon="1.23262">
        <ele>337.600006</ele>
        <time>2011-05-08T09:03:03Z</time>
      </trkpt>
      <trkpt lat="45.32546" lon="1.23266">
        <ele>337.899994</ele>
        <time>2011-05-08T09:03:05Z</time>
      </trkpt>
      <trkpt lat="45.32539" lon="1.2327">
        <ele>338.200012</ele>
        <time>2011-05-08T09:03:07Z</time>
      </trkpt>
      <trkpt lat="45.32533" lon="1.23274">
        <ele>338.100006</ele>
        <time>2011-05-08T09:03:09Z</time>
      </trkpt>
      <trkpt lat="45.32526" lon="1.23278">
        <ele>338</ele>
        <time>2011-05-08T09:03:11Z</time>
      </trkpt>
      <trkpt lat="45.32519" lon="1.23282">
        <ele>337.899994</ele>
        <time>2011-05-08T09:03:13Z</time>
      </trkpt>
      <trkpt lat="45.32513" lon="1.23286">
        <ele>337.799988</ele>
        <time>2011-05-08T09:03:15Z</time>
      </trkpt>
      <trkpt lat="45.32506" lon="1.2329">
        <ele>337.600006</ele>
        <time>2011-05-08T09:03:17Z</time>
      </trkpt>
      <trkpt lat="45.32498" lon="1.23295">
        <ele>337.299988</ele>
        <time>2011-05-08T09:03:19Z</time>
      </trkpt>
      <trkpt lat="45.32494" lon="1.23297">
        <ele>337.100006</ele>
        <time>2011-05-08T09:03:20Z</time>
      </trkpt>
      <trkpt lat="45.32489" lon="1.23301">
        <ele>337</ele>
        <time>2011-05-08T09:03:21Z</time>
      </trkpt>
      <trkpt lat="45.32483" lon="1.23303">
        <ele>337</ele>
        <time>2011-05-08T09:03:22Z</time>
      </trkpt>
      <trkpt lat="45.32478" lon="1.23306">
        <ele>336.700012</ele>
        <time>2011-05-08T09:03:23Z</time>
      </trkpt>
      <trkpt lat="45.32472" lon="1.2331">
        <ele>336.5</ele>
        <time>2011-05-08T09:03:24Z</time>
      </trkpt>
      <trkpt lat="45.32467" lon="1.23313">
        <ele>335.899994</ele>
        <time>2011-05-08T09:03:25Z</time>
      </trkpt>
      <trkpt lat="45.32462" lon="1.23316">
        <ele>335.399994</ele>
        <time>2011-05-08T09:03:26Z</time>
      </trkpt>
      <trkpt lat="45.32456" lon="1.23319">
        <ele>335.100006</ele>
        <time>2011-05-08T09:03:27Z</time>
      </trkpt>
      <trkpt lat="45.32451" lon="1.23321">
        <ele>335</ele>
        <time>2011-05-08T09:03:28Z</time>
      </trkpt>
      <trkpt lat="45.32446" lon="1.23323">
        <ele>335</ele>
        <time>2011-05-08T09:03:29Z</time>
      </trkpt>
      <trkpt lat="45.32441" lon="1.23326">
        <ele>334.700012</ele>
        <time>2011-05-08T09:03:30Z</time>
      </trkpt>
      <trkpt lat="45.32436" lon="1.23328">
        <ele>334.399994</ele>
        <time>2011-05-08T09:03:31Z</time>
      </trkpt>
      <trkpt lat="45.32432" lon="1.23331">
        <ele>334</ele>
        <time>2011-05-08T09:03:32Z</time>
      </trkpt>
      <trkpt lat="45.32427" lon="1.23334">
        <ele>333.700012</ele>
        <time>2011-05-08T09:03:33Z</time>
      </trkpt>
      <trkpt lat="45.32423" lon="1.23337">
        <ele>333.5</ele>
        <time>2011-05-08T09:03:34Z</time>
      </trkpt>
      <trkpt lat="45.32415" lon="1.23342">
        <ele>333.200012</ele>
        <time>2011-05-08T09:03:36Z</time>
      </trkpt>
      <trkpt lat="45.32408" lon="1.23346">
        <ele>333.700012</ele>
        <time>2011-05-08T09:03:38Z</time>
      </trkpt>
      <trkpt lat="45.32401" lon="1.2335">
        <ele>334.5</ele>
        <time>2011-05-08T09:03:40Z</time>
      </trkpt>
      <trkpt lat="45.32395" lon="1.23354">
        <ele>335</ele>
        <time>2011-05-08T09:03:42Z</time>
      </trkpt>
      <trkpt lat="45.32389" lon="1.23359">
        <ele>335.700012</ele>
        <time>2011-05-08T09:03:44Z</time>
      </trkpt>
      <trkpt lat="45.32384" lon="1.23362">
        <ele>336.100006</ele>
        <time>2011-05-08T09:03:46Z</time>
      </trkpt>
      <trkpt lat="45.32378" lon="1.23366">
        <ele>336.299988</ele>
        <time>2011-05-08T09:03:48Z</time>
      </trkpt>
      <trkpt lat="45.32372" lon="1.23368">
        <ele>337</ele>
        <time>2011-05-08T09:03:50Z</time>
      </trkpt>
      <trkpt lat="45.32364" lon="1.23373">
        <ele>336.899994</ele>
        <time>2011-05-08T09:03:53Z</time>
      </trkpt>
      <trkpt lat="45.32358" lon="1.23377">
        <ele>337.700012</ele>
        <time>2011-05-08T09:03:56Z</time>
      </trkpt>
      <trkpt lat="45.32349" lon="1.23382">
        <ele>339</ele>
        <time>2011-05-08T09:04:00Z</time>
      </trkpt>
      <trkpt lat="45.32342" lon="1.23387">
        <ele>340.399994</ele>
        <time>2011-05-08T09:04:04Z</time>
      </trkpt>
      <trkpt lat="45.32335" lon="1.23391">
        <ele>341.100006</ele>
        <time>2011-05-08T09:04:08Z</time>
      </trkpt>
      <trkpt lat="45.32328" lon="1.23395">
        <ele>342.100006</ele>
        <time>2011-05-08T09:04:12Z</time>
      </trkpt>
      <trkpt lat="45.3232" lon="1.23399">
        <ele>344</ele>
        <time>2011-05-08T09:04:17Z</time>
      </trkpt>
      <trkpt lat="45.32313" lon="1.23404">
        <ele>344.799988</ele>
        <time>2011-05-08T09:04:21Z</time>
      </trkpt>
      <trkpt lat="45.32305" lon="1.23408">
        <ele>347.600006</ele>
        <time>2011-05-08T09:04:26Z</time>
      </trkpt>
      <trkpt lat="45.32297" lon="1.23412">
        <ele>347.600006</ele>
        <time>2011-05-08T09:04:32Z</time>
      </trkpt>
      <trkpt lat="45.32296" lon="1.23413">
        <ele>347.700012</ele>
        <time>2011-05-08T09:04:33Z</time>
      </trkpt>
      <trkpt lat="45.32282" lon="1.23422">
        <ele>350.299988</ele>
        <time>2011-05-08T09:04:41Z</time>
      </trkpt>
      <trkpt lat="45.32275" lon="1.23427">
        <ele>351.200012</ele>
        <time>2011-05-08T09:04:45Z</time>
      </trkpt>
      <trkpt lat="45.32268" lon="1.23432">
        <ele>351.299988</ele>
        <time>2011-05-08T09:04:48Z</time>
      </trkpt>
      <trkpt lat="45.32261" lon="1.23436">
        <ele>351.200012</ele>
        <time>2011-05-08T09:04:51Z</time>
      </trkpt>
      <trkpt lat="45.32254" lon="1.23441">
        <ele>351.399994</ele>
        <time>2011-05-08T09:04:54Z</time>
      </trkpt>
      <trkpt lat="45.32246" lon="1.23447">
        <ele>352.200012</ele>
        <time>2011-05-08T09:04:57Z</time>
      </trkpt>
      <trkpt lat="45.3224" lon="1.23452">
        <ele>352.700012</ele>
        <time>2011-05-08T09:05:00Z</time>
      </trkpt>
      <trkpt lat="45.32233" lon="1.23456">
        <ele>352.5</ele>
        <time>2011-05-08T09:05:03Z</time>
      </trkpt>
      <trkpt lat="45.32225" lon="1.23462">
        <ele>352.600006</ele>
        <time>2011-05-08T09:05:06Z</time>
      </trkpt>
      <trkpt lat="45.32219" lon="1.23466">
        <ele>353.299988</ele>
        <time>2011-05-08T09:05:09Z</time>
      </trkpt>
      <trkpt lat="45.32212" lon="1.2347">
        <ele>354.100006</ele>
        <time>2011-05-08T09:05:12Z</time>
      </trkpt>
      <trkpt lat="45.32204" lon="1.23475">
        <ele>353.799988</ele>
        <time>2011-05-08T09:05:16Z</time>
      </trkpt>
      <trkpt lat="45.32196" lon="1.23481">
        <ele>354.100006</ele>
        <time>2011-05-08T09:05:30Z</time>
      </trkpt>
      <trkpt lat="45.32189" lon="1.23484">
        <ele>354.700012</ele>
        <time>2011-05-08T09:05:35Z</time>
      </trkpt>
      <trkpt lat="45.32182" lon="1.23491">
        <ele>352.8125</ele>
      </trkpt>
      <trkpt lat="45.3217" lon="1.23422">
        <ele>353.04296875</ele>
      </trkpt>
      <trkpt lat="45.32173" lon="1.23352">
        <ele>353.8125</ele>
      </trkpt>
      <trkpt lat="45.32175" lon="1.23346">
        <ele>353.8515625</ele>
      </trkpt>
      <trkpt lat="45.32206" lon="1.23181">
        <ele>349.56640625</ele>
      </trkpt>
      <trkpt lat="45.32152" lon="1.22959">
        <ele>339.2578125</ele>
      </trkpt>
      <trkpt lat="45.3213" lon="1.22914">
        <ele>336.6171875</ele>
      </trkpt>
      <trkpt lat="45.32109" lon="1.22881">
        <ele>333.98828125</ele>
      </trkpt>
      <trkpt lat="45.32108" lon="1.22844">
        <ele>332.35546875</ele>
      </trkpt>
      <trkpt lat="45.32129" lon="1.22807">
        <ele>331.62109375</ele>
      </trkpt>
      <trkpt lat="45.32156" lon="1.22793">
        <ele>330.69921875</ele>
      </trkpt>
      <trkpt lat="45.32178" lon="1.22811">
        <ele>331.78515625</ele>
      </trkpt>
      <trkpt lat="45.32195" lon="1.22818">
        <ele>331.52734375</ele>
      </trkpt>
      <trkpt lat="45.32195" lon="1.22714">
        <ele>324.99609375</ele>
      </trkpt>
      <trkpt lat="45.322" lon="1.22678">
        <ele>321.69921875</ele>
      </trkpt>
      <trkpt lat="45.32196" lon="1.22675">
        <ele>321.4453125</ele>
      </trkpt>
      <trkpt lat="45.32136" lon="1.22686">
        <ele>322.09375</ele>
      </trkpt>
      <trkpt lat="45.32121" lon="1.22719">
        <ele>324.796875</ele>
      </trkpt>
      <trkpt lat="45.32104" lon="1.22733">
        <ele>324.61328125</ele>
      </trkpt>
      <trkpt lat="45.32099" lon="1.22728">
        <ele>323.68359375</ele>
      </trkpt>
      <trkpt lat="45.32109" lon="1.22705">
        <ele>322.24609375</ele>
      </trkpt>
      <trkpt lat="45.32099" lon="1.22697">
        <ele>320.09375</ele>
      </trkpt>
      <trkpt lat="45.32097" lon="1.22691">
        <ele>319.0625</ele>
      </trkpt>
      <trkpt lat="45.32104" lon="1.22678">
        <ele>318.16796875</ele>
      </trkpt>
      <trkpt lat="45.32105" lon="1.22647">
        <ele>314.109375</ele>
      </trkpt>
      <trkpt lat="45.32099" lon="1.22645">
        <ele>313.0234375</ele>
      </trkpt>
      <trkpt lat="45.32163" lon="1.2257">
        <ele>309.23828125</ele>
      </trkpt>
      <trkpt lat="45.32191" lon="1.22558">
        <ele>309.59375</ele>
      </trkpt>
      <trkpt lat="45.32246" lon="1.22564">
        <ele>312.390625</ele>
      </trkpt>
      <trkpt lat="45.32265" lon="1.22547">
        <ele>312.47265625</ele>
      </trkpt>
      <trkpt lat="45.32286" lon="1.22489">
        <ele>311.59765625</ele>
      </trkpt>
      <trkpt lat="45.32247" lon="1.22474">
        <ele>307.49609375</ele>
      </trkpt>
      <trkpt lat="45.32253" lon="1.22452">
        <ele>307.40625</ele>
      </trkpt>
      <trkpt lat="45.32272" lon="1.22434">
        <ele>308.8203125</ele>
      </trkpt>
      <trkpt lat="45.32271" lon="1.22425">
        <ele>308.4453125</ele>
      </trkpt>
      <trkpt lat="45.3225" lon="1.22415">
        <ele>305.92578125</ele>
      </trkpt>
      <trkpt lat="45.32303" lon="1.2228">
        <ele>312.11328125</ele>
      </trkpt>
      <trkpt lat="45.32287" lon="1.22259">
        <ele>309.94140625</ele>
      </trkpt>
      <trkpt lat="45.32278" lon="1.22273">
        <ele>308.7109375</ele>
      </trkpt>
      <trkpt lat="45.32257" lon="1.22236">
        <ele>305.265625</ele>
      </trkpt>
      <trkpt lat="45.32256" lon="1.22243">
        <ele>305.19921875</ele>
      </trkpt>
      <trkpt lat="45.32254" lon="1.2228">
        <ele>305.28125</ele>
      </trkpt>
      <trkpt lat="45.32242" lon="1.2228">
        <ele>303.46875</ele>
      </trkpt>
      <trkpt lat="45.32192" lon="1.22388">
        <ele>297.29296875</ele>
      </trkpt>
      <trkpt lat="45.32193" lon="1.22412">
        <ele>298.63671875</ele>
      </trkpt>
      <trkpt lat="45.32105" lon="1.22447">
        <ele>290.0703125</ele>
      </trkpt>
      <trkpt lat="45.32027" lon="1.22532">
        <ele>289.78515625</ele>
      </trkpt>
      <trkpt lat="45.31989" lon="1.22498">
        <ele>281.1796875</ele>
      </trkpt>
      <trkpt lat="45.31986" lon="1.22486">
        <ele>279.6171875</ele>
      </trkpt>
      <trkpt lat="45.31964" lon="1.22481">
        <ele>276.38671875</ele>
      </trkpt>
      <trkpt lat="45.3191" lon="1.22429">
        <ele>265.6875</ele>
      </trkpt>
      <trkpt lat="45.31891" lon="1.22379">
        <ele>262.08984375</ele>
      </trkpt>
      <trkpt lat="45.31772" lon="1.22478">
        <ele>253.46875</ele>
      </trkpt>
      <trkpt lat="45.3177" lon="1.22492">
        <ele>252.921875</ele>
      </trkpt>
      <trkpt lat="45.31774" lon="1.22541">
        <ele>253.3828125</ele>
      </trkpt>
      <trkpt lat="45.31765" lon="1.22594">
        <ele>252.45703125</ele>
      </trkpt>
      <trkpt lat="45.31751" lon="1.22625">
        <ele>252.67578125</ele>
      </trkpt>
      <trkpt lat="45.3171" lon="1.22665">
        <ele>251.93359375</ele>
      </trkpt>
      <trkpt lat="45.31693" lon="1.22728">
        <ele>255.5546875</ele>
      </trkpt>
      <trkpt lat="45.31641" lon="1.22722">
        <ele>248.66796875</ele>
      </trkpt>
      <trkpt lat="45.31627" lon="1.22846">
        <ele>252.6484375</ele>
      </trkpt>
      <trkpt lat="45.31604" lon="1.22839">
        <ele>249.07421875</ele>
      </trkpt>
    </trkseg>
  </trk>
</gpx>